<?xml version='1.0' encoding='UTF-8'?><gpx version="1.1" creator="JPX - https://github.com/jenetics/jpx" xmlns="http://www.topografix.com/GPX/1/1"><trk><trkseg><trkpt lat="44.62408794945962" lon="8.664276836320797"><ele>272.0</ele><time>2026-04-17T07:41:16Z</time></trkpt><trkpt lat="44.62409109873384" lon="8.66416560927855"><ele>272.0</ele><time>2026-04-17T07:41:17Z</time></trkpt><trkpt lat="44.624090161484524" lon="8.664026918116452"><ele>272.0</ele><time>2026-04-17T07:41:18Z</time></trkpt><trkpt lat="44.6241279959111" lon="8.66389886572538"><ele>272.0</ele><time>2026-04-17T07:41:19Z</time></trkpt><trkpt lat="44.62414111718329" lon="8.663739471329293"><ele>272.0</ele><time>2026-04-17T07:41:20Z</time></trkpt><trkpt lat="44.624161310073006" lon="8.663574886600017"><ele>272.6</ele><time>2026-04-17T07:41:21Z</time></trkpt><trkpt lat="44.624202547116624" lon="8.66343197926302"><ele>273.2</ele><time>2026-04-17T07:41:22Z</time></trkpt><trkpt lat="44.624235109254585" lon="8.663295783961267"><ele>273.8</ele><time>2026-04-17T07:41:23Z</time></trkpt><trkpt lat="44.624265789884824" lon="8.663174357137354"><ele>274.4</ele><time>2026-04-17T07:41:24Z</time></trkpt><trkpt lat="44.624297453764896" lon="8.663075371430994"><ele>275.0</ele><time>2026-04-17T07:41:25Z</time></trkpt><trkpt lat="44.62434610714431" lon="8.66296604075395"><ele>275.0</ele><time>2026-04-17T07:41:26Z</time></trkpt><trkpt lat="44.624408570952674" lon="8.662828418456552"><ele>275.0</ele><time>2026-04-17T07:41:27Z</time></trkpt><trkpt lat="44.62446885220029" lon="8.662685556089542"><ele>275.0</ele><time>2026-04-17T07:41:28Z</time></trkpt><trkpt lat="44.624521569418256" lon="8.662543718062834"><ele>275.0</ele><time>2026-04-17T07:41:29Z</time></trkpt><trkpt lat="44.624572531357295" lon="8.662406745759915"><ele>271.2</ele><time>2026-04-17T07:41:30Z</time></trkpt><trkpt lat="44.62462065377854" lon="8.662284431579968"><ele>267.4</ele><time>2026-04-17T07:41:31Z</time></trkpt><trkpt lat="44.62467014292489" lon="8.662192942147701"><ele>263.6</ele><time>2026-04-17T07:41:32Z</time></trkpt><trkpt lat="44.62472784748541" lon="8.662069279864792"><ele>259.8</ele><time>2026-04-17T07:41:33Z</time></trkpt><trkpt lat="44.624793895861686" lon="8.662009299333402"><ele>256.0</ele><time>2026-04-17T07:41:34Z</time></trkpt><trkpt lat="44.62487912514958" lon="8.661987676818548"><ele>256.0</ele><time>2026-04-17T07:41:35Z</time></trkpt><trkpt lat="44.62494448270867" lon="8.661962997310756"><ele>256.0</ele><time>2026-04-17T07:41:36Z</time></trkpt><trkpt lat="44.62498404139225" lon="8.661836859151476"><ele>256.0</ele><time>2026-04-17T07:41:38Z</time></trkpt><trkpt lat="44.62491083794796" lon="8.661706800080061"><ele>256.0</ele><time>2026-04-17T07:41:39Z</time></trkpt><trkpt lat="44.62488932244561" lon="8.66162073793746"><ele>256.0</ele><time>2026-04-17T07:41:39.999Z</time></trkpt><trkpt lat="44.624679336716966" lon="8.661603852537326"><ele>256.25</ele><time>2026-04-17T07:41:40.999Z</time></trkpt><trkpt lat="44.62455538212819" lon="8.661530152630638"><ele>256.5</ele><time>2026-04-17T07:41:41.999Z</time></trkpt><trkpt lat="44.624435347422434" lon="8.66144100905273"><ele>256.75</ele><time>2026-04-17T07:41:42.999Z</time></trkpt><trkpt lat="44.62432212311753" lon="8.661354552624712"><ele>257.0</ele><time>2026-04-17T07:41:43.999Z</time></trkpt><trkpt lat="44.62421305246061" lon="8.661273910619512"><ele>257.6</ele><time>2026-04-17T07:41:44.999Z</time></trkpt><trkpt lat="44.624108638265504" lon="8.661189918787942"><ele>258.2</ele><time>2026-04-17T07:41:45.999Z</time></trkpt><trkpt lat="44.624005019120474" lon="8.661113077054846"><ele>258.8</ele><time>2026-04-17T07:41:46.999Z</time></trkpt><trkpt lat="44.623911100450265" lon="8.661030772564887"><ele>259.4</ele><time>2026-04-17T07:41:47.999Z</time></trkpt><trkpt lat="44.623852389924224" lon="8.66094029731681"><ele>260.0</ele><time>2026-04-17T07:41:48.999Z</time></trkpt><trkpt lat="44.62381387942929" lon="8.660822841474106"><ele>257.4</ele><time>2026-04-17T07:41:49.999Z</time></trkpt><trkpt lat="44.62382323072748" lon="8.660701146323486"><ele>254.8</ele><time>2026-04-17T07:41:50.999Z</time></trkpt><trkpt lat="44.623893133200546" lon="8.660587414765418"><ele>252.2</ele><time>2026-04-17T07:41:51.999Z</time></trkpt><trkpt lat="44.623958891338845" lon="8.660458310322271"><ele>249.6</ele><time>2026-04-17T07:41:52.999Z</time></trkpt><trkpt lat="44.624011626105556" lon="8.66030194948428"><ele>247.0</ele><time>2026-04-17T07:41:53.999Z</time></trkpt><trkpt lat="44.624042676356325" lon="8.660095108863201"><ele>244.66666666666666</ele><time>2026-04-17T07:41:54.999Z</time></trkpt><trkpt lat="44.62407317108267" lon="8.65986349039314"><ele>242.33333333333331</ele><time>2026-04-17T07:41:55.999Z</time></trkpt><trkpt lat="44.62413135492781" lon="8.659646078122599"><ele>240.0</ele><time>2026-04-17T07:41:56.999Z</time></trkpt><trkpt lat="44.624159498901705" lon="8.659394388084428"><ele>239.66666666666669</ele><time>2026-04-17T07:41:57.999Z</time></trkpt><trkpt lat="44.62419480552768" lon="8.659165989934765"><ele>239.33333333333334</ele><time>2026-04-17T07:41:58.999Z</time></trkpt><trkpt lat="44.62424925448749" lon="8.65893766911928"><ele>239.0</ele><time>2026-04-17T07:41:59.999Z</time></trkpt><trkpt lat="44.6243074282979" lon="8.658751573540973"><ele>238.25</ele><time>2026-04-17T07:42:00.999Z</time></trkpt><trkpt lat="44.62434551207507" lon="8.658554479799376"><ele>237.5</ele><time>2026-04-17T07:42:01.999Z</time></trkpt><trkpt lat="44.62436955539264" lon="8.658362755208696"><ele>236.75</ele><time>2026-04-17T07:42:02.999Z</time></trkpt><trkpt lat="44.62436425088865" lon="8.658161005996803"><ele>236.0</ele><time>2026-04-17T07:42:03.999Z</time></trkpt><trkpt lat="44.62433556492304" lon="8.657944277492394"><ele>234.66666666666669</ele><time>2026-04-17T07:42:04.999Z</time></trkpt><trkpt lat="44.624319599171315" lon="8.65772216204296"><ele>233.33333333333331</ele><time>2026-04-17T07:42:05.999Z</time></trkpt><trkpt lat="44.62434318764724" lon="8.657498571339614"><ele>232.0</ele><time>2026-04-17T07:42:06.999Z</time></trkpt><trkpt lat="44.62436720324585" lon="8.657229665987186"><ele>232.0</ele><time>2026-04-17T07:42:07.999Z</time></trkpt><trkpt lat="44.62439042792515" lon="8.657000606711692"><ele>232.0</ele><time>2026-04-17T07:42:08.999Z</time></trkpt><trkpt lat="44.62441266525264" lon="8.65678128315236"><ele>232.0</ele><time>2026-04-17T07:42:09.999Z</time></trkpt><trkpt lat="44.62442858173832" lon="8.656606559008655"><ele>232.0</ele><time>2026-04-17T07:42:10.999Z</time></trkpt><trkpt lat="44.62443004388979" lon="8.656440538177877"><ele>231.49999999999997</ele><time>2026-04-17T07:42:11.999Z</time></trkpt><trkpt lat="44.624468198407065" lon="8.656304936758424"><ele>231.0</ele><time>2026-04-17T07:42:12.999Z</time></trkpt><trkpt lat="44.62450542752847" lon="8.656220718913573"><ele>230.5</ele><time>2026-04-17T07:42:13.999Z</time></trkpt><trkpt lat="44.62455552823978" lon="8.656152195422312"><ele>230.0</ele><time>2026-04-17T07:42:14.999Z</time></trkpt><trkpt lat="44.62461873507432" lon="8.656090228089065"><ele>229.49999999999997</ele><time>2026-04-17T07:42:15.999Z</time></trkpt><trkpt lat="44.624728909320595" lon="8.656179030960356"><ele>229.0</ele><time>2026-04-17T07:42:16.999Z</time></trkpt><trkpt lat="44.62483930306645" lon="8.656230917341713"><ele>225.6</ele><time>2026-04-17T07:42:17.999Z</time></trkpt><trkpt lat="44.62491033171627" lon="8.656368692851801"><ele>222.2</ele><time>2026-04-17T07:42:18.999Z</time></trkpt><trkpt lat="44.62496888365181" lon="8.656488334119691"><ele>218.79999999999998</ele><time>2026-04-17T07:42:19.999Z</time></trkpt><trkpt lat="44.62500219941969" lon="8.656646886427069"><ele>215.39999999999998</ele><time>2026-04-17T07:42:20.999Z</time></trkpt><trkpt lat="44.6250511457354" lon="8.656775495172528"><ele>212.0</ele><time>2026-04-17T07:42:21.999Z</time></trkpt><trkpt lat="44.62513851996787" lon="8.656875145524987"><ele>212.0</ele><time>2026-04-17T07:42:22.999Z</time></trkpt><trkpt lat="44.62525573965954" lon="8.656917492042107"><ele>212.0</ele><time>2026-04-17T07:42:23.999Z</time></trkpt><trkpt lat="44.62538897768015" lon="8.65694042570062"><ele>212.0</ele><time>2026-04-17T07:42:24.999Z</time></trkpt><trkpt lat="44.6255153101402" lon="8.656932216491269"><ele>212.0</ele><time>2026-04-17T07:42:25.999Z</time></trkpt><trkpt lat="44.625645433506826" lon="8.656919976641468"><ele>210.5</ele><time>2026-04-17T07:42:26.999Z</time></trkpt><trkpt lat="44.62576589486923" lon="8.656895341037732"><ele>209.0</ele><time>2026-04-17T07:42:27.999Z</time></trkpt><trkpt lat="44.62587453907343" lon="8.656861270504619"><ele>207.5</ele><time>2026-04-17T07:42:28.999Z</time></trkpt><trkpt lat="44.62597720048955" lon="8.656807680830207"><ele>206.0</ele><time>2026-04-17T07:42:29.999Z</time></trkpt><trkpt lat="44.6260682705943" lon="8.656721991260872"><ele>206.0</ele><time>2026-04-17T07:42:30.999Z</time></trkpt><trkpt lat="44.626141850886725" lon="8.656611752372292"><ele>206.0</ele><time>2026-04-17T07:42:31.999Z</time></trkpt><trkpt lat="44.62620740082086" lon="8.6565225139611"><ele>206.0</ele><time>2026-04-17T07:42:32.999Z</time></trkpt><trkpt lat="44.626277258224725" lon="8.656445150254617"><ele>206.0</ele><time>2026-04-17T07:42:33.999Z</time></trkpt><trkpt lat="44.626314034913236" lon="8.6563499294577"><ele>206.0</ele><time>2026-04-17T07:42:34.999Z</time></trkpt><trkpt lat="44.6263695735241" lon="8.656252071247993"><ele>205.60000000000002</ele><time>2026-04-17T07:42:36.999Z</time></trkpt><trkpt lat="44.62630866614259" lon="8.656186616350771"><ele>205.2</ele><time>2026-04-17T07:42:37.999Z</time></trkpt><trkpt lat="44.626289452935225" lon="8.656083404881668"><ele>204.8</ele><time>2026-04-17T07:42:38.999Z</time></trkpt><trkpt lat="44.62625636726519" lon="8.655946392224129"><ele>204.39999999999998</ele><time>2026-04-17T07:42:39.999Z</time></trkpt><trkpt lat="44.62623295191032" lon="8.655790119921553"><ele>204.0</ele><time>2026-04-17T07:42:40.999Z</time></trkpt><trkpt lat="44.62618899409757" lon="8.655645955820852"><ele>203.75</ele><time>2026-04-17T07:42:41.999Z</time></trkpt><trkpt lat="44.626105778587196" lon="8.655492184226407"><ele>203.5</ele><time>2026-04-17T07:42:42.999Z</time></trkpt><trkpt lat="44.626026106125465" lon="8.655342611129777"><ele>203.25</ele><time>2026-04-17T07:42:43.999Z</time></trkpt><trkpt lat="44.62593766524683" lon="8.65518965771919"><ele>203.0</ele><time>2026-04-17T07:42:44.999Z</time></trkpt><trkpt lat="44.62584401322871" lon="8.655014211591032"><ele>203.0</ele><time>2026-04-17T07:42:45.999Z</time></trkpt><trkpt lat="44.62575136918977" lon="8.654837585792635"><ele>203.0</ele><time>2026-04-17T07:42:46.999Z</time></trkpt><trkpt lat="44.62565731441824" lon="8.654672274535768"><ele>203.0</ele><time>2026-04-17T07:42:47.999Z</time></trkpt><trkpt lat="44.62557636483764" lon="8.654531004933194"><ele>203.0</ele><time>2026-04-17T07:42:48.999Z</time></trkpt><trkpt lat="44.62551683728348" lon="8.654409738027825"><ele>203.00000000000003</ele><time>2026-04-17T07:42:49.999Z</time></trkpt><trkpt lat="44.625486068435926" lon="8.65429466836147"><ele>203.0</ele><time>2026-04-17T07:42:50.999Z</time></trkpt><trkpt lat="44.62548530566179" lon="8.65417530726978"><ele>203.0</ele><time>2026-04-17T07:42:51.999Z</time></trkpt><trkpt lat="44.62551973089412" lon="8.654063135972564"><ele>203.0</ele><time>2026-04-17T07:42:52.999Z</time></trkpt><trkpt lat="44.62556062132753" lon="8.653968018743104"><ele>203.00000000000003</ele><time>2026-04-17T07:42:53.999Z</time></trkpt><trkpt lat="44.62560167947532" lon="8.653873745379697"><ele>203.0</ele><time>2026-04-17T07:42:54.999Z</time></trkpt><trkpt lat="44.6256503090485" lon="8.653796307172119"><ele>203.0</ele><time>2026-04-17T07:42:55.999Z</time></trkpt><trkpt lat="44.62565435265521" lon="8.653706007995716"><ele>203.0</ele><time>2026-04-17T07:42:56.999Z</time></trkpt><trkpt lat="44.62564888221478" lon="8.653565938868057"><ele>203.0</ele><time>2026-04-17T07:42:58.999Z</time></trkpt><trkpt lat="44.62549769868178" lon="8.65348400828878"><ele>203.0</ele><time>2026-04-17T07:42:59.999Z</time></trkpt><trkpt lat="44.62544636731827" lon="8.65340525327424"><ele>203.0</ele><time>2026-04-17T07:43:00.999Z</time></trkpt><trkpt lat="44.62531866821908" lon="8.653464633529651"><ele>202.33333333333334</ele><time>2026-04-17T07:43:01.999Z</time></trkpt><trkpt lat="44.625243227328795" lon="8.653469240188155"><ele>201.66666666666669</ele><time>2026-04-17T07:43:02.999Z</time></trkpt><trkpt lat="44.625170807577824" lon="8.653484366749028"><ele>201.0</ele><time>2026-04-17T07:43:03.999Z</time></trkpt><trkpt lat="44.625097716329726" lon="8.653482894816966"><ele>200.33333333333331</ele><time>2026-04-17T07:43:04.999Z</time></trkpt><trkpt lat="44.62503434866803" lon="8.653489192358657"><ele>199.66666666666666</ele><time>2026-04-17T07:43:05.999Z</time></trkpt><trkpt lat="44.62496556855874" lon="8.653364017226687"><ele>199.0</ele><time>2026-04-17T07:43:06.999Z</time></trkpt><trkpt lat="44.62489541758867" lon="8.653276082832617"><ele>199.0</ele><time>2026-04-17T07:43:07.999Z</time></trkpt><trkpt lat="44.62481908879959" lon="8.65317557919734"><ele>199.0</ele><time>2026-04-17T07:43:08.999Z</time></trkpt><trkpt lat="44.62475368871296" lon="8.65304769523293"><ele>199.0</ele><time>2026-04-17T07:43:09.999Z</time></trkpt><trkpt lat="44.62468517231018" lon="8.652914448238073"><ele>199.0</ele><time>2026-04-17T07:43:10.999Z</time></trkpt><trkpt lat="44.62461994462757" lon="8.652799304311898"><ele>199.0</ele><time>2026-04-17T07:43:11.999Z</time></trkpt><trkpt lat="44.62455524725499" lon="8.652688547112628"><ele>197.66666666666666</ele><time>2026-04-17T07:43:12.999Z</time></trkpt><trkpt lat="44.62449766295535" lon="8.652591233246147"><ele>196.33333333333331</ele><time>2026-04-17T07:43:13.999Z</time></trkpt><trkpt lat="44.62444564772958" lon="8.652488843988438"><ele>195.0</ele><time>2026-04-17T07:43:14.999Z</time></trkpt><trkpt lat="44.62439359694815" lon="8.6523945254322"><ele>193.66666666666666</ele><time>2026-04-17T07:43:15.999Z</time></trkpt><trkpt lat="44.62435485760638" lon="8.652319408686543"><ele>192.33333333333331</ele><time>2026-04-17T07:43:16.999Z</time></trkpt><trkpt lat="44.62430506495443" lon="8.652213925253925"><ele>191.0</ele><time>2026-04-17T07:43:18.999Z</time></trkpt><trkpt lat="44.624302066436485" lon="8.652056170367032"><ele>191.33333333333331</ele><time>2026-04-17T07:43:20.999Z</time></trkpt><trkpt lat="44.624305018957735" lon="8.651942401146478"><ele>191.66666666666666</ele><time>2026-04-17T07:43:21.999Z</time></trkpt><trkpt lat="44.6242859647693" lon="8.65183303371632"><ele>192.0</ele><time>2026-04-17T07:43:22.999Z</time></trkpt><trkpt lat="44.624247035922814" lon="8.651754728044876"><ele>192.33333333333331</ele><time>2026-04-17T07:43:23.999Z</time></trkpt><trkpt lat="44.624183693495766" lon="8.651715075615057"><ele>192.66666666666666</ele><time>2026-04-17T07:43:24.999Z</time></trkpt><trkpt lat="44.624042951095426" lon="8.651769556520716"><ele>193.0</ele><time>2026-04-17T07:43:26.999Z</time></trkpt><trkpt lat="44.623983680287346" lon="8.6518605449164"><ele>192.60000000000002</ele><time>2026-04-17T07:43:27.999Z</time></trkpt><trkpt lat="44.62395861647537" lon="8.65197048680687"><ele>192.20000000000002</ele><time>2026-04-17T07:43:28.999Z</time></trkpt><trkpt lat="44.623959990686274" lon="8.652084940218975"><ele>191.8</ele><time>2026-04-17T07:43:29.999Z</time></trkpt><trkpt lat="44.6239693724695" lon="8.652235763256977"><ele>191.4</ele><time>2026-04-17T07:43:30.999Z</time></trkpt><trkpt lat="44.62393337457886" lon="8.652402488950791"><ele>191.0</ele><time>2026-04-17T07:43:31.999Z</time></trkpt><trkpt lat="44.62384538345053" lon="8.652537355845883"><ele>191.0</ele><time>2026-04-17T07:43:32.999Z</time></trkpt><trkpt lat="44.62375288677257" lon="8.652696005984403"><ele>191.0</ele><time>2026-04-17T07:43:33.999Z</time></trkpt><trkpt lat="44.62360638634007" lon="8.652824923736986"><ele>191.0</ele><time>2026-04-17T07:43:34.999Z</time></trkpt><trkpt lat="44.623462406039316" lon="8.6529601220945"><ele>191.0</ele><time>2026-04-17T07:43:35.999Z</time></trkpt><trkpt lat="44.623303194388434" lon="8.653080336506973"><ele>191.0</ele><time>2026-04-17T07:43:36.999Z</time></trkpt><trkpt lat="44.62313235604616" lon="8.653185673931763"><ele>191.0</ele><time>2026-04-17T07:43:37.999Z</time></trkpt><trkpt lat="44.6229542320076" lon="8.65328399121913"><ele>195.66666666666666</ele><time>2026-04-17T07:43:38.999Z</time></trkpt><trkpt lat="44.622769657601225" lon="8.653379475591738"><ele>200.33333333333331</ele><time>2026-04-17T07:43:39.999Z</time></trkpt><trkpt lat="44.62257859631376" lon="8.653462956623493"><ele>205.0</ele><time>2026-04-17T07:43:40.999Z</time></trkpt><trkpt lat="44.622381843114916" lon="8.653553508034824"><ele>204.0</ele><time>2026-04-17T07:43:41.999Z</time></trkpt><trkpt lat="44.62220395091905" lon="8.65363503019341"><ele>203.0</ele><time>2026-04-17T07:43:42.999Z</time></trkpt><trkpt lat="44.62204975707192" lon="8.65371972762901"><ele>202.0</ele><time>2026-04-17T07:43:43.999Z</time></trkpt><trkpt lat="44.621906762541826" lon="8.653810450831124"><ele>202.0</ele><time>2026-04-17T07:43:44.999Z</time></trkpt><trkpt lat="44.62176724734349" lon="8.653943220866244"><ele>202.0</ele><time>2026-04-17T07:43:45.999Z</time></trkpt><trkpt lat="44.62164462779041" lon="8.654133791975141"><ele>202.0</ele><time>2026-04-17T07:43:46.999Z</time></trkpt><trkpt lat="44.62154857707908" lon="8.654338351763041"><ele>197.66666666666666</ele><time>2026-04-17T07:43:47.999Z</time></trkpt><trkpt lat="44.621460113398165" lon="8.654576306599727"><ele>193.33333333333331</ele><time>2026-04-17T07:43:48.999Z</time></trkpt><trkpt lat="44.62140061573406" lon="8.654831666682725"><ele>189.0</ele><time>2026-04-17T07:43:49.999Z</time></trkpt><trkpt lat="44.62129264585766" lon="8.655008258181448"><ele>189.0</ele><time>2026-04-17T07:43:50.999Z</time></trkpt><trkpt lat="44.621202586298985" lon="8.655150166733826"><ele>189.0</ele><time>2026-04-17T07:43:51.999Z</time></trkpt><trkpt lat="44.62111997892167" lon="8.655295660121961"><ele>189.0</ele><time>2026-04-17T07:43:52.999Z</time></trkpt><trkpt lat="44.621024725641064" lon="8.655388980415308"><ele>189.0</ele><time>2026-04-17T07:43:53.999Z</time></trkpt><trkpt lat="44.620923280102566" lon="8.655443775491909"><ele>189.75</ele><time>2026-04-17T07:43:54.999Z</time></trkpt><trkpt lat="44.620824994725226" lon="8.655450843965525"><ele>190.5</ele><time>2026-04-17T07:43:55.999Z</time></trkpt><trkpt lat="44.620715515587165" lon="8.655441553036086"><ele>191.25</ele><time>2026-04-17T07:43:56.999Z</time></trkpt><trkpt lat="44.62059649674969" lon="8.655373209991799"><ele>192.0</ele><time>2026-04-17T07:43:57.999Z</time></trkpt><trkpt lat="44.62045968384395" lon="8.655305192362702"><ele>195.66666666666669</ele><time>2026-04-17T07:43:58.999Z</time></trkpt><trkpt lat="44.62032280367457" lon="8.655215035628288"><ele>199.33333333333334</ele><time>2026-04-17T07:43:59.999Z</time></trkpt><trkpt lat="44.620155166818314" lon="8.65510961642192"><ele>203.0</ele><time>2026-04-17T07:44:00.999Z</time></trkpt><trkpt lat="44.62001550408183" lon="8.654995041506337"><ele>203.0</ele><time>2026-04-17T07:44:01.999Z</time></trkpt><trkpt lat="44.61986947019977" lon="8.654876779496448"><ele>203.0</ele><time>2026-04-17T07:44:02.999Z</time></trkpt><trkpt lat="44.619699858143264" lon="8.654773163980822"><ele>203.0</ele><time>2026-04-17T07:44:03.999Z</time></trkpt><trkpt lat="44.619509479470814" lon="8.654690925632115"><ele>200.0</ele><time>2026-04-17T07:44:04.999Z</time></trkpt><trkpt lat="44.61932751453694" lon="8.654635632456886"><ele>197.0</ele><time>2026-04-17T07:44:05.999Z</time></trkpt><trkpt lat="44.61916753894686" lon="8.654536749611557"><ele>194.0</ele><time>2026-04-17T07:44:06.999Z</time></trkpt><trkpt lat="44.619007964890166" lon="8.654396182517843"><ele>193.66666666666669</ele><time>2026-04-17T07:44:07.999Z</time></trkpt><trkpt lat="44.618861632882776" lon="8.654221850540734"><ele>193.33333333333331</ele><time>2026-04-17T07:44:08.999Z</time></trkpt><trkpt lat="44.61873632413427" lon="8.654065083395084"><ele>193.0</ele><time>2026-04-17T07:44:09.999Z</time></trkpt><trkpt lat="44.618608440499116" lon="8.6538967464707"><ele>193.0</ele><time>2026-04-17T07:44:10.999Z</time></trkpt><trkpt lat="44.61849215347655" lon="8.65374898469977"><ele>193.0</ele><time>2026-04-17T07:44:11.999Z</time></trkpt><trkpt lat="44.61838689658813" lon="8.653618768274265"><ele>193.0</ele><time>2026-04-17T07:44:12.999Z</time></trkpt><trkpt lat="44.61829232715832" lon="8.653480044903716"><ele>193.0</ele><time>2026-04-17T07:44:13.999Z</time></trkpt><trkpt lat="44.618223323960635" lon="8.65332106371604"><ele>196.75</ele><time>2026-04-17T07:44:14.999Z</time></trkpt><trkpt lat="44.61814425869638" lon="8.6531632492466"><ele>200.5</ele><time>2026-04-17T07:44:15.999Z</time></trkpt><trkpt lat="44.61804495630604" lon="8.65302528373391"><ele>204.25</ele><time>2026-04-17T07:44:16.999Z</time></trkpt><trkpt lat="44.61793268683066" lon="8.652873400824706"><ele>208.0</ele><time>2026-04-17T07:44:17.999Z</time></trkpt><trkpt lat="44.61782981965185" lon="8.652769532389735"><ele>206.0</ele><time>2026-04-17T07:44:18.999Z</time></trkpt><trkpt lat="44.61775234437833" lon="8.65273132665368"><ele>204.0</ele><time>2026-04-17T07:44:19.999Z</time></trkpt><trkpt lat="44.61764942428063" lon="8.652738501243823"><ele>202.0</ele><time>2026-04-17T07:44:20.999Z</time></trkpt><trkpt lat="44.61751820540387" lon="8.652790646340659"><ele>200.0</ele><time>2026-04-17T07:44:21.999Z</time></trkpt><trkpt lat="44.61737361549692" lon="8.652857567703967"><ele>200.0</ele><time>2026-04-17T07:44:22.999Z</time></trkpt><trkpt lat="44.617230706687195" lon="8.652958731739798"><ele>200.0</ele><time>2026-04-17T07:44:23.999Z</time></trkpt><trkpt lat="44.61709602745988" lon="8.653043884724658"><ele>200.0</ele><time>2026-04-17T07:44:24.999Z</time></trkpt><trkpt lat="44.61697106405541" lon="8.653120594798981"><ele>200.0</ele><time>2026-04-17T07:44:25.999Z</time></trkpt><trkpt lat="44.61685715935822" lon="8.653205502751563"><ele>200.75</ele><time>2026-04-17T07:44:26.999Z</time></trkpt><trkpt lat="44.61676359165878" lon="8.653326459048307"><ele>201.5</ele><time>2026-04-17T07:44:27.999Z</time></trkpt><trkpt lat="44.61668034197663" lon="8.653499412486774"><ele>202.25</ele><time>2026-04-17T07:44:28.999Z</time></trkpt><trkpt lat="44.61660104603306" lon="8.653703451189534"><ele>203.0</ele><time>2026-04-17T07:44:29.999Z</time></trkpt><trkpt lat="44.61651035215708" lon="8.653877942061671"><ele>203.0</ele><time>2026-04-17T07:44:30.999Z</time></trkpt><trkpt lat="44.61639568436204" lon="8.65405111086128"><ele>203.0</ele><time>2026-04-17T07:44:31.999Z</time></trkpt><trkpt lat="44.61627490892463" lon="8.654299229894939"><ele>203.0</ele><time>2026-04-17T07:44:32.999Z</time></trkpt><trkpt lat="44.61615264485166" lon="8.65451575098685"><ele>206.0</ele><time>2026-04-17T07:44:33.999Z</time></trkpt><trkpt lat="44.616044013530995" lon="8.654738461057178"><ele>209.0</ele><time>2026-04-17T07:44:34.999Z</time></trkpt><trkpt lat="44.61594385800702" lon="8.65497767539707"><ele>212.0</ele><time>2026-04-17T07:44:35.999Z</time></trkpt><trkpt lat="44.615861034359604" lon="8.65518003091483"><ele>208.0</ele><time>2026-04-17T07:44:36.999Z</time></trkpt><trkpt lat="44.61578242144886" lon="8.655377288115915"><ele>204.0</ele><time>2026-04-17T07:44:37.999Z</time></trkpt><trkpt lat="44.61571361539126" lon="8.655567936098368"><ele>200.0</ele><time>2026-04-17T07:44:38.999Z</time></trkpt><trkpt lat="44.61564050277759" lon="8.655765756109718"><ele>200.0</ele><time>2026-04-17T07:44:39.999Z</time></trkpt><trkpt lat="44.61554986950001" lon="8.655973157011204"><ele>200.0</ele><time>2026-04-17T07:44:40.999Z</time></trkpt><trkpt lat="44.615466592001184" lon="8.656191393805958"><ele>200.0</ele><time>2026-04-17T07:44:41.999Z</time></trkpt><trkpt lat="44.61538423735569" lon="8.656406831625787"><ele>205.33333333333334</ele><time>2026-04-17T07:44:43Z</time></trkpt><trkpt lat="44.61529950937894" lon="8.656624358468461"><ele>210.66666666666669</ele><time>2026-04-17T07:44:44Z</time></trkpt><trkpt lat="44.61522417007548" lon="8.656822342492294"><ele>216.0</ele><time>2026-04-17T07:44:45Z</time></trkpt><trkpt lat="44.61516132999772" lon="8.656987480680835"><ele>216.0</ele><time>2026-04-17T07:44:46Z</time></trkpt><trkpt lat="44.6150978184686" lon="8.657154382717726"><ele>216.0</ele><time>2026-04-17T07:44:47Z</time></trkpt><trkpt lat="44.615056361471" lon="8.657312342352403"><ele>216.0</ele><time>2026-04-17T07:44:48Z</time></trkpt><trkpt lat="44.61500587736225" lon="8.657450086066348"><ele>216.0</ele><time>2026-04-17T07:44:49Z</time></trkpt><trkpt lat="44.61499707371818" lon="8.657667646382786"><ele>218.25</ele><time>2026-04-17T07:44:50Z</time></trkpt><trkpt lat="44.61500420978255" lon="8.657852337587013"><ele>220.5</ele><time>2026-04-17T07:44:51Z</time></trkpt><trkpt lat="44.61502102755614" lon="8.658045946593434"><ele>222.75</ele><time>2026-04-17T07:44:52Z</time></trkpt><trkpt lat="44.61505850370745" lon="8.658234114251737"><ele>225.0</ele><time>2026-04-17T07:44:53Z</time></trkpt><trkpt lat="44.61511537707204" lon="8.65845525938966"><ele>225.66666666666669</ele><time>2026-04-17T07:44:54Z</time></trkpt><trkpt lat="44.61519224435099" lon="8.658688595624671"><ele>226.33333333333334</ele><time>2026-04-17T07:44:55Z</time></trkpt><trkpt lat="44.61527123146572" lon="8.658889493577078"><ele>227.0</ele><time>2026-04-17T07:44:56Z</time></trkpt><trkpt lat="44.61532628756855" lon="8.65909656896526"><ele>221.25</ele><time>2026-04-17T07:44:57Z</time></trkpt><trkpt lat="44.615360951970025" lon="8.659302612086192"><ele>215.5</ele><time>2026-04-17T07:44:58Z</time></trkpt><trkpt lat="44.615383662861866" lon="8.659515862587487"><ele>209.75</ele><time>2026-04-17T07:44:59Z</time></trkpt><trkpt lat="44.61539748119276" lon="8.659714724546005"><ele>204.0</ele><time>2026-04-17T07:45:00Z</time></trkpt><trkpt lat="44.615401804031706" lon="8.659910445470247"><ele>204.0</ele><time>2026-04-17T07:45:01Z</time></trkpt><trkpt lat="44.61540635022555" lon="8.660063785739652"><ele>204.0</ele><time>2026-04-17T07:45:02Z</time></trkpt><trkpt lat="44.61540821289793" lon="8.660198049403363"><ele>204.0</ele><time>2026-04-17T07:45:03Z</time></trkpt><trkpt lat="44.61540845210111" lon="8.660319050679977"><ele>204.0</ele><time>2026-04-17T07:45:04Z</time></trkpt><trkpt lat="44.61538519552579" lon="8.660422882828028"><ele>204.0</ele><time>2026-04-17T07:45:05Z</time></trkpt><trkpt lat="44.615375931875406" lon="8.660511658135912"><ele>204.0</ele><time>2026-04-17T07:45:07Z</time></trkpt><trkpt lat="44.615363152184884" lon="8.660614103893158"><ele>205.5</ele><time>2026-04-17T07:45:09Z</time></trkpt><trkpt lat="44.615336120033234" lon="8.660759423016705"><ele>207.0</ele><time>2026-04-17T07:45:11Z</time></trkpt><trkpt lat="44.615298324917255" lon="8.66087671701359"><ele>208.5</ele><time>2026-04-17T07:45:12Z</time></trkpt><trkpt lat="44.615245845382844" lon="8.661047967099515"><ele>210.0</ele><time>2026-04-17T07:45:13Z</time></trkpt><trkpt lat="44.615182358522766" lon="8.661260319666132"><ele>211.66666666666669</ele><time>2026-04-17T07:45:14Z</time></trkpt><trkpt lat="44.615116047728705" lon="8.661482117852952"><ele>213.33333333333334</ele><time>2026-04-17T07:45:15Z</time></trkpt><trkpt lat="44.61505116370313" lon="8.661708941639057"><ele>215.0</ele><time>2026-04-17T07:45:16Z</time></trkpt><trkpt lat="44.614992382924264" lon="8.661927695045629"><ele>213.25</ele><time>2026-04-17T07:45:17Z</time></trkpt><trkpt lat="44.61492098841144" lon="8.662101353828998"><ele>211.5</ele><time>2026-04-17T07:45:18Z</time></trkpt><trkpt lat="44.61484022479439" lon="8.662259126505482"><ele>209.75</ele><time>2026-04-17T07:45:19Z</time></trkpt><trkpt lat="44.61474552457779" lon="8.662425437006913"><ele>208.0</ele><time>2026-04-17T07:45:20Z</time></trkpt><trkpt lat="44.61459554949639" lon="8.662525850484238"><ele>209.66666666666666</ele><time>2026-04-17T07:45:21Z</time></trkpt><trkpt lat="44.61445315826446" lon="8.662618296700096"><ele>211.33333333333331</ele><time>2026-04-17T07:45:22Z</time></trkpt><trkpt lat="44.61429731443914" lon="8.662726631056495"><ele>213.0</ele><time>2026-04-17T07:45:23Z</time></trkpt><trkpt lat="44.61414016790625" lon="8.66286014911425"><ele>213.0</ele><time>2026-04-17T07:45:24Z</time></trkpt><trkpt lat="44.613988549909635" lon="8.663050351324923"><ele>213.0</ele><time>2026-04-17T07:45:25Z</time></trkpt><trkpt lat="44.61384944597478" lon="8.663264859716408"><ele>213.0</ele><time>2026-04-17T07:45:26Z</time></trkpt><trkpt lat="44.61370632108952" lon="8.663496309715434"><ele>214.33333333333331</ele><time>2026-04-17T07:45:27Z</time></trkpt><trkpt lat="44.61356641782829" lon="8.663696525052426"><ele>215.66666666666666</ele><time>2026-04-17T07:45:28Z</time></trkpt><trkpt lat="44.61341757764136" lon="8.663898959507698"><ele>217.0</ele><time>2026-04-17T07:45:29Z</time></trkpt><trkpt lat="44.61328348036844" lon="8.664072831090593"><ele>217.0</ele><time>2026-04-17T07:45:30Z</time></trkpt><trkpt lat="44.61315498971131" lon="8.664252249003743"><ele>217.0</ele><time>2026-04-17T07:45:31Z</time></trkpt><trkpt lat="44.61306245200677" lon="8.664427782056435"><ele>217.0</ele><time>2026-04-17T07:45:32Z</time></trkpt><trkpt lat="44.61298964479838" lon="8.664634293922477"><ele>215.33333333333331</ele><time>2026-04-17T07:45:33Z</time></trkpt><trkpt lat="44.612935871733036" lon="8.664873839725821"><ele>213.66666666666669</ele><time>2026-04-17T07:45:34Z</time></trkpt><trkpt lat="44.61291105498573" lon="8.665129583348806"><ele>212.0</ele><time>2026-04-17T07:45:35Z</time></trkpt><trkpt lat="44.61290368619048" lon="8.665382901740022"><ele>211.0</ele><time>2026-04-17T07:45:36Z</time></trkpt><trkpt lat="44.61291583313256" lon="8.665644611303001"><ele>210.0</ele><time>2026-04-17T07:45:37Z</time></trkpt><trkpt lat="44.612945009945065" lon="8.665898305657244"><ele>209.0</ele><time>2026-04-17T07:45:38Z</time></trkpt><trkpt lat="44.61297670636243" lon="8.666150241349925"><ele>211.0</ele><time>2026-04-17T07:45:39Z</time></trkpt><trkpt lat="44.613032503835484" lon="8.666400295660567"><ele>213.0</ele><time>2026-04-17T07:45:40Z</time></trkpt><trkpt lat="44.61309929140835" lon="8.666649431006482"><ele>215.0</ele><time>2026-04-17T07:45:41Z</time></trkpt><trkpt lat="44.61317925256012" lon="8.666907913400792"><ele>216.33333333333334</ele><time>2026-04-17T07:45:42Z</time></trkpt><trkpt lat="44.61325683967349" lon="8.667179523342067"><ele>217.66666666666669</ele><time>2026-04-17T07:45:43Z</time></trkpt><trkpt lat="44.61331929952387" lon="8.66744544074441"><ele>219.0</ele><time>2026-04-17T07:45:44Z</time></trkpt><trkpt lat="44.61339568030287" lon="8.667718213224417"><ele>221.0</ele><time>2026-04-17T07:45:45Z</time></trkpt><trkpt lat="44.61348362774633" lon="8.66798441508683"><ele>223.0</ele><time>2026-04-17T07:45:46Z</time></trkpt><trkpt lat="44.613561936485056" lon="8.668271271500622"><ele>225.0</ele><time>2026-04-17T07:45:47Z</time></trkpt><trkpt lat="44.61363905665771" lon="8.668537942297567"><ele>220.66666666666669</ele><time>2026-04-17T07:45:48Z</time></trkpt><trkpt lat="44.61370876010725" lon="8.668782171497392"><ele>216.33333333333334</ele><time>2026-04-17T07:45:49Z</time></trkpt><trkpt lat="44.61376727176538" lon="8.668983569612008"><ele>212.0</ele><time>2026-04-17T07:45:49.999Z</time></trkpt><trkpt lat="44.61381120919284" lon="8.669175395529997"><ele>212.0</ele><time>2026-04-17T07:45:50.999Z</time></trkpt><trkpt lat="44.61382895096053" lon="8.669341360464152"><ele>212.0</ele><time>2026-04-17T07:45:51.999Z</time></trkpt><trkpt lat="44.61382055708254" lon="8.66950313836724"><ele>212.0</ele><time>2026-04-17T07:45:52.999Z</time></trkpt><trkpt lat="44.61377556156008" lon="8.669642435376021"><ele>212.0</ele><time>2026-04-17T07:45:53.999Z</time></trkpt><trkpt lat="44.613690680984185" lon="8.66976103257543"><ele>216.66666666666669</ele><time>2026-04-17T07:45:54.999Z</time></trkpt><trkpt lat="44.61356928866451" lon="8.669869399618461"><ele>221.33333333333331</ele><time>2026-04-17T07:45:55.999Z</time></trkpt><trkpt lat="44.613431423372624" lon="8.669978034557516"><ele>226.0</ele><time>2026-04-17T07:45:56.999Z</time></trkpt><trkpt lat="44.613284325215716" lon="8.670095386475763"><ele>226.0</ele><time>2026-04-17T07:45:57.999Z</time></trkpt><trkpt lat="44.613123285010154" lon="8.670225076392871"><ele>226.0</ele><time>2026-04-17T07:45:58.999Z</time></trkpt><trkpt lat="44.61296082469173" lon="8.67037108489826"><ele>226.0</ele><time>2026-04-17T07:45:59.999Z</time></trkpt><trkpt lat="44.612789253499265" lon="8.670502948393532"><ele>226.0</ele><time>2026-04-17T07:46:00.999Z</time></trkpt><trkpt lat="44.61260510391908" lon="8.670632313473499"><ele>226.0</ele><time>2026-04-17T07:46:01.999Z</time></trkpt><trkpt lat="44.612426917036416" lon="8.670746836386888"><ele>226.0</ele><time>2026-04-17T07:46:02.999Z</time></trkpt><trkpt lat="44.61226084508685" lon="8.670852701801943"><ele>226.0</ele><time>2026-04-17T07:46:03.999Z</time></trkpt><trkpt lat="44.61208762006294" lon="8.670947014328606"><ele>226.0</ele><time>2026-04-17T07:46:04.999Z</time></trkpt><trkpt lat="44.611943373724785" lon="8.671045483168928"><ele>226.0</ele><time>2026-04-17T07:46:05.999Z</time></trkpt><trkpt lat="44.611784583925" lon="8.67115388000698"><ele>223.25</ele><time>2026-04-17T07:46:06.999Z</time></trkpt><trkpt lat="44.61164512678669" lon="8.67124907951852"><ele>220.5</ele><time>2026-04-17T07:46:07.999Z</time></trkpt><trkpt lat="44.61151134266846" lon="8.671327574379522"><ele>217.75</ele><time>2026-04-17T07:46:08.999Z</time></trkpt><trkpt lat="44.61137426239437" lon="8.671373903732922"><ele>215.0</ele><time>2026-04-17T07:46:09.999Z</time></trkpt><trkpt lat="44.611217306044324" lon="8.67137738301957"><ele>214.33333333333334</ele><time>2026-04-17T07:46:10.999Z</time></trkpt><trkpt lat="44.61103560034501" lon="8.671345971739113"><ele>213.66666666666669</ele><time>2026-04-17T07:46:11.999Z</time></trkpt><trkpt lat="44.61086894126775" lon="8.671310004836727"><ele>213.0</ele><time>2026-04-17T07:46:12.999Z</time></trkpt><trkpt lat="44.610700968230894" lon="8.671190311189433"><ele>213.33333333333331</ele><time>2026-04-17T07:46:13.999Z</time></trkpt><trkpt lat="44.61053066510391" lon="8.67107050274258"><ele>213.66666666666666</ele><time>2026-04-17T07:46:14.999Z</time></trkpt><trkpt lat="44.6103800710256" lon="8.67088308515553"><ele>214.0</ele><time>2026-04-17T07:46:15.999Z</time></trkpt><trkpt lat="44.610230893681454" lon="8.670662129382979"><ele>214.0</ele><time>2026-04-17T07:46:16.999Z</time></trkpt><trkpt lat="44.61010305604874" lon="8.670444338512977"><ele>214.0</ele><time>2026-04-17T07:46:17.999Z</time></trkpt><trkpt lat="44.609954507577044" lon="8.670257449396635"><ele>214.0</ele><time>2026-04-17T07:46:18.999Z</time></trkpt><trkpt lat="44.6098264194647" lon="8.670043606672818"><ele>215.33333333333331</ele><time>2026-04-17T07:46:19.999Z</time></trkpt><trkpt lat="44.60967999134465" lon="8.669832961549625"><ele>216.66666666666669</ele><time>2026-04-17T07:46:20.999Z</time></trkpt><trkpt lat="44.60953733214579" lon="8.669622490765205"><ele>218.0</ele><time>2026-04-17T07:46:21.999Z</time></trkpt><trkpt lat="44.60939193253584" lon="8.669408445659997"><ele>218.0</ele><time>2026-04-17T07:46:22.999Z</time></trkpt><trkpt lat="44.609261195316876" lon="8.669176525120003"><ele>218.0</ele><time>2026-04-17T07:46:23.999Z</time></trkpt><trkpt lat="44.609137604436306" lon="8.668916298821678"><ele>218.0</ele><time>2026-04-17T07:46:24.999Z</time></trkpt><trkpt lat="44.60904120292637" lon="8.668620527994424"><ele>220.66666666666669</ele><time>2026-04-17T07:46:25.999Z</time></trkpt><trkpt lat="44.60894394085524" lon="8.668359212737595"><ele>223.33333333333331</ele><time>2026-04-17T07:46:26.999Z</time></trkpt><trkpt lat="44.60883721742732" lon="8.668095256301319"><ele>226.0</ele><time>2026-04-17T07:46:27.999Z</time></trkpt><trkpt lat="44.60872612910625" lon="8.667810725830902"><ele>224.66666666666666</ele><time>2026-04-17T07:46:28.999Z</time></trkpt><trkpt lat="44.60862078626926" lon="8.66753190208029"><ele>223.33333333333331</ele><time>2026-04-17T07:46:29.999Z</time></trkpt><trkpt lat="44.60852261094041" lon="8.667272518349964"><ele>222.0</ele><time>2026-04-17T07:46:30.999Z</time></trkpt><trkpt lat="44.608430716345744" lon="8.667038515409377"><ele>223.66666666666669</ele><time>2026-04-17T07:46:31.999Z</time></trkpt><trkpt lat="44.60834657763267" lon="8.666832256730919"><ele>225.33333333333334</ele><time>2026-04-17T07:46:32.999Z</time></trkpt><trkpt lat="44.608282112517735" lon="8.666622199341875"><ele>227.0</ele><time>2026-04-17T07:46:33.999Z</time></trkpt><trkpt lat="44.60825513043026" lon="8.66639779153567"><ele>227.0</ele><time>2026-04-17T07:46:34.999Z</time></trkpt><trkpt lat="44.608254821100886" lon="8.666189230702104"><ele>227.0</ele><time>2026-04-17T07:46:35.999Z</time></trkpt><trkpt lat="44.608269085731365" lon="8.665944008131333"><ele>227.0</ele><time>2026-04-17T07:46:36.999Z</time></trkpt><trkpt lat="44.608306546431955" lon="8.665700096253618"><ele>227.0</ele><time>2026-04-17T07:46:37.999Z</time></trkpt><trkpt lat="44.60834881336387" lon="8.66548048724352"><ele>227.0</ele><time>2026-04-17T07:46:38.999Z</time></trkpt><trkpt lat="44.608383299929436" lon="8.665283643324626"><ele>227.0</ele><time>2026-04-17T07:46:39.999Z</time></trkpt><trkpt lat="44.60841374354156" lon="8.665124104745379"><ele>227.0</ele><time>2026-04-17T07:46:40.999Z</time></trkpt><trkpt lat="44.608428242837775" lon="8.664979166196932"><ele>226.8</ele><time>2026-04-17T07:46:41.999Z</time></trkpt><trkpt lat="44.608419996902384" lon="8.66484588173932"><ele>226.6</ele><time>2026-04-17T07:46:42.999Z</time></trkpt><trkpt lat="44.60839503723152" lon="8.664713181705443"><ele>226.40000000000003</ele><time>2026-04-17T07:46:43.999Z</time></trkpt><trkpt lat="44.60839107963265" lon="8.664563199743439"><ele>226.20000000000002</ele><time>2026-04-17T07:46:44.999Z</time></trkpt><trkpt lat="44.608383863664415" lon="8.664399254857688"><ele>226.0</ele><time>2026-04-17T07:46:45.999Z</time></trkpt><trkpt lat="44.60841425241412" lon="8.664189878932593"><ele>226.0</ele><time>2026-04-17T07:46:46.999Z</time></trkpt><trkpt lat="44.60844172982344" lon="8.663990871666428"><ele>226.0</ele><time>2026-04-17T07:46:47.999Z</time></trkpt><trkpt lat="44.60847756492345" lon="8.663808876019589"><ele>226.0</ele><time>2026-04-17T07:46:49Z</time></trkpt><trkpt lat="44.60848350117046" lon="8.663641559989731"><ele>226.0</ele><time>2026-04-17T07:46:50Z</time></trkpt><trkpt lat="44.608440066412214" lon="8.663443825810164"><ele>229.33333333333331</ele><time>2026-04-17T07:46:51Z</time></trkpt><trkpt lat="44.60836265513074" lon="8.663258191614684"><ele>232.66666666666669</ele><time>2026-04-17T07:46:52Z</time></trkpt><trkpt lat="44.60825149106053" lon="8.663093272374532"><ele>236.0</ele><time>2026-04-17T07:46:53Z</time></trkpt><trkpt lat="44.60810615699792" lon="8.662921355667514"><ele>234.33333333333334</ele><time>2026-04-17T07:46:54Z</time></trkpt><trkpt lat="44.607953352164806" lon="8.662762430691732"><ele>232.66666666666669</ele><time>2026-04-17T07:46:55Z</time></trkpt><trkpt lat="44.60777678069545" lon="8.662579549695325"><ele>231.0</ele><time>2026-04-17T07:46:56Z</time></trkpt><trkpt lat="44.60761346102864" lon="8.662453864350056"><ele>231.0</ele><time>2026-04-17T07:46:57Z</time></trkpt><trkpt lat="44.60742859165944" lon="8.662356645979154"><ele>231.0</ele><time>2026-04-17T07:46:58Z</time></trkpt><trkpt lat="44.607212204958465" lon="8.66228087753661"><ele>231.0</ele><time>2026-04-17T07:46:59Z</time></trkpt><trkpt lat="44.6069801648951" lon="8.662172114183376"><ele>228.0</ele><time>2026-04-17T07:47:00Z</time></trkpt><trkpt lat="44.606758114680254" lon="8.662150462986903"><ele>225.0</ele><time>2026-04-17T07:47:01Z</time></trkpt><trkpt lat="44.60654994799289" lon="8.662085467830403"><ele>222.0</ele><time>2026-04-17T07:47:02Z</time></trkpt><trkpt lat="44.60631829401084" lon="8.662038747554057"><ele>222.5</ele><time>2026-04-17T07:47:03Z</time></trkpt><trkpt lat="44.606085259839396" lon="8.662004569470467"><ele>223.0</ele><time>2026-04-17T07:47:04Z</time></trkpt><trkpt lat="44.60587105434072" lon="8.661947002730962"><ele>226.66666666666666</ele><time>2026-04-17T07:47:05Z</time></trkpt><trkpt lat="44.60565603474584" lon="8.661933791591686"><ele>230.33333333333331</ele><time>2026-04-17T07:47:06Z</time></trkpt><trkpt lat="44.605456746694706" lon="8.661930394069097"><ele>234.0</ele><time>2026-04-17T07:47:07Z</time></trkpt><trkpt lat="44.60527525485968" lon="8.661947881635273"><ele>234.0</ele><time>2026-04-17T07:47:08Z</time></trkpt><trkpt lat="44.60509974826952" lon="8.66193542269399"><ele>234.0</ele><time>2026-04-17T07:47:09Z</time></trkpt><trkpt lat="44.60493586136119" lon="8.66192862600177"><ele>234.0</ele><time>2026-04-17T07:47:10Z</time></trkpt><trkpt lat="44.60477592321007" lon="8.661923574506307"><ele>234.0</ele><time>2026-04-17T07:47:11Z</time></trkpt><trkpt lat="44.604613975069505" lon="8.661937854604327"><ele>234.0</ele><time>2026-04-17T07:47:12Z</time></trkpt><trkpt lat="44.604464372276276" lon="8.6619913859568"><ele>234.0</ele><time>2026-04-17T07:47:13Z</time></trkpt><trkpt lat="44.604294979050024" lon="8.66204908249249"><ele>232.0</ele><time>2026-04-17T07:47:14Z</time></trkpt><trkpt lat="44.604150861382195" lon="8.662134157155036"><ele>230.0</ele><time>2026-04-17T07:47:15Z</time></trkpt><trkpt lat="44.60401660903771" lon="8.662269463493919"><ele>228.0</ele><time>2026-04-17T07:47:16Z</time></trkpt><trkpt lat="44.60388497847158" lon="8.662442003577311"><ele>228.0</ele><time>2026-04-17T07:47:17Z</time></trkpt><trkpt lat="44.60373027758378" lon="8.6626258954629"><ele>228.0</ele><time>2026-04-17T07:47:18Z</time></trkpt><trkpt lat="44.60356235529855" lon="8.662789661352162"><ele>228.0</ele><time>2026-04-17T07:47:19Z</time></trkpt><trkpt lat="44.60338319286871" lon="8.662949455110446"><ele>227.66666666666669</ele><time>2026-04-17T07:47:20Z</time></trkpt><trkpt lat="44.60321918809371" lon="8.663092836960992"><ele>227.33333333333334</ele><time>2026-04-17T07:47:21Z</time></trkpt><trkpt lat="44.60306115242013" lon="8.663204984572399"><ele>227.0</ele><time>2026-04-17T07:47:22Z</time></trkpt><trkpt lat="44.60291110719318" lon="8.66331835214882"><ele>227.0</ele><time>2026-04-17T07:47:23Z</time></trkpt><trkpt lat="44.60277416628837" lon="8.663427048680473"><ele>227.0</ele><time>2026-04-17T07:47:24Z</time></trkpt><trkpt lat="44.60263673641529" lon="8.663530910030746"><ele>227.0</ele><time>2026-04-17T07:47:25Z</time></trkpt><trkpt lat="44.60249464068751" lon="8.663654271206392"><ele>227.0</ele><time>2026-04-17T07:47:26Z</time></trkpt><trkpt lat="44.602346807693294" lon="8.663797904009694"><ele>227.0</ele><time>2026-04-17T07:47:27Z</time></trkpt><trkpt lat="44.60219153874575" lon="8.663955551828181"><ele>227.0</ele><time>2026-04-17T07:47:28Z</time></trkpt><trkpt lat="44.60204721735588" lon="8.664114789701602"><ele>226.5</ele><time>2026-04-17T07:47:29Z</time></trkpt><trkpt lat="44.601915771742114" lon="8.664244831862773"><ele>226.0</ele><time>2026-04-17T07:47:30Z</time></trkpt><trkpt lat="44.60179035358434" lon="8.66434487159241"><ele>225.5</ele><time>2026-04-17T07:47:31Z</time></trkpt><trkpt lat="44.60165729826525" lon="8.664423499433132"><ele>225.0</ele><time>2026-04-17T07:47:32Z</time></trkpt><trkpt lat="44.601517756523315" lon="8.664472230563575"><ele>225.0</ele><time>2026-04-17T07:47:33Z</time></trkpt><trkpt lat="44.601383863046614" lon="8.664549428174624"><ele>225.0</ele><time>2026-04-17T07:47:34Z</time></trkpt><trkpt lat="44.601248571044536" lon="8.664601714316257"><ele>225.0</ele><time>2026-04-17T07:47:35Z</time></trkpt><trkpt lat="44.60111470931974" lon="8.664646528980677"><ele>225.0</ele><time>2026-04-17T07:47:36Z</time></trkpt><trkpt lat="44.600986056449784" lon="8.664667869434716"><ele>226.66666666666669</ele><time>2026-04-17T07:47:37Z</time></trkpt><trkpt lat="44.60084199787396" lon="8.664663019129748"><ele>228.33333333333334</ele><time>2026-04-17T07:47:38Z</time></trkpt><trkpt lat="44.6006960630283" lon="8.664630235412238"><ele>230.0</ele><time>2026-04-17T07:47:39Z</time></trkpt><trkpt lat="44.60052710684049" lon="8.664561318263898"><ele>230.0</ele><time>2026-04-17T07:47:40Z</time></trkpt><trkpt lat="44.60032566984845" lon="8.66450656244503"><ele>230.0</ele><time>2026-04-17T07:47:41Z</time></trkpt><trkpt lat="44.60013827847245" lon="8.664455624955933"><ele>230.0</ele><time>2026-04-17T07:47:42Z</time></trkpt><trkpt lat="44.599921209709315" lon="8.66439784601221"><ele>234.5</ele><time>2026-04-17T07:47:43Z</time></trkpt><trkpt lat="44.599693694307305" lon="8.664343194934432"><ele>239.0</ele><time>2026-04-17T07:47:44Z</time></trkpt><trkpt lat="44.59946185699097" lon="8.664277525780546"><ele>239.0</ele><time>2026-04-17T07:47:45Z</time></trkpt><trkpt lat="44.59925621875494" lon="8.664196344227367"><ele>239.0</ele><time>2026-04-17T07:47:46Z</time></trkpt><trkpt lat="44.59905701360263" lon="8.664150048879458"><ele>239.0</ele><time>2026-04-17T07:47:47Z</time></trkpt><trkpt lat="44.59888145584655" lon="8.664141705604498"><ele>239.0</ele><time>2026-04-17T07:47:48Z</time></trkpt><trkpt lat="44.59868465182521" lon="8.664143277895086"><ele>239.0</ele><time>2026-04-17T07:47:49Z</time></trkpt><trkpt lat="44.598471378549554" lon="8.66417785548102"><ele>239.0</ele><time>2026-04-17T07:47:50Z</time></trkpt><trkpt lat="44.598262198038455" lon="8.664248946702543"><ele>240.0</ele><time>2026-04-17T07:47:51Z</time></trkpt><trkpt lat="44.598050079788045" lon="8.664320064730028"><ele>241.0</ele><time>2026-04-17T07:47:52Z</time></trkpt><trkpt lat="44.59783400508379" lon="8.664392010474462"><ele>242.0</ele><time>2026-04-17T07:47:53Z</time></trkpt><trkpt lat="44.59761832607168" lon="8.664460872955669"><ele>238.66666666666669</ele><time>2026-04-17T07:47:54Z</time></trkpt><trkpt lat="44.59741297450122" lon="8.66452166339915"><ele>235.33333333333331</ele><time>2026-04-17T07:47:55Z</time></trkpt><trkpt lat="44.59722131708426" lon="8.664570499399545"><ele>232.0</ele><time>2026-04-17T07:47:56Z</time></trkpt><trkpt lat="44.59703113906573" lon="8.6645805441403"><ele>233.66666666666666</ele><time>2026-04-17T07:47:57Z</time></trkpt><trkpt lat="44.59682688563532" lon="8.664556612599538"><ele>235.33333333333331</ele><time>2026-04-17T07:47:58Z</time></trkpt><trkpt lat="44.59661370685847" lon="8.664538470252463"><ele>237.0</ele><time>2026-04-17T07:47:59Z</time></trkpt><trkpt lat="44.596397426340005" lon="8.664512106145246"><ele>237.0</ele><time>2026-04-17T07:48:00Z</time></trkpt><trkpt lat="44.596177662975386" lon="8.664464301896546"><ele>237.0</ele><time>2026-04-17T07:48:01Z</time></trkpt><trkpt lat="44.59595889084344" lon="8.664407544372175"><ele>237.0</ele><time>2026-04-17T07:48:02Z</time></trkpt><trkpt lat="44.59573711226618" lon="8.66433103486625"><ele>238.5</ele><time>2026-04-17T07:48:03Z</time></trkpt><trkpt lat="44.59551218413639" lon="8.664252735532123"><ele>240.0</ele><time>2026-04-17T07:48:04Z</time></trkpt><trkpt lat="44.595286722349464" lon="8.6641764385696"><ele>240.0</ele><time>2026-04-17T07:48:05Z</time></trkpt><trkpt lat="44.59505417679248" lon="8.664101458913526"><ele>240.0</ele><time>2026-04-17T07:48:06Z</time></trkpt><trkpt lat="44.594827797818624" lon="8.664026888007548"><ele>240.0</ele><time>2026-04-17T07:48:07Z</time></trkpt><trkpt lat="44.59460633102945" lon="8.663951354571072"><ele>240.0</ele><time>2026-04-17T07:48:08Z</time></trkpt><trkpt lat="44.59438082067945" lon="8.663869040099815"><ele>239.0</ele><time>2026-04-17T07:48:09Z</time></trkpt><trkpt lat="44.59415674539679" lon="8.663792899596265"><ele>238.0</ele><time>2026-04-17T07:48:10Z</time></trkpt><trkpt lat="44.59393588329791" lon="8.663721513468479"><ele>238.0</ele><time>2026-04-17T07:48:11Z</time></trkpt><trkpt lat="44.59371028506543" lon="8.663650446537652"><ele>238.0</ele><time>2026-04-17T07:48:12Z</time></trkpt><trkpt lat="44.59348148970815" lon="8.663583596417316"><ele>240.0</ele><time>2026-04-17T07:48:13Z</time></trkpt><trkpt lat="44.59326064474945" lon="8.663493423205415"><ele>242.0</ele><time>2026-04-17T07:48:14Z</time></trkpt><trkpt lat="44.59303443122407" lon="8.663410016405253"><ele>243.5</ele><time>2026-04-17T07:48:15Z</time></trkpt><trkpt lat="44.59281582574932" lon="8.663333387001"><ele>245.0</ele><time>2026-04-17T07:48:16Z</time></trkpt><trkpt lat="44.59259254909276" lon="8.663286487467547"><ele>245.0</ele><time>2026-04-17T07:48:17Z</time></trkpt><trkpt lat="44.5923765118398" lon="8.663203933767658"><ele>245.0</ele><time>2026-04-17T07:48:18Z</time></trkpt><trkpt lat="44.59215088339882" lon="8.663157323292745"><ele>241.33333333333334</ele><time>2026-04-17T07:48:19Z</time></trkpt><trkpt lat="44.59193620739384" lon="8.66307508014743"><ele>237.66666666666669</ele><time>2026-04-17T07:48:20Z</time></trkpt><trkpt lat="44.59172183288894" lon="8.662981339798401"><ele>234.0</ele><time>2026-04-17T07:48:21Z</time></trkpt><trkpt lat="44.59150000475867" lon="8.662863004752165"><ele>241.5</ele><time>2026-04-17T07:48:22Z</time></trkpt><trkpt lat="44.591291515743926" lon="8.66274622139204"><ele>249.0</ele><time>2026-04-17T07:48:23Z</time></trkpt><trkpt lat="44.59108287488556" lon="8.662616894986689"><ele>249.0</ele><time>2026-04-17T07:48:24Z</time></trkpt><trkpt lat="44.5908725200363" lon="8.662505220877316"><ele>249.0</ele><time>2026-04-17T07:48:25Z</time></trkpt><trkpt lat="44.59065743166078" lon="8.662414099597184"><ele>249.0</ele><time>2026-04-17T07:48:26Z</time></trkpt><trkpt lat="44.590433853622706" lon="8.662350278795842"><ele>249.0</ele><time>2026-04-17T07:48:27Z</time></trkpt><trkpt lat="44.59021537178751" lon="8.662286019413573"><ele>244.66666666666669</ele><time>2026-04-17T07:48:28Z</time></trkpt><trkpt lat="44.5899953269371" lon="8.662243101455537"><ele>240.33333333333334</ele><time>2026-04-17T07:48:29Z</time></trkpt><trkpt lat="44.58977531255156" lon="8.662238753556592"><ele>236.0</ele><time>2026-04-17T07:48:30Z</time></trkpt><trkpt lat="44.58955364355414" lon="8.662231513506661"><ele>237.0</ele><time>2026-04-17T07:48:31Z</time></trkpt><trkpt lat="44.58933265378197" lon="8.662230439172028"><ele>238.0</ele><time>2026-04-17T07:48:32Z</time></trkpt><trkpt lat="44.589106258420124" lon="8.662244055936682"><ele>239.0</ele><time>2026-04-17T07:48:33Z</time></trkpt><trkpt lat="44.5888828288764" lon="8.662261062554144"><ele>241.33333333333334</ele><time>2026-04-17T07:48:34Z</time></trkpt><trkpt lat="44.58866276538518" lon="8.662277464065216"><ele>243.66666666666669</ele><time>2026-04-17T07:48:35Z</time></trkpt><trkpt lat="44.58843606214779" lon="8.662298281917865"><ele>246.0</ele><time>2026-04-17T07:48:36Z</time></trkpt><trkpt lat="44.588207328824716" lon="8.66229489642427"><ele>246.0</ele><time>2026-04-17T07:48:37Z</time></trkpt><trkpt lat="44.58797864063947" lon="8.662293648757474"><ele>246.0</ele><time>2026-04-17T07:48:38Z</time></trkpt><trkpt lat="44.58774946166384" lon="8.662297393923785"><ele>248.66666666666669</ele><time>2026-04-17T07:48:39Z</time></trkpt><trkpt lat="44.58752988155767" lon="8.662329471168238"><ele>251.33333333333334</ele><time>2026-04-17T07:48:40Z</time></trkpt><trkpt lat="44.58731295892681" lon="8.662358428163497"><ele>254.0</ele><time>2026-04-17T07:48:40.999Z</time></trkpt><trkpt lat="44.58710037155544" lon="8.662388787114613"><ele>255.0</ele><time>2026-04-17T07:48:41.999Z</time></trkpt><trkpt lat="44.58688382065828" lon="8.66240725296873"><ele>256.0</ele><time>2026-04-17T07:48:42.999Z</time></trkpt><trkpt lat="44.58666589401173" lon="8.662429914011678"><ele>257.0</ele><time>2026-04-17T07:48:43.999Z</time></trkpt><trkpt lat="44.58644721061029" lon="8.662470066077987"><ele>257.0</ele><time>2026-04-17T07:48:44.999Z</time></trkpt><trkpt lat="44.586232278085035" lon="8.662519783009033"><ele>257.0</ele><time>2026-04-17T07:48:45.999Z</time></trkpt><trkpt lat="44.58602549831203" lon="8.662601200129751"><ele>257.0</ele><time>2026-04-17T07:48:46.999Z</time></trkpt><trkpt lat="44.585821955458314" lon="8.662713680579946"><ele>258.6666666666667</ele><time>2026-04-17T07:48:47.999Z</time></trkpt><trkpt lat="44.585622093685096" lon="8.66283322390042"><ele>260.3333333333333</ele><time>2026-04-17T07:48:48.999Z</time></trkpt><trkpt lat="44.58542345618096" lon="8.662953756819814"><ele>262.0</ele><time>2026-04-17T07:48:49.999Z</time></trkpt><trkpt lat="44.585227261750894" lon="8.663072095320631"><ele>262.0</ele><time>2026-04-17T07:48:50.999Z</time></trkpt><trkpt lat="44.58503254729098" lon="8.663191758110273"><ele>262.0</ele><time>2026-04-17T07:48:51.999Z</time></trkpt><trkpt lat="44.584844176894954" lon="8.663301028643433"><ele>262.0</ele><time>2026-04-17T07:48:52.999Z</time></trkpt><trkpt lat="44.58467470406849" lon="8.663400249227458"><ele>262.0</ele><time>2026-04-17T07:48:54Z</time></trkpt><trkpt lat="44.58451632272021" lon="8.66349209727675"><ele>262.0</ele><time>2026-04-17T07:48:55Z</time></trkpt><trkpt lat="44.584371723744496" lon="8.663569604625197"><ele>262.0</ele><time>2026-04-17T07:48:56Z</time></trkpt><trkpt lat="44.58423838127259" lon="8.663634595273843"><ele>260.75</ele><time>2026-04-17T07:48:57Z</time></trkpt><trkpt lat="44.58410833972347" lon="8.663701024533633"><ele>259.5</ele><time>2026-04-17T07:48:58Z</time></trkpt><trkpt lat="44.583973492780366" lon="8.663772109531669"><ele>258.25</ele><time>2026-04-17T07:48:59Z</time></trkpt><trkpt lat="44.5838351544564" lon="8.663845085114112"><ele>257.0</ele><time>2026-04-17T07:49:00Z</time></trkpt><trkpt lat="44.583689261150546" lon="8.663937594780485"><ele>262.33333333333337</ele><time>2026-04-17T07:49:01Z</time></trkpt><trkpt lat="44.58355718563502" lon="8.664053781739367"><ele>267.6666666666667</ele><time>2026-04-17T07:49:02Z</time></trkpt><trkpt lat="44.58342778168313" lon="8.664169689813045"><ele>273.0</ele><time>2026-04-17T07:49:03Z</time></trkpt><trkpt lat="44.58329021228026" lon="8.66429392666646"><ele>267.0</ele><time>2026-04-17T07:49:04Z</time></trkpt><trkpt lat="44.583147309032896" lon="8.66447197093201"><ele>261.0</ele><time>2026-04-17T07:49:05Z</time></trkpt><trkpt lat="44.58301177050911" lon="8.664602179760397"><ele>255.0</ele><time>2026-04-17T07:49:06Z</time></trkpt><trkpt lat="44.58287930001928" lon="8.6647021532556"><ele>258.0</ele><time>2026-04-17T07:49:07Z</time></trkpt><trkpt lat="44.5827410171892" lon="8.664775068253899"><ele>261.0</ele><time>2026-04-17T07:49:08Z</time></trkpt><trkpt lat="44.58260150138115" lon="8.664820085691218"><ele>264.0</ele><time>2026-04-17T07:49:09Z</time></trkpt><trkpt lat="44.58247929362794" lon="8.664838685735317"><ele>267.0</ele><time>2026-04-17T07:49:10Z</time></trkpt><trkpt lat="44.58237744842087" lon="8.664852418917159"><ele>267.0</ele><time>2026-04-17T07:49:11Z</time></trkpt><trkpt lat="44.58227073488192" lon="8.66485979653579"><ele>267.0</ele><time>2026-04-17T07:49:12Z</time></trkpt><trkpt lat="44.58215125418592" lon="8.664814457429914"><ele>267.0</ele><time>2026-04-17T07:49:13Z</time></trkpt><trkpt lat="44.582042654849204" lon="8.66469834630052"><ele>267.0</ele><time>2026-04-17T07:49:14Z</time></trkpt><trkpt lat="44.58197104133041" lon="8.664516353131456"><ele>266.6666666666667</ele><time>2026-04-17T07:49:15Z</time></trkpt><trkpt lat="44.58188098385621" lon="8.664350724696172"><ele>266.33333333333337</ele><time>2026-04-17T07:49:16Z</time></trkpt><trkpt lat="44.58180937022289" lon="8.664158734335034"><ele>266.0</ele><time>2026-04-17T07:49:17Z</time></trkpt><trkpt lat="44.58172005486974" lon="8.663967902947729"><ele>266.0</ele><time>2026-04-17T07:49:18Z</time></trkpt><trkpt lat="44.581631338751045" lon="8.663772966199268"><ele>266.0</ele><time>2026-04-17T07:49:19Z</time></trkpt><trkpt lat="44.58153699123796" lon="8.663567499231837"><ele>266.0</ele><time>2026-04-17T07:49:20Z</time></trkpt><trkpt lat="44.58144234409051" lon="8.663360381455433"><ele>266.6666666666667</ele><time>2026-04-17T07:49:21Z</time></trkpt><trkpt lat="44.58134291283148" lon="8.663141797401877"><ele>267.3333333333333</ele><time>2026-04-17T07:49:22Z</time></trkpt><trkpt lat="44.581250388942955" lon="8.66291493961604"><ele>268.0</ele><time>2026-04-17T07:49:23Z</time></trkpt><trkpt lat="44.58117601234458" lon="8.662694604553312"><ele>268.0</ele><time>2026-04-17T07:49:24Z</time></trkpt><trkpt lat="44.58109719349374" lon="8.66249162053208"><ele>268.0</ele><time>2026-04-17T07:49:25Z</time></trkpt><trkpt lat="44.58099730505235" lon="8.662304839515532"><ele>268.0</ele><time>2026-04-17T07:49:26Z</time></trkpt><trkpt lat="44.58089176255999" lon="8.662107713047147"><ele>278.66666666666663</ele><time>2026-04-17T07:49:27Z</time></trkpt><trkpt lat="44.58080909068259" lon="8.661887642439739"><ele>289.3333333333333</ele><time>2026-04-17T07:49:28Z</time></trkpt><trkpt lat="44.58069983684349" lon="8.66168311141342"><ele>300.0</ele><time>2026-04-17T07:49:29Z</time></trkpt><trkpt lat="44.58056776560826" lon="8.661507216020292"><ele>300.0</ele><time>2026-04-17T07:49:30Z</time></trkpt><trkpt lat="44.58042236129109" lon="8.66133538438282"><ele>300.0</ele><time>2026-04-17T07:49:31Z</time></trkpt><trkpt lat="44.580271160759246" lon="8.661142178765148"><ele>300.0</ele><time>2026-04-17T07:49:32Z</time></trkpt><trkpt lat="44.58011832059626" lon="8.660982543277498"><ele>299.3333333333333</ele><time>2026-04-17T07:49:33Z</time></trkpt><trkpt lat="44.57996427431679" lon="8.660858089057012"><ele>298.66666666666663</ele><time>2026-04-17T07:49:34Z</time></trkpt><trkpt lat="44.57980722578994" lon="8.660756112348936"><ele>298.0</ele><time>2026-04-17T07:49:35Z</time></trkpt><trkpt lat="44.57965526042664" lon="8.660662170415806"><ele>297.75</ele><time>2026-04-17T07:49:36Z</time></trkpt><trkpt lat="44.57951656496012" lon="8.660562095496521"><ele>297.5</ele><time>2026-04-17T07:49:37Z</time></trkpt><trkpt lat="44.57939219643602" lon="8.660432637508526"><ele>297.25</ele><time>2026-04-17T07:49:38Z</time></trkpt><trkpt lat="44.57929768297564" lon="8.660309734821631"><ele>297.0</ele><time>2026-04-17T07:49:39Z</time></trkpt><trkpt lat="44.57922040311307" lon="8.660160721462638"><ele>297.0</ele><time>2026-04-17T07:49:40Z</time></trkpt><trkpt lat="44.579128450414395" lon="8.660056513575407"><ele>297.0</ele><time>2026-04-17T07:49:41Z</time></trkpt><trkpt lat="44.579006850102225" lon="8.660017046348356"><ele>297.0</ele><time>2026-04-17T07:49:42Z</time></trkpt><trkpt lat="44.578859783406266" lon="8.660014774185722"><ele>297.0</ele><time>2026-04-17T07:49:43Z</time></trkpt><trkpt lat="44.57869914872034" lon="8.660020564252775"><ele>295.3333333333333</ele><time>2026-04-17T07:49:44Z</time></trkpt><trkpt lat="44.578523511104635" lon="8.66002049759117"><ele>293.66666666666663</ele><time>2026-04-17T07:49:45Z</time></trkpt><trkpt lat="44.57832626638765" lon="8.660028344953515"><ele>292.0</ele><time>2026-04-17T07:49:46Z</time></trkpt><trkpt lat="44.57811096724992" lon="8.660031999648252"><ele>292.0</ele><time>2026-04-17T07:49:47Z</time></trkpt><trkpt lat="44.57789733215972" lon="8.66002575263938"><ele>292.0</ele><time>2026-04-17T07:49:48Z</time></trkpt><trkpt lat="44.57771173151207" lon="8.659989387109698"><ele>292.0</ele><time>2026-04-17T07:49:49Z</time></trkpt><trkpt lat="44.57753579329506" lon="8.659927806076833"><ele>291.66666666666663</ele><time>2026-04-17T07:49:50Z</time></trkpt><trkpt lat="44.57736960324534" lon="8.659833697208468"><ele>291.3333333333333</ele><time>2026-04-17T07:49:51Z</time></trkpt><trkpt lat="44.577185954479106" lon="8.659772023644786"><ele>291.0</ele><time>2026-04-17T07:49:52Z</time></trkpt><trkpt lat="44.577001565884224" lon="8.659764352074944"><ele>290.5</ele><time>2026-04-17T07:49:53Z</time></trkpt><trkpt lat="44.57684036170897" lon="8.659801499146052"><ele>290.0</ele><time>2026-04-17T07:49:54Z</time></trkpt><trkpt lat="44.57669553804764" lon="8.659815078415388"><ele>289.5</ele><time>2026-04-17T07:49:55Z</time></trkpt><trkpt lat="44.576575693335535" lon="8.65979887600639"><ele>289.0</ele><time>2026-04-17T07:49:56Z</time></trkpt><trkpt lat="44.5764673966667" lon="8.659724663503624"><ele>289.0</ele><time>2026-04-17T07:49:57Z</time></trkpt><trkpt lat="44.57640041499919" lon="8.659574024720605"><ele>289.0</ele><time>2026-04-17T07:49:58Z</time></trkpt><trkpt lat="44.5763039127815" lon="8.659459360555807"><ele>289.0</ele><time>2026-04-17T07:49:59Z</time></trkpt><trkpt lat="44.57620665634583" lon="8.659402035782424"><ele>289.0</ele><time>2026-04-17T07:50:00Z</time></trkpt><trkpt lat="44.57609755079902" lon="8.65940102806496"><ele>290.5</ele><time>2026-04-17T07:50:01Z</time></trkpt><trkpt lat="44.57597895481196" lon="8.659442794139762"><ele>292.0</ele><time>2026-04-17T07:50:02Z</time></trkpt><trkpt lat="44.57587000203387" lon="8.659534496518292"><ele>293.5</ele><time>2026-04-17T07:50:03Z</time></trkpt><trkpt lat="44.575773686411196" lon="8.65967536974576"><ele>295.0</ele><time>2026-04-17T07:50:04Z</time></trkpt><trkpt lat="44.57567379681481" lon="8.659821703539848"><ele>295.0</ele><time>2026-04-17T07:50:05Z</time></trkpt><trkpt lat="44.57555663370846" lon="8.659956053852133"><ele>295.0</ele><time>2026-04-17T07:50:06Z</time></trkpt><trkpt lat="44.57542674622084" lon="8.660060329076638"><ele>295.0</ele><time>2026-04-17T07:50:07Z</time></trkpt><trkpt lat="44.57533998539927" lon="8.660170187840968"><ele>295.0</ele><time>2026-04-17T07:50:08Z</time></trkpt><trkpt lat="44.57529278505872" lon="8.660319909261757"><ele>302.25</ele><time>2026-04-17T07:50:09Z</time></trkpt><trkpt lat="44.57529239778073" lon="8.660490550753025"><ele>309.5</ele><time>2026-04-17T07:50:10Z</time></trkpt><trkpt lat="44.57533644256263" lon="8.660660001807107"><ele>316.75</ele><time>2026-04-17T07:50:11Z</time></trkpt><trkpt lat="44.57535228169496" lon="8.660816241093766"><ele>324.0</ele><time>2026-04-17T07:50:12Z</time></trkpt><trkpt lat="44.57534749999231" lon="8.660988815977744"><ele>322.5</ele><time>2026-04-17T07:50:13Z</time></trkpt><trkpt lat="44.57530928497544" lon="8.661153687040109"><ele>321.0</ele><time>2026-04-17T07:50:14Z</time></trkpt><trkpt lat="44.57527514787772" lon="8.661323142053392"><ele>319.5</ele><time>2026-04-17T07:50:15Z</time></trkpt><trkpt lat="44.575194945315154" lon="8.661476627008325"><ele>318.0</ele><time>2026-04-17T07:50:16Z</time></trkpt><trkpt lat="44.575130658137816" lon="8.661631673260814"><ele>318.0</ele><time>2026-04-17T07:50:17Z</time></trkpt><trkpt lat="44.57510439231294" lon="8.661792531681378"><ele>318.0</ele><time>2026-04-17T07:50:18Z</time></trkpt><trkpt lat="44.57514064244767" lon="8.661938616351847"><ele>318.0</ele><time>2026-04-17T07:50:19Z</time></trkpt><trkpt lat="44.57520771659264" lon="8.66212223721152"><ele>318.0</ele><time>2026-04-17T07:50:20Z</time></trkpt><trkpt lat="44.57529956611395" lon="8.66232018850555"><ele>319.0</ele><time>2026-04-17T07:50:21Z</time></trkpt><trkpt lat="44.575345487885514" lon="8.662501848903464"><ele>320.0</ele><time>2026-04-17T07:50:22Z</time></trkpt><trkpt lat="44.575373027668284" lon="8.66278189845107"><ele>321.0</ele><time>2026-04-17T07:50:23Z</time></trkpt><trkpt lat="44.575374348740866" lon="8.663027451195322"><ele>308.3333333333333</ele><time>2026-04-17T07:50:24Z</time></trkpt><trkpt lat="44.57536520842172" lon="8.663268151943116"><ele>295.66666666666663</ele><time>2026-04-17T07:50:25Z</time></trkpt><trkpt lat="44.57539737596127" lon="8.663501418298008"><ele>283.0</ele><time>2026-04-17T07:50:26Z</time></trkpt><trkpt lat="44.57544893246998" lon="8.663751296182195"><ele>282.66666666666663</ele><time>2026-04-17T07:50:27Z</time></trkpt><trkpt lat="44.575453443962296" lon="8.66399310705093"><ele>282.3333333333333</ele><time>2026-04-17T07:50:28Z</time></trkpt><trkpt lat="44.5754097776794" lon="8.66425277267223"><ele>282.0</ele><time>2026-04-17T07:50:29Z</time></trkpt><trkpt lat="44.57531375658194" lon="8.664431498395539"><ele>288.6666666666667</ele><time>2026-04-17T07:50:30Z</time></trkpt><trkpt lat="44.57531031625301" lon="8.664744637938893"><ele>295.33333333333337</ele><time>2026-04-17T07:50:31Z</time></trkpt><trkpt lat="44.57529547213272" lon="8.665029279535153"><ele>302.0</ele><time>2026-04-17T07:50:32Z</time></trkpt><trkpt lat="44.57530242524839" lon="8.665302984031266"><ele>304.0</ele><time>2026-04-17T07:50:33Z</time></trkpt><trkpt lat="44.57532478329285" lon="8.665585453385685"><ele>306.0</ele><time>2026-04-17T07:50:34Z</time></trkpt><trkpt lat="44.57534219421192" lon="8.66583197749353"><ele>308.0</ele><time>2026-04-17T07:50:35Z</time></trkpt><trkpt lat="44.575362310133166" lon="8.666064404003272"><ele>310.25</ele><time>2026-04-17T07:50:36Z</time></trkpt><trkpt lat="44.575365795764725" lon="8.666283750869393"><ele>312.5</ele><time>2026-04-17T07:50:37Z</time></trkpt><trkpt lat="44.57536985911532" lon="8.66646658837454"><ele>314.75</ele><time>2026-04-17T07:50:38Z</time></trkpt><trkpt lat="44.57536537822305" lon="8.666669981528274"><ele>317.0</ele><time>2026-04-17T07:50:39Z</time></trkpt><trkpt lat="44.57534327836385" lon="8.666845764973642"><ele>311.5</ele><time>2026-04-17T07:50:40Z</time></trkpt><trkpt lat="44.57526278571738" lon="8.666970069801431"><ele>306.0</ele><time>2026-04-17T07:50:41Z</time></trkpt><trkpt lat="44.57517851252765" lon="8.667097198015597"><ele>300.5</ele><time>2026-04-17T07:50:42Z</time></trkpt><trkpt lat="44.57508715537487" lon="8.667253328098901"><ele>295.0</ele><time>2026-04-17T07:50:43Z</time></trkpt><trkpt lat="44.574973934963474" lon="8.667370946841446"><ele>295.0</ele><time>2026-04-17T07:50:44Z</time></trkpt><trkpt lat="44.57484902612059" lon="8.667443641570095"><ele>295.0</ele><time>2026-04-17T07:50:45Z</time></trkpt><trkpt lat="44.57468717001069" lon="8.66746168017455"><ele>295.0</ele><time>2026-04-17T07:50:46Z</time></trkpt><trkpt lat="44.57452703473363" lon="8.667414354703894"><ele>297.0</ele><time>2026-04-17T07:50:47Z</time></trkpt><trkpt lat="44.574348818618375" lon="8.667355472560804"><ele>299.0</ele><time>2026-04-17T07:50:48Z</time></trkpt><trkpt lat="44.5741593329732" lon="8.66728376681557"><ele>301.0</ele><time>2026-04-17T07:50:49Z</time></trkpt><trkpt lat="44.57395676841456" lon="8.667223535177177"><ele>301.0</ele><time>2026-04-17T07:50:50Z</time></trkpt><trkpt lat="44.57375813924301" lon="8.667162247946663"><ele>301.0</ele><time>2026-04-17T07:50:50.999Z</time></trkpt><trkpt lat="44.57356773245869" lon="8.667132795596457"><ele>301.0</ele><time>2026-04-17T07:50:51.999Z</time></trkpt><trkpt lat="44.57338914735145" lon="8.667143663162058"><ele>300.3333333333333</ele><time>2026-04-17T07:50:52.999Z</time></trkpt><trkpt lat="44.57320493150475" lon="8.667191063666987"><ele>299.6666666666667</ele><time>2026-04-17T07:50:53.999Z</time></trkpt><trkpt lat="44.57302794315287" lon="8.667266518233399"><ele>299.0</ele><time>2026-04-17T07:50:54.999Z</time></trkpt><trkpt lat="44.572868509200575" lon="8.667369617330202"><ele>300.0</ele><time>2026-04-17T07:50:55.999Z</time></trkpt><trkpt lat="44.5727237614083" lon="8.667494411139923"><ele>301.0</ele><time>2026-04-17T07:50:56.999Z</time></trkpt><trkpt lat="44.57257333347405" lon="8.667589775780426"><ele>302.0</ele><time>2026-04-17T07:50:57.999Z</time></trkpt><trkpt lat="44.57241328985008" lon="8.667616119390583"><ele>302.0</ele><time>2026-04-17T07:50:58.999Z</time></trkpt><trkpt lat="44.572257048620365" lon="8.667593081003135"><ele>302.0</ele><time>2026-04-17T07:51:00Z</time></trkpt><trkpt lat="44.572076495113585" lon="8.667548949999109"><ele>302.0</ele><time>2026-04-17T07:51:01Z</time></trkpt><trkpt lat="44.571904138453654" lon="8.667443833641242"><ele>299.6666666666667</ele><time>2026-04-17T07:51:02Z</time></trkpt><trkpt lat="44.57173427559545" lon="8.667315687798679"><ele>297.3333333333333</ele><time>2026-04-17T07:51:03Z</time></trkpt><trkpt lat="44.571565453622995" lon="8.667123730096261"><ele>295.0</ele><time>2026-04-17T07:51:04Z</time></trkpt><trkpt lat="44.571402241163845" lon="8.666954455355938"><ele>299.5</ele><time>2026-04-17T07:51:05Z</time></trkpt><trkpt lat="44.57117219304404" lon="8.666918112371775"><ele>304.0</ele><time>2026-04-17T07:51:06Z</time></trkpt><trkpt lat="44.57089245995052" lon="8.666886374348003"><ele>304.0</ele><time>2026-04-17T07:51:07Z</time></trkpt><trkpt lat="44.57065852217038" lon="8.66686972718155"><ele>304.0</ele><time>2026-04-17T07:51:08Z</time></trkpt><trkpt lat="44.570525108322485" lon="8.666860783126339"><ele>304.0</ele><time>2026-04-17T07:51:09Z</time></trkpt><trkpt lat="44.570348773104485" lon="8.66681990442477"><ele>300.3333333333333</ele><time>2026-04-17T07:51:10Z</time></trkpt><trkpt lat="44.57020403279157" lon="8.666700695540134"><ele>296.6666666666667</ele><time>2026-04-17T07:51:11Z</time></trkpt><trkpt lat="44.570068267714994" lon="8.666591370991402"><ele>293.0</ele><time>2026-04-17T07:51:12Z</time></trkpt><trkpt lat="44.56993847893648" lon="8.666495547820498"><ele>293.0</ele><time>2026-04-17T07:51:13Z</time></trkpt><trkpt lat="44.569827407307336" lon="8.666427251021748"><ele>293.0</ele><time>2026-04-17T07:51:14Z</time></trkpt><trkpt lat="44.56970845952656" lon="8.666381373305343"><ele>293.0</ele><time>2026-04-17T07:51:15Z</time></trkpt><trkpt lat="44.56959788984079" lon="8.66633983964768"><ele>293.0</ele><time>2026-04-17T07:51:16Z</time></trkpt><trkpt lat="44.569477942337976" lon="8.666271772159853"><ele>294.25</ele><time>2026-04-17T07:51:17Z</time></trkpt><trkpt lat="44.56936136288198" lon="8.666167350715858"><ele>295.5</ele><time>2026-04-17T07:51:18Z</time></trkpt><trkpt lat="44.56924072013868" lon="8.666035597087017"><ele>296.75</ele><time>2026-04-17T07:51:19Z</time></trkpt><trkpt lat="44.569135471770906" lon="8.665902191042234"><ele>298.0</ele><time>2026-04-17T07:51:20Z</time></trkpt><trkpt lat="44.56902920153014" lon="8.665776420242313"><ele>298.0</ele><time>2026-04-17T07:51:21Z</time></trkpt><trkpt lat="44.5689418473483" lon="8.665630113749048"><ele>298.0</ele><time>2026-04-17T07:51:22Z</time></trkpt><trkpt lat="44.56884419533101" lon="8.665476061218618"><ele>298.0</ele><time>2026-04-17T07:51:23Z</time></trkpt><trkpt lat="44.56874722712815" lon="8.665318540905561"><ele>298.0</ele><time>2026-04-17T07:51:24Z</time></trkpt><trkpt lat="44.56865525862854" lon="8.665167936287183"><ele>298.0</ele><time>2026-04-17T07:51:25Z</time></trkpt><trkpt lat="44.568565811430126" lon="8.665018609511112"><ele>298.0</ele><time>2026-04-17T07:51:26Z</time></trkpt><trkpt lat="44.56847991327615" lon="8.664879034452321"><ele>298.0</ele><time>2026-04-17T07:51:27Z</time></trkpt><trkpt lat="44.56838938219677" lon="8.664745617886483"><ele>298.0</ele><time>2026-04-17T07:51:28Z</time></trkpt><trkpt lat="44.568292136110024" lon="8.664613633931415"><ele>298.0</ele><time>2026-04-17T07:51:29Z</time></trkpt><trkpt lat="44.568190346186334" lon="8.66448349399619"><ele>298.0</ele><time>2026-04-17T07:51:30Z</time></trkpt><trkpt lat="44.56808762565521" lon="8.664360442398772"><ele>298.0</ele><time>2026-04-17T07:51:31Z</time></trkpt><trkpt lat="44.567986817418074" lon="8.664249600141993"><ele>298.0</ele><time>2026-04-17T07:51:32Z</time></trkpt><trkpt lat="44.56786872096725" lon="8.664162971812896"><ele>297.25</ele><time>2026-04-17T07:51:33Z</time></trkpt><trkpt lat="44.56775454303954" lon="8.664106460001156"><ele>296.5</ele><time>2026-04-17T07:51:34Z</time></trkpt><trkpt lat="44.56763878562546" lon="8.664066830529217"><ele>295.75</ele><time>2026-04-17T07:51:35Z</time></trkpt><trkpt lat="44.5675245412936" lon="8.664051374353503"><ele>295.0</ele><time>2026-04-17T07:51:36Z</time></trkpt><trkpt lat="44.56739798751105" lon="8.664056296756101"><ele>295.0</ele><time>2026-04-17T07:51:37Z</time></trkpt><trkpt lat="44.56726911529774" lon="8.66408250908848"><ele>295.0</ele><time>2026-04-17T07:51:38Z</time></trkpt><trkpt lat="44.56714725524108" lon="8.66413737685266"><ele>295.0</ele><time>2026-04-17T07:51:39Z</time></trkpt><trkpt lat="44.56703127648357" lon="8.66421579617278"><ele>295.0</ele><time>2026-04-17T07:51:40Z</time></trkpt><trkpt lat="44.56691738301379" lon="8.664307548845164"><ele>295.75</ele><time>2026-04-17T07:51:41Z</time></trkpt><trkpt lat="44.56680693771782" lon="8.66441828230754"><ele>296.5</ele><time>2026-04-17T07:51:42Z</time></trkpt><trkpt lat="44.56670866719762" lon="8.664540247222561"><ele>297.25</ele><time>2026-04-17T07:51:43Z</time></trkpt><trkpt lat="44.56661946349213" lon="8.66466392867844"><ele>298.0</ele><time>2026-04-17T07:51:44Z</time></trkpt><trkpt lat="44.56653395743338" lon="8.664778951519514"><ele>298.0</ele><time>2026-04-17T07:51:45Z</time></trkpt><trkpt lat="44.56644038982194" lon="8.664892452482405"><ele>298.0</ele><time>2026-04-17T07:51:46Z</time></trkpt><trkpt lat="44.566346266455525" lon="8.664997715690184"><ele>298.0</ele><time>2026-04-17T07:51:47Z</time></trkpt><trkpt lat="44.56624516150872" lon="8.665091700741884"><ele>298.0</ele><time>2026-04-17T07:51:48Z</time></trkpt><trkpt lat="44.566131291543186" lon="8.665175270189412"><ele>298.75</ele><time>2026-04-17T07:51:49Z</time></trkpt><trkpt lat="44.56601684000047" lon="8.665262714315055"><ele>299.5</ele><time>2026-04-17T07:51:50Z</time></trkpt><trkpt lat="44.56589704330535" lon="8.665347840160718"><ele>300.25</ele><time>2026-04-17T07:51:51Z</time></trkpt><trkpt lat="44.565770650329945" lon="8.66543231796163"><ele>301.0</ele><time>2026-04-17T07:51:52Z</time></trkpt><trkpt lat="44.56564334943592" lon="8.66550672715675"><ele>301.0</ele><time>2026-04-17T07:51:53Z</time></trkpt><trkpt lat="44.565513446105065" lon="8.665578335957806"><ele>301.0</ele><time>2026-04-17T07:51:54Z</time></trkpt><trkpt lat="44.56539611173088" lon="8.665643560860516"><ele>301.0</ele><time>2026-04-17T07:51:55Z</time></trkpt><trkpt lat="44.56528224621969" lon="8.66573300062052"><ele>301.0</ele><time>2026-04-17T07:51:56Z</time></trkpt><trkpt lat="44.565176915250724" lon="8.665833893066022"><ele>301.25</ele><time>2026-04-17T07:51:57Z</time></trkpt><trkpt lat="44.565084215876475" lon="8.665962208387441"><ele>301.5</ele><time>2026-04-17T07:51:58Z</time></trkpt><trkpt lat="44.564993048050525" lon="8.666095097323108"><ele>301.75</ele><time>2026-04-17T07:51:59Z</time></trkpt><trkpt lat="44.56489261574067" lon="8.666223065598293"><ele>302.0</ele><time>2026-04-17T07:52:00Z</time></trkpt><trkpt lat="44.56480407922976" lon="8.666342403131798"><ele>302.0</ele><time>2026-04-17T07:52:01Z</time></trkpt><trkpt lat="44.56471780924037" lon="8.666479175680708"><ele>302.0</ele><time>2026-04-17T07:52:02Z</time></trkpt><trkpt lat="44.56462375209896" lon="8.666619469702328"><ele>302.0</ele><time>2026-04-17T07:52:03Z</time></trkpt><trkpt lat="44.56452593083952" lon="8.666768527043605"><ele>302.0</ele><time>2026-04-17T07:52:04Z</time></trkpt><trkpt lat="44.56442283261294" lon="8.666912591658578"><ele>303.25</ele><time>2026-04-17T07:52:05Z</time></trkpt><trkpt lat="44.564329199171866" lon="8.667053616173781"><ele>304.5</ele><time>2026-04-17T07:52:06Z</time></trkpt><trkpt lat="44.56424213841609" lon="8.667195886543325"><ele>305.75</ele><time>2026-04-17T07:52:07Z</time></trkpt><trkpt lat="44.564165328074296" lon="8.667352420002915"><ele>307.0</ele><time>2026-04-17T07:52:08Z</time></trkpt><trkpt lat="44.56410012875025" lon="8.66752940050063"><ele>307.0</ele><time>2026-04-17T07:52:09Z</time></trkpt><trkpt lat="44.56405240204894" lon="8.667708719730296"><ele>307.0</ele><time>2026-04-17T07:52:10Z</time></trkpt><trkpt lat="44.56400283159871" lon="8.667886789822296"><ele>307.0</ele><time>2026-04-17T07:52:11Z</time></trkpt><trkpt lat="44.563955972269305" lon="8.668016885433413"><ele>307.0</ele><time>2026-04-17T07:52:12Z</time></trkpt><trkpt lat="44.563878163482826" lon="8.668128216802382"><ele>306.25</ele><time>2026-04-17T07:52:13Z</time></trkpt><trkpt lat="44.56380226033588" lon="8.668228089055352"><ele>305.5</ele><time>2026-04-17T07:52:14Z</time></trkpt><trkpt lat="44.56371008761599" lon="8.668343286204035"><ele>304.75</ele><time>2026-04-17T07:52:15Z</time></trkpt><trkpt lat="44.56362136575746" lon="8.668452913059108"><ele>304.0</ele><time>2026-04-17T07:52:16Z</time></trkpt><trkpt lat="44.563520870531484" lon="8.6685745835511"><ele>302.25</ele><time>2026-04-17T07:52:17Z</time></trkpt><trkpt lat="44.56341677256311" lon="8.668701082821256"><ele>300.5</ele><time>2026-04-17T07:52:18Z</time></trkpt><trkpt lat="44.5633176346265" lon="8.668823799476158"><ele>298.75</ele><time>2026-04-17T07:52:19Z</time></trkpt><trkpt lat="44.56320610185755" lon="8.668964104014693"><ele>297.0</ele><time>2026-04-17T07:52:20Z</time></trkpt><trkpt lat="44.563103077364694" lon="8.66909583747347"><ele>297.0</ele><time>2026-04-17T07:52:21Z</time></trkpt><trkpt lat="44.56301243270786" lon="8.669213541923623"><ele>297.0</ele><time>2026-04-17T07:52:22Z</time></trkpt><trkpt lat="44.56291089977396" lon="8.669347102798369"><ele>297.0</ele><time>2026-04-17T07:52:23Z</time></trkpt><trkpt lat="44.56281740721584" lon="8.669469270164177"><ele>297.0</ele><time>2026-04-17T07:52:24Z</time></trkpt><trkpt lat="44.56271876332214" lon="8.669592741142258"><ele>297.75</ele><time>2026-04-17T07:52:25Z</time></trkpt><trkpt lat="44.56262050391764" lon="8.669710742119443"><ele>298.5</ele><time>2026-04-17T07:52:26Z</time></trkpt><trkpt lat="44.562520010250324" lon="8.669816383429257"><ele>299.25</ele><time>2026-04-17T07:52:27Z</time></trkpt><trkpt lat="44.56241312414798" lon="8.669914205139222"><ele>300.0</ele><time>2026-04-17T07:52:28Z</time></trkpt><trkpt lat="44.562309868030056" lon="8.670024785849728"><ele>300.0</ele><time>2026-04-17T07:52:29Z</time></trkpt><trkpt lat="44.56219610094686" lon="8.670091322061133"><ele>300.0</ele><time>2026-04-17T07:52:30Z</time></trkpt><trkpt lat="44.5620855954404" lon="8.67016702946701"><ele>300.0</ele><time>2026-04-17T07:52:31Z</time></trkpt><trkpt lat="44.56197486469901" lon="8.670244518853185"><ele>300.0</ele><time>2026-04-17T07:52:32Z</time></trkpt><trkpt lat="44.56186184843499" lon="8.670326520407123"><ele>299.0</ele><time>2026-04-17T07:52:33Z</time></trkpt><trkpt lat="44.561735189488346" lon="8.670392947059806"><ele>298.0</ele><time>2026-04-17T07:52:34Z</time></trkpt><trkpt lat="44.561614304802134" lon="8.670475655356762"><ele>297.0</ele><time>2026-04-17T07:52:35Z</time></trkpt><trkpt lat="44.561494165727616" lon="8.670561619952357"><ele>296.0</ele><time>2026-04-17T07:52:36Z</time></trkpt><trkpt lat="44.561373610175764" lon="8.670648350403656"><ele>296.0</ele><time>2026-04-17T07:52:37Z</time></trkpt><trkpt lat="44.56125404269175" lon="8.670737126603957"><ele>296.0</ele><time>2026-04-17T07:52:38Z</time></trkpt><trkpt lat="44.56114676144376" lon="8.67082611501683"><ele>296.0</ele><time>2026-04-17T07:52:39Z</time></trkpt><trkpt lat="44.56103236692863" lon="8.670919929588006"><ele>296.0</ele><time>2026-04-17T07:52:40Z</time></trkpt><trkpt lat="44.560923309611276" lon="8.671014213150064"><ele>295.75</ele><time>2026-04-17T07:52:41Z</time></trkpt><trkpt lat="44.560807040691344" lon="8.671122116722744"><ele>295.5</ele><time>2026-04-17T07:52:42Z</time></trkpt><trkpt lat="44.560686925506204" lon="8.671226865046826"><ele>295.25</ele><time>2026-04-17T07:52:43Z</time></trkpt><trkpt lat="44.56056770286712" lon="8.67133795240448"><ele>295.0</ele><time>2026-04-17T07:52:44Z</time></trkpt><trkpt lat="44.56044734521828" lon="8.67146266183831"><ele>294.25</ele><time>2026-04-17T07:52:45Z</time></trkpt><trkpt lat="44.56032372669397" lon="8.671581278543448"><ele>293.5</ele><time>2026-04-17T07:52:46Z</time></trkpt><trkpt lat="44.56021346608543" lon="8.671686933968152"><ele>292.75</ele><time>2026-04-17T07:52:47Z</time></trkpt><trkpt lat="44.56010784646326" lon="8.671788874106358"><ele>292.0</ele><time>2026-04-17T07:52:48Z</time></trkpt><trkpt lat="44.5600018567806" lon="8.671885973018087"><ele>294.25</ele><time>2026-04-17T07:52:49Z</time></trkpt><trkpt lat="44.559895271950346" lon="8.671991440686572"><ele>296.5</ele><time>2026-04-17T07:52:50Z</time></trkpt><trkpt lat="44.559785962189466" lon="8.672092430815582"><ele>298.75</ele><time>2026-04-17T07:52:50.999Z</time></trkpt><trkpt lat="44.55967433641826" lon="8.672201918682193"><ele>301.0</ele><time>2026-04-17T07:52:51.999Z</time></trkpt><trkpt lat="44.55956230124254" lon="8.672314585713757"><ele>302.0</ele><time>2026-04-17T07:52:52.999Z</time></trkpt><trkpt lat="44.55944767852714" lon="8.672424689130024"><ele>303.0</ele><time>2026-04-17T07:52:53.999Z</time></trkpt><trkpt lat="44.55933167541812" lon="8.672543203016003"><ele>304.0</ele><time>2026-04-17T07:52:54.999Z</time></trkpt><trkpt lat="44.559212866025554" lon="8.672651507131672"><ele>305.0</ele><time>2026-04-17T07:52:55.999Z</time></trkpt><trkpt lat="44.559094514241124" lon="8.672747022850317"><ele>304.25</ele><time>2026-04-17T07:52:56.999Z</time></trkpt><trkpt lat="44.55897779830215" lon="8.672813562299797"><ele>303.5</ele><time>2026-04-17T07:52:57.999Z</time></trkpt><trkpt lat="44.55883399953154" lon="8.672828947310554"><ele>302.75</ele><time>2026-04-17T07:52:58.999Z</time></trkpt><trkpt lat="44.55870738406795" lon="8.672832114963345"><ele>302.0</ele><time>2026-04-17T07:52:59.999Z</time></trkpt><trkpt lat="44.558574751834705" lon="8.672784267854093"><ele>302.25</ele><time>2026-04-17T07:53:00.999Z</time></trkpt><trkpt lat="44.55844546725225" lon="8.672731744708933"><ele>302.5</ele><time>2026-04-17T07:53:01.999Z</time></trkpt><trkpt lat="44.55831606726168" lon="8.672694342927297"><ele>302.75</ele><time>2026-04-17T07:53:02.999Z</time></trkpt><trkpt lat="44.558183391347875" lon="8.672656290343244"><ele>303.0</ele><time>2026-04-17T07:53:03.999Z</time></trkpt><trkpt lat="44.558053092640684" lon="8.672607358327197"><ele>303.0</ele><time>2026-04-17T07:53:04.999Z</time></trkpt><trkpt lat="44.55791402722043" lon="8.672562616957201"><ele>303.0</ele><time>2026-04-17T07:53:06Z</time></trkpt><trkpt lat="44.55778039540337" lon="8.672509512883861"><ele>303.0</ele><time>2026-04-17T07:53:07Z</time></trkpt><trkpt lat="44.557638594138716" lon="8.67245653560754"><ele>303.0</ele><time>2026-04-17T07:53:08Z</time></trkpt><trkpt lat="44.5575165900007" lon="8.672374330392628"><ele>304.75</ele><time>2026-04-17T07:53:09Z</time></trkpt><trkpt lat="44.55741931174319" lon="8.672266801684906"><ele>306.5</ele><time>2026-04-17T07:53:10Z</time></trkpt><trkpt lat="44.55729844104496" lon="8.672168321161823"><ele>308.25</ele><time>2026-04-17T07:53:11Z</time></trkpt><trkpt lat="44.55718702123694" lon="8.672078763804464"><ele>310.0</ele><time>2026-04-17T07:53:12Z</time></trkpt><trkpt lat="44.55707900827102" lon="8.671996510579017"><ele>308.0</ele><time>2026-04-17T07:53:13Z</time></trkpt><trkpt lat="44.55696894746076" lon="8.671915074829123"><ele>306.0</ele><time>2026-04-17T07:53:14Z</time></trkpt><trkpt lat="44.55685464558921" lon="8.671856533880572"><ele>304.0</ele><time>2026-04-17T07:53:15Z</time></trkpt><trkpt lat="44.55672740659099" lon="8.671812876662171"><ele>302.0</ele><time>2026-04-17T07:53:16Z</time></trkpt><trkpt lat="44.55660348248597" lon="8.671797397927804"><ele>302.0</ele><time>2026-04-17T07:53:17Z</time></trkpt><trkpt lat="44.55648693532281" lon="8.671781617933027"><ele>302.0</ele><time>2026-04-17T07:53:18Z</time></trkpt><trkpt lat="44.55637006291086" lon="8.671765397409107"><ele>302.0</ele><time>2026-04-17T07:53:19Z</time></trkpt><trkpt lat="44.556268591900505" lon="8.671770903976448"><ele>302.0</ele><time>2026-04-17T07:53:20Z</time></trkpt><trkpt lat="44.55614625274322" lon="8.67177503676753"><ele>301.5</ele><time>2026-04-17T07:53:21Z</time></trkpt><trkpt lat="44.55602446864267" lon="8.671790365987087"><ele>301.0</ele><time>2026-04-17T07:53:22Z</time></trkpt><trkpt lat="44.55590851002118" lon="8.671816158533886"><ele>300.5</ele><time>2026-04-17T07:53:23Z</time></trkpt><trkpt lat="44.55576895193191" lon="8.671857448648964"><ele>300.0</ele><time>2026-04-17T07:53:24Z</time></trkpt><trkpt lat="44.55565770601801" lon="8.67188931481423"><ele>300.0</ele><time>2026-04-17T07:53:25Z</time></trkpt><trkpt lat="44.55551923229299" lon="8.67193372919045"><ele>300.0</ele><time>2026-04-17T07:53:26Z</time></trkpt><trkpt lat="44.555361822273504" lon="8.671991367236876"><ele>300.0</ele><time>2026-04-17T07:53:27Z</time></trkpt><trkpt lat="44.55520994781257" lon="8.672053075683364"><ele>304.3333333333333</ele><time>2026-04-17T07:53:28Z</time></trkpt><trkpt lat="44.5550209938589" lon="8.672132565901725"><ele>308.66666666666663</ele><time>2026-04-17T07:53:29Z</time></trkpt><trkpt lat="44.55481829739868" lon="8.672218078596677"><ele>313.0</ele><time>2026-04-17T07:53:30Z</time></trkpt><trkpt lat="44.554605967812265" lon="8.67231486133528"><ele>311.0</ele><time>2026-04-17T07:53:31Z</time></trkpt><trkpt lat="44.55436533192923" lon="8.672379821091871"><ele>309.0</ele><time>2026-04-17T07:53:32Z</time></trkpt><trkpt lat="44.55411539144931" lon="8.672465696233788"><ele>309.0</ele><time>2026-04-17T07:53:33Z</time></trkpt><trkpt lat="44.553865552249505" lon="8.672542438593087"><ele>309.0</ele><time>2026-04-17T07:53:34Z</time></trkpt><trkpt lat="44.55360645328684" lon="8.672623032730746"><ele>305.5</ele><time>2026-04-17T07:53:35Z</time></trkpt><trkpt lat="44.55334197526282" lon="8.672702300251313"><ele>302.0</ele><time>2026-04-17T07:53:36Z</time></trkpt><trkpt lat="44.55307054774212" lon="8.67279976005652"><ele>310.5</ele><time>2026-04-17T07:53:37Z</time></trkpt><trkpt lat="44.552813083220045" lon="8.672875931933794"><ele>319.0</ele><time>2026-04-17T07:53:38Z</time></trkpt><trkpt lat="44.55257433589298" lon="8.672962241745427"><ele>319.0</ele><time>2026-04-17T07:53:39Z</time></trkpt><trkpt lat="44.552341266664506" lon="8.673018571716868"><ele>319.0</ele><time>2026-04-17T07:53:40Z</time></trkpt><trkpt lat="44.55210187167154" lon="8.673054913461126"><ele>319.0</ele><time>2026-04-17T07:53:41Z</time></trkpt><trkpt lat="44.55185303590981" lon="8.67306355430143"><ele>319.0</ele><time>2026-04-17T07:53:42Z</time></trkpt><trkpt lat="44.5516070513096" lon="8.673059780005557"><ele>319.0</ele><time>2026-04-17T07:53:43Z</time></trkpt><trkpt lat="44.551352498264016" lon="8.673102099053361"><ele>319.0</ele><time>2026-04-17T07:53:44Z</time></trkpt><trkpt lat="44.55111193498046" lon="8.673129801456401"><ele>317.0</ele><time>2026-04-17T07:53:45Z</time></trkpt><trkpt lat="44.550864953971924" lon="8.673214775616877"><ele>315.0</ele><time>2026-04-17T07:53:46Z</time></trkpt><trkpt lat="44.55061960243236" lon="8.67326796553017"><ele>316.0</ele><time>2026-04-17T07:53:47Z</time></trkpt><trkpt lat="44.55036082014409" lon="8.673329864762161"><ele>317.0</ele><time>2026-04-17T07:53:48Z</time></trkpt><trkpt lat="44.55011010261717" lon="8.673396874560586"><ele>317.0</ele><time>2026-04-17T07:53:49Z</time></trkpt><trkpt lat="44.54988468775559" lon="8.673452453630505"><ele>317.0</ele><time>2026-04-17T07:53:50Z</time></trkpt><trkpt lat="44.549673740747124" lon="8.673516324009947"><ele>317.0</ele><time>2026-04-17T07:53:51Z</time></trkpt><trkpt lat="44.54947983385283" lon="8.67356632946447"><ele>323.6666666666667</ele><time>2026-04-17T07:53:52Z</time></trkpt><trkpt lat="44.54929724803285" lon="8.673609281995335"><ele>330.3333333333333</ele><time>2026-04-17T07:53:53Z</time></trkpt><trkpt lat="44.549132249814264" lon="8.673644716411863"><ele>337.0</ele><time>2026-04-17T07:53:54Z</time></trkpt><trkpt lat="44.54898661565863" lon="8.6736987337968"><ele>337.0</ele><time>2026-04-17T07:53:55Z</time></trkpt><trkpt lat="44.54886027902445" lon="8.673757893591384"><ele>337.0</ele><time>2026-04-17T07:53:56Z</time></trkpt><trkpt lat="44.54874278791411" lon="8.673855377418397"><ele>337.0</ele><time>2026-04-17T07:53:57Z</time></trkpt><trkpt lat="44.54863991837444" lon="8.673988657786547"><ele>337.0</ele><time>2026-04-17T07:53:58Z</time></trkpt><trkpt lat="44.548538020105624" lon="8.674148293525201"><ele>333.0</ele><time>2026-04-17T07:53:59Z</time></trkpt><trkpt lat="44.548463862857574" lon="8.674330513926119"><ele>329.0</ele><time>2026-04-17T07:54:00Z</time></trkpt><trkpt lat="44.54842605438728" lon="8.674528757348005"><ele>325.0</ele><time>2026-04-17T07:54:01Z</time></trkpt><trkpt lat="44.54841807716087" lon="8.674752513275724"><ele>325.0</ele><time>2026-04-17T07:54:02Z</time></trkpt><trkpt lat="44.548440641959175" lon="8.67498744737821"><ele>325.0</ele><time>2026-04-17T07:54:03Z</time></trkpt><trkpt lat="44.54844109644338" lon="8.675231671261693"><ele>325.0</ele><time>2026-04-17T07:54:04Z</time></trkpt><trkpt lat="44.548419490698606" lon="8.67547518534485"><ele>327.66666666666663</ele><time>2026-04-17T07:54:05Z</time></trkpt><trkpt lat="44.54838321436192" lon="8.675718224571641"><ele>330.3333333333333</ele><time>2026-04-17T07:54:06Z</time></trkpt><trkpt lat="44.5483521127437" lon="8.675956723629792"><ele>333.0</ele><time>2026-04-17T07:54:07Z</time></trkpt><trkpt lat="44.54831668184892" lon="8.676174443516272"><ele>338.25</ele><time>2026-04-17T07:54:08Z</time></trkpt><trkpt lat="44.548272389030565" lon="8.676354297124723"><ele>343.5</ele><time>2026-04-17T07:54:09Z</time></trkpt><trkpt lat="44.54820288861464" lon="8.676506417302454"><ele>348.75</ele><time>2026-04-17T07:54:10Z</time></trkpt><trkpt lat="44.54809510708229" lon="8.676643732867092"><ele>354.0</ele><time>2026-04-17T07:54:11Z</time></trkpt><trkpt lat="44.54797467084166" lon="8.676758158705653"><ele>356.6666666666667</ele><time>2026-04-17T07:54:12Z</time></trkpt><trkpt lat="44.547839153698014" lon="8.676845500792366"><ele>359.33333333333337</ele><time>2026-04-17T07:54:13Z</time></trkpt><trkpt lat="44.54768764615293" lon="8.676889680247143"><ele>362.0</ele><time>2026-04-17T07:54:14Z</time></trkpt><trkpt lat="44.547531997775536" lon="8.67693638341142"><ele>362.0</ele><time>2026-04-17T07:54:15Z</time></trkpt><trkpt lat="44.54737615020049" lon="8.676986124532993"><ele>362.0</ele><time>2026-04-17T07:54:16Z</time></trkpt><trkpt lat="44.54721672104194" lon="8.677029650036703"><ele>362.0</ele><time>2026-04-17T07:54:17Z</time></trkpt><trkpt lat="44.547068519315005" lon="8.677048805049374"><ele>358.6666666666667</ele><time>2026-04-17T07:54:18Z</time></trkpt><trkpt lat="44.54691767463993" lon="8.677054706940437"><ele>355.3333333333333</ele><time>2026-04-17T07:54:19Z</time></trkpt><trkpt lat="44.54675556896733" lon="8.677073595120113"><ele>352.0</ele><time>2026-04-17T07:54:20Z</time></trkpt><trkpt lat="44.546597926158796" lon="8.677092413178379"><ele>352.0</ele><time>2026-04-17T07:54:21Z</time></trkpt><trkpt lat="44.54644710449124" lon="8.677079074468226"><ele>352.0</ele><time>2026-04-17T07:54:22Z</time></trkpt><trkpt lat="44.546306064896655" lon="8.677069967822947"><ele>352.0</ele><time>2026-04-17T07:54:23Z</time></trkpt><trkpt lat="44.54618968207534" lon="8.677085887233263"><ele>352.0</ele><time>2026-04-17T07:54:24Z</time></trkpt><trkpt lat="44.546089824148304" lon="8.677150041770272"><ele>345.0</ele><time>2026-04-17T07:54:25Z</time></trkpt><trkpt lat="44.54600925205257" lon="8.677270564856991"><ele>338.0</ele><time>2026-04-17T07:54:26Z</time></trkpt><trkpt lat="44.54592646524285" lon="8.677448623911115"><ele>331.0</ele><time>2026-04-17T07:54:27Z</time></trkpt><trkpt lat="44.545835719559285" lon="8.677681873759083"><ele>338.3333333333333</ele><time>2026-04-17T07:54:28Z</time></trkpt><trkpt lat="44.54572122560582" lon="8.677914420973767"><ele>345.6666666666667</ele><time>2026-04-17T07:54:29Z</time></trkpt><trkpt lat="44.54556702643701" lon="8.678137541307965"><ele>353.0</ele><time>2026-04-17T07:54:30Z</time></trkpt><trkpt lat="44.54539073845058" lon="8.678355168515296"><ele>346.5</ele><time>2026-04-17T07:54:31Z</time></trkpt><trkpt lat="44.54520475397471" lon="8.678550204003509"><ele>340.0</ele><time>2026-04-17T07:54:32Z</time></trkpt><trkpt lat="44.54502575611865" lon="8.678755134210665"><ele>340.0</ele><time>2026-04-17T07:54:33Z</time></trkpt><trkpt lat="44.5448469207125" lon="8.678986910108874"><ele>340.0</ele><time>2026-04-17T07:54:34Z</time></trkpt><trkpt lat="44.54467351251962" lon="8.67924052103919"><ele>337.0</ele><time>2026-04-17T07:54:35Z</time></trkpt><trkpt lat="44.5445180252571" lon="8.679489996117674"><ele>334.0</ele><time>2026-04-17T07:54:36Z</time></trkpt><trkpt lat="44.544372104756356" lon="8.679734976540157"><ele>334.0</ele><time>2026-04-17T07:54:37Z</time></trkpt><trkpt lat="44.544248585147955" lon="8.679970101016405"><ele>334.0</ele><time>2026-04-17T07:54:38Z</time></trkpt><trkpt lat="44.544144421691165" lon="8.680207830759032"><ele>334.0</ele><time>2026-04-17T07:54:39Z</time></trkpt><trkpt lat="44.54405861955524" lon="8.680449775030143"><ele>336.3333333333333</ele><time>2026-04-17T07:54:40Z</time></trkpt><trkpt lat="44.544002722727235" lon="8.680701866597305"><ele>338.6666666666667</ele><time>2026-04-17T07:54:41Z</time></trkpt><trkpt lat="44.543975276152366" lon="8.68096230053371"><ele>341.0</ele><time>2026-04-17T07:54:42Z</time></trkpt><trkpt lat="44.543975563493305" lon="8.681241036271723"><ele>341.0</ele><time>2026-04-17T07:54:42.999Z</time></trkpt><trkpt lat="44.5439991035724" lon="8.681520170633368"><ele>341.0</ele><time>2026-04-17T07:54:43.999Z</time></trkpt><trkpt lat="44.54403941261235" lon="8.681814812527339"><ele>341.0</ele><time>2026-04-17T07:54:44.999Z</time></trkpt><trkpt lat="44.544075831626245" lon="8.682116583910437"><ele>338.5</ele><time>2026-04-17T07:54:45.999Z</time></trkpt><trkpt lat="44.544114856447834" lon="8.682430879833078"><ele>336.0</ele><time>2026-04-17T07:54:46.999Z</time></trkpt><trkpt lat="44.544158837316246" lon="8.682750226307395"><ele>333.5</ele><time>2026-04-17T07:54:47.999Z</time></trkpt><trkpt lat="44.544205520265315" lon="8.68307484916268"><ele>331.0</ele><time>2026-04-17T07:54:48.999Z</time></trkpt><trkpt lat="44.54424683334069" lon="8.683369925185119"><ele>337.5</ele><time>2026-04-17T07:54:49.999Z</time></trkpt><trkpt lat="44.54430057832834" lon="8.683708357084335"><ele>344.0</ele><time>2026-04-17T07:54:50.999Z</time></trkpt><trkpt lat="44.54434844150129" lon="8.684008984741572"><ele>344.0</ele><time>2026-04-17T07:54:51.999Z</time></trkpt><trkpt lat="44.544388092009136" lon="8.684296842954721"><ele>344.0</ele><time>2026-04-17T07:54:52.999Z</time></trkpt><trkpt lat="44.5444263096502" lon="8.684570013008079"><ele>344.0</ele><time>2026-04-17T07:54:53.999Z</time></trkpt><trkpt lat="44.5444611420131" lon="8.684823858055179"><ele>348.6666666666667</ele><time>2026-04-17T07:54:54.999Z</time></trkpt><trkpt lat="44.54448681460853" lon="8.685064194618105"><ele>353.3333333333333</ele><time>2026-04-17T07:54:55.999Z</time></trkpt><trkpt lat="44.54450213315234" lon="8.685315322183241"><ele>358.0</ele><time>2026-04-17T07:54:56.999Z</time></trkpt><trkpt lat="44.54449458718822" lon="8.68558110463222"><ele>357.66666666666663</ele><time>2026-04-17T07:54:57.999Z</time></trkpt><trkpt lat="44.54447305005705" lon="8.685842453624337"><ele>357.3333333333333</ele><time>2026-04-17T07:54:58.999Z</time></trkpt><trkpt lat="44.54444518180272" lon="8.68608084843957"><ele>357.0</ele><time>2026-04-17T07:54:59.999Z</time></trkpt><trkpt lat="44.5444089300022" lon="8.686308739125494"><ele>357.0</ele><time>2026-04-17T07:55:00.999Z</time></trkpt><trkpt lat="44.544341165070875" lon="8.6865510860935"><ele>357.0</ele><time>2026-04-17T07:55:01.999Z</time></trkpt><trkpt lat="44.54428109939286" lon="8.68677533595389"><ele>357.0</ele><time>2026-04-17T07:55:02.999Z</time></trkpt><trkpt lat="44.54423977782395" lon="8.68699438611448"><ele>352.3333333333333</ele><time>2026-04-17T07:55:03.999Z</time></trkpt><trkpt lat="44.54418397539186" lon="8.687193926573366"><ele>347.66666666666663</ele><time>2026-04-17T07:55:04.999Z</time></trkpt><trkpt lat="44.54408880613518" lon="8.68735672236717"><ele>343.0</ele><time>2026-04-17T07:55:05.999Z</time></trkpt><trkpt lat="44.544000129956665" lon="8.687535029071418"><ele>343.0</ele><time>2026-04-17T07:55:06.999Z</time></trkpt><trkpt lat="44.54394486530615" lon="8.68772928459324"><ele>343.0</ele><time>2026-04-17T07:55:07.999Z</time></trkpt><trkpt lat="44.543928067354656" lon="8.687934366668218"><ele>343.0</ele><time>2026-04-17T07:55:08.999Z</time></trkpt><trkpt lat="44.54393736580471" lon="8.68814568781069"><ele>343.0</ele><time>2026-04-17T07:55:09.999Z</time></trkpt><trkpt lat="44.543940839183506" lon="8.688379510166353"><ele>342.66666666666663</ele><time>2026-04-17T07:55:10.999Z</time></trkpt><trkpt lat="44.54394733284854" lon="8.688605401269587"><ele>342.3333333333333</ele><time>2026-04-17T07:55:12Z</time></trkpt><trkpt lat="44.54396920318003" lon="8.688824110746285"><ele>342.0</ele><time>2026-04-17T07:55:13Z</time></trkpt><trkpt lat="44.54398671094617" lon="8.689042896273174"><ele>342.0</ele><time>2026-04-17T07:55:14Z</time></trkpt><trkpt lat="44.544001878722845" lon="8.689262595712968"><ele>342.0</ele><time>2026-04-17T07:55:15Z</time></trkpt><trkpt lat="44.54399952539985" lon="8.689474246898703"><ele>342.0</ele><time>2026-04-17T07:55:16Z</time></trkpt><trkpt lat="44.54397086240789" lon="8.689690051583415"><ele>341.75</ele><time>2026-04-17T07:55:17Z</time></trkpt><trkpt lat="44.54395347658227" lon="8.689899946521288"><ele>341.5</ele><time>2026-04-17T07:55:18Z</time></trkpt><trkpt lat="44.54396426514038" lon="8.690098258592013"><ele>341.25</ele><time>2026-04-17T07:55:19Z</time></trkpt><trkpt lat="44.543982098995954" lon="8.6902772538787"><ele>341.0</ele><time>2026-04-17T07:55:20Z</time></trkpt><trkpt lat="44.544024681615" lon="8.690439767155384"><ele>340.20000000000005</ele><time>2026-04-17T07:55:21Z</time></trkpt><trkpt lat="44.544083801687435" lon="8.69058127982774"><ele>339.40000000000003</ele><time>2026-04-17T07:55:22Z</time></trkpt><trkpt lat="44.544124490706395" lon="8.690716105572317"><ele>338.6</ele><time>2026-04-17T07:55:23Z</time></trkpt><trkpt lat="44.54416126314175" lon="8.690846131787284"><ele>337.8</ele><time>2026-04-17T07:55:24Z</time></trkpt><trkpt lat="44.5442071246087" lon="8.690996954708202"><ele>337.0</ele><time>2026-04-17T07:55:25Z</time></trkpt><trkpt lat="44.544231976191966" lon="8.691145054948224"><ele>339.5</ele><time>2026-04-17T07:55:26Z</time></trkpt><trkpt lat="44.54421503582795" lon="8.691303545475801"><ele>342.0</ele><time>2026-04-17T07:55:27Z</time></trkpt><trkpt lat="44.544161434087556" lon="8.69145916881087"><ele>344.5</ele><time>2026-04-17T07:55:28Z</time></trkpt><trkpt lat="44.5440718575611" lon="8.691587305842218"><ele>347.0</ele><time>2026-04-17T07:55:29Z</time></trkpt><trkpt lat="44.5439602363601" lon="8.691711952114533"><ele>347.0</ele><time>2026-04-17T07:55:30Z</time></trkpt><trkpt lat="44.543842799046125" lon="8.691853239591016"><ele>347.0</ele><time>2026-04-17T07:55:31Z</time></trkpt><trkpt lat="44.543727957611274" lon="8.69200221217347"><ele>347.0</ele><time>2026-04-17T07:55:32Z</time></trkpt><trkpt lat="44.54360297985765" lon="8.69216495788155"><ele>347.0</ele><time>2026-04-17T07:55:33Z</time></trkpt><trkpt lat="44.54348263337161" lon="8.692338553272695"><ele>347.0</ele><time>2026-04-17T07:55:34Z</time></trkpt><trkpt lat="44.54337572537144" lon="8.692528946299046"><ele>347.0</ele><time>2026-04-17T07:55:35Z</time></trkpt><trkpt lat="44.54328814953112" lon="8.692732519788061"><ele>347.33333333333337</ele><time>2026-04-17T07:55:36Z</time></trkpt><trkpt lat="44.54321736404976" lon="8.692974474493537"><ele>347.6666666666667</ele><time>2026-04-17T07:55:37Z</time></trkpt><trkpt lat="44.54314086481205" lon="8.693245119093591"><ele>348.0</ele><time>2026-04-17T07:55:38Z</time></trkpt><trkpt lat="44.543067488459315" lon="8.693544198853836"><ele>350.5</ele><time>2026-04-17T07:55:39Z</time></trkpt><trkpt lat="44.543000356837375" lon="8.693867575643132"><ele>353.0</ele><time>2026-04-17T07:55:40Z</time></trkpt><trkpt lat="44.54289215549228" lon="8.694185614319329"><ele>348.5</ele><time>2026-04-17T07:55:41Z</time></trkpt><trkpt lat="44.542777679697394" lon="8.694511528974717"><ele>344.0</ele><time>2026-04-17T07:55:42Z</time></trkpt><trkpt lat="44.542653492600785" lon="8.694831271269246"><ele>344.0</ele><time>2026-04-17T07:55:43Z</time></trkpt><trkpt lat="44.54252552896668" lon="8.695133249416596"><ele>344.0</ele><time>2026-04-17T07:55:44Z</time></trkpt><trkpt lat="44.54240089002875" lon="8.695419569837087"><ele>353.0</ele><time>2026-04-17T07:55:45Z</time></trkpt><trkpt lat="44.54227864732936" lon="8.695694014433458"><ele>362.0</ele><time>2026-04-17T07:55:46Z</time></trkpt><trkpt lat="44.54214738440238" lon="8.695947704417787"><ele>358.0</ele><time>2026-04-17T07:55:47Z</time></trkpt><trkpt lat="44.54200708727528" lon="8.696178969459133"><ele>354.0</ele><time>2026-04-17T07:55:48Z</time></trkpt><trkpt lat="44.541857491981254" lon="8.696386924548145"><ele>350.0</ele><time>2026-04-17T07:55:49Z</time></trkpt><trkpt lat="44.541700011540485" lon="8.696591604760034"><ele>350.0</ele><time>2026-04-17T07:55:50Z</time></trkpt><trkpt lat="44.54154705025529" lon="8.696747111622743"><ele>350.0</ele><time>2026-04-17T07:55:51Z</time></trkpt><trkpt lat="44.5413682363703" lon="8.696858056105903"><ele>350.0</ele><time>2026-04-17T07:55:52Z</time></trkpt><trkpt lat="44.54118661330638" lon="8.696979500267151"><ele>349.33333333333337</ele><time>2026-04-17T07:55:53Z</time></trkpt><trkpt lat="44.5410159550461" lon="8.697145459806885"><ele>348.6666666666667</ele><time>2026-04-17T07:55:54Z</time></trkpt><trkpt lat="44.54085049236943" lon="8.697321552225958"><ele>348.0</ele><time>2026-04-17T07:55:55Z</time></trkpt><trkpt lat="44.54068280824544" lon="8.697519274937406"><ele>348.0</ele><time>2026-04-17T07:55:56Z</time></trkpt><trkpt lat="44.54052144180138" lon="8.697718529043206"><ele>348.0</ele><time>2026-04-17T07:55:57Z</time></trkpt><trkpt lat="44.54036193046189" lon="8.69792982309267"><ele>348.0</ele><time>2026-04-17T07:55:58Z</time></trkpt><trkpt lat="44.54021804914944" lon="8.69812959563633"><ele>348.6666666666667</ele><time>2026-04-17T07:55:59Z</time></trkpt><trkpt lat="44.540090790042655" lon="8.698295024358185"><ele>349.33333333333337</ele><time>2026-04-17T07:56:00Z</time></trkpt><trkpt lat="44.539952777584496" lon="8.698414820135246"><ele>350.0</ele><time>2026-04-17T07:56:01Z</time></trkpt><trkpt lat="44.53980180204136" lon="8.698494776957052"><ele>350.0</ele><time>2026-04-17T07:56:02Z</time></trkpt><trkpt lat="44.53962303600421" lon="8.698559066057236"><ele>350.0</ele><time>2026-04-17T07:56:03Z</time></trkpt><trkpt lat="44.539444291992766" lon="8.698621084427549"><ele>350.0</ele><time>2026-04-17T07:56:04Z</time></trkpt><trkpt lat="44.53929060133154" lon="8.698679082879229"><ele>351.4</ele><time>2026-04-17T07:56:05Z</time></trkpt><trkpt lat="44.53916217444123" lon="8.698695761313468"><ele>352.8</ele><time>2026-04-17T07:56:06Z</time></trkpt><trkpt lat="44.539039108540045" lon="8.69864386676153"><ele>354.20000000000005</ele><time>2026-04-17T07:56:07Z</time></trkpt><trkpt lat="44.538962674714526" lon="8.698570240481375"><ele>355.6</ele><time>2026-04-17T07:56:08Z</time></trkpt><trkpt lat="44.53890644374936" lon="8.698482475920637"><ele>357.0</ele><time>2026-04-17T07:56:09Z</time></trkpt><trkpt lat="44.53885986571597" lon="8.698360381666552"><ele>353.25</ele><time>2026-04-17T07:56:10Z</time></trkpt><trkpt lat="44.53878974186992" lon="8.698227894084043"><ele>349.5</ele><time>2026-04-17T07:56:11Z</time></trkpt><trkpt lat="44.53872569462101" lon="8.698076865024692"><ele>345.75</ele><time>2026-04-17T07:56:12Z</time></trkpt><trkpt lat="44.53865619379904" lon="8.697961370737104"><ele>342.0</ele><time>2026-04-17T07:56:13Z</time></trkpt><trkpt lat="44.5385655573125" lon="8.697881726259574"><ele>342.0</ele><time>2026-04-17T07:56:14Z</time></trkpt><trkpt lat="44.53846267951678" lon="8.69784834514541"><ele>342.0</ele><time>2026-04-17T07:56:15Z</time></trkpt><trkpt lat="44.53834478223765" lon="8.697856761173409"><ele>342.0</ele><time>2026-04-17T07:56:16Z</time></trkpt><trkpt lat="44.53822388052433" lon="8.697888855807538"><ele>342.0</ele><time>2026-04-17T07:56:17Z</time></trkpt><trkpt lat="44.53808483780925" lon="8.697853090279343"><ele>342.0</ele><time>2026-04-17T07:56:18Z</time></trkpt><trkpt lat="44.53794075357889" lon="8.697819804549377"><ele>342.0</ele><time>2026-04-17T07:56:19Z</time></trkpt><trkpt lat="44.537792700872906" lon="8.69778150101391"><ele>342.0</ele><time>2026-04-17T07:56:20Z</time></trkpt><trkpt lat="44.53765652187547" lon="8.6977595490073"><ele>342.0</ele><time>2026-04-17T07:56:21Z</time></trkpt><trkpt lat="44.53753516003677" lon="8.697736128958987"><ele>344.3333333333333</ele><time>2026-04-17T07:56:22Z</time></trkpt><trkpt lat="44.53740743886838" lon="8.697704165082623"><ele>346.66666666666663</ele><time>2026-04-17T07:56:23Z</time></trkpt><trkpt lat="44.537257451424225" lon="8.6976280964211"><ele>349.0</ele><time>2026-04-17T07:56:24Z</time></trkpt><trkpt lat="44.537087090754824" lon="8.697515311654538"><ele>348.3333333333333</ele><time>2026-04-17T07:56:25Z</time></trkpt><trkpt lat="44.53692503555451" lon="8.697384596182406"><ele>347.6666666666667</ele><time>2026-04-17T07:56:26Z</time></trkpt><trkpt lat="44.536790243635224" lon="8.697272751707613"><ele>347.0</ele><time>2026-04-17T07:56:27Z</time></trkpt><trkpt lat="44.536670225094134" lon="8.697195965360658"><ele>347.0</ele><time>2026-04-17T07:56:28Z</time></trkpt><trkpt lat="44.536549087655494" lon="8.697168236841211"><ele>347.0</ele><time>2026-04-17T07:56:29Z</time></trkpt><trkpt lat="44.53642415793107" lon="8.697191636803776"><ele>347.0</ele><time>2026-04-17T07:56:30Z</time></trkpt><trkpt lat="44.53631148428016" lon="8.697258239428145"><ele>347.0</ele><time>2026-04-17T07:56:31Z</time></trkpt><trkpt lat="44.53619891048429" lon="8.697356451634606"><ele>346.5</ele><time>2026-04-17T07:56:32Z</time></trkpt><trkpt lat="44.536088385079815" lon="8.69744338990578"><ele>346.0</ele><time>2026-04-17T07:56:33Z</time></trkpt><trkpt lat="44.53597665034427" lon="8.697505787040248"><ele>345.5</ele><time>2026-04-17T07:56:34Z</time></trkpt><trkpt lat="44.535866784866194" lon="8.697572824735822"><ele>345.0</ele><time>2026-04-17T07:56:35Z</time></trkpt><trkpt lat="44.535753071222736" lon="8.697643879697385"><ele>345.0</ele><time>2026-04-17T07:56:36Z</time></trkpt><trkpt lat="44.53564098049381" lon="8.697733188727662"><ele>345.0</ele><time>2026-04-17T07:56:37Z</time></trkpt><trkpt lat="44.53552293167992" lon="8.69781516346073"><ele>345.0</ele><time>2026-04-17T07:56:38Z</time></trkpt><trkpt lat="44.53540911074339" lon="8.697904762796455"><ele>345.0</ele><time>2026-04-17T07:56:39Z</time></trkpt><trkpt lat="44.53528486054007" lon="8.698002237638642"><ele>346.0</ele><time>2026-04-17T07:56:40Z</time></trkpt><trkpt lat="44.535155524720764" lon="8.698104208523336"><ele>347.0</ele><time>2026-04-17T07:56:41Z</time></trkpt><trkpt lat="44.535036444405065" lon="8.698196779537767"><ele>348.0</ele><time>2026-04-17T07:56:41.999Z</time></trkpt><trkpt lat="44.53492005128627" lon="8.698271946556732"><ele>349.0</ele><time>2026-04-17T07:56:42.999Z</time></trkpt><trkpt lat="44.53481139251341" lon="8.698346133419186"><ele>349.0</ele><time>2026-04-17T07:56:43.999Z</time></trkpt><trkpt lat="44.53471701870429" lon="8.698419429759502"><ele>349.0</ele><time>2026-04-17T07:56:44.999Z</time></trkpt><trkpt lat="44.53464188685131" lon="8.698475576058955"><ele>349.0</ele><time>2026-04-17T07:56:45.999Z</time></trkpt><trkpt lat="44.53454542447405" lon="8.698538579452208"><ele>349.0</ele><time>2026-04-17T07:56:47.999Z</time></trkpt><trkpt lat="44.53447515163638" lon="8.698609828765038"><ele>349.0</ele><time>2026-04-17T07:56:50.999Z</time></trkpt><trkpt lat="44.53438470380636" lon="8.698662688199201"><ele>351.0</ele><time>2026-04-17T07:56:57.999Z</time></trkpt><trkpt lat="44.534315059782145" lon="8.698761095054854"><ele>353.0</ele><time>2026-04-17T07:56:59.999Z</time></trkpt><trkpt lat="44.53420971251519" lon="8.698853454081519"><ele>355.0</ele><time>2026-04-17T07:57:01.999Z</time></trkpt><trkpt lat="44.534141923519634" lon="8.698947460572558"><ele>357.0</ele><time>2026-04-17T07:57:02.999Z</time></trkpt><trkpt lat="44.534046441947424" lon="8.699074927673331"><ele>357.0</ele><time>2026-04-17T07:57:03.999Z</time></trkpt><trkpt lat="44.533926619930064" lon="8.699210270807757"><ele>357.0</ele><time>2026-04-17T07:57:04.999Z</time></trkpt><trkpt lat="44.53379771230087" lon="8.699362991752755"><ele>357.0</ele><time>2026-04-17T07:57:05.999Z</time></trkpt><trkpt lat="44.533664270319" lon="8.699528986152398"><ele>358.6666666666667</ele><time>2026-04-17T07:57:06.999Z</time></trkpt><trkpt lat="44.533537831476295" lon="8.699684637769014"><ele>360.33333333333337</ele><time>2026-04-17T07:57:07.999Z</time></trkpt><trkpt lat="44.53340143216166" lon="8.699848210299093"><ele>362.0</ele><time>2026-04-17T07:57:08.999Z</time></trkpt><trkpt lat="44.533272554656584" lon="8.70000563319878"><ele>362.0</ele><time>2026-04-17T07:57:09.999Z</time></trkpt><trkpt lat="44.53315376471913" lon="8.700154749285977"><ele>362.0</ele><time>2026-04-17T07:57:10.999Z</time></trkpt><trkpt lat="44.533042982588725" lon="8.700306523802462"><ele>362.0</ele><time>2026-04-17T07:57:11.999Z</time></trkpt><trkpt lat="44.53293422611352" lon="8.700471949136242"><ele>363.5</ele><time>2026-04-17T07:57:12.999Z</time></trkpt><trkpt lat="44.53284099257687" lon="8.700627891024713"><ele>365.0</ele><time>2026-04-17T07:57:13.999Z</time></trkpt><trkpt lat="44.53274641833557" lon="8.700772207761256"><ele>366.5</ele><time>2026-04-17T07:57:14.999Z</time></trkpt><trkpt lat="44.5326337437586" lon="8.70088057048699"><ele>368.0</ele><time>2026-04-17T07:57:15.999Z</time></trkpt><trkpt lat="44.53249694979507" lon="8.70099008238406"><ele>368.0</ele><time>2026-04-17T07:57:16.999Z</time></trkpt><trkpt lat="44.53234776871142" lon="8.701062361474657"><ele>368.0</ele><time>2026-04-17T07:57:18Z</time></trkpt><trkpt lat="44.53218933318601" lon="8.70110192400377"><ele>368.0</ele><time>2026-04-17T07:57:19Z</time></trkpt><trkpt lat="44.53202372764454" lon="8.701131805872501"><ele>369.25</ele><time>2026-04-17T07:57:20Z</time></trkpt><trkpt lat="44.531880130256816" lon="8.701146416917913"><ele>370.5</ele><time>2026-04-17T07:57:21Z</time></trkpt><trkpt lat="44.53173520831702" lon="8.70114008909131"><ele>371.75</ele><time>2026-04-17T07:57:22Z</time></trkpt><trkpt lat="44.53159445816162" lon="8.701185383234227"><ele>373.0</ele><time>2026-04-17T07:57:23Z</time></trkpt><trkpt lat="44.53146778192838" lon="8.701257468153322"><ele>373.0</ele><time>2026-04-17T07:57:24Z</time></trkpt><trkpt lat="44.531384803876136" lon="8.701350470289125"><ele>373.0</ele><time>2026-04-17T07:57:25Z</time></trkpt><trkpt lat="44.5312934675181" lon="8.701419525604827"><ele>373.0</ele><time>2026-04-17T07:57:26Z</time></trkpt><trkpt lat="44.53121909019035" lon="8.701496865258521"><ele>373.0</ele><time>2026-04-17T07:57:27Z</time></trkpt><trkpt lat="44.5311092948181" lon="8.701586696821314"><ele>373.0</ele><time>2026-04-17T07:57:28Z</time></trkpt><trkpt lat="44.53098163564014" lon="8.701680087902787"><ele>373.3333333333333</ele><time>2026-04-17T07:57:29Z</time></trkpt><trkpt lat="44.53085986448608" lon="8.701791580508281"><ele>373.6666666666667</ele><time>2026-04-17T07:57:30Z</time></trkpt><trkpt lat="44.530715804532356" lon="8.701884395296688"><ele>374.0</ele><time>2026-04-17T07:57:31Z</time></trkpt><trkpt lat="44.5305807739825" lon="8.702031922595527"><ele>374.0</ele><time>2026-04-17T07:57:32Z</time></trkpt><trkpt lat="44.53042837088352" lon="8.702157530814986"><ele>374.0</ele><time>2026-04-17T07:57:33Z</time></trkpt><trkpt lat="44.530283053395515" lon="8.702270057933847"><ele>374.0</ele><time>2026-04-17T07:57:34Z</time></trkpt><trkpt lat="44.53014244416815" lon="8.702323211974601"><ele>372.25</ele><time>2026-04-17T07:57:35Z</time></trkpt><trkpt lat="44.529998102499235" lon="8.702334264904051"><ele>370.5</ele><time>2026-04-17T07:57:36Z</time></trkpt><trkpt lat="44.529858679015206" lon="8.702324177431807"><ele>368.75</ele><time>2026-04-17T07:57:37Z</time></trkpt><trkpt lat="44.5297355088093" lon="8.702289678294482"><ele>367.0</ele><time>2026-04-17T07:57:38Z</time></trkpt><trkpt lat="44.52963518765899" lon="8.702233578306831"><ele>368.5</ele><time>2026-04-17T07:57:39Z</time></trkpt><trkpt lat="44.52955395499755" lon="8.70214267225287"><ele>370.0</ele><time>2026-04-17T07:57:40Z</time></trkpt><trkpt lat="44.52947890143205" lon="8.702021350750446"><ele>371.5</ele><time>2026-04-17T07:57:41Z</time></trkpt><trkpt lat="44.529414609782464" lon="8.701863779303677"><ele>373.0</ele><time>2026-04-17T07:57:42Z</time></trkpt><trkpt lat="44.529332123168594" lon="8.701705317154955"><ele>369.0</ele><time>2026-04-17T07:57:43Z</time></trkpt><trkpt lat="44.52924181701301" lon="8.701537814155678"><ele>365.0</ele><time>2026-04-17T07:57:44Z</time></trkpt><trkpt lat="44.52914628795824" lon="8.7013634493287"><ele>361.0</ele><time>2026-04-17T07:57:45Z</time></trkpt><trkpt lat="44.529046581870766" lon="8.701177360110885"><ele>360.5</ele><time>2026-04-17T07:57:46Z</time></trkpt><trkpt lat="44.528959558962235" lon="8.701002277645244"><ele>360.0</ele><time>2026-04-17T07:57:47Z</time></trkpt><trkpt lat="44.52886847818652" lon="8.700846528971779"><ele>359.5</ele><time>2026-04-17T07:57:48Z</time></trkpt><trkpt lat="44.528744569931376" lon="8.700721023227585"><ele>359.0</ele><time>2026-04-17T07:57:49Z</time></trkpt><trkpt lat="44.52859743949278" lon="8.700630924746457"><ele>359.0</ele><time>2026-04-17T07:57:50Z</time></trkpt><trkpt lat="44.528431720643" lon="8.700570392129348"><ele>359.0</ele><time>2026-04-17T07:57:51Z</time></trkpt><trkpt lat="44.528253858546336" lon="8.700533669301663"><ele>359.0</ele><time>2026-04-17T07:57:52Z</time></trkpt><trkpt lat="44.52806701675232" lon="8.700498303847445"><ele>360.6666666666667</ele><time>2026-04-17T07:57:53Z</time></trkpt><trkpt lat="44.52788446845576" lon="8.700483835862775"><ele>362.3333333333333</ele><time>2026-04-17T07:57:54Z</time></trkpt><trkpt lat="44.52768386325068" lon="8.700461803117886"><ele>364.0</ele><time>2026-04-17T07:57:55Z</time></trkpt><trkpt lat="44.52747649198597" lon="8.700441457184635"><ele>364.0</ele><time>2026-04-17T07:57:56Z</time></trkpt><trkpt lat="44.52725164800364" lon="8.700427648413017"><ele>364.0</ele><time>2026-04-17T07:57:57Z</time></trkpt><trkpt lat="44.52701294980107" lon="8.700390197209636"><ele>365.3333333333333</ele><time>2026-04-17T07:57:58Z</time></trkpt><trkpt lat="44.52682920037351" lon="8.700350179930428"><ele>366.6666666666667</ele><time>2026-04-17T07:57:59Z</time></trkpt><trkpt lat="44.52666101941117" lon="8.700337584364224"><ele>368.0</ele><time>2026-04-17T07:58:00Z</time></trkpt><trkpt lat="44.52649044210374" lon="8.700365864877256"><ele>368.0</ele><time>2026-04-17T07:58:01Z</time></trkpt><trkpt lat="44.52632553773304" lon="8.700442662121633"><ele>368.0</ele><time>2026-04-17T07:58:02Z</time></trkpt><trkpt lat="44.526160497145405" lon="8.700566190445732"><ele>368.0</ele><time>2026-04-17T07:58:03Z</time></trkpt><trkpt lat="44.526001460403" lon="8.700733880984307"><ele>366.33333333333337</ele><time>2026-04-17T07:58:04Z</time></trkpt><trkpt lat="44.52584750094818" lon="8.700929473647093"><ele>364.6666666666667</ele><time>2026-04-17T07:58:05Z</time></trkpt><trkpt lat="44.52569174486177" lon="8.701123527718993"><ele>363.0</ele><time>2026-04-17T07:58:06Z</time></trkpt><trkpt lat="44.525558411866974" lon="8.701303024777456"><ele>365.0</ele><time>2026-04-17T07:58:07Z</time></trkpt><trkpt lat="44.525450796181765" lon="8.701476133562332"><ele>367.0</ele><time>2026-04-17T07:58:08Z</time></trkpt><trkpt lat="44.525375431398345" lon="8.7016702922275"><ele>369.0</ele><time>2026-04-17T07:58:09Z</time></trkpt><trkpt lat="44.525327720233484" lon="8.701884036368694"><ele>368.0</ele><time>2026-04-17T07:58:10Z</time></trkpt><trkpt lat="44.525309324947706" lon="8.702098958570193"><ele>367.0</ele><time>2026-04-17T07:58:11Z</time></trkpt><trkpt lat="44.52534023303311" lon="8.702323191469507"><ele>366.0</ele><time>2026-04-17T07:58:12Z</time></trkpt><trkpt lat="44.52536537544922" lon="8.702550018460428"><ele>367.5</ele><time>2026-04-17T07:58:13Z</time></trkpt><trkpt lat="44.52536461192278" lon="8.702761128260535"><ele>369.0</ele><time>2026-04-17T07:58:14Z</time></trkpt><trkpt lat="44.5253324291821" lon="8.70296187371391"><ele>370.5</ele><time>2026-04-17T07:58:15Z</time></trkpt><trkpt lat="44.52526823513594" lon="8.703108365909452"><ele>372.0</ele><time>2026-04-17T07:58:16Z</time></trkpt><trkpt lat="44.52517191813567" lon="8.703232283970959"><ele>372.0</ele><time>2026-04-17T07:58:17Z</time></trkpt><trkpt lat="44.52504680184918" lon="8.703337237775788"><ele>372.0</ele><time>2026-04-17T07:58:18Z</time></trkpt><trkpt lat="44.52489072597455" lon="8.703420747886726"><ele>372.0</ele><time>2026-04-17T07:58:19Z</time></trkpt><trkpt lat="44.52474487557936" lon="8.703449681061144"><ele>372.0</ele><time>2026-04-17T07:58:20Z</time></trkpt><trkpt lat="44.524590088305224" lon="8.703433468994362"><ele>372.0</ele><time>2026-04-17T07:58:21Z</time></trkpt><trkpt lat="44.524444641850465" lon="8.703351313188673"><ele>372.0</ele><time>2026-04-17T07:58:22Z</time></trkpt><trkpt lat="44.52430010669048" lon="8.703219770563429"><ele>369.3333333333333</ele><time>2026-04-17T07:58:23Z</time></trkpt><trkpt lat="44.52414878930941" lon="8.703053807583084"><ele>366.66666666666663</ele><time>2026-04-17T07:58:24Z</time></trkpt><trkpt lat="44.523983433699236" lon="8.702898450511178"><ele>364.0</ele><time>2026-04-17T07:58:25Z</time></trkpt><trkpt lat="44.523808788902855" lon="8.702741011751415"><ele>364.66666666666663</ele><time>2026-04-17T07:58:26Z</time></trkpt><trkpt lat="44.523629534125625" lon="8.702568422608229"><ele>365.3333333333333</ele><time>2026-04-17T07:58:27Z</time></trkpt><trkpt lat="44.52343781392023" lon="8.702395785192833"><ele>366.0</ele><time>2026-04-17T07:58:28Z</time></trkpt><trkpt lat="44.523248496640534" lon="8.702218617686803"><ele>366.0</ele><time>2026-04-17T07:58:29Z</time></trkpt><trkpt lat="44.52305251754482" lon="8.702047515628792"><ele>366.0</ele><time>2026-04-17T07:58:30Z</time></trkpt><trkpt lat="44.522855921857655" lon="8.701864636607853"><ele>365.5</ele><time>2026-04-17T07:58:31Z</time></trkpt><trkpt lat="44.522654966485334" lon="8.701689118914429"><ele>365.0</ele><time>2026-04-17T07:58:32Z</time></trkpt><trkpt lat="44.52245000713596" lon="8.701505331808374"><ele>365.0</ele><time>2026-04-17T07:58:33Z</time></trkpt><trkpt lat="44.52226262291609" lon="8.701336494544304"><ele>365.0</ele><time>2026-04-17T07:58:33.999Z</time></trkpt><trkpt lat="44.522088773504734" lon="8.701179529205952"><ele>365.0</ele><time>2026-04-17T07:58:34.999Z</time></trkpt><trkpt lat="44.52192328694219" lon="8.701043013407016"><ele>366.0</ele><time>2026-04-17T07:58:35.999Z</time></trkpt><trkpt lat="44.521757446499365" lon="8.700926979687688"><ele>367.0</ele><time>2026-04-17T07:58:36.999Z</time></trkpt><trkpt lat="44.52157530800046" lon="8.700846858341105"><ele>368.0</ele><time>2026-04-17T07:58:37.999Z</time></trkpt><trkpt lat="44.52137764800928" lon="8.700803642389543"><ele>367.33333333333337</ele><time>2026-04-17T07:58:38.999Z</time></trkpt><trkpt lat="44.5211713379249" lon="8.700790868585493"><ele>366.6666666666667</ele><time>2026-04-17T07:58:39.999Z</time></trkpt><trkpt lat="44.52095896134592" lon="8.700775071408415"><ele>366.0</ele><time>2026-04-17T07:58:40.999Z</time></trkpt><trkpt lat="44.52075135968085" lon="8.70070922103063"><ele>366.0</ele><time>2026-04-17T07:58:41.999Z</time></trkpt><trkpt lat="44.52055754149341" lon="8.700589246991912"><ele>366.0</ele><time>2026-04-17T07:58:42.999Z</time></trkpt><trkpt lat="44.52037918291104" lon="8.700442512605838"><ele>366.0</ele><time>2026-04-17T07:58:43.999Z</time></trkpt><trkpt lat="44.520211729659934" lon="8.700300039906725"><ele>366.0</ele><time>2026-04-17T07:58:44.999Z</time></trkpt><trkpt lat="44.520039742135616" lon="8.700183401931083"><ele>366.0</ele><time>2026-04-17T07:58:45.999Z</time></trkpt><trkpt lat="44.51985435806056" lon="8.700096996150373"><ele>366.0</ele><time>2026-04-17T07:58:46.999Z</time></trkpt><trkpt lat="44.519662998078" lon="8.700040383781914"><ele>366.0</ele><time>2026-04-17T07:58:47.999Z</time></trkpt><trkpt lat="44.51946025017424" lon="8.699997687060652"><ele>366.0</ele><time>2026-04-17T07:58:48.999Z</time></trkpt><trkpt lat="44.519251970066236" lon="8.699973883251163"><ele>366.0</ele><time>2026-04-17T07:58:49.999Z</time></trkpt><trkpt lat="44.5190402919161" lon="8.699936461296614"><ele>366.0</ele><time>2026-04-17T07:58:50.999Z</time></trkpt><trkpt lat="44.518822705739666" lon="8.69989717341857"><ele>366.0</ele><time>2026-04-17T07:58:51.999Z</time></trkpt><trkpt lat="44.51860551923425" lon="8.699849596718998"><ele>366.0</ele><time>2026-04-17T07:58:52.999Z</time></trkpt><trkpt lat="44.51838341024149" lon="8.69980403908208"><ele>366.6666666666667</ele><time>2026-04-17T07:58:53.999Z</time></trkpt><trkpt lat="44.518156838275694" lon="8.699754799242836"><ele>367.33333333333337</ele><time>2026-04-17T07:58:54.999Z</time></trkpt><trkpt lat="44.517941282586776" lon="8.699715214308242"><ele>368.0</ele><time>2026-04-17T07:58:55.999Z</time></trkpt><trkpt lat="44.517737576012195" lon="8.699683413594101"><ele>373.33333333333337</ele><time>2026-04-17T07:58:56.999Z</time></trkpt><trkpt lat="44.51754836333859" lon="8.699669277066251"><ele>378.6666666666667</ele><time>2026-04-17T07:58:57.999Z</time></trkpt><trkpt lat="44.51736072369078" lon="8.699685822220845"><ele>384.0</ele><time>2026-04-17T07:58:58.999Z</time></trkpt><trkpt lat="44.5171608923047" lon="8.699750340093825"><ele>383.0</ele><time>2026-04-17T07:58:59.999Z</time></trkpt><trkpt lat="44.51695787522806" lon="8.699843047510496"><ele>382.0</ele><time>2026-04-17T07:59:00.999Z</time></trkpt><trkpt lat="44.516754246651885" lon="8.6999362296741"><ele>381.0</ele><time>2026-04-17T07:59:01.999Z</time></trkpt><trkpt lat="44.51654585904159" lon="8.700033722124633"><ele>381.0</ele><time>2026-04-17T07:59:02.999Z</time></trkpt><trkpt lat="44.51633321304405" lon="8.700126050962933"><ele>381.0</ele><time>2026-04-17T07:59:03.999Z</time></trkpt><trkpt lat="44.51612015268706" lon="8.700218513382081"><ele>381.0</ele><time>2026-04-17T07:59:04.999Z</time></trkpt><trkpt lat="44.51590747903029" lon="8.70029938436181"><ele>382.0</ele><time>2026-04-17T07:59:05.999Z</time></trkpt><trkpt lat="44.51568808930606" lon="8.700369763596967"><ele>383.0</ele><time>2026-04-17T07:59:06.999Z</time></trkpt><trkpt lat="44.51546699417359" lon="8.70041447998913"><ele>384.0</ele><time>2026-04-17T07:59:07.999Z</time></trkpt><trkpt lat="44.515248224638185" lon="8.7004440842291"><ele>384.0</ele><time>2026-04-17T07:59:08.999Z</time></trkpt><trkpt lat="44.51502993460789" lon="8.700460377304505"><ele>384.0</ele><time>2026-04-17T07:59:09.999Z</time></trkpt><trkpt lat="44.514812216798575" lon="8.700498830696407"><ele>384.0</ele><time>2026-04-17T07:59:10.999Z</time></trkpt><trkpt lat="44.51458994853935" lon="8.700550595761582"><ele>382.6666666666667</ele><time>2026-04-17T07:59:11.999Z</time></trkpt><trkpt lat="44.51437326046379" lon="8.700611396247757"><ele>381.33333333333337</ele><time>2026-04-17T07:59:12.999Z</time></trkpt><trkpt lat="44.51415737119215" lon="8.700671964719113"><ele>380.0</ele><time>2026-04-17T07:59:13.999Z</time></trkpt><trkpt lat="44.513941701473485" lon="8.700730669388024"><ele>379.6666666666667</ele><time>2026-04-17T07:59:14.999Z</time></trkpt><trkpt lat="44.513725919122095" lon="8.700788809562312"><ele>379.3333333333333</ele><time>2026-04-17T07:59:15.999Z</time></trkpt><trkpt lat="44.51351051896055" lon="8.700846642284413"><ele>379.0</ele><time>2026-04-17T07:59:16.999Z</time></trkpt><trkpt lat="44.51329411904249" lon="8.700908283962272"><ele>379.0</ele><time>2026-04-17T07:59:17.999Z</time></trkpt><trkpt lat="44.513085508580694" lon="8.700973778851763"><ele>379.0</ele><time>2026-04-17T07:59:18.999Z</time></trkpt><trkpt lat="44.512889549418524" lon="8.701063301326382"><ele>379.0</ele><time>2026-04-17T07:59:19.999Z</time></trkpt><trkpt lat="44.51269558406455" lon="8.701192640410605"><ele>386.3333333333333</ele><time>2026-04-17T07:59:20.999Z</time></trkpt><trkpt lat="44.51250882335105" lon="8.701350521824905"><ele>393.66666666666663</ele><time>2026-04-17T07:59:21.999Z</time></trkpt><trkpt lat="44.5123309539316" lon="8.70153139778201"><ele>401.0</ele><time>2026-04-17T07:59:22.999Z</time></trkpt><trkpt lat="44.512152333010754" lon="8.701714418249724"><ele>401.3333333333333</ele><time>2026-04-17T07:59:24Z</time></trkpt><trkpt lat="44.51198416401095" lon="8.701910603073365"><ele>401.66666666666663</ele><time>2026-04-17T07:59:25Z</time></trkpt><trkpt lat="44.511796964338586" lon="8.702090200810389"><ele>402.0</ele><time>2026-04-17T07:59:26Z</time></trkpt><trkpt lat="44.51162277570597" lon="8.702291597425853"><ele>402.0</ele><time>2026-04-17T07:59:27Z</time></trkpt><trkpt lat="44.51143485622204" lon="8.702464613048019"><ele>402.0</ele><time>2026-04-17T07:59:28Z</time></trkpt><trkpt lat="44.511252168505415" lon="8.702649688392228"><ele>401.66666666666663</ele><time>2026-04-17T07:59:29Z</time></trkpt><trkpt lat="44.51107551588124" lon="8.702824075560635"><ele>401.3333333333333</ele><time>2026-04-17T07:59:30Z</time></trkpt><trkpt lat="44.51090160411961" lon="8.703006434259311"><ele>401.0</ele><time>2026-04-17T07:59:31Z</time></trkpt><trkpt lat="44.51072100649436" lon="8.703176889267223"><ele>401.0</ele><time>2026-04-17T07:59:32Z</time></trkpt><trkpt lat="44.51054080031851" lon="8.70334094812932"><ele>401.0</ele><time>2026-04-17T07:59:33Z</time></trkpt><trkpt lat="44.51036205094411" lon="8.703510678430307"><ele>401.0</ele><time>2026-04-17T07:59:34Z</time></trkpt><trkpt lat="44.510178585822956" lon="8.703660997893532"><ele>399.66666666666663</ele><time>2026-04-17T07:59:35Z</time></trkpt><trkpt lat="44.50999045139229" lon="8.703808246373498"><ele>398.33333333333337</ele><time>2026-04-17T07:59:36Z</time></trkpt><trkpt lat="44.50979967036626" lon="8.703949851840587"><ele>397.0</ele><time>2026-04-17T07:59:37Z</time></trkpt><trkpt lat="44.50960765928282" lon="8.704094037638278"><ele>399.33333333333337</ele><time>2026-04-17T07:59:38Z</time></trkpt><trkpt lat="44.509420323141626" lon="8.70423794893469"><ele>401.66666666666663</ele><time>2026-04-17T07:59:39Z</time></trkpt><trkpt lat="44.5092284185884" lon="8.704370958010347"><ele>404.0</ele><time>2026-04-17T07:59:40Z</time></trkpt><trkpt lat="44.509024052145854" lon="8.704469795138435"><ele>404.0</ele><time>2026-04-17T07:59:41Z</time></trkpt><trkpt lat="44.50882300153544" lon="8.704565980341545"><ele>404.0</ele><time>2026-04-17T07:59:42Z</time></trkpt><trkpt lat="44.50861140268905" lon="8.704661843843532"><ele>404.0</ele><time>2026-04-17T07:59:43Z</time></trkpt><trkpt lat="44.5084176987799" lon="8.704731220281525"><ele>400.66666666666663</ele><time>2026-04-17T07:59:44Z</time></trkpt><trkpt lat="44.508218923197866" lon="8.704818594148431"><ele>397.33333333333337</ele><time>2026-04-17T07:59:45Z</time></trkpt><trkpt lat="44.50806251806611" lon="8.704873420102626"><ele>394.0</ele><time>2026-04-17T07:59:46Z</time></trkpt><trkpt lat="44.50789621478893" lon="8.704955089884484"><ele>392.33333333333337</ele><time>2026-04-17T07:59:47Z</time></trkpt><trkpt lat="44.50773553344892" lon="8.705000363436518"><ele>390.66666666666663</ele><time>2026-04-17T07:59:48Z</time></trkpt><trkpt lat="44.5075918369746" lon="8.705054140672976"><ele>389.0</ele><time>2026-04-17T07:59:49Z</time></trkpt><trkpt lat="44.50745808043968" lon="8.705118406763702"><ele>389.0</ele><time>2026-04-17T07:59:50Z</time></trkpt><trkpt lat="44.507332100828016" lon="8.705172428802976"><ele>389.0</ele><time>2026-04-17T07:59:51Z</time></trkpt><trkpt lat="44.50721885381976" lon="8.70521529343901"><ele>389.0</ele><time>2026-04-17T07:59:52Z</time></trkpt><trkpt lat="44.507132152151925" lon="8.705242790494966"><ele>389.0</ele><time>2026-04-17T07:59:53Z</time></trkpt><trkpt lat="44.50705723393649" lon="8.70526200612838"><ele>389.0</ele><time>2026-04-17T07:59:54Z</time></trkpt><trkpt lat="44.50697766765318" lon="8.705270448220526"><ele>390.6</ele><time>2026-04-17T07:59:55Z</time></trkpt><trkpt lat="44.506891099132964" lon="8.705271673619455"><ele>392.2</ele><time>2026-04-17T07:59:56Z</time></trkpt><trkpt lat="44.50679721619617" lon="8.705316787407243"><ele>393.8</ele><time>2026-04-17T07:59:57Z</time></trkpt><trkpt lat="44.50671698996229" lon="8.705406616468371"><ele>395.40000000000003</ele><time>2026-04-17T07:59:58Z</time></trkpt><trkpt lat="44.50662249924575" lon="8.7054875313245"><ele>397.0</ele><time>2026-04-17T07:59:59Z</time></trkpt><trkpt lat="44.50651037720861" lon="8.705555167476945"><ele>397.0</ele><time>2026-04-17T08:00:00Z</time></trkpt><trkpt lat="44.50638580061081" lon="8.70566027786548"><ele>397.0</ele><time>2026-04-17T08:00:01Z</time></trkpt><trkpt lat="44.506250928665835" lon="8.705778128956265"><ele>397.0</ele><time>2026-04-17T08:00:02Z</time></trkpt><trkpt lat="44.506106886823666" lon="8.705894959997456"><ele>398.33333333333337</ele><time>2026-04-17T08:00:03Z</time></trkpt><trkpt lat="44.50595833126467" lon="8.706023882703397"><ele>399.66666666666663</ele><time>2026-04-17T08:00:04Z</time></trkpt><trkpt lat="44.505819375058294" lon="8.706167491790163"><ele>401.0</ele><time>2026-04-17T08:00:05Z</time></trkpt><trkpt lat="44.505679954391375" lon="8.70632444904261"><ele>401.0</ele><time>2026-04-17T08:00:06Z</time></trkpt><trkpt lat="44.505548099564436" lon="8.706487036530323"><ele>401.0</ele><time>2026-04-17T08:00:07Z</time></trkpt><trkpt lat="44.505426826615796" lon="8.706645520472403"><ele>401.0</ele><time>2026-04-17T08:00:08Z</time></trkpt><trkpt lat="44.50531869974585" lon="8.706824155240852"><ele>399.0</ele><time>2026-04-17T08:00:09Z</time></trkpt><trkpt lat="44.50522885547293" lon="8.707020485946067"><ele>397.0</ele><time>2026-04-17T08:00:10Z</time></trkpt><trkpt lat="44.505160513613276" lon="8.707226317587121"><ele>395.0</ele><time>2026-04-17T08:00:11Z</time></trkpt><trkpt lat="44.50511763853757" lon="8.7074390599787"><ele>395.0</ele><time>2026-04-17T08:00:12Z</time></trkpt><trkpt lat="44.50510766942071" lon="8.707660419583577"><ele>395.0</ele><time>2026-04-17T08:00:13Z</time></trkpt><trkpt lat="44.505126327414445" lon="8.70787430273162"><ele>395.0</ele><time>2026-04-17T08:00:14Z</time></trkpt><trkpt lat="44.50516532720593" lon="8.708086060442325"><ele>396.3333333333333</ele><time>2026-04-17T08:00:15Z</time></trkpt><trkpt lat="44.505227709996575" lon="8.708293712797111"><ele>397.66666666666663</ele><time>2026-04-17T08:00:16Z</time></trkpt><trkpt lat="44.505299664606866" lon="8.708495365112402"><ele>399.0</ele><time>2026-04-17T08:00:17Z</time></trkpt><trkpt lat="44.50537561286124" lon="8.708706483532998"><ele>404.33333333333337</ele><time>2026-04-17T08:00:18Z</time></trkpt><trkpt lat="44.505454462513896" lon="8.70892265483334"><ele>409.6666666666667</ele><time>2026-04-17T08:00:19Z</time></trkpt><trkpt lat="44.50553408821786" lon="8.709149647950996"><ele>415.0</ele><time>2026-04-17T08:00:20Z</time></trkpt><trkpt lat="44.505616534629716" lon="8.709382415748584"><ele>409.6666666666667</ele><time>2026-04-17T08:00:21Z</time></trkpt><trkpt lat="44.50570219604145" lon="8.709616605844158"><ele>404.33333333333337</ele><time>2026-04-17T08:00:22Z</time></trkpt><trkpt lat="44.50579313365976" lon="8.709834158683263"><ele>399.0</ele><time>2026-04-17T08:00:23Z</time></trkpt><trkpt lat="44.50590001735796" lon="8.710026144544427"><ele>399.0</ele><time>2026-04-17T08:00:24Z</time></trkpt><trkpt lat="44.50602926542378" lon="8.710205409212806"><ele>399.0</ele><time>2026-04-17T08:00:25Z</time></trkpt><trkpt lat="44.506166075004394" lon="8.710380962351167"><ele>399.0</ele><time>2026-04-17T08:00:26Z</time></trkpt><trkpt lat="44.506297452888894" lon="8.71054626843671"><ele>402.33333333333337</ele><time>2026-04-17T08:00:27Z</time></trkpt><trkpt lat="44.50642304701216" lon="8.710705989650165"><ele>405.6666666666667</ele><time>2026-04-17T08:00:28Z</time></trkpt><trkpt lat="44.50654610447432" lon="8.710869557885525"><ele>409.0</ele><time>2026-04-17T08:00:29Z</time></trkpt><trkpt lat="44.506657368809094" lon="8.711042687489444"><ele>403.0</ele><time>2026-04-17T08:00:30Z</time></trkpt><trkpt lat="44.50676478702581" lon="8.711227464801814"><ele>397.0</ele><time>2026-04-17T08:00:31Z</time></trkpt><trkpt lat="44.50686487601724" lon="8.711398869641203"><ele>391.0</ele><time>2026-04-17T08:00:32Z</time></trkpt><trkpt lat="44.506949879424596" lon="8.711580713589896"><ele>391.0</ele><time>2026-04-17T08:00:33Z</time></trkpt><trkpt lat="44.507027362098704" lon="8.711749171938711"><ele>391.0</ele><time>2026-04-17T08:00:34Z</time></trkpt><trkpt lat="44.5070861630001" lon="8.711923241626009"><ele>391.0</ele><time>2026-04-17T08:00:35Z</time></trkpt><trkpt lat="44.507107972669175" lon="8.7120941154067"><ele>391.0</ele><time>2026-04-17T08:00:35.999Z</time></trkpt><trkpt lat="44.5070935366033" lon="8.71227732706491"><ele>391.25</ele><time>2026-04-17T08:00:36.999Z</time></trkpt><trkpt lat="44.507038934663015" lon="8.712450910830233"><ele>391.5</ele><time>2026-04-17T08:00:37.999Z</time></trkpt><trkpt lat="44.50695727645741" lon="8.712603154992948"><ele>391.75</ele><time>2026-04-17T08:00:38.999Z</time></trkpt><trkpt lat="44.50686592610759" lon="8.712746859322564"><ele>392.0</ele><time>2026-04-17T08:00:39.999Z</time></trkpt><trkpt lat="44.50678216631473" lon="8.71294085998506"><ele>392.0</ele><time>2026-04-17T08:00:40.999Z</time></trkpt><trkpt lat="44.50669359615333" lon="8.713126596066067"><ele>392.0</ele><time>2026-04-17T08:00:41.999Z</time></trkpt><trkpt lat="44.5066017946682" lon="8.713304182887816"><ele>392.0</ele><time>2026-04-17T08:00:42.999Z</time></trkpt><trkpt lat="44.50651947943648" lon="8.713460951394424"><ele>392.0</ele><time>2026-04-17T08:00:43.999Z</time></trkpt><trkpt lat="44.506440465047156" lon="8.713609699102314"><ele>392.0</ele><time>2026-04-17T08:00:44.999Z</time></trkpt><trkpt lat="44.50634803562104" lon="8.713733158524871"><ele>392.0</ele><time>2026-04-17T08:00:45.999Z</time></trkpt><trkpt lat="44.506259409020174" lon="8.713845870328848"><ele>392.0</ele><time>2026-04-17T08:00:46.999Z</time></trkpt><trkpt lat="44.50616832948387" lon="8.713931553091797"><ele>392.0</ele><time>2026-04-17T08:00:47.999Z</time></trkpt><trkpt lat="44.506080389187744" lon="8.714016310154213"><ele>392.0</ele><time>2026-04-17T08:00:48.999Z</time></trkpt><trkpt lat="44.50597148052827" lon="8.714079848371808"><ele>392.0</ele><time>2026-04-17T08:00:49.999Z</time></trkpt><trkpt lat="44.50585456937298" lon="8.714137893218401"><ele>392.0</ele><time>2026-04-17T08:00:50.999Z</time></trkpt><trkpt lat="44.50573281979284" lon="8.714199412174587"><ele>392.0</ele><time>2026-04-17T08:00:51.999Z</time></trkpt><trkpt lat="44.50560675981522" lon="8.714262182915277"><ele>392.0</ele><time>2026-04-17T08:00:52.999Z</time></trkpt><trkpt lat="44.50547670163984" lon="8.714299694818834"><ele>392.0</ele><time>2026-04-17T08:00:53.999Z</time></trkpt><trkpt lat="44.505346414355024" lon="8.714305158335682"><ele>392.0</ele><time>2026-04-17T08:00:54.999Z</time></trkpt><trkpt lat="44.50521428683075" lon="8.714276292356779"><ele>392.25</ele><time>2026-04-17T08:00:55.999Z</time></trkpt><trkpt lat="44.50510681028" lon="8.714226015909768"><ele>392.5</ele><time>2026-04-17T08:00:56.999Z</time></trkpt><trkpt lat="44.50500376712844" lon="8.714161158628889"><ele>392.75</ele><time>2026-04-17T08:00:57.999Z</time></trkpt><trkpt lat="44.50490163756035" lon="8.714091003685057"><ele>393.0</ele><time>2026-04-17T08:00:58.999Z</time></trkpt><trkpt lat="44.50479570130211" lon="8.714026030812452"><ele>393.0</ele><time>2026-04-17T08:00:59.999Z</time></trkpt><trkpt lat="44.504705401694956" lon="8.713971581771185"><ele>393.0</ele><time>2026-04-17T08:01:00.999Z</time></trkpt><trkpt lat="44.50460643193366" lon="8.713889832982183"><ele>393.0</ele><time>2026-04-17T08:01:01.999Z</time></trkpt><trkpt lat="44.50449500724978" lon="8.713818160311249"><ele>393.0</ele><time>2026-04-17T08:01:02.999Z</time></trkpt><trkpt lat="44.504388591471645" lon="8.713749709819425"><ele>393.4</ele><time>2026-04-17T08:01:03.999Z</time></trkpt><trkpt lat="44.50429257645674" lon="8.71368912899088"><ele>393.79999999999995</ele><time>2026-04-17T08:01:04.999Z</time></trkpt><trkpt lat="44.50420100714846" lon="8.713632171585312"><ele>394.2</ele><time>2026-04-17T08:01:05.999Z</time></trkpt><trkpt lat="44.50411017107359" lon="8.713575670199127"><ele>394.6</ele><time>2026-04-17T08:01:06.999Z</time></trkpt><trkpt lat="44.50402224181576" lon="8.713520124856329"><ele>395.0</ele><time>2026-04-17T08:01:07.999Z</time></trkpt><trkpt lat="44.50394586908517" lon="8.713474832421802"><ele>394.99999999999994</ele><time>2026-04-17T08:01:08.999Z</time></trkpt><trkpt lat="44.503857760498555" lon="8.713422112316959"><ele>395.0</ele><time>2026-04-17T08:01:10.999Z</time></trkpt><trkpt lat="44.503796161694495" lon="8.713384648618339"><ele>395.0</ele><time>2026-04-17T08:01:11.999Z</time></trkpt><trkpt lat="44.5037307272964" lon="8.713315982346762"><ele>395.0</ele><time>2026-04-17T08:01:12.999Z</time></trkpt><trkpt lat="44.50364624132922" lon="8.713303777345587"><ele>394.99999999999994</ele><time>2026-04-17T08:01:13.999Z</time></trkpt><trkpt lat="44.50355707377893" lon="8.713328890629182"><ele>395.0</ele><time>2026-04-17T08:01:14.999Z</time></trkpt><trkpt lat="44.50347858850044" lon="8.713413404264571"><ele>396.0</ele><time>2026-04-17T08:01:15.999Z</time></trkpt><trkpt lat="44.5034004522889" lon="8.713521021385292"><ele>397.0</ele><time>2026-04-17T08:01:16.999Z</time></trkpt><trkpt lat="44.503307150314605" lon="8.713638805051971"><ele>398.0</ele><time>2026-04-17T08:01:17.999Z</time></trkpt><trkpt lat="44.50320793747386" lon="8.713772203036635"><ele>399.0</ele><time>2026-04-17T08:01:18.999Z</time></trkpt><trkpt lat="44.50310658997372" lon="8.713911563378826"><ele>399.2</ele><time>2026-04-17T08:01:19.999Z</time></trkpt><trkpt lat="44.503024404994065" lon="8.714023101338638"><ele>399.4</ele><time>2026-04-17T08:01:20.999Z</time></trkpt><trkpt lat="44.5029504254277" lon="8.714119913703728"><ele>399.6</ele><time>2026-04-17T08:01:21.999Z</time></trkpt><trkpt lat="44.50288414323434" lon="8.714202818489245"><ele>399.8</ele><time>2026-04-17T08:01:22.999Z</time></trkpt><trkpt lat="44.502825211468526" lon="8.714304382658897"><ele>400.0</ele><time>2026-04-17T08:01:23.999Z</time></trkpt><trkpt lat="44.50275907775593" lon="8.714431145658109"><ele>402.0</ele><time>2026-04-17T08:01:24.999Z</time></trkpt><trkpt lat="44.502696584795686" lon="8.714561606109683"><ele>404.0</ele><time>2026-04-17T08:01:25.999Z</time></trkpt><trkpt lat="44.50260678943843" lon="8.714694961116253"><ele>406.0</ele><time>2026-04-17T08:01:26.999Z</time></trkpt><trkpt lat="44.50253333511971" lon="8.714834486506167"><ele>408.0</ele><time>2026-04-17T08:01:27.999Z</time></trkpt><trkpt lat="44.502475744111024" lon="8.714974763469957"><ele>408.0</ele><time>2026-04-17T08:01:28.999Z</time></trkpt><trkpt lat="44.502406480969704" lon="8.715115348144762"><ele>408.0</ele><time>2026-04-17T08:01:30Z</time></trkpt><trkpt lat="44.502340598895074" lon="8.715227892197806"><ele>408.0</ele><time>2026-04-17T08:01:31Z</time></trkpt><trkpt lat="44.50226767316505" lon="8.715371005570223"><ele>408.0</ele><time>2026-04-17T08:01:32Z</time></trkpt><trkpt lat="44.50219631985493" lon="8.715492576553599"><ele>407.59999999999997</ele><time>2026-04-17T08:01:33Z</time></trkpt><trkpt lat="44.502130983953045" lon="8.715619846737368"><ele>407.2</ele><time>2026-04-17T08:01:34Z</time></trkpt><trkpt lat="44.50207286797928" lon="8.715726443971441"><ele>406.8</ele><time>2026-04-17T08:01:35Z</time></trkpt><trkpt lat="44.50200909542566" lon="8.71584360111817"><ele>406.4</ele><time>2026-04-17T08:01:36Z</time></trkpt><trkpt lat="44.50194980288942" lon="8.715994121213827"><ele>406.0</ele><time>2026-04-17T08:01:37Z</time></trkpt><trkpt lat="44.501883549357935" lon="8.716138368677003"><ele>406.0</ele><time>2026-04-17T08:01:38Z</time></trkpt><trkpt lat="44.501826316957626" lon="8.716281866984637"><ele>406.0</ele><time>2026-04-17T08:01:39Z</time></trkpt><trkpt lat="44.50179251671409" lon="8.716449411074706"><ele>406.0</ele><time>2026-04-17T08:01:40Z</time></trkpt><trkpt lat="44.50175763562888" lon="8.716605231341479"><ele>406.0</ele><time>2026-04-17T08:01:41Z</time></trkpt><trkpt lat="44.50172515281066" lon="8.716750627085519"><ele>405.25</ele><time>2026-04-17T08:01:42Z</time></trkpt><trkpt lat="44.50168698852042" lon="8.71690689318235"><ele>404.5</ele><time>2026-04-17T08:01:43Z</time></trkpt><trkpt lat="44.50165572019503" lon="8.717062242431863"><ele>403.75</ele><time>2026-04-17T08:01:44Z</time></trkpt><trkpt lat="44.50161387130938" lon="8.71722773184336"><ele>403.0</ele><time>2026-04-17T08:01:45Z</time></trkpt><trkpt lat="44.50154933756546" lon="8.71735247161326"><ele>403.0</ele><time>2026-04-17T08:01:46Z</time></trkpt><trkpt lat="44.501463869944565" lon="8.717486598560166"><ele>403.0</ele><time>2026-04-17T08:01:47Z</time></trkpt><trkpt lat="44.50139391646687" lon="8.717667693005344"><ele>403.0</ele><time>2026-04-17T08:01:48Z</time></trkpt><trkpt lat="44.50131745242829" lon="8.717813974615716"><ele>403.0</ele><time>2026-04-17T08:01:49Z</time></trkpt><trkpt lat="44.501247693373436" lon="8.717945310934308"><ele>403.25</ele><time>2026-04-17T08:01:50Z</time></trkpt><trkpt lat="44.50117883212816" lon="8.718062930765473"><ele>403.5</ele><time>2026-04-17T08:01:51Z</time></trkpt><trkpt lat="44.50110393214291" lon="8.71818871921925"><ele>403.75</ele><time>2026-04-17T08:01:52Z</time></trkpt><trkpt lat="44.50102628903733" lon="8.71832241572246"><ele>404.0</ele><time>2026-04-17T08:01:53Z</time></trkpt><trkpt lat="44.50094046881909" lon="8.718473575434757"><ele>405.3333333333333</ele><time>2026-04-17T08:01:54Z</time></trkpt><trkpt lat="44.500827980370794" lon="8.718638578774765"><ele>406.66666666666663</ele><time>2026-04-17T08:01:55Z</time></trkpt><trkpt lat="44.50071721303322" lon="8.718816056315942"><ele>408.0</ele><time>2026-04-17T08:01:56Z</time></trkpt><trkpt lat="44.50060145907116" lon="8.719028576739664"><ele>408.0</ele><time>2026-04-17T08:01:57Z</time></trkpt><trkpt lat="44.5004779782679" lon="8.71924292445455"><ele>408.0</ele><time>2026-04-17T08:01:58Z</time></trkpt><trkpt lat="44.50034713398632" lon="8.719468343051302"><ele>408.0</ele><time>2026-04-17T08:01:59Z</time></trkpt><trkpt lat="44.50022588435805" lon="8.719685526401854"><ele>408.33333333333337</ele><time>2026-04-17T08:02:00Z</time></trkpt><trkpt lat="44.5001027687822" lon="8.719892104344593"><ele>408.6666666666667</ele><time>2026-04-17T08:02:01Z</time></trkpt><trkpt lat="44.49998794428342" lon="8.720089224261036"><ele>409.0</ele><time>2026-04-17T08:02:02Z</time></trkpt><trkpt lat="44.49988166948224" lon="8.720288225352945"><ele>409.33333333333337</ele><time>2026-04-17T08:02:03Z</time></trkpt><trkpt lat="44.499794621994695" lon="8.720498755885224"><ele>409.66666666666663</ele><time>2026-04-17T08:02:04Z</time></trkpt><trkpt lat="44.49972395956477" lon="8.720727073351"><ele>410.0</ele><time>2026-04-17T08:02:05Z</time></trkpt><trkpt lat="44.49967298151858" lon="8.720953049095431"><ele>409.66666666666663</ele><time>2026-04-17T08:02:06Z</time></trkpt><trkpt lat="44.4996395779187" lon="8.721182716790409"><ele>409.33333333333337</ele><time>2026-04-17T08:02:07Z</time></trkpt><trkpt lat="44.499622695828144" lon="8.721415130401782"><ele>409.0</ele><time>2026-04-17T08:02:08Z</time></trkpt><trkpt lat="44.49960225950672" lon="8.721603515505924"><ele>410.25</ele><time>2026-04-17T08:02:09Z</time></trkpt><trkpt lat="44.499547249256366" lon="8.721773197017427"><ele>411.5</ele><time>2026-04-17T08:02:10Z</time></trkpt><trkpt lat="44.49946290566061" lon="8.72189802659936"><ele>412.75</ele><time>2026-04-17T08:02:11Z</time></trkpt><trkpt lat="44.499346142345566" lon="8.722014369166168"><ele>414.0</ele><time>2026-04-17T08:02:12Z</time></trkpt><trkpt lat="44.49920555902525" lon="8.722079420171752"><ele>414.0</ele><time>2026-04-17T08:02:13Z</time></trkpt><trkpt lat="44.49904032188204" lon="8.72214410493617"><ele>414.0</ele><time>2026-04-17T08:02:14Z</time></trkpt><trkpt lat="44.498872478394276" lon="8.722222373666762"><ele>414.0</ele><time>2026-04-17T08:02:15Z</time></trkpt><trkpt lat="44.49870021831881" lon="8.722323254474462"><ele>418.66666666666663</ele><time>2026-04-17T08:02:16Z</time></trkpt><trkpt lat="44.49854511274327" lon="8.72243031141639"><ele>423.3333333333333</ele><time>2026-04-17T08:02:17Z</time></trkpt><trkpt lat="44.49840234826689" lon="8.722527925577511"><ele>428.0</ele><time>2026-04-17T08:02:18Z</time></trkpt><trkpt lat="44.49826043074117" lon="8.722626221804774"><ele>428.0</ele><time>2026-04-17T08:02:19Z</time></trkpt><trkpt lat="44.49811454346162" lon="8.722721843219212"><ele>428.0</ele><time>2026-04-17T08:02:20Z</time></trkpt><trkpt lat="44.49797767707751" lon="8.722819790880108"><ele>428.0</ele><time>2026-04-17T08:02:21Z</time></trkpt><trkpt lat="44.497869727827215" lon="8.722906679863549"><ele>428.0</ele><time>2026-04-17T08:02:22Z</time></trkpt><trkpt lat="44.4977805346723" lon="8.722996362008114"><ele>429.0</ele><time>2026-04-17T08:02:23Z</time></trkpt><trkpt lat="44.497712803186594" lon="8.723133001907222"><ele>430.0</ele><time>2026-04-17T08:02:24Z</time></trkpt><trkpt lat="44.4976616836222" lon="8.72332533029912"><ele>431.0</ele><time>2026-04-17T08:02:25Z</time></trkpt><trkpt lat="44.497618519240106" lon="8.72353676062194"><ele>432.0</ele><time>2026-04-17T08:02:26Z</time></trkpt><trkpt lat="44.4975492012855" lon="8.723767846379316"><ele>432.0</ele><time>2026-04-17T08:02:27Z</time></trkpt><trkpt lat="44.49746417158104" lon="8.724037683201189"><ele>432.0</ele><time>2026-04-17T08:02:28Z</time></trkpt><trkpt lat="44.497383546278165" lon="8.724289173553114"><ele>432.0</ele><time>2026-04-17T08:02:29Z</time></trkpt><trkpt lat="44.4973054159873" lon="8.72453271828834"><ele>434.5</ele><time>2026-04-17T08:02:30Z</time></trkpt><trkpt lat="44.49724207660015" lon="8.724715163885223"><ele>437.0</ele><time>2026-04-17T08:02:31Z</time></trkpt><trkpt lat="44.49716554774702" lon="8.724858297860495"><ele>439.5</ele><time>2026-04-17T08:02:32Z</time></trkpt><trkpt lat="44.49704504793181" lon="8.724951301657084"><ele>442.0</ele><time>2026-04-17T08:02:33Z</time></trkpt><trkpt lat="44.49690959901311" lon="8.725002271247721"><ele>442.0</ele><time>2026-04-17T08:02:34Z</time></trkpt><trkpt lat="44.49677004372475" lon="8.725082642079634"><ele>442.0</ele><time>2026-04-17T08:02:35Z</time></trkpt><trkpt lat="44.49666850768436" lon="8.725154780861635"><ele>442.0</ele><time>2026-04-17T08:02:36Z</time></trkpt><trkpt lat="44.49660355196103" lon="8.725265804453558"><ele>442.0</ele><time>2026-04-17T08:02:37Z</time></trkpt><trkpt lat="44.496586694374244" lon="8.725416407278967"><ele>441.8</ele><time>2026-04-17T08:02:38Z</time></trkpt><trkpt lat="44.49660150341984" lon="8.725556160431765"><ele>441.6</ele><time>2026-04-17T08:02:39Z</time></trkpt><trkpt lat="44.49665485358306" lon="8.725690452437147"><ele>441.40000000000003</ele><time>2026-04-17T08:02:40Z</time></trkpt><trkpt lat="44.49673634994202" lon="8.725798339238802"><ele>441.20000000000005</ele><time>2026-04-17T08:02:40.999Z</time></trkpt><trkpt lat="44.49684946849405" lon="8.72585512362882"><ele>441.0</ele><time>2026-04-17T08:02:41.999Z</time></trkpt><trkpt lat="44.49697966351203" lon="8.725888742542285"><ele>438.75</ele><time>2026-04-17T08:02:42.999Z</time></trkpt><trkpt lat="44.497112584602746" lon="8.725922221054358"><ele>436.5</ele><time>2026-04-17T08:02:43.999Z</time></trkpt><trkpt lat="44.497222146361906" lon="8.725999125694527"><ele>434.25</ele><time>2026-04-17T08:02:44.999Z</time></trkpt><trkpt lat="44.49729331222837" lon="8.726100269741826"><ele>432.0</ele><time>2026-04-17T08:02:45.999Z</time></trkpt><trkpt lat="44.49733132244753" lon="8.726235990157175"><ele>432.0</ele><time>2026-04-17T08:02:46.999Z</time></trkpt><trkpt lat="44.497307702497054" lon="8.726399153681896"><ele>432.0</ele><time>2026-04-17T08:02:47.999Z</time></trkpt><trkpt lat="44.49730293631183" lon="8.726575666000647"><ele>432.0</ele><time>2026-04-17T08:02:48.999Z</time></trkpt><trkpt lat="44.49725149928222" lon="8.726759491034061"><ele>432.0</ele><time>2026-04-17T08:02:49.999Z</time></trkpt><trkpt lat="44.49722920836607" lon="8.726984706981751"><ele>433.33333333333337</ele><time>2026-04-17T08:02:50.999Z</time></trkpt><trkpt lat="44.49721785933868" lon="8.727239883717337"><ele>434.6666666666667</ele><time>2026-04-17T08:02:51.999Z</time></trkpt><trkpt lat="44.49718900783355" lon="8.727506282899663"><ele>436.0</ele><time>2026-04-17T08:02:52.999Z</time></trkpt><trkpt lat="44.49715414605115" lon="8.72772738665844"><ele>437.0</ele><time>2026-04-17T08:02:53.999Z</time></trkpt><trkpt lat="44.49712651710867" lon="8.727911000310115"><ele>438.0</ele><time>2026-04-17T08:02:54.999Z</time></trkpt><trkpt lat="44.49709504761682" lon="8.72805063723288"><ele>439.0</ele><time>2026-04-17T08:02:55.999Z</time></trkpt><trkpt lat="44.497032021356624" lon="8.728144591917246"><ele>440.0</ele><time>2026-04-17T08:02:56.999Z</time></trkpt><trkpt lat="44.49694342775917" lon="8.728199685391276"><ele>441.0</ele><time>2026-04-17T08:02:57.999Z</time></trkpt><trkpt lat="44.4968482317592" lon="8.728146275172797"><ele>441.0</ele><time>2026-04-17T08:02:58.999Z</time></trkpt><trkpt lat="44.49674007753456" lon="8.7281047773103"><ele>441.0</ele><time>2026-04-17T08:02:59.999Z</time></trkpt><trkpt lat="44.4966229591145" lon="8.728052332082722"><ele>441.0</ele><time>2026-04-17T08:03:00.999Z</time></trkpt><trkpt lat="44.49648865638025" lon="8.727992318624043"><ele>441.0</ele><time>2026-04-17T08:03:01.999Z</time></trkpt><trkpt lat="44.496325549338074" lon="8.727932971698928"><ele>443.66666666666663</ele><time>2026-04-17T08:03:02.999Z</time></trkpt><trkpt lat="44.49617490198042" lon="8.727940216023518"><ele>446.3333333333333</ele><time>2026-04-17T08:03:03.999Z</time></trkpt><trkpt lat="44.49602621117023" lon="8.728037418061625"><ele>449.0</ele><time>2026-04-17T08:03:04.999Z</time></trkpt><trkpt lat="44.49586858851431" lon="8.72808776914197"><ele>449.0</ele><time>2026-04-17T08:03:05.999Z</time></trkpt><trkpt lat="44.49569423381692" lon="8.728143397248346"><ele>449.0</ele><time>2026-04-17T08:03:06.999Z</time></trkpt><trkpt lat="44.495505872015144" lon="8.728207207328998"><ele>449.0</ele><time>2026-04-17T08:03:07.999Z</time></trkpt><trkpt lat="44.49529971047447" lon="8.728286896925965"><ele>456.66666666666663</ele><time>2026-04-17T08:03:08.999Z</time></trkpt><trkpt lat="44.49506839237185" lon="8.728380288355453"><ele>464.33333333333337</ele><time>2026-04-17T08:03:09.999Z</time></trkpt><trkpt lat="44.494866290413405" lon="8.728450253970676"><ele>472.0</ele><time>2026-04-17T08:03:10.999Z</time></trkpt><trkpt lat="44.494684458312285" lon="8.728506192318116"><ele>472.75</ele><time>2026-04-17T08:03:11.999Z</time></trkpt><trkpt lat="44.494532996064365" lon="8.72852732626591"><ele>473.5</ele><time>2026-04-17T08:03:12.999Z</time></trkpt><trkpt lat="44.494390908041254" lon="8.728498705447468"><ele>474.25</ele><time>2026-04-17T08:03:13.999Z</time></trkpt><trkpt lat="44.49425868203074" lon="8.728434782454197"><ele>475.0</ele><time>2026-04-17T08:03:14.999Z</time></trkpt><trkpt lat="44.49414197587412" lon="8.728328029967892"><ele>475.0</ele><time>2026-04-17T08:03:15.999Z</time></trkpt><trkpt lat="44.49400023635564" lon="8.728262115607293"><ele>475.0</ele><time>2026-04-17T08:03:16.999Z</time></trkpt><trkpt lat="44.49385929839267" lon="8.728198711082952"><ele>475.0</ele><time>2026-04-17T08:03:17.999Z</time></trkpt><trkpt lat="44.493695556709476" lon="8.728126755334298"><ele>473.6666666666667</ele><time>2026-04-17T08:03:18.999Z</time></trkpt><trkpt lat="44.49352548459597" lon="8.728053371780147"><ele>472.33333333333337</ele><time>2026-04-17T08:03:19.999Z</time></trkpt><trkpt lat="44.49337290327939" lon="8.727991217436019"><ele>471.0</ele><time>2026-04-17T08:03:20.999Z</time></trkpt><trkpt lat="44.49321834766147" lon="8.727936702321465"><ele>471.0</ele><time>2026-04-17T08:03:21.999Z</time></trkpt><trkpt lat="44.493081563555066" lon="8.727919924061348"><ele>471.0</ele><time>2026-04-17T08:03:22.999Z</time></trkpt><trkpt lat="44.49294643139639" lon="8.72794829429835"><ele>471.0</ele><time>2026-04-17T08:03:23.999Z</time></trkpt><trkpt lat="44.492817885134095" lon="8.72806613019522"><ele>471.0</ele><time>2026-04-17T08:03:24.999Z</time></trkpt><trkpt lat="44.49270900415494" lon="8.72821253986602"><ele>469.33333333333337</ele><time>2026-04-17T08:03:25.999Z</time></trkpt><trkpt lat="44.492587059137676" lon="8.728363905521777"><ele>467.6666666666667</ele><time>2026-04-17T08:03:26.999Z</time></trkpt><trkpt lat="44.492450589325784" lon="8.728485043873981"><ele>466.0</ele><time>2026-04-17T08:03:27.999Z</time></trkpt><trkpt lat="44.49228725501851" lon="8.728589121748737"><ele>466.0</ele><time>2026-04-17T08:03:28.999Z</time></trkpt><trkpt lat="44.4921446403667" lon="8.72872372453134"><ele>466.0</ele><time>2026-04-17T08:03:29.999Z</time></trkpt><trkpt lat="44.49202445751325" lon="8.728920795477926"><ele>466.0</ele><time>2026-04-17T08:03:30.999Z</time></trkpt><trkpt lat="44.491921155913325" lon="8.729059533477265"><ele>475.6666666666667</ele><time>2026-04-17T08:03:31.999Z</time></trkpt><trkpt lat="44.491804925115225" lon="8.729145502047304"><ele>485.33333333333337</ele><time>2026-04-17T08:03:32.999Z</time></trkpt><trkpt lat="44.491667038195914" lon="8.729192958647726"><ele>495.0</ele><time>2026-04-17T08:03:33.999Z</time></trkpt><trkpt lat="44.49149233932288" lon="8.729253801829497"><ele>495.0</ele><time>2026-04-17T08:03:34.999Z</time></trkpt><trkpt lat="44.491348876207745" lon="8.729329354990057"><ele>495.0</ele><time>2026-04-17T08:03:36Z</time></trkpt><trkpt lat="44.49120824516641" lon="8.729374226261193"><ele>495.0</ele><time>2026-04-17T08:03:37Z</time></trkpt><trkpt lat="44.49107333223124" lon="8.729371641592103"><ele>495.0</ele><time>2026-04-17T08:03:38Z</time></trkpt><trkpt lat="44.49095250805049" lon="8.729295891928972"><ele>497.5</ele><time>2026-04-17T08:03:39Z</time></trkpt><trkpt lat="44.49083152586274" lon="8.729203273906927"><ele>500.0</ele><time>2026-04-17T08:03:40Z</time></trkpt><trkpt lat="44.49067465830681" lon="8.729123295079612"><ele>502.5</ele><time>2026-04-17T08:03:41Z</time></trkpt><trkpt lat="44.490541058718506" lon="8.729083273609593"><ele>505.0</ele><time>2026-04-17T08:03:42Z</time></trkpt><trkpt lat="44.49040682472033" lon="8.729100138261408"><ele>506.0</ele><time>2026-04-17T08:03:43Z</time></trkpt><trkpt lat="44.49030352751009" lon="8.729164156121755"><ele>507.0</ele><time>2026-04-17T08:03:44Z</time></trkpt><trkpt lat="44.49021563283184" lon="8.729276167095277"><ele>508.0</ele><time>2026-04-17T08:03:45Z</time></trkpt><trkpt lat="44.49015805126473" lon="8.72941149583559"><ele>509.0</ele><time>2026-04-17T08:03:46Z</time></trkpt><trkpt lat="44.490131720905204" lon="8.729575380501842"><ele>505.75</ele><time>2026-04-17T08:03:47Z</time></trkpt><trkpt lat="44.490125443726335" lon="8.72974733185112"><ele>502.5</ele><time>2026-04-17T08:03:48Z</time></trkpt><trkpt lat="44.49011981791947" lon="8.72993582200531"><ele>499.25</ele><time>2026-04-17T08:03:49Z</time></trkpt><trkpt lat="44.49007283071935" lon="8.730114946961683"><ele>496.0</ele><time>2026-04-17T08:03:50Z</time></trkpt><trkpt lat="44.49002594808897" lon="8.730249404364669"><ele>498.25</ele><time>2026-04-17T08:03:51Z</time></trkpt><trkpt lat="44.489945980239355" lon="8.730341828270758"><ele>500.5</ele><time>2026-04-17T08:03:52Z</time></trkpt><trkpt lat="44.48983285203922" lon="8.730436367717537"><ele>502.75</ele><time>2026-04-17T08:03:53Z</time></trkpt><trkpt lat="44.48968885162963" lon="8.730511089050038"><ele>505.0</ele><time>2026-04-17T08:03:54Z</time></trkpt><trkpt lat="44.48952532283061" lon="8.730549991984784"><ele>505.0</ele><time>2026-04-17T08:03:55Z</time></trkpt><trkpt lat="44.4893489460678" lon="8.730586304141772"><ele>505.0</ele><time>2026-04-17T08:03:56Z</time></trkpt><trkpt lat="44.48917087031014" lon="8.73059641927586"><ele>505.0</ele><time>2026-04-17T08:03:57Z</time></trkpt><trkpt lat="44.489009864132086" lon="8.730623059872926"><ele>505.0</ele><time>2026-04-17T08:03:58Z</time></trkpt><trkpt lat="44.48887951354601" lon="8.730656297214091"><ele>505.0</ele><time>2026-04-17T08:03:59Z</time></trkpt><trkpt lat="44.488777954323886" lon="8.730719250920819"><ele>505.0</ele><time>2026-04-17T08:04:00Z</time></trkpt><trkpt lat="44.48870119824341" lon="8.730782454092088"><ele>505.0</ele><time>2026-04-17T08:04:01Z</time></trkpt><trkpt lat="44.48864146953792" lon="8.730926519045834"><ele>512.0</ele><time>2026-04-17T08:04:02Z</time></trkpt><trkpt lat="44.48862396735076" lon="8.731113311220732"><ele>519.0</ele><time>2026-04-17T08:04:03Z</time></trkpt><trkpt lat="44.48865736640888" lon="8.731285984498061"><ele>526.0</ele><time>2026-04-17T08:04:04Z</time></trkpt><trkpt lat="44.48872142585623" lon="8.731432888886447"><ele>533.0</ele><time>2026-04-17T08:04:05Z</time></trkpt><trkpt lat="44.48874418630689" lon="8.731569686568763"><ele>533.0</ele><time>2026-04-17T08:04:06Z</time></trkpt><trkpt lat="44.48872463641624" lon="8.731702573155516"><ele>533.0</ele><time>2026-04-17T08:04:07Z</time></trkpt><trkpt lat="44.48864115965662" lon="8.731793687868906"><ele>533.0</ele><time>2026-04-17T08:04:08Z</time></trkpt><trkpt lat="44.48857114547181" lon="8.731910927795079"><ele>533.0</ele><time>2026-04-17T08:04:09Z</time></trkpt><trkpt lat="44.48850650775645" lon="8.732041159913338"><ele>533.0</ele><time>2026-04-17T08:04:10Z</time></trkpt><trkpt lat="44.48848925097962" lon="8.7321836051312"><ele>535.0</ele><time>2026-04-17T08:04:11Z</time></trkpt><trkpt lat="44.48852105083673" lon="8.732358021345547"><ele>537.0</ele><time>2026-04-17T08:04:12Z</time></trkpt><trkpt lat="44.48859243765352" lon="8.732493312902209"><ele>539.0</ele><time>2026-04-17T08:04:13Z</time></trkpt><trkpt lat="44.4886868722364" lon="8.732620659237448"><ele>541.0</ele><time>2026-04-17T08:04:14Z</time></trkpt><trkpt lat="44.4887699129955" lon="8.732772975127638"><ele>541.25</ele><time>2026-04-17T08:04:15Z</time></trkpt><trkpt lat="44.488801485451326" lon="8.732926773768655"><ele>541.5</ele><time>2026-04-17T08:04:16Z</time></trkpt><trkpt lat="44.488793374644565" lon="8.733084056798363"><ele>541.75</ele><time>2026-04-17T08:04:17Z</time></trkpt><trkpt lat="44.48875318157819" lon="8.733236439899496"><ele>542.0</ele><time>2026-04-17T08:04:18Z</time></trkpt><trkpt lat="44.48867786411127" lon="8.73337364373431"><ele>542.0</ele><time>2026-04-17T08:04:19Z</time></trkpt><trkpt lat="44.48858856364005" lon="8.733526523361773"><ele>542.0</ele><time>2026-04-17T08:04:20Z</time></trkpt><trkpt lat="44.48847846698121" lon="8.73361213234879"><ele>542.0</ele><time>2026-04-17T08:04:21Z</time></trkpt><trkpt lat="44.48833773535464" lon="8.733676177920954"><ele>542.0</ele><time>2026-04-17T08:04:22Z</time></trkpt><trkpt lat="44.48818812157268" lon="8.733767372042157"><ele>536.3333333333333</ele><time>2026-04-17T08:04:23Z</time></trkpt><trkpt lat="44.48801054607302" lon="8.733821949027737"><ele>530.6666666666666</ele><time>2026-04-17T08:04:24Z</time></trkpt><trkpt lat="44.48782293607393" lon="8.733902391427078"><ele>525.0</ele><time>2026-04-17T08:04:25Z</time></trkpt><trkpt lat="44.48762427445059" lon="8.733959723495547"><ele>543.0</ele><time>2026-04-17T08:04:26Z</time></trkpt><trkpt lat="44.4873983286209" lon="8.734030823868645"><ele>561.0</ele><time>2026-04-17T08:04:27Z</time></trkpt><trkpt lat="44.487148990643405" lon="8.734109825612537"><ele>573.5</ele><time>2026-04-17T08:04:28.021Z</time></trkpt><trkpt lat="44.48689231309158" lon="8.734192775657045"><ele>586.0</ele><time>2026-04-17T08:04:29.022Z</time></trkpt><trkpt lat="44.48664839272675" lon="8.73427164061695"><ele>586.0</ele><time>2026-04-17T08:04:30.015Z</time></trkpt><trkpt lat="44.48641877360143" lon="8.734347874630483"><ele>586.0</ele><time>2026-04-17T08:04:31.019Z</time></trkpt><trkpt lat="44.486194031252005" lon="8.734420131948434"><ele>517.0</ele><time>2026-04-17T08:04:32.018Z</time></trkpt><trkpt lat="44.485274786171026" lon="8.73507751152733"><ele>520.3333333333334</ele><time>2026-04-17T08:04:39Z</time></trkpt><trkpt lat="44.48512943860757" lon="8.735248349091902"><ele>523.6666666666666</ele><time>2026-04-17T08:04:40Z</time></trkpt><trkpt lat="44.48508916017739" lon="8.735481882591294"><ele>527.0</ele><time>2026-04-17T08:04:41Z</time></trkpt><trkpt lat="44.48496819164321" lon="8.735652385440654"><ele>527.0</ele><time>2026-04-17T08:04:42Z</time></trkpt><trkpt lat="44.48491133556565" lon="8.735805044709636"><ele>527.0</ele><time>2026-04-17T08:04:43Z</time></trkpt><trkpt lat="44.48484160413359" lon="8.735909629947965"><ele>527.0</ele><time>2026-04-17T08:04:44Z</time></trkpt><trkpt lat="44.484698645597305" lon="8.735964766043782"><ele>527.0</ele><time>2026-04-17T08:04:44.999Z</time></trkpt><trkpt lat="44.48458548363191" lon="8.735968866905155"><ele>527.5</ele><time>2026-04-17T08:04:45.999Z</time></trkpt><trkpt lat="44.48444352768865" lon="8.735964227718059"><ele>528.0</ele><time>2026-04-17T08:04:46.999Z</time></trkpt><trkpt lat="44.48429971311666" lon="8.736022388013042"><ele>528.5</ele><time>2026-04-17T08:04:47.999Z</time></trkpt><trkpt lat="44.48416926448448" lon="8.736106531652586"><ele>529.0</ele><time>2026-04-17T08:04:48.999Z</time></trkpt><trkpt lat="44.48404760187462" lon="8.736219067680908"><ele>529.0</ele><time>2026-04-17T08:04:49.999Z</time></trkpt><trkpt lat="44.4839499805021" lon="8.736385248783368"><ele>529.0</ele><time>2026-04-17T08:04:50.999Z</time></trkpt><trkpt lat="44.48384812415979" lon="8.736547766594954"><ele>529.0</ele><time>2026-04-17T08:04:51.999Z</time></trkpt><trkpt lat="44.483720225803495" lon="8.73667593132071"><ele>524.0</ele><time>2026-04-17T08:04:52.999Z</time></trkpt><trkpt lat="44.48358005117446" lon="8.736776226413285"><ele>519.0</ele><time>2026-04-17T08:04:53.999Z</time></trkpt><trkpt lat="44.4834268774573" lon="8.736857774517812"><ele>514.0</ele><time>2026-04-17T08:04:54.999Z</time></trkpt><trkpt lat="44.48329157050018" lon="8.736952767337648"><ele>514.2</ele><time>2026-04-17T08:04:55.999Z</time></trkpt><trkpt lat="44.483181200291554" lon="8.737037167703326"><ele>514.4</ele><time>2026-04-17T08:04:56.999Z</time></trkpt><trkpt lat="44.48309306076525" lon="8.737091980422797"><ele>514.6</ele><time>2026-04-17T08:04:57.999Z</time></trkpt><trkpt lat="44.48299827008672" lon="8.737077986765188"><ele>514.8</ele><time>2026-04-17T08:04:58.999Z</time></trkpt><trkpt lat="44.4829222414234" lon="8.736953550900088"><ele>515.0</ele><time>2026-04-17T08:04:59.999Z</time></trkpt><trkpt lat="44.482832667231726" lon="8.736839507358063"><ele>515.0</ele><time>2026-04-17T08:05:00.999Z</time></trkpt><trkpt lat="44.48273868257602" lon="8.736715799285847"><ele>515.0</ele><time>2026-04-17T08:05:01.999Z</time></trkpt><trkpt lat="44.48261803595618" lon="8.736582278941073"><ele>515.0</ele><time>2026-04-17T08:05:02.999Z</time></trkpt><trkpt lat="44.48251523246838" lon="8.736507054818054"><ele>515.0</ele><time>2026-04-17T08:05:03.999Z</time></trkpt><trkpt lat="44.48241453867246" lon="8.736500658954402"><ele>515.0</ele><time>2026-04-17T08:05:04.999Z</time></trkpt><trkpt lat="44.482351669090086" lon="8.736475144155223"><ele>515.0</ele><time>2026-04-17T08:05:05.999Z</time></trkpt><trkpt lat="44.48233274591199" lon="8.73637687303631"><ele>515.0</ele><time>2026-04-17T08:05:07.999Z</time></trkpt><trkpt lat="44.48236630537546" lon="8.736299964269273"><ele>515.0</ele><time>2026-04-17T08:05:08.999Z</time></trkpt><trkpt lat="44.482465773679316" lon="8.736287493038397"><ele>515.0</ele><time>2026-04-17T08:05:09.999Z</time></trkpt><trkpt lat="44.482558187614785" lon="8.736350562970811"><ele>515.0</ele><time>2026-04-17T08:05:10.999Z</time></trkpt><trkpt lat="44.482648059139756" lon="8.73646049288252"><ele>515.0</ele><time>2026-04-17T08:05:11.999Z</time></trkpt><trkpt lat="44.48276224981006" lon="8.73656881511521"><ele>515.0</ele><time>2026-04-17T08:05:12.999Z</time></trkpt><trkpt lat="44.48287291226376" lon="8.736649356767918"><ele>515.0</ele><time>2026-04-17T08:05:13.999Z</time></trkpt><trkpt lat="44.48296366552654" lon="8.7367347237545"><ele>515.0</ele><time>2026-04-17T08:05:14.999Z</time></trkpt><trkpt lat="44.48304619672183" lon="8.736777862753426"><ele>514.75</ele><time>2026-04-17T08:05:15.999Z</time></trkpt><trkpt lat="44.483136632724516" lon="8.73677287406058"><ele>514.5</ele><time>2026-04-17T08:05:16.999Z</time></trkpt><trkpt lat="44.483227489583726" lon="8.736693758430148"><ele>514.25</ele><time>2026-04-17T08:05:17.999Z</time></trkpt><trkpt lat="44.4833303664129" lon="8.73657177926611"><ele>514.0</ele><time>2026-04-17T08:05:18.999Z</time></trkpt><trkpt lat="44.48342845416187" lon="8.736444538460262"><ele>514.0</ele><time>2026-04-17T08:05:19.999Z</time></trkpt><trkpt lat="44.483523448836564" lon="8.73630218286273"><ele>514.0</ele><time>2026-04-17T08:05:20.999Z</time></trkpt><trkpt lat="44.48356542292579" lon="8.736173648134237"><ele>514.0</ele><time>2026-04-17T08:05:21.999Z</time></trkpt><trkpt lat="44.48360918677542" lon="8.736008394767556"><ele>514.0</ele><time>2026-04-17T08:05:22.999Z</time></trkpt><trkpt lat="44.48363757694542" lon="8.73585582813344"><ele>512.25</ele><time>2026-04-17T08:05:23.999Z</time></trkpt><trkpt lat="44.48369363005786" lon="8.735712453345577"><ele>510.5</ele><time>2026-04-17T08:05:24.999Z</time></trkpt><trkpt lat="44.48381188061278" lon="8.735618469617455"><ele>508.75</ele><time>2026-04-17T08:05:25.999Z</time></trkpt><trkpt lat="44.48394817977795" lon="8.735538464628888"><ele>507.0</ele><time>2026-04-17T08:05:26.999Z</time></trkpt><trkpt lat="44.484086899256816" lon="8.735458570305667"><ele>507.0</ele><time>2026-04-17T08:05:27.999Z</time></trkpt><trkpt lat="44.48421393708908" lon="8.735386881343082"><ele>507.0</ele><time>2026-04-17T08:05:28.999Z</time></trkpt><trkpt lat="44.48432493024176" lon="8.735317528046592"><ele>507.0</ele><time>2026-04-17T08:05:29.999Z</time></trkpt><trkpt lat="44.48442527114091" lon="8.735226198016372"><ele>507.0</ele><time>2026-04-17T08:05:30.999Z</time></trkpt><trkpt lat="44.484459629132736" lon="8.735060477505744"><ele>502.6</ele><time>2026-04-17T08:05:31.999Z</time></trkpt><trkpt lat="44.4844594852761" lon="8.734949467265187"><ele>498.20000000000005</ele><time>2026-04-17T08:05:32.999Z</time></trkpt><trkpt lat="44.48447422147731" lon="8.734820128775272"><ele>493.8</ele><time>2026-04-17T08:05:33.999Z</time></trkpt><trkpt lat="44.484413499482294" lon="8.734652975341591"><ele>489.4</ele><time>2026-04-17T08:05:35.999Z</time></trkpt><trkpt lat="44.48430674411462" lon="8.734595379650235"><ele>485.0</ele><time>2026-04-17T08:05:36.999Z</time></trkpt><trkpt lat="44.484160636706456" lon="8.73450544475771"><ele>489.66666666666663</ele><time>2026-04-17T08:05:37.999Z</time></trkpt><trkpt lat="44.483994112156715" lon="8.734379424133369"><ele>494.33333333333337</ele><time>2026-04-17T08:05:38.999Z</time></trkpt><trkpt lat="44.48382197968096" lon="8.734230637932889"><ele>499.0</ele><time>2026-04-17T08:05:39.999Z</time></trkpt><trkpt lat="44.48368408633828" lon="8.734065921404387"><ele>492.0</ele><time>2026-04-17T08:05:40.999Z</time></trkpt><trkpt lat="44.48353821768575" lon="8.733945488645256"><ele>485.0</ele><time>2026-04-17T08:05:42Z</time></trkpt><trkpt lat="44.483434263679925" lon="8.733829667836165"><ele>478.0</ele><time>2026-04-17T08:05:43Z</time></trkpt><trkpt lat="44.48336195475345" lon="8.733725110078728"><ele>471.0</ele><time>2026-04-17T08:05:44Z</time></trkpt><trkpt lat="44.48334207564984" lon="8.733610387726744"><ele>471.25</ele><time>2026-04-17T08:05:45Z</time></trkpt><trkpt lat="44.483353162370086" lon="8.733501262664369"><ele>471.5</ele><time>2026-04-17T08:05:46Z</time></trkpt><trkpt lat="44.48341043777284" lon="8.733374867917483"><ele>471.75</ele><time>2026-04-17T08:05:47Z</time></trkpt><trkpt lat="44.483503297248845" lon="8.733235202821074"><ele>472.0</ele><time>2026-04-17T08:05:48Z</time></trkpt><trkpt lat="44.48360378404962" lon="8.733099768692673"><ele>472.0</ele><time>2026-04-17T08:05:49Z</time></trkpt><trkpt lat="44.48374103907157" lon="8.733015878272257"><ele>472.0</ele><time>2026-04-17T08:05:50Z</time></trkpt><trkpt lat="44.48386571567869" lon="8.732919351948105"><ele>472.0</ele><time>2026-04-17T08:05:51Z</time></trkpt><trkpt lat="44.483943746213484" lon="8.73284382132558"><ele>472.0</ele><time>2026-04-17T08:05:52Z</time></trkpt><trkpt lat="44.48399099376164" lon="8.732785326843628"><ele>473.5</ele><time>2026-04-17T08:05:53Z</time></trkpt><trkpt lat="44.483915027746384" lon="8.732583772188057"><ele>475.0</ele><time>2026-04-17T08:05:55Z</time></trkpt><trkpt lat="44.483794077266666" lon="8.732543072655666"><ele>476.5</ele><time>2026-04-17T08:05:56Z</time></trkpt><trkpt lat="44.48365442124984" lon="8.732456486991635"><ele>478.0</ele><time>2026-04-17T08:05:57Z</time></trkpt><trkpt lat="44.48348700727387" lon="8.732381086438147"><ele>478.0</ele><time>2026-04-17T08:05:58Z</time></trkpt><trkpt lat="44.483314441032704" lon="8.732291386172294"><ele>478.0</ele><time>2026-04-17T08:05:59Z</time></trkpt><trkpt lat="44.483142543993175" lon="8.732182903784015"><ele>478.0</ele><time>2026-04-17T08:06:00Z</time></trkpt><trkpt lat="44.48299476874018" lon="8.732068926487498"><ele>472.5</ele><time>2026-04-17T08:06:01Z</time></trkpt><trkpt lat="44.482909402208264" lon="8.732000046183844"><ele>467.0</ele><time>2026-04-17T08:06:02Z</time></trkpt><trkpt lat="44.4828156260758" lon="8.731899692434562"><ele>461.5</ele><time>2026-04-17T08:06:03Z</time></trkpt><trkpt lat="44.482707833500456" lon="8.731964319416397"><ele>456.0</ele><time>2026-04-17T08:06:04Z</time></trkpt><trkpt lat="44.48256747486564" lon="8.732015568411137"><ele>456.0</ele><time>2026-04-17T08:06:05Z</time></trkpt><trkpt lat="44.4824088483552" lon="8.732034312758557"><ele>456.0</ele><time>2026-04-17T08:06:06Z</time></trkpt><trkpt lat="44.48224174856451" lon="8.732058542786595"><ele>456.0</ele><time>2026-04-17T08:06:07Z</time></trkpt><trkpt lat="44.4820768788761" lon="8.732037120832587"><ele>459.25</ele><time>2026-04-17T08:06:08Z</time></trkpt><trkpt lat="44.481927901752286" lon="8.731971464928733"><ele>462.5</ele><time>2026-04-17T08:06:09Z</time></trkpt><trkpt lat="44.481812790879616" lon="8.731869843186567"><ele>465.75</ele><time>2026-04-17T08:06:10Z</time></trkpt><trkpt lat="44.48172508252048" lon="8.731758020653313"><ele>469.0</ele><time>2026-04-17T08:06:11Z</time></trkpt><trkpt lat="44.481686374103596" lon="8.731622698960164"><ele>469.0</ele><time>2026-04-17T08:06:12Z</time></trkpt><trkpt lat="44.48168596007216" lon="8.731473116457908"><ele>469.0</ele><time>2026-04-17T08:06:13Z</time></trkpt><trkpt lat="44.481662862702294" lon="8.731317415837246"><ele>469.0</ele><time>2026-04-17T08:06:14Z</time></trkpt><trkpt lat="44.481581744084515" lon="8.731239626702207"><ele>469.0</ele><time>2026-04-17T08:06:15Z</time></trkpt><trkpt lat="44.48146725826257" lon="8.731150461303951"><ele>469.0</ele><time>2026-04-17T08:06:16Z</time></trkpt><trkpt lat="44.48134397849418" lon="8.731110708427034"><ele>460.6666666666667</ele><time>2026-04-17T08:06:17Z</time></trkpt><trkpt lat="44.481177887152775" lon="8.731128609096714"><ele>452.33333333333337</ele><time>2026-04-17T08:06:18Z</time></trkpt><trkpt lat="44.480998980190115" lon="8.731176824220046"><ele>444.0</ele><time>2026-04-17T08:06:19Z</time></trkpt><trkpt lat="44.48080381932574" lon="8.731206761901158"><ele>444.0</ele><time>2026-04-17T08:06:20Z</time></trkpt><trkpt lat="44.480603153360704" lon="8.731231778958442"><ele>444.0</ele><time>2026-04-17T08:06:21Z</time></trkpt><trkpt lat="44.48042079896068" lon="8.731256913889899"><ele>444.0</ele><time>2026-04-17T08:06:22Z</time></trkpt><trkpt lat="44.480243756869896" lon="8.731262339182777"><ele>443.0</ele><time>2026-04-17T08:06:23Z</time></trkpt><trkpt lat="44.4800734980274" lon="8.731252954172172"><ele>442.0</ele><time>2026-04-17T08:06:24Z</time></trkpt><trkpt lat="44.47992844222313" lon="8.731242050524742"><ele>441.0</ele><time>2026-04-17T08:06:25Z</time></trkpt><trkpt lat="44.479792822272444" lon="8.731198485895222"><ele>441.0</ele><time>2026-04-17T08:06:26Z</time></trkpt><trkpt lat="44.47966233147061" lon="8.731106567276974"><ele>441.0</ele><time>2026-04-17T08:06:27Z</time></trkpt><trkpt lat="44.47953938614943" lon="8.73096731418069"><ele>441.0</ele><time>2026-04-17T08:06:28Z</time></trkpt><trkpt lat="44.47940402474814" lon="8.730842724573819"><ele>442.0</ele><time>2026-04-17T08:06:29Z</time></trkpt><trkpt lat="44.479276286235894" lon="8.730724355166883"><ele>443.0</ele><time>2026-04-17T08:06:30Z</time></trkpt><trkpt lat="44.47916925757868" lon="8.730636353352349"><ele>444.0</ele><time>2026-04-17T08:06:31Z</time></trkpt><trkpt lat="44.47908834104061" lon="8.730557841192962"><ele>445.0</ele><time>2026-04-17T08:06:32Z</time></trkpt><trkpt lat="44.479035381128206" lon="8.730428788023989"><ele>445.0</ele><time>2026-04-17T08:06:33Z</time></trkpt><trkpt lat="44.47902397356689" lon="8.730284173687881"><ele>445.0</ele><time>2026-04-17T08:06:34Z</time></trkpt><trkpt lat="44.479083666030334" lon="8.730126020063343"><ele>445.0</ele><time>2026-04-17T08:06:35Z</time></trkpt><trkpt lat="44.479173903555704" lon="8.729970664737694"><ele>445.0</ele><time>2026-04-17T08:06:36Z</time></trkpt><trkpt lat="44.47927196933768" lon="8.729788856752668"><ele>446.33333333333337</ele><time>2026-04-17T08:06:37Z</time></trkpt><trkpt lat="44.4793657136049" lon="8.729598795694189"><ele>447.66666666666663</ele><time>2026-04-17T08:06:38Z</time></trkpt><trkpt lat="44.47946101794301" lon="8.729411366375896"><ele>449.0</ele><time>2026-04-17T08:06:39Z</time></trkpt><trkpt lat="44.479557383607954" lon="8.729270874824433"><ele>447.0</ele><time>2026-04-17T08:06:40Z</time></trkpt><trkpt lat="44.479668848891016" lon="8.729169775752988"><ele>445.0</ele><time>2026-04-17T08:06:40.999Z</time></trkpt><trkpt lat="44.479792983007336" lon="8.729131768432683"><ele>443.0</ele><time>2026-04-17T08:06:41.999Z</time></trkpt><trkpt lat="44.479910857962864" lon="8.729156711339396"><ele>441.0</ele><time>2026-04-17T08:06:42.999Z</time></trkpt><trkpt lat="44.480038905426" lon="8.729207403043466"><ele>441.0</ele><time>2026-04-17T08:06:43.999Z</time></trkpt><trkpt lat="44.48017650904763" lon="8.729265860338778"><ele>441.0</ele><time>2026-04-17T08:06:44.999Z</time></trkpt><trkpt lat="44.48029974465801" lon="8.729294599524453"><ele>441.0</ele><time>2026-04-17T08:06:45.999Z</time></trkpt><trkpt lat="44.48038882245298" lon="8.729332961651735"><ele>441.0</ele><time>2026-04-17T08:06:46.999Z</time></trkpt><trkpt lat="44.480464090165384" lon="8.729341072055197"><ele>441.0</ele><time>2026-04-17T08:06:47.999Z</time></trkpt><trkpt lat="44.48052775226667" lon="8.729319375109931"><ele>445.5</ele><time>2026-04-17T08:06:48.999Z</time></trkpt><trkpt lat="44.48059084556745" lon="8.729177819354025"><ele>450.0</ele><time>2026-04-17T08:06:49.999Z</time></trkpt><trkpt lat="44.48061430481199" lon="8.728977782581735"><ele>454.5</ele><time>2026-04-17T08:06:50.999Z</time></trkpt><trkpt lat="44.480636192556204" lon="8.72878444120102"><ele>459.0</ele><time>2026-04-17T08:06:51.999Z</time></trkpt><trkpt lat="44.48070194740291" lon="8.72856089379989"><ele>453.0</ele><time>2026-04-17T08:06:52.999Z</time></trkpt><trkpt lat="44.480732549689314" lon="8.728341667096995"><ele>447.0</ele><time>2026-04-17T08:06:53.999Z</time></trkpt><trkpt lat="44.48076410679707" lon="8.728160425546408"><ele>441.0</ele><time>2026-04-17T08:06:54.999Z</time></trkpt><trkpt lat="44.48084766246875" lon="8.728020317948124"><ele>435.0</ele><time>2026-04-17T08:06:55.999Z</time></trkpt><trkpt lat="44.48095124372864" lon="8.72784331830527"><ele>437.5</ele><time>2026-04-17T08:06:56.999Z</time></trkpt><trkpt lat="44.48103263802953" lon="8.727638243553264"><ele>440.0</ele><time>2026-04-17T08:06:57.999Z</time></trkpt><trkpt lat="44.481111516872225" lon="8.72750673751307"><ele>442.5</ele><time>2026-04-17T08:06:58.999Z</time></trkpt><trkpt lat="44.4812096048771" lon="8.727395524356888"><ele>445.0</ele><time>2026-04-17T08:06:59.999Z</time></trkpt><trkpt lat="44.481330398893654" lon="8.727270261626407"><ele>445.0</ele><time>2026-04-17T08:07:00.999Z</time></trkpt><trkpt lat="44.48143370565478" lon="8.727196477400472"><ele>445.0</ele><time>2026-04-17T08:07:01.999Z</time></trkpt><trkpt lat="44.481512321717545" lon="8.727156921311536"><ele>445.0</ele><time>2026-04-17T08:07:02.999Z</time></trkpt><trkpt lat="44.48162582416451" lon="8.727107171796026"><ele>445.0</ele><time>2026-04-17T08:07:03.999Z</time></trkpt><trkpt lat="44.48173604895489" lon="8.72699082397028"><ele>438.75</ele><time>2026-04-17T08:07:04.999Z</time></trkpt><trkpt lat="44.48180604169095" lon="8.726741799174336"><ele>432.5</ele><time>2026-04-17T08:07:05.999Z</time></trkpt><trkpt lat="44.48185316497109" lon="8.726576356394277"><ele>426.25</ele><time>2026-04-17T08:07:06.999Z</time></trkpt><trkpt lat="44.4819261386822" lon="8.726428197357585"><ele>420.0</ele><time>2026-04-17T08:07:07.999Z</time></trkpt><trkpt lat="44.48203235361238" lon="8.726228474801191"><ele>426.0</ele><time>2026-04-17T08:07:08.999Z</time></trkpt><trkpt lat="44.48213745445926" lon="8.72598007987295"><ele>432.0</ele><time>2026-04-17T08:07:09.999Z</time></trkpt><trkpt lat="44.48218159462583" lon="8.725740673850437"><ele>438.0</ele><time>2026-04-17T08:07:10.999Z</time></trkpt><trkpt lat="44.48222240208357" lon="8.725512802326548"><ele>438.0</ele><time>2026-04-17T08:07:11.999Z</time></trkpt><trkpt lat="44.48228137344296" lon="8.725302679264379"><ele>438.0</ele><time>2026-04-17T08:07:12.999Z</time></trkpt><trkpt lat="44.48235201905912" lon="8.72511723878885"><ele>438.0</ele><time>2026-04-17T08:07:13.999Z</time></trkpt><trkpt lat="44.48242069749551" lon="8.72496906882121"><ele>438.0</ele><time>2026-04-17T08:07:14.999Z</time></trkpt><trkpt lat="44.48247792249046" lon="8.724863338514638"><ele>436.3333333333333</ele><time>2026-04-17T08:07:15.999Z</time></trkpt><trkpt lat="44.48249480190327" lon="8.72475211483847"><ele>434.66666666666663</ele><time>2026-04-17T08:07:16.999Z</time></trkpt><trkpt lat="44.482463308057525" lon="8.724643662793362"><ele>433.0</ele><time>2026-04-17T08:07:17.999Z</time></trkpt><trkpt lat="44.48240008446365" lon="8.72458228289196"><ele>431.3333333333333</ele><time>2026-04-17T08:07:18.999Z</time></trkpt><trkpt lat="44.48232335793728" lon="8.724636489017009"><ele>429.66666666666663</ele><time>2026-04-17T08:07:19.999Z</time></trkpt><trkpt lat="44.48225132801497" lon="8.72465367281237"><ele>428.0</ele><time>2026-04-17T08:07:20.999Z</time></trkpt><trkpt lat="44.482238915783086" lon="8.724772584315321"><ele>428.0</ele><time>2026-04-17T08:07:21.999Z</time></trkpt><trkpt lat="44.48221762878725" lon="8.724951979174994"><ele>428.0</ele><time>2026-04-17T08:07:22.999Z</time></trkpt><trkpt lat="44.48216180162253" lon="8.725203439458069"><ele>428.0</ele><time>2026-04-17T08:07:23.999Z</time></trkpt><trkpt lat="44.4821272497394" lon="8.725437396800075"><ele>426.0</ele><time>2026-04-17T08:07:24.999Z</time></trkpt><trkpt lat="44.48209059101121" lon="8.725659009325064"><ele>424.0</ele><time>2026-04-17T08:07:25.999Z</time></trkpt><trkpt lat="44.48203910656285" lon="8.72585470633101"><ele>422.0</ele><time>2026-04-17T08:07:26.999Z</time></trkpt><trkpt lat="44.48197353139627" lon="8.726023533536203"><ele>420.0</ele><time>2026-04-17T08:07:27.999Z</time></trkpt><trkpt lat="44.48188669366646" lon="8.726164667442479"><ele>420.0</ele><time>2026-04-17T08:07:28.999Z</time></trkpt><trkpt lat="44.481740319311676" lon="8.726344192200408"><ele>420.0</ele><time>2026-04-17T08:07:29.999Z</time></trkpt><trkpt lat="44.48161460993846" lon="8.726508659512378"><ele>420.0</ele><time>2026-04-17T08:07:30.999Z</time></trkpt><trkpt lat="44.48150652374694" lon="8.726634055144784"><ele>420.0</ele><time>2026-04-17T08:07:31.999Z</time></trkpt><trkpt lat="44.481398620209916" lon="8.726704525445381"><ele>420.0</ele><time>2026-04-17T08:07:32.999Z</time></trkpt><trkpt lat="44.48125160762585" lon="8.726754275742113"><ele>420.0</ele><time>2026-04-17T08:07:33.999Z</time></trkpt><trkpt lat="44.481130982001346" lon="8.726858759367763"><ele>420.0</ele><time>2026-04-17T08:07:34.999Z</time></trkpt><trkpt lat="44.48102034483592" lon="8.72695665522142"><ele>417.0</ele><time>2026-04-17T08:07:35.999Z</time></trkpt><trkpt lat="44.48093691494001" lon="8.727162612338885"><ele>414.0</ele><time>2026-04-17T08:07:36.999Z</time></trkpt><trkpt lat="44.48083152860247" lon="8.727332166724503"><ele>411.0</ele><time>2026-04-17T08:07:37.999Z</time></trkpt><trkpt lat="44.48072318548847" lon="8.727485502532524"><ele>411.0</ele><time>2026-04-17T08:07:38.999Z</time></trkpt><trkpt lat="44.48059987133536" lon="8.727573523163551"><ele>411.0</ele><time>2026-04-17T08:07:39.999Z</time></trkpt><trkpt lat="44.480494555300375" lon="8.727692992289283"><ele>411.0</ele><time>2026-04-17T08:07:40.999Z</time></trkpt><trkpt lat="44.480445767287385" lon="8.727785608014658"><ele>411.0</ele><time>2026-04-17T08:07:41.999Z</time></trkpt><trkpt lat="44.480381824500746" lon="8.727931688171031"><ele>412.6</ele><time>2026-04-17T08:07:42.999Z</time></trkpt><trkpt lat="44.48034540814104" lon="8.728080251293067"><ele>414.20000000000005</ele><time>2026-04-17T08:07:43.999Z</time></trkpt><trkpt lat="44.480331368836964" lon="8.728232800413197"><ele>415.79999999999995</ele><time>2026-04-17T08:07:44.999Z</time></trkpt><trkpt lat="44.480290776935504" lon="8.728358020722947"><ele>417.4</ele><time>2026-04-17T08:07:45.999Z</time></trkpt><trkpt lat="44.480181854151105" lon="8.72833752747742"><ele>419.0</ele><time>2026-04-17T08:07:46.999Z</time></trkpt><trkpt lat="44.48010710885783" lon="8.728244264595988"><ele>419.0</ele><time>2026-04-17T08:07:49Z</time></trkpt><trkpt lat="44.48002878919048" lon="8.728060834049336"><ele>419.0</ele><time>2026-04-17T08:07:51Z</time></trkpt><trkpt lat="44.47980257180864" lon="8.727829925010678"><ele>419.0</ele><time>2026-04-17T08:07:52Z</time></trkpt><trkpt lat="44.47965358397206" lon="8.727785628612299"><ele>416.3333333333333</ele><time>2026-04-17T08:07:53Z</time></trkpt><trkpt lat="44.479496825961505" lon="8.727786782435976"><ele>413.66666666666663</ele><time>2026-04-17T08:07:54Z</time></trkpt><trkpt lat="44.479287668183616" lon="8.727847361420634"><ele>411.0</ele><time>2026-04-17T08:07:55Z</time></trkpt><trkpt lat="44.4790783107704" lon="8.727920225168917"><ele>411.0</ele><time>2026-04-17T08:07:56Z</time></trkpt><trkpt lat="44.47886757883306" lon="8.727989780943554"><ele>411.0</ele><time>2026-04-17T08:07:57Z</time></trkpt><trkpt lat="44.47870588619017" lon="8.728025771423015"><ele>411.0</ele><time>2026-04-17T08:07:58Z</time></trkpt><trkpt lat="44.478568984437445" lon="8.728081603428242"><ele>403.25</ele><time>2026-04-17T08:07:59Z</time></trkpt><trkpt lat="44.47844278112607" lon="8.728139896657687"><ele>395.5</ele><time>2026-04-17T08:08:00Z</time></trkpt><trkpt lat="44.478335596159994" lon="8.728218805449572"><ele>387.75</ele><time>2026-04-17T08:08:01Z</time></trkpt><trkpt lat="44.47828726865903" lon="8.728359487645914"><ele>380.0</ele><time>2026-04-17T08:08:02Z</time></trkpt><trkpt lat="44.478223876701804" lon="8.728516028107224"><ele>382.75</ele><time>2026-04-17T08:08:03Z</time></trkpt><trkpt lat="44.47819994654992" lon="8.728677695605482"><ele>385.5</ele><time>2026-04-17T08:08:04Z</time></trkpt><trkpt lat="44.478235093431266" lon="8.728833831886979"><ele>388.25</ele><time>2026-04-17T08:08:05Z</time></trkpt><trkpt lat="44.47824014368498" lon="8.729038750867526"><ele>391.0</ele><time>2026-04-17T08:08:06Z</time></trkpt><trkpt lat="44.478213531064114" lon="8.729228927021833"><ele>391.0</ele><time>2026-04-17T08:08:07Z</time></trkpt><trkpt lat="44.47815503040022" lon="8.729344892965694"><ele>391.0</ele><time>2026-04-17T08:08:08Z</time></trkpt><trkpt lat="44.478066541413185" lon="8.729498520923133"><ele>391.0</ele><time>2026-04-17T08:08:09Z</time></trkpt><trkpt lat="44.477995297046355" lon="8.729790878312809"><ele>395.0</ele><time>2026-04-17T08:08:10Z</time></trkpt><trkpt lat="44.477935326949094" lon="8.730081524750306"><ele>399.0</ele><time>2026-04-17T08:08:11Z</time></trkpt><trkpt lat="44.47789311973369" lon="8.730305665604586"><ele>403.0</ele><time>2026-04-17T08:08:12Z</time></trkpt><trkpt lat="44.47784683853319" lon="8.730493436456984"><ele>397.59999999999997</ele><time>2026-04-17T08:08:13Z</time></trkpt><trkpt lat="44.47781064244212" lon="8.73063658183874"><ele>392.2</ele><time>2026-04-17T08:08:14Z</time></trkpt><trkpt lat="44.47773475129644" lon="8.730758074666497"><ele>386.8</ele><time>2026-04-17T08:08:15Z</time></trkpt><trkpt lat="44.47763209232576" lon="8.730827767248304"><ele>381.4</ele><time>2026-04-17T08:08:16Z</time></trkpt><trkpt lat="44.477536009223" lon="8.730863901786856"><ele>376.0</ele><time>2026-04-17T08:08:17Z</time></trkpt><trkpt lat="44.47735947028942" lon="8.730920029550397"><ele>376.0</ele><time>2026-04-17T08:08:18Z</time></trkpt><trkpt lat="44.4772013728046" lon="8.730981529048536"><ele>376.0</ele><time>2026-04-17T08:08:19Z</time></trkpt><trkpt lat="44.47707616388949" lon="8.730995156091648"><ele>376.0</ele><time>2026-04-17T08:08:20Z</time></trkpt><trkpt lat="44.4769752312825" lon="8.731011545357442"><ele>376.0</ele><time>2026-04-17T08:08:21Z</time></trkpt><trkpt lat="44.476883099526326" lon="8.731076486764168"><ele>373.0</ele><time>2026-04-17T08:08:22Z</time></trkpt><trkpt lat="44.47679800872956" lon="8.731197839821276"><ele>370.0</ele><time>2026-04-17T08:08:23Z</time></trkpt><trkpt lat="44.47672199809565" lon="8.731370606830591"><ele>367.0</ele><time>2026-04-17T08:08:24Z</time></trkpt><trkpt lat="44.47666040186731" lon="8.73150264490276"><ele>364.0</ele><time>2026-04-17T08:08:25Z</time></trkpt><trkpt lat="44.476632850174155" lon="8.731627761406637"><ele>364.0</ele><time>2026-04-17T08:08:26Z</time></trkpt><trkpt lat="44.47661642559686" lon="8.731724663150956"><ele>364.0</ele><time>2026-04-17T08:08:27Z</time></trkpt><trkpt lat="44.476657337058214" lon="8.731844930314178"><ele>364.0</ele><time>2026-04-17T08:08:28Z</time></trkpt><trkpt lat="44.47676467313415" lon="8.731953139230967"><ele>364.0</ele><time>2026-04-17T08:08:29Z</time></trkpt><trkpt lat="44.47686530951784" lon="8.732025747796243"><ele>364.0</ele><time>2026-04-17T08:08:30Z</time></trkpt><trkpt lat="44.47697529185695" lon="8.732101279975605"><ele>360.0</ele><time>2026-04-17T08:08:31Z</time></trkpt><trkpt lat="44.477077587875286" lon="8.732102198336788"><ele>356.0</ele><time>2026-04-17T08:08:32Z</time></trkpt><trkpt lat="44.477187787737805" lon="8.732044916608139"><ele>352.0</ele><time>2026-04-17T08:08:33Z</time></trkpt><trkpt lat="44.4773244033049" lon="8.73201392667989"><ele>348.0</ele><time>2026-04-17T08:08:34Z</time></trkpt><trkpt lat="44.47749379252444" lon="8.732035851219699"><ele>348.0</ele><time>2026-04-17T08:08:35Z</time></trkpt><trkpt lat="44.47765035790278" lon="8.732108315696918"><ele>348.0</ele><time>2026-04-17T08:08:36Z</time></trkpt><trkpt lat="44.47778332866832" lon="8.732161061503618"><ele>348.0</ele><time>2026-04-17T08:08:37Z</time></trkpt><trkpt lat="44.477866713552565" lon="8.732218816498056"><ele>348.0</ele><time>2026-04-17T08:08:38Z</time></trkpt><trkpt lat="44.477938130058746" lon="8.732282264667882"><ele>348.0</ele><time>2026-04-17T08:08:39Z</time></trkpt><trkpt lat="44.477937219921195" lon="8.732453752046583"><ele>348.0</ele><time>2026-04-17T08:08:40Z</time></trkpt><trkpt lat="44.47790698968319" lon="8.732595064965832"><ele>348.0</ele><time>2026-04-17T08:08:41Z</time></trkpt><trkpt lat="44.477933330615635" lon="8.732752943232992"><ele>348.0</ele><time>2026-04-17T08:08:42Z</time></trkpt><trkpt lat="44.47800119548738" lon="8.732877095840575"><ele>349.0</ele><time>2026-04-17T08:08:43Z</time></trkpt><trkpt lat="44.47811801360418" lon="8.73300756036356"><ele>350.0</ele><time>2026-04-17T08:08:44Z</time></trkpt><trkpt lat="44.47824098565112" lon="8.73311440505622"><ele>351.0</ele><time>2026-04-17T08:08:45Z</time></trkpt><trkpt lat="44.47834941865298" lon="8.733238532384991"><ele>352.0</ele><time>2026-04-17T08:08:46Z</time></trkpt><trkpt lat="44.47843453544257" lon="8.733344453070039"><ele>352.0</ele><time>2026-04-17T08:08:47Z</time></trkpt><trkpt lat="44.47852615614796" lon="8.733434396092349"><ele>352.0</ele><time>2026-04-17T08:08:48Z</time></trkpt><trkpt lat="44.478649421582865" lon="8.733455008869896"><ele>352.0</ele><time>2026-04-17T08:08:49Z</time></trkpt><trkpt lat="44.4787991585287" lon="8.733442913534521"><ele>352.0</ele><time>2026-04-17T08:08:50Z</time></trkpt><trkpt lat="44.47891326317929" lon="8.733523529434203"><ele>352.6</ele><time>2026-04-17T08:08:51Z</time></trkpt><trkpt lat="44.47900219679917" lon="8.733601533565338"><ele>353.20000000000005</ele><time>2026-04-17T08:08:52Z</time></trkpt><trkpt lat="44.479059508324745" lon="8.733690574685337"><ele>353.8</ele><time>2026-04-17T08:08:53Z</time></trkpt><trkpt lat="44.47907612788978" lon="8.733810142663172"><ele>354.4</ele><time>2026-04-17T08:08:54Z</time></trkpt><trkpt lat="44.479073416585805" lon="8.73396409812288"><ele>355.0</ele><time>2026-04-17T08:08:54.999Z</time></trkpt><trkpt lat="44.479006779771744" lon="8.734097047376297"><ele>355.0</ele><time>2026-04-17T08:08:55.999Z</time></trkpt><trkpt lat="44.47890267021386" lon="8.734163529795692"><ele>355.0</ele><time>2026-04-17T08:08:56.999Z</time></trkpt><trkpt lat="44.47878682205359" lon="8.734203299962346"><ele>355.0</ele><time>2026-04-17T08:08:57.999Z</time></trkpt><trkpt lat="44.478647627722" lon="8.734176745680402"><ele>355.0</ele><time>2026-04-17T08:08:58.999Z</time></trkpt><trkpt lat="44.4784650083527" lon="8.73418685364739"><ele>353.66666666666663</ele><time>2026-04-17T08:08:59.999Z</time></trkpt><trkpt lat="44.47828838602636" lon="8.734182370274487"><ele>352.3333333333333</ele><time>2026-04-17T08:09:00.999Z</time></trkpt><trkpt lat="44.478108096465846" lon="8.734136304767343"><ele>351.0</ele><time>2026-04-17T08:09:01.999Z</time></trkpt><trkpt lat="44.47793283314287" lon="8.734094095832635"><ele>350.0</ele><time>2026-04-17T08:09:02.999Z</time></trkpt><trkpt lat="44.47778175993156" lon="8.734019966994795"><ele>349.0</ele><time>2026-04-17T08:09:03.999Z</time></trkpt><trkpt lat="44.477659583311144" lon="8.733985899503393"><ele>348.0</ele><time>2026-04-17T08:09:04.999Z</time></trkpt><trkpt lat="44.47754798789341" lon="8.73398940310134"><ele>347.0</ele><time>2026-04-17T08:09:05.999Z</time></trkpt><trkpt lat="44.477473816513715" lon="8.73407718105171"><ele>347.0</ele><time>2026-04-17T08:09:06.999Z</time></trkpt><trkpt lat="44.47739305239433" lon="8.734201580873258"><ele>347.0</ele><time>2026-04-17T08:09:07.999Z</time></trkpt><trkpt lat="44.4773232568807" lon="8.734301701096012"><ele>347.0</ele><time>2026-04-17T08:09:08.999Z</time></trkpt><trkpt lat="44.477231825831026" lon="8.734348049232972"><ele>347.0</ele><time>2026-04-17T08:09:09.999Z</time></trkpt><trkpt lat="44.47712397744824" lon="8.73429525546488"><ele>347.0</ele><time>2026-04-17T08:09:10.999Z</time></trkpt><trkpt lat="44.4770005937983" lon="8.734227699541641"><ele>344.6666666666667</ele><time>2026-04-17T08:09:11.999Z</time></trkpt><trkpt lat="44.47686616664246" lon="8.734149184635637"><ele>342.3333333333333</ele><time>2026-04-17T08:09:12.999Z</time></trkpt><trkpt lat="44.476717692602236" lon="8.73411932849498"><ele>340.0</ele><time>2026-04-17T08:09:13.999Z</time></trkpt><trkpt lat="44.47654566681651" lon="8.73417288297899"><ele>340.0</ele><time>2026-04-17T08:09:14.999Z</time></trkpt><trkpt lat="44.476353027496735" lon="8.734222931101337"><ele>340.0</ele><time>2026-04-17T08:09:15.999Z</time></trkpt><trkpt lat="44.47619342339058" lon="8.73426241274226"><ele>340.0</ele><time>2026-04-17T08:09:16.999Z</time></trkpt><trkpt lat="44.476033080246886" lon="8.734305773335995"><ele>338.66666666666663</ele><time>2026-04-17T08:09:17.999Z</time></trkpt><trkpt lat="44.47588546952217" lon="8.734277019917004"><ele>337.3333333333333</ele><time>2026-04-17T08:09:18.999Z</time></trkpt><trkpt lat="44.47573091816795" lon="8.73425039450287"><ele>336.0</ele><time>2026-04-17T08:09:19.999Z</time></trkpt><trkpt lat="44.47557922133628" lon="8.7341574215015"><ele>337.6666666666667</ele><time>2026-04-17T08:09:20.999Z</time></trkpt><trkpt lat="44.475436449341174" lon="8.734057279761775"><ele>339.33333333333337</ele><time>2026-04-17T08:09:21.999Z</time></trkpt><trkpt lat="44.47530675006099" lon="8.73394588421289"><ele>341.0</ele><time>2026-04-17T08:09:22.999Z</time></trkpt><trkpt lat="44.47517650757782" lon="8.733874354311679"><ele>341.0</ele><time>2026-04-17T08:09:23.999Z</time></trkpt><trkpt lat="44.475024028295884" lon="8.73383357673919"><ele>341.0</ele><time>2026-04-17T08:09:24.999Z</time></trkpt><trkpt lat="44.47485552341397" lon="8.733848902621622"><ele>341.0</ele><time>2026-04-17T08:09:25.999Z</time></trkpt><trkpt lat="44.47468304787327" lon="8.733868970317195"><ele>334.33333333333337</ele><time>2026-04-17T08:09:26.999Z</time></trkpt><trkpt lat="44.47451982447865" lon="8.733910164898656"><ele>327.6666666666667</ele><time>2026-04-17T08:09:27.999Z</time></trkpt><trkpt lat="44.47435679778617" lon="8.73397088841236"><ele>321.0</ele><time>2026-04-17T08:09:28.999Z</time></trkpt><trkpt lat="44.47419127579875" lon="8.734054738296184"><ele>321.0</ele><time>2026-04-17T08:09:29.999Z</time></trkpt><trkpt lat="44.47403156656739" lon="8.73416235728888"><ele>321.0</ele><time>2026-04-17T08:09:30.999Z</time></trkpt><trkpt lat="44.47388863978579" lon="8.734296180795418"><ele>321.0</ele><time>2026-04-17T08:09:31.999Z</time></trkpt><trkpt lat="44.47374787458042" lon="8.734444211088794"><ele>321.3333333333333</ele><time>2026-04-17T08:09:32.999Z</time></trkpt><trkpt lat="44.473599437649824" lon="8.734565648009387"><ele>321.66666666666663</ele><time>2026-04-17T08:09:33.999Z</time></trkpt><trkpt lat="44.47347221531584" lon="8.73470258344509"><ele>322.0</ele><time>2026-04-17T08:09:34.999Z</time></trkpt><trkpt lat="44.47331669960603" lon="8.734742726099585"><ele>322.0</ele><time>2026-04-17T08:09:35.999Z</time></trkpt><trkpt lat="44.47317904324839" lon="8.734815351055511"><ele>322.0</ele><time>2026-04-17T08:09:36.999Z</time></trkpt><trkpt lat="44.473056305129276" lon="8.734873255213847"><ele>322.0</ele><time>2026-04-17T08:09:37.999Z</time></trkpt><trkpt lat="44.472970485125" lon="8.734933489383685"><ele>322.0</ele><time>2026-04-17T08:09:38.999Z</time></trkpt><trkpt lat="44.4728860791548" lon="8.735035206776722"><ele>319.0</ele><time>2026-04-17T08:09:39.999Z</time></trkpt><trkpt lat="44.4728211929658" lon="8.735172599856034"><ele>316.0</ele><time>2026-04-17T08:09:40.999Z</time></trkpt><trkpt lat="44.472796544961376" lon="8.735344499574087"><ele>313.0</ele><time>2026-04-17T08:09:41.999Z</time></trkpt><trkpt lat="44.47281639890213" lon="8.735529892562244"><ele>310.0</ele><time>2026-04-17T08:09:42.999Z</time></trkpt><trkpt lat="44.47281008254825" lon="8.735711343439922"><ele>310.0</ele><time>2026-04-17T08:09:43.999Z</time></trkpt><trkpt lat="44.47281542581648" lon="8.735884063535217"><ele>310.0</ele><time>2026-04-17T08:09:44.999Z</time></trkpt><trkpt lat="44.47282859970717" lon="8.736036158938813"><ele>310.0</ele><time>2026-04-17T08:09:45.999Z</time></trkpt><trkpt lat="44.47279912930252" lon="8.736157949206643"><ele>310.0</ele><time>2026-04-17T08:09:46.999Z</time></trkpt><trkpt lat="44.47273332620346" lon="8.736265761790458"><ele>310.0</ele><time>2026-04-17T08:09:47.999Z</time></trkpt><trkpt lat="44.47263129624656" lon="8.736264062128763"><ele>310.0</ele><time>2026-04-17T08:09:48.999Z</time></trkpt><trkpt lat="44.472535966849016" lon="8.736214862096334"><ele>310.0</ele><time>2026-04-17T08:09:49.999Z</time></trkpt><trkpt lat="44.47245416587536" lon="8.73612859926857"><ele>310.0</ele><time>2026-04-17T08:09:50.999Z</time></trkpt><trkpt lat="44.472381936616955" lon="8.735985761688395"><ele>310.0</ele><time>2026-04-17T08:09:51.999Z</time></trkpt><trkpt lat="44.47228378923882" lon="8.735863244000782"><ele>310.0</ele><time>2026-04-17T08:09:52.999Z</time></trkpt><trkpt lat="44.472182297144634" lon="8.73579249089383"><ele>310.0</ele><time>2026-04-17T08:09:54Z</time></trkpt><trkpt lat="44.47208162527182" lon="8.735767734006881"><ele>310.0</ele><time>2026-04-17T08:09:55Z</time></trkpt><trkpt lat="44.471984475319736" lon="8.735816475085912"><ele>310.0</ele><time>2026-04-17T08:09:56Z</time></trkpt><trkpt lat="44.471899852133134" lon="8.735915231834229"><ele>310.0</ele><time>2026-04-17T08:09:57Z</time></trkpt><trkpt lat="44.47182329088573" lon="8.736069158197427"><ele>308.0</ele><time>2026-04-17T08:09:58Z</time></trkpt><trkpt lat="44.47172042786414" lon="8.736233586577223"><ele>306.0</ele><time>2026-04-17T08:09:59Z</time></trkpt><trkpt lat="44.47162554667994" lon="8.736428421554571"><ele>304.0</ele><time>2026-04-17T08:10:00Z</time></trkpt><trkpt lat="44.47153220175632" lon="8.736613745679533"><ele>304.0</ele><time>2026-04-17T08:10:01Z</time></trkpt><trkpt lat="44.47144310787431" lon="8.73680818169704"><ele>304.0</ele><time>2026-04-17T08:10:02Z</time></trkpt><trkpt lat="44.47131386113807" lon="8.736968333361721"><ele>304.0</ele><time>2026-04-17T08:10:03Z</time></trkpt><trkpt lat="44.471177249969095" lon="8.73705796197185"><ele>300.3333333333333</ele><time>2026-04-17T08:10:04Z</time></trkpt><trkpt lat="44.471032058065795" lon="8.737179419731877"><ele>296.6666666666667</ele><time>2026-04-17T08:10:05Z</time></trkpt><trkpt lat="44.47090218899826" lon="8.737278335101319"><ele>293.0</ele><time>2026-04-17T08:10:06Z</time></trkpt><trkpt lat="44.47076500053755" lon="8.737405031117968"><ele>293.0</ele><time>2026-04-17T08:10:07Z</time></trkpt><trkpt lat="44.47066433394338" lon="8.73749950453307"><ele>293.0</ele><time>2026-04-17T08:10:08Z</time></trkpt><trkpt lat="44.47059011439859" lon="8.737608321255642"><ele>293.0</ele><time>2026-04-17T08:10:09Z</time></trkpt><trkpt lat="44.47051673739605" lon="8.737751982371865"><ele>293.0</ele><time>2026-04-17T08:10:10Z</time></trkpt><trkpt lat="44.47049799461469" lon="8.737951747158533"><ele>297.75</ele><time>2026-04-17T08:10:11Z</time></trkpt><trkpt lat="44.4705448671813" lon="8.738150577297429"><ele>302.5</ele><time>2026-04-17T08:10:12Z</time></trkpt><trkpt lat="44.47054595188123" lon="8.738317381146695"><ele>307.25</ele><time>2026-04-17T08:10:13Z</time></trkpt><trkpt lat="44.47053821561465" lon="8.738470778201268"><ele>312.0</ele><time>2026-04-17T08:10:14Z</time></trkpt><trkpt lat="44.47046779850886" lon="8.738587035396833"><ele>309.5</ele><time>2026-04-17T08:10:15Z</time></trkpt><trkpt lat="44.47037360601236" lon="8.738663696878866"><ele>307.0</ele><time>2026-04-17T08:10:16Z</time></trkpt><trkpt lat="44.470279826655116" lon="8.73877735038056"><ele>304.5</ele><time>2026-04-17T08:10:17Z</time></trkpt><trkpt lat="44.47017587277097" lon="8.738878567415313"><ele>302.0</ele><time>2026-04-17T08:10:18Z</time></trkpt><trkpt lat="44.47007563176303" lon="8.738962748456702"><ele>302.0</ele><time>2026-04-17T08:10:19Z</time></trkpt><trkpt lat="44.4699860978464" lon="8.738995816830577"><ele>302.0</ele><time>2026-04-17T08:10:20Z</time></trkpt><trkpt lat="44.46990006136129" lon="8.739022376849881"><ele>302.0</ele><time>2026-04-17T08:10:21Z</time></trkpt><trkpt lat="44.469822376710134" lon="8.738954866103427"><ele>302.0</ele><time>2026-04-17T08:10:22Z</time></trkpt><trkpt lat="44.46977632661293" lon="8.73883172238541"><ele>302.0</ele><time>2026-04-17T08:10:23Z</time></trkpt><trkpt lat="44.469749148417634" lon="8.738674861214411"><ele>297.4</ele><time>2026-04-17T08:10:24Z</time></trkpt><trkpt lat="44.469725556745495" lon="8.738530902287453"><ele>292.79999999999995</ele><time>2026-04-17T08:10:25Z</time></trkpt><trkpt lat="44.46965430477109" lon="8.738424133254053"><ele>288.2</ele><time>2026-04-17T08:10:26Z</time></trkpt><trkpt lat="44.46957554103042" lon="8.738317162867897"><ele>283.59999999999997</ele><time>2026-04-17T08:10:27Z</time></trkpt><trkpt lat="44.469456258115784" lon="8.738308028390028"><ele>279.0</ele><time>2026-04-17T08:10:28Z</time></trkpt><trkpt lat="44.469328500920504" lon="8.738320093906129"><ele>276.0</ele><time>2026-04-17T08:10:29Z</time></trkpt><trkpt lat="44.469182019500956" lon="8.738391054549936"><ele>273.0</ele><time>2026-04-17T08:10:30Z</time></trkpt><trkpt lat="44.469026656363276" lon="8.738522404681017"><ele>270.0</ele><time>2026-04-17T08:10:31Z</time></trkpt><trkpt lat="44.46886644482634" lon="8.738704079022781"><ele>273.6666666666667</ele><time>2026-04-17T08:10:32Z</time></trkpt><trkpt lat="44.46869544259854" lon="8.73890004648031"><ele>277.33333333333337</ele><time>2026-04-17T08:10:33Z</time></trkpt><trkpt lat="44.46850127563605" lon="8.739042246397211"><ele>281.0</ele><time>2026-04-17T08:10:34Z</time></trkpt><trkpt lat="44.468314725084255" lon="8.73918597307043"><ele>281.0</ele><time>2026-04-17T08:10:35Z</time></trkpt><trkpt lat="44.46813567754282" lon="8.739320103285985"><ele>281.0</ele><time>2026-04-17T08:10:36Z</time></trkpt><trkpt lat="44.46795946362374" lon="8.739455819271292"><ele>281.0</ele><time>2026-04-17T08:10:37.016Z</time></trkpt><trkpt lat="44.46778903735442" lon="8.739588668711344"><ele>278.6666666666667</ele><time>2026-04-17T08:10:38.019Z</time></trkpt><trkpt lat="44.46761716793916" lon="8.739699405001614"><ele>276.3333333333333</ele><time>2026-04-17T08:10:39.019Z</time></trkpt><trkpt lat="44.46745363102398" lon="8.739755165347297"><ele>274.0</ele><time>2026-04-17T08:10:40.017Z</time></trkpt><trkpt lat="44.467609631870374" lon="8.739729048692379"><ele>274.0</ele><time>2026-04-17T08:10:41Z</time></trkpt><trkpt lat="44.46749446587611" lon="8.739744129000673"><ele>274.0</ele><time>2026-04-17T08:10:42Z</time></trkpt><trkpt lat="44.467368154763754" lon="8.739699028830676"><ele>274.0</ele><time>2026-04-17T08:10:43Z</time></trkpt><trkpt lat="44.467262898011924" lon="8.739582998244078"><ele>274.0</ele><time>2026-04-17T08:10:44Z</time></trkpt><trkpt lat="44.46725955934977" lon="8.739458683369882"><ele>272.0</ele><time>2026-04-17T08:10:45Z</time></trkpt><trkpt lat="44.46724476854278" lon="8.739365800932635"><ele>270.0</ele><time>2026-04-17T08:10:46Z</time></trkpt><trkpt lat="44.46723401872671" lon="8.739178101950465"><ele>268.0</ele><time>2026-04-17T08:10:47Z</time></trkpt><trkpt lat="44.467161606400325" lon="8.739034529504742"><ele>266.0</ele><time>2026-04-17T08:10:48Z</time></trkpt><trkpt lat="44.46707369111564" lon="8.738940899457058"><ele>264.0</ele><time>2026-04-17T08:10:49Z</time></trkpt><trkpt lat="44.46697801153735" lon="8.738863892248617"><ele>260.5</ele><time>2026-04-17T08:10:50Z</time></trkpt><trkpt lat="44.46688610509231" lon="8.738921359001042"><ele>257.0</ele><time>2026-04-17T08:10:51Z</time></trkpt><trkpt lat="44.466739876365494" lon="8.738974413943913"><ele>253.5</ele><time>2026-04-17T08:10:52Z</time></trkpt><trkpt lat="44.466586307231374" lon="8.739074707052616"><ele>250.0</ele><time>2026-04-17T08:10:53Z</time></trkpt><trkpt lat="44.46646533831605" lon="8.73914823754883"><ele>250.0</ele><time>2026-04-17T08:10:54Z</time></trkpt><trkpt lat="44.466345429986305" lon="8.739245203779973"><ele>250.0</ele><time>2026-04-17T08:10:55Z</time></trkpt><trkpt lat="44.4662435468388" lon="8.739322409790304"><ele>250.0</ele><time>2026-04-17T08:10:56Z</time></trkpt><trkpt lat="44.46615471300751" lon="8.73944400504855"><ele>250.0</ele><time>2026-04-17T08:10:57Z</time></trkpt><trkpt lat="44.466085180463324" lon="8.739568892212521"><ele>253.0</ele><time>2026-04-17T08:10:58Z</time></trkpt><trkpt lat="44.46603472508358" lon="8.739721513650842"><ele>256.0</ele><time>2026-04-17T08:10:59Z</time></trkpt><trkpt lat="44.46593062043775" lon="8.73976124525789"><ele>259.0</ele><time>2026-04-17T08:11:00Z</time></trkpt><trkpt lat="44.465772677474924" lon="8.739793893487198"><ele>262.0</ele><time>2026-04-17T08:11:02Z</time></trkpt><trkpt lat="44.46568680514059" lon="8.739796461065163"><ele>262.0</ele><time>2026-04-17T08:11:03Z</time></trkpt><trkpt lat="44.465596573282596" lon="8.739733038485015"><ele>262.0</ele><time>2026-04-17T08:11:04Z</time></trkpt><trkpt lat="44.46556642369832" lon="8.739599972832131"><ele>262.0</ele><time>2026-04-17T08:11:04.999Z</time></trkpt><trkpt lat="44.46546479039331" lon="8.739462783390042"><ele>262.0</ele><time>2026-04-17T08:11:05.999Z</time></trkpt><trkpt lat="44.46535139910707" lon="8.739301053033358"><ele>254.75</ele><time>2026-04-17T08:11:06.999Z</time></trkpt><trkpt lat="44.46523188174481" lon="8.739172357497784"><ele>247.5</ele><time>2026-04-17T08:11:07.999Z</time></trkpt><trkpt lat="44.4651113099032" lon="8.739076099773419"><ele>240.25</ele><time>2026-04-17T08:11:08.999Z</time></trkpt><trkpt lat="44.465042752695375" lon="8.73900881240409"><ele>233.0</ele><time>2026-04-17T08:11:09.999Z</time></trkpt><trkpt lat="44.46495986965202" lon="8.73893877899796"><ele>233.0</ele><time>2026-04-17T08:11:10.999Z</time></trkpt><trkpt lat="44.464834295430656" lon="8.739044512783007"><ele>233.0</ele><time>2026-04-17T08:11:11.999Z</time></trkpt><trkpt lat="44.464733784351814" lon="8.739269257823993"><ele>233.0</ele><time>2026-04-17T08:11:12.999Z</time></trkpt><trkpt lat="44.464663878084565" lon="8.739466971961278"><ele>237.0</ele><time>2026-04-17T08:11:13.999Z</time></trkpt><trkpt lat="44.464567309590194" lon="8.739585625482952"><ele>241.0</ele><time>2026-04-17T08:11:14.999Z</time></trkpt><trkpt lat="44.46447907118011" lon="8.739623684763245"><ele>245.0</ele><time>2026-04-17T08:11:15.999Z</time></trkpt><trkpt lat="44.46438267991796" lon="8.73963369509678"><ele>249.0</ele><time>2026-04-17T08:11:16.999Z</time></trkpt><trkpt lat="44.46427272681557" lon="8.739603024739587"><ele>253.0</ele><time>2026-04-17T08:11:17.999Z</time></trkpt><trkpt lat="44.464120925188844" lon="8.739549371827074"><ele>253.0</ele><time>2026-04-17T08:11:18.999Z</time></trkpt><trkpt lat="44.46399851310973" lon="8.739489027988254"><ele>253.0</ele><time>2026-04-17T08:11:19.999Z</time></trkpt><trkpt lat="44.46390214548317" lon="8.739398056036025"><ele>253.0</ele><time>2026-04-17T08:11:20.999Z</time></trkpt><trkpt lat="44.46381311803079" lon="8.739275198377763"><ele>253.0</ele><time>2026-04-17T08:11:21.999Z</time></trkpt><trkpt lat="44.46372305442126" lon="8.73920270884075"><ele>254.0</ele><time>2026-04-17T08:11:22.999Z</time></trkpt><trkpt lat="44.463618410222594" lon="8.739190224582059"><ele>255.0</ele><time>2026-04-17T08:11:23.999Z</time></trkpt><trkpt lat="44.463502059903036" lon="8.73925820522667"><ele>256.0</ele><time>2026-04-17T08:11:24.999Z</time></trkpt><trkpt lat="44.4633893847735" lon="8.739378514326617"><ele>257.0</ele><time>2026-04-17T08:11:25.999Z</time></trkpt><trkpt lat="44.46328243261569" lon="8.739488122831409"><ele>257.0</ele><time>2026-04-17T08:11:26.999Z</time></trkpt><trkpt lat="44.46315927035545" lon="8.739496653774701"><ele>257.0</ele><time>2026-04-17T08:11:27.999Z</time></trkpt><trkpt lat="44.46303600383606" lon="8.739477694967048"><ele>257.0</ele><time>2026-04-17T08:11:28.999Z</time></trkpt><trkpt lat="44.46288812348296" lon="8.739465853020041"><ele>257.0</ele><time>2026-04-17T08:11:29.999Z</time></trkpt><trkpt lat="44.462762897360115" lon="8.739408169424511"><ele>248.0</ele><time>2026-04-17T08:11:30.999Z</time></trkpt><trkpt lat="44.462653510345476" lon="8.739272399806701"><ele>239.0</ele><time>2026-04-17T08:11:31.999Z</time></trkpt><trkpt lat="44.46254352366568" lon="8.739146552715827"><ele>230.0</ele><time>2026-04-17T08:11:32.999Z</time></trkpt><trkpt lat="44.462436067354055" lon="8.739029966110358"><ele>221.0</ele><time>2026-04-17T08:11:33.999Z</time></trkpt><trkpt lat="44.462333480357465" lon="8.738966801739963"><ele>221.0</ele><time>2026-04-17T08:11:34.999Z</time></trkpt><trkpt lat="44.46220632373869" lon="8.738954480602812"><ele>221.0</ele><time>2026-04-17T08:11:35.999Z</time></trkpt><trkpt lat="44.46206228666003" lon="8.738971861960927"><ele>221.0</ele><time>2026-04-17T08:11:36.999Z</time></trkpt><trkpt lat="44.46190898596948" lon="8.739006431361203"><ele>221.0</ele><time>2026-04-17T08:11:37.999Z</time></trkpt><trkpt lat="44.461769803335834" lon="8.739064918817217"><ele>218.5</ele><time>2026-04-17T08:11:38.999Z</time></trkpt><trkpt lat="44.4616332996375" lon="8.739122517506233"><ele>216.0</ele><time>2026-04-17T08:11:39.999Z</time></trkpt><trkpt lat="44.461523707813946" lon="8.739219442283261"><ele>213.5</ele><time>2026-04-17T08:11:40.999Z</time></trkpt><trkpt lat="44.4614315070645" lon="8.73933266801436"><ele>211.0</ele><time>2026-04-17T08:11:41.999Z</time></trkpt><trkpt lat="44.461345353986445" lon="8.739488130988532"><ele>208.0</ele><time>2026-04-17T08:11:42.999Z</time></trkpt><trkpt lat="44.46127881355839" lon="8.739660202521605"><ele>205.0</ele><time>2026-04-17T08:11:43.999Z</time></trkpt><trkpt lat="44.46122795889622" lon="8.739806959635771"><ele>202.0</ele><time>2026-04-17T08:11:44.999Z</time></trkpt><trkpt lat="44.46122005711593" lon="8.739985680623183"><ele>199.0</ele><time>2026-04-17T08:11:45.999Z</time></trkpt><trkpt lat="44.46122521706892" lon="8.740147724982885"><ele>205.2</ele><time>2026-04-17T08:11:46.999Z</time></trkpt><trkpt lat="44.461202130494236" lon="8.740265921908414"><ele>211.39999999999998</ele><time>2026-04-17T08:11:47.999Z</time></trkpt><trkpt lat="44.46117370851035" lon="8.740363124794811"><ele>217.6</ele><time>2026-04-17T08:11:48.999Z</time></trkpt><trkpt lat="44.46108498492503" lon="8.740360980877002"><ele>223.8</ele><time>2026-04-17T08:11:49.999Z</time></trkpt><trkpt lat="44.46096299189057" lon="8.740387183553583"><ele>230.0</ele><time>2026-04-17T08:11:50.999Z</time></trkpt><trkpt lat="44.460829400187144" lon="8.740444345039235"><ele>230.0</ele><time>2026-04-17T08:11:51.999Z</time></trkpt><trkpt lat="44.46067607325896" lon="8.740493411262973"><ele>230.0</ele><time>2026-04-17T08:11:52.999Z</time></trkpt><trkpt lat="44.46053001693308" lon="8.740594118570046"><ele>230.0</ele><time>2026-04-17T08:11:53.999Z</time></trkpt><trkpt lat="44.460426620400696" lon="8.740703103893665"><ele>230.0</ele><time>2026-04-17T08:11:54.999Z</time></trkpt><trkpt lat="44.46031225244286" lon="8.74080187386349"><ele>223.33333333333334</ele><time>2026-04-17T08:11:55.999Z</time></trkpt><trkpt lat="44.460186050679056" lon="8.74084373359942"><ele>216.66666666666669</ele><time>2026-04-17T08:11:56.999Z</time></trkpt><trkpt lat="44.46002199266162" lon="8.740888673889836"><ele>210.0</ele><time>2026-04-17T08:11:57.999Z</time></trkpt><trkpt lat="44.45985011766974" lon="8.740914503407673"><ele>210.0</ele><time>2026-04-17T08:11:58.999Z</time></trkpt><trkpt lat="44.45968147780191" lon="8.740940528564519"><ele>210.0</ele><time>2026-04-17T08:12:00Z</time></trkpt><trkpt lat="44.45951704216238" lon="8.740949941661837"><ele>210.0</ele><time>2026-04-17T08:12:01Z</time></trkpt><trkpt lat="44.45936345665581" lon="8.740949819288733"><ele>208.5</ele><time>2026-04-17T08:12:02Z</time></trkpt><trkpt lat="44.45922406120602" lon="8.740962445999681"><ele>207.0</ele><time>2026-04-17T08:12:03Z</time></trkpt><trkpt lat="44.45911188372149" lon="8.740965095563554"><ele>205.5</ele><time>2026-04-17T08:12:04Z</time></trkpt><trkpt lat="44.45900644111933" lon="8.740921300937226"><ele>204.0</ele><time>2026-04-17T08:12:05Z</time></trkpt><trkpt lat="44.458909418010805" lon="8.740803093435687"><ele>204.0</ele><time>2026-04-17T08:12:06Z</time></trkpt><trkpt lat="44.458794828376696" lon="8.740652999532868"><ele>204.0</ele><time>2026-04-17T08:12:07Z</time></trkpt><trkpt lat="44.45869751640829" lon="8.740542976921176"><ele>204.0</ele><time>2026-04-17T08:12:08Z</time></trkpt><trkpt lat="44.458595873899064" lon="8.740449261033108"><ele>204.0</ele><time>2026-04-17T08:12:09Z</time></trkpt><trkpt lat="44.4584981402126" lon="8.740414704521983"><ele>204.25</ele><time>2026-04-17T08:12:10Z</time></trkpt><trkpt lat="44.458368173546084" lon="8.74041093768383"><ele>204.5</ele><time>2026-04-17T08:12:11Z</time></trkpt><trkpt lat="44.45823366399835" lon="8.74045002511177"><ele>204.75</ele><time>2026-04-17T08:12:12Z</time></trkpt><trkpt lat="44.45809891092844" lon="8.740511073882072"><ele>205.0</ele><time>2026-04-17T08:12:13Z</time></trkpt><trkpt lat="44.45798020411196" lon="8.740546850710446"><ele>199.75</ele><time>2026-04-17T08:12:14Z</time></trkpt><trkpt lat="44.45787091777055" lon="8.740606753748414"><ele>194.5</ele><time>2026-04-17T08:12:15Z</time></trkpt><trkpt lat="44.45775704751839" lon="8.740672250390723"><ele>189.25</ele><time>2026-04-17T08:12:16Z</time></trkpt><trkpt lat="44.457673637416214" lon="8.740776040230108"><ele>184.0</ele><time>2026-04-17T08:12:17Z</time></trkpt><trkpt lat="44.4575963661102" lon="8.740874848107406"><ele>184.0</ele><time>2026-04-17T08:12:18Z</time></trkpt><trkpt lat="44.45750755461934" lon="8.740954281127092"><ele>184.0</ele><time>2026-04-17T08:12:19Z</time></trkpt><trkpt lat="44.457412429987016" lon="8.740988968865949"><ele>184.0</ele><time>2026-04-17T08:12:20Z</time></trkpt><trkpt lat="44.45732290636328" lon="8.741002816798282"><ele>184.0</ele><time>2026-04-17T08:12:21Z</time></trkpt><trkpt lat="44.45721289822372" lon="8.741020546451184"><ele>184.0</ele><time>2026-04-17T08:12:22Z</time></trkpt><trkpt lat="44.4570779679436" lon="8.741080026923115"><ele>186.25</ele><time>2026-04-17T08:12:23Z</time></trkpt><trkpt lat="44.45691487438631" lon="8.741168297784943"><ele>188.5</ele><time>2026-04-17T08:12:24Z</time></trkpt><trkpt lat="44.45678018483935" lon="8.74124665196466"><ele>190.75</ele><time>2026-04-17T08:12:25Z</time></trkpt><trkpt lat="44.45666322409906" lon="8.741282096256272"><ele>193.0</ele><time>2026-04-17T08:12:26Z</time></trkpt><trkpt lat="44.45655665983841" lon="8.74137181397115"><ele>193.0</ele><time>2026-04-17T08:12:27Z</time></trkpt><trkpt lat="44.456455046205065" lon="8.741501081617812"><ele>193.0</ele><time>2026-04-17T08:12:28Z</time></trkpt><trkpt lat="44.45639122723607" lon="8.741653721393192"><ele>193.0</ele><time>2026-04-17T08:12:29Z</time></trkpt><trkpt lat="44.456258921902055" lon="8.74168374878753"><ele>193.0</ele><time>2026-04-17T08:12:30Z</time></trkpt><trkpt lat="44.45612721964423" lon="8.741771745244316"><ele>188.0</ele><time>2026-04-17T08:12:31Z</time></trkpt><trkpt lat="44.4559897507944" lon="8.741842970174913"><ele>183.0</ele><time>2026-04-17T08:12:32Z</time></trkpt><trkpt lat="44.45587180749438" lon="8.74187696860377"><ele>178.0</ele><time>2026-04-17T08:12:33Z</time></trkpt><trkpt lat="44.455744601391814" lon="8.741810684879288"><ele>173.0</ele><time>2026-04-17T08:12:34Z</time></trkpt><trkpt lat="44.45561205715186" lon="8.741780629470671"><ele>173.0</ele><time>2026-04-17T08:12:35Z</time></trkpt><trkpt lat="44.45548029584954" lon="8.741747784719278"><ele>173.0</ele><time>2026-04-17T08:12:36Z</time></trkpt><trkpt lat="44.455352115568594" lon="8.741763304460349"><ele>173.0</ele><time>2026-04-17T08:12:37Z</time></trkpt><trkpt lat="44.45522892908723" lon="8.741829397417282"><ele>173.0</ele><time>2026-04-17T08:12:38Z</time></trkpt><trkpt lat="44.45510890803005" lon="8.741903301284761"><ele>171.75</ele><time>2026-04-17T08:12:39Z</time></trkpt><trkpt lat="44.455007954546076" lon="8.741920627951696"><ele>170.5</ele><time>2026-04-17T08:12:40Z</time></trkpt><trkpt lat="44.45487910079805" lon="8.741811188815529"><ele>169.25</ele><time>2026-04-17T08:12:41Z</time></trkpt><trkpt lat="44.454748773894956" lon="8.74175456782024"><ele>168.0</ele><time>2026-04-17T08:12:42Z</time></trkpt><trkpt lat="44.45461287740956" lon="8.74174229676704"><ele>165.66666666666666</ele><time>2026-04-17T08:12:43Z</time></trkpt><trkpt lat="44.45447913494753" lon="8.741808929635521"><ele>163.33333333333331</ele><time>2026-04-17T08:12:44Z</time></trkpt><trkpt lat="44.45431901038168" lon="8.741899865142543"><ele>161.0</ele><time>2026-04-17T08:12:45Z</time></trkpt><trkpt lat="44.45416692576561" lon="8.741994830894072"><ele>164.0</ele><time>2026-04-17T08:12:46Z</time></trkpt><trkpt lat="44.45402436233745" lon="8.742043462484418"><ele>167.0</ele><time>2026-04-17T08:12:47Z</time></trkpt><trkpt lat="44.45387155903256" lon="8.741983019916937"><ele>170.0</ele><time>2026-04-17T08:12:48Z</time></trkpt><trkpt lat="44.453746322205326" lon="8.741991185852763"><ele>173.0</ele><time>2026-04-17T08:12:49Z</time></trkpt><trkpt lat="44.45361352928167" lon="8.742017941420885"><ele>173.0</ele><time>2026-04-17T08:12:50Z</time></trkpt><trkpt lat="44.45350864096796" lon="8.7421019844872"><ele>173.0</ele><time>2026-04-17T08:12:51Z</time></trkpt><trkpt lat="44.453430166655124" lon="8.742220792186004"><ele>173.0</ele><time>2026-04-17T08:12:52Z</time></trkpt><trkpt lat="44.45337125036887" lon="8.742349030830132"><ele>173.0</ele><time>2026-04-17T08:12:53Z</time></trkpt><trkpt lat="44.45333637022014" lon="8.742506889318054"><ele>173.0</ele><time>2026-04-17T08:12:54Z</time></trkpt><trkpt lat="44.4533085473607" lon="8.742680588384198"><ele>173.0</ele><time>2026-04-17T08:12:55Z</time></trkpt><trkpt lat="44.45324323731672" lon="8.742806231299342"><ele>173.0</ele><time>2026-04-17T08:12:56Z</time></trkpt><trkpt lat="44.45317671131074" lon="8.742913394811405"><ele>173.0</ele><time>2026-04-17T08:12:57Z</time></trkpt><trkpt lat="44.45307185431267" lon="8.742908342487116"><ele>173.0</ele><time>2026-04-17T08:12:58Z</time></trkpt><trkpt lat="44.45293639659926" lon="8.74292919479215"><ele>175.75</ele><time>2026-04-17T08:12:59Z</time></trkpt><trkpt lat="44.45281548890697" lon="8.742945302228577"><ele>178.5</ele><time>2026-04-17T08:13:00Z</time></trkpt><trkpt lat="44.45269032730821" lon="8.742989580821718"><ele>181.25</ele><time>2026-04-17T08:13:01Z</time></trkpt><trkpt lat="44.452613145582106" lon="8.743053048880501"><ele>184.0</ele><time>2026-04-17T08:13:02Z</time></trkpt><trkpt lat="44.45247192740936" lon="8.743184555954358"><ele>184.0</ele><time>2026-04-17T08:13:02.999Z</time></trkpt><trkpt lat="44.4523327170129" lon="8.743337625861248"><ele>184.0</ele><time>2026-04-17T08:13:03.999Z</time></trkpt><trkpt lat="44.452209962948096" lon="8.743452598409323"><ele>184.0</ele><time>2026-04-17T08:13:04.999Z</time></trkpt><trkpt lat="44.452093050675266" lon="8.743556201593437"><ele>183.5</ele><time>2026-04-17T08:13:05.999Z</time></trkpt><trkpt lat="44.451973823713786" lon="8.74360383224454"><ele>183.0</ele><time>2026-04-17T08:13:06.999Z</time></trkpt><trkpt lat="44.45182734767152" lon="8.743625559860616"><ele>182.5</ele><time>2026-04-17T08:13:07.999Z</time></trkpt><trkpt lat="44.451654864097584" lon="8.743675079665081"><ele>182.0</ele><time>2026-04-17T08:13:08.999Z</time></trkpt><trkpt lat="44.45149516528338" lon="8.74370256421582"><ele>182.0</ele><time>2026-04-17T08:13:09.999Z</time></trkpt><trkpt lat="44.451339299577846" lon="8.743776959077174"><ele>182.0</ele><time>2026-04-17T08:13:10.999Z</time></trkpt><trkpt lat="44.451199655370594" lon="8.743909801052421"><ele>182.0</ele><time>2026-04-17T08:13:11.999Z</time></trkpt><trkpt lat="44.45104260407911" lon="8.74403295860457"><ele>167.0</ele><time>2026-04-17T08:13:12.999Z</time></trkpt><trkpt lat="44.45086903111657" lon="8.744124659290831"><ele>152.0</ele><time>2026-04-17T08:13:13.999Z</time></trkpt><trkpt lat="44.450721552984504" lon="8.744184484702538"><ele>137.0</ele><time>2026-04-17T08:13:14.999Z</time></trkpt><trkpt lat="44.45056426861796" lon="8.744244279203091"><ele>140.0</ele><time>2026-04-17T08:13:15.999Z</time></trkpt><trkpt lat="44.450421321105935" lon="8.744350074218715"><ele>143.0</ele><time>2026-04-17T08:13:16.999Z</time></trkpt><trkpt lat="44.45027867764094" lon="8.744519584217429"><ele>146.0</ele><time>2026-04-17T08:13:17.999Z</time></trkpt><trkpt lat="44.450123649536884" lon="8.744666195499345"><ele>146.0</ele><time>2026-04-17T08:13:18.999Z</time></trkpt><trkpt lat="44.44995700176719" lon="8.744832225487555"><ele>146.0</ele><time>2026-04-17T08:13:19.999Z</time></trkpt><trkpt lat="44.44980870835481" lon="8.745002756513301"><ele>146.0</ele><time>2026-04-17T08:13:20.999Z</time></trkpt><trkpt lat="44.44969522904879" lon="8.74517966829967"><ele>146.33333333333331</ele><time>2026-04-17T08:13:21.999Z</time></trkpt><trkpt lat="44.44956127953894" lon="8.745334567563132"><ele>146.66666666666666</ele><time>2026-04-17T08:13:22.999Z</time></trkpt><trkpt lat="44.44943989815585" lon="8.745476002793303"><ele>147.0</ele><time>2026-04-17T08:13:23.999Z</time></trkpt><trkpt lat="44.449300828805214" lon="8.745521334542127"><ele>147.0</ele><time>2026-04-17T08:13:24.999Z</time></trkpt><trkpt lat="44.44914501640367" lon="8.745576732482563"><ele>147.0</ele><time>2026-04-17T08:13:25.999Z</time></trkpt><trkpt lat="44.44895975171727" lon="8.745675154216707"><ele>147.0</ele><time>2026-04-17T08:13:26.999Z</time></trkpt><trkpt lat="44.448785666348435" lon="8.745781848803663"><ele>141.0</ele><time>2026-04-17T08:13:27.999Z</time></trkpt><trkpt lat="44.44863579898826" lon="8.745861360419218"><ele>135.0</ele><time>2026-04-17T08:13:28.999Z</time></trkpt><trkpt lat="44.44847199368581" lon="8.74588746074556"><ele>129.0</ele><time>2026-04-17T08:13:29.999Z</time></trkpt><trkpt lat="44.448303210575695" lon="8.74589599605387"><ele>129.0</ele><time>2026-04-17T08:13:30.999Z</time></trkpt><trkpt lat="44.44817705564375" lon="8.745933106215972"><ele>129.0</ele><time>2026-04-17T08:13:31.999Z</time></trkpt><trkpt lat="44.44804406879758" lon="8.745969009978381"><ele>129.0</ele><time>2026-04-17T08:13:32.999Z</time></trkpt><trkpt lat="44.4479451359752" lon="8.746038908392174"><ele>129.0</ele><time>2026-04-17T08:13:33.999Z</time></trkpt><trkpt lat="44.4478638353192" lon="8.746153156682505"><ele>126.5</ele><time>2026-04-17T08:13:34.999Z</time></trkpt><trkpt lat="44.447846607372995" lon="8.746316163605519"><ele>124.0</ele><time>2026-04-17T08:13:35.999Z</time></trkpt><trkpt lat="44.44786003485744" lon="8.746474256502133"><ele>121.5</ele><time>2026-04-17T08:13:36.999Z</time></trkpt><trkpt lat="44.44789895877438" lon="8.74663664836142"><ele>119.0</ele><time>2026-04-17T08:13:37.999Z</time></trkpt><trkpt lat="44.44794932790599" lon="8.74679263523508"><ele>119.5</ele><time>2026-04-17T08:13:38.999Z</time></trkpt><trkpt lat="44.4480046597202" lon="8.74696729529739"><ele>120.0</ele><time>2026-04-17T08:13:39.999Z</time></trkpt><trkpt lat="44.44805489749809" lon="8.747115418434213"><ele>120.5</ele><time>2026-04-17T08:13:40.999Z</time></trkpt><trkpt lat="44.44811261729072" lon="8.747244710483951"><ele>121.0</ele><time>2026-04-17T08:13:41.999Z</time></trkpt><trkpt lat="44.448223829915456" lon="8.747306916434113"><ele>121.0</ele><time>2026-04-17T08:13:42.999Z</time></trkpt><trkpt lat="44.44832442316536" lon="8.747344394785024"><ele>121.0</ele><time>2026-04-17T08:13:43.999Z</time></trkpt><trkpt lat="44.448425212156096" lon="8.747415387827123"><ele>121.0</ele><time>2026-04-17T08:13:44.999Z</time></trkpt><trkpt lat="44.44854426463731" lon="8.747380428963107"><ele>121.0</ele><time>2026-04-17T08:13:45.999Z</time></trkpt><trkpt lat="44.44867381366724" lon="8.747338464578592"><ele>120.66666666666667</ele><time>2026-04-17T08:13:46.999Z</time></trkpt><trkpt lat="44.44881263890012" lon="8.7473112101659"><ele>120.33333333333334</ele><time>2026-04-17T08:13:47.999Z</time></trkpt><trkpt lat="44.44898960956443" lon="8.747346220341832"><ele>120.0</ele><time>2026-04-17T08:13:48.999Z</time></trkpt><trkpt lat="44.4491464295863" lon="8.747431939736765"><ele>120.0</ele><time>2026-04-17T08:13:49.999Z</time></trkpt><trkpt lat="44.44929165329386" lon="8.747475259609702"><ele>120.0</ele><time>2026-04-17T08:13:50.999Z</time></trkpt><trkpt lat="44.449437519436614" lon="8.747497583237486"><ele>120.0</ele><time>2026-04-17T08:13:51.999Z</time></trkpt><trkpt lat="44.44955297044352" lon="8.747595549022819"><ele>120.0</ele><time>2026-04-17T08:13:52.999Z</time></trkpt><trkpt lat="44.449646891537384" lon="8.74772710600219"><ele>116.66666666666666</ele><time>2026-04-17T08:13:53.999Z</time></trkpt><trkpt lat="44.44976258977107" lon="8.747859522280432"><ele>113.33333333333333</ele><time>2026-04-17T08:13:54.999Z</time></trkpt><trkpt lat="44.44989062188893" lon="8.747995511387488"><ele>110.0</ele><time>2026-04-17T08:13:55.999Z</time></trkpt><trkpt lat="44.45002684253647" lon="8.748115659212333"><ele>110.0</ele><time>2026-04-17T08:13:56.999Z</time></trkpt><trkpt lat="44.450154778631116" lon="8.748197112906755"><ele>110.0</ele><time>2026-04-17T08:13:57.999Z</time></trkpt><trkpt lat="44.4502706533261" lon="8.74825800337323"><ele>110.0</ele><time>2026-04-17T08:13:58.999Z</time></trkpt><trkpt lat="44.45036311671895" lon="8.748286877686418"><ele>110.0</ele><time>2026-04-17T08:13:59.999Z</time></trkpt><trkpt lat="44.45042582487603" lon="8.748359431115896"><ele>110.0</ele><time>2026-04-17T08:14:00.999Z</time></trkpt><trkpt lat="44.450470997520874" lon="8.74845419549447"><ele>109.99999999999999</ele><time>2026-04-17T08:14:01.999Z</time></trkpt><trkpt lat="44.45047148640875" lon="8.748558476724513"><ele>110.0</ele><time>2026-04-17T08:14:02.999Z</time></trkpt><trkpt lat="44.45041723330792" lon="8.748632858207916"><ele>110.0</ele><time>2026-04-17T08:14:03.999Z</time></trkpt><trkpt lat="44.45034489119821" lon="8.74865216541057"><ele>110.0</ele><time>2026-04-17T08:14:04.999Z</time></trkpt><trkpt lat="44.450261720700794" lon="8.74860912091399"><ele>109.99999999999999</ele><time>2026-04-17T08:14:06Z</time></trkpt><trkpt lat="44.45018776633803" lon="8.748504504097502"><ele>110.0</ele><time>2026-04-17T08:14:07Z</time></trkpt><trkpt lat="44.45010330654345" lon="8.748403779556956"><ele>110.0</ele><time>2026-04-17T08:14:08Z</time></trkpt><trkpt lat="44.45000110579381" lon="8.748297083641"><ele>110.0</ele><time>2026-04-17T08:14:09Z</time></trkpt><trkpt lat="44.449891874635235" lon="8.74816620001792"><ele>110.0</ele><time>2026-04-17T08:14:10Z</time></trkpt><trkpt lat="44.449779983496725" lon="8.74803556892264"><ele>110.0</ele><time>2026-04-17T08:14:11Z</time></trkpt><trkpt lat="44.44965932566957" lon="8.747919001979229"><ele>102.33333333333333</ele><time>2026-04-17T08:14:12Z</time></trkpt><trkpt lat="44.449513897792784" lon="8.74782058076153"><ele>94.66666666666666</ele><time>2026-04-17T08:14:13Z</time></trkpt><trkpt lat="44.449360917989104" lon="8.747757292999399"><ele>87.0</ele><time>2026-04-17T08:14:14Z</time></trkpt><trkpt lat="44.44920665382529" lon="8.747711205706844"><ele>88.0</ele><time>2026-04-17T08:14:15Z</time></trkpt><trkpt lat="44.449047295929546" lon="8.747701863956074"><ele>89.0</ele><time>2026-04-17T08:14:16Z</time></trkpt><trkpt lat="44.44888587086851" lon="8.747710190156495"><ele>90.0</ele><time>2026-04-17T08:14:17Z</time></trkpt><trkpt lat="44.44872542884998" lon="8.747742912498289"><ele>90.0</ele><time>2026-04-17T08:14:18Z</time></trkpt><trkpt lat="44.44857090677728" lon="8.747787749065653"><ele>90.0</ele><time>2026-04-17T08:14:19Z</time></trkpt><trkpt lat="44.4484324140662" lon="8.747837423399671"><ele>90.0</ele><time>2026-04-17T08:14:20Z</time></trkpt><trkpt lat="44.448301475936134" lon="8.7478780556166"><ele>90.0</ele><time>2026-04-17T08:14:21Z</time></trkpt><trkpt lat="44.44817695780721" lon="8.747924623860603"><ele>90.0</ele><time>2026-04-17T08:14:22Z</time></trkpt><trkpt lat="44.44806731822082" lon="8.748052965831027"><ele>90.0</ele><time>2026-04-17T08:14:23Z</time></trkpt><trkpt lat="44.44798420544242" lon="8.74823113624209"><ele>90.0</ele><time>2026-04-17T08:14:24Z</time></trkpt><trkpt lat="44.44792050320464" lon="8.748415947880941"><ele>90.0</ele><time>2026-04-17T08:14:25Z</time></trkpt><trkpt lat="44.44782752461837" lon="8.748584736694939"><ele>88.66666666666667</ele><time>2026-04-17T08:14:26Z</time></trkpt><trkpt lat="44.44771046320779" lon="8.748701399796047"><ele>87.33333333333334</ele><time>2026-04-17T08:14:27Z</time></trkpt><trkpt lat="44.44755421959796" lon="8.748804667599456"><ele>86.0</ele><time>2026-04-17T08:14:28Z</time></trkpt><trkpt lat="44.44741539140285" lon="8.748927125196078"><ele>86.0</ele><time>2026-04-17T08:14:29Z</time></trkpt><trkpt lat="44.44731994562639" lon="8.749077582212367"><ele>86.0</ele><time>2026-04-17T08:14:30Z</time></trkpt><trkpt lat="44.44722282710287" lon="8.749226791985695"><ele>86.0</ele><time>2026-04-17T08:14:31Z</time></trkpt><trkpt lat="44.447109154081" lon="8.749338567031835"><ele>86.0</ele><time>2026-04-17T08:14:32Z</time></trkpt><trkpt lat="44.44699251741763" lon="8.74939060185679"><ele>83.5</ele><time>2026-04-17T08:14:33Z</time></trkpt><trkpt lat="44.44685984973279" lon="8.749426825249207"><ele>81.0</ele><time>2026-04-17T08:14:34Z</time></trkpt><trkpt lat="44.44673908149372" lon="8.749452028956055"><ele>78.5</ele><time>2026-04-17T08:14:35Z</time></trkpt><trkpt lat="44.446636599395134" lon="8.749566953261386"><ele>76.0</ele><time>2026-04-17T08:14:36Z</time></trkpt><trkpt lat="44.44652765484714" lon="8.749717229268452"><ele>76.0</ele><time>2026-04-17T08:14:37Z</time></trkpt><trkpt lat="44.44644644891125" lon="8.749896728832791"><ele>76.0</ele><time>2026-04-17T08:14:38Z</time></trkpt><trkpt lat="44.44634947074334" lon="8.750090435966522"><ele>76.0</ele><time>2026-04-17T08:14:39Z</time></trkpt><trkpt lat="44.44624165246635" lon="8.750253277611106"><ele>74.66666666666666</ele><time>2026-04-17T08:14:40Z</time></trkpt><trkpt lat="44.446095299559644" lon="8.750386629569459"><ele>73.33333333333333</ele><time>2026-04-17T08:14:41Z</time></trkpt><trkpt lat="44.445959634974436" lon="8.750509994786935"><ele>72.0</ele><time>2026-04-17T08:14:42Z</time></trkpt><trkpt lat="44.445831440758326" lon="8.750634225074666"><ele>72.0</ele><time>2026-04-17T08:14:43Z</time></trkpt><trkpt lat="44.445716268985414" lon="8.750714975985934"><ele>72.0</ele><time>2026-04-17T08:14:44Z</time></trkpt><trkpt lat="44.44560560676138" lon="8.750756835011453"><ele>72.0</ele><time>2026-04-17T08:14:45Z</time></trkpt><trkpt lat="44.44549524848305" lon="8.750722879571121"><ele>72.0</ele><time>2026-04-17T08:14:46Z</time></trkpt><trkpt lat="44.44538430558893" lon="8.750632162685207"><ele>71.75</ele><time>2026-04-17T08:14:47Z</time></trkpt><trkpt lat="44.445255059295036" lon="8.750558460247404"><ele>71.5</ele><time>2026-04-17T08:14:48Z</time></trkpt><trkpt lat="44.445129340282485" lon="8.750530966701266"><ele>71.25</ele><time>2026-04-17T08:14:49Z</time></trkpt><trkpt lat="44.44500076490941" lon="8.750556164764498"><ele>71.0</ele><time>2026-04-17T08:14:50Z</time></trkpt><trkpt lat="44.44486645565476" lon="8.750637330661366"><ele>71.0</ele><time>2026-04-17T08:14:51Z</time></trkpt><trkpt lat="44.44472833338658" lon="8.75073492337806"><ele>71.0</ele><time>2026-04-17T08:14:52Z</time></trkpt><trkpt lat="44.44458283267318" lon="8.750800395979745"><ele>71.0</ele><time>2026-04-17T08:14:53Z</time></trkpt><trkpt lat="44.444457967815" lon="8.750848322535214"><ele>71.0</ele><time>2026-04-17T08:14:54Z</time></trkpt><trkpt lat="44.44431996569363" lon="8.750851604097557"><ele>68.5</ele><time>2026-04-17T08:14:55Z</time></trkpt><trkpt lat="44.44418846290222" lon="8.750821258861984"><ele>66.0</ele><time>2026-04-17T08:14:56Z</time></trkpt><trkpt lat="44.444070841131136" lon="8.750737335538776"><ele>63.5</ele><time>2026-04-17T08:14:57Z</time></trkpt><trkpt lat="44.44395038955366" lon="8.750615182548279"><ele>61.0</ele><time>2026-04-17T08:14:58Z</time></trkpt><trkpt lat="44.44382357657162" lon="8.75046632772536"><ele>56.0</ele><time>2026-04-17T08:14:59Z</time></trkpt><trkpt lat="44.44370072441259" lon="8.750297581299073"><ele>51.0</ele><time>2026-04-17T08:15:00Z</time></trkpt><trkpt lat="44.44360294830463" lon="8.750121707109589"><ele>46.0</ele><time>2026-04-17T08:15:01Z</time></trkpt><trkpt lat="44.44352400835655" lon="8.749948981996347"><ele>46.0</ele><time>2026-04-17T08:15:02Z</time></trkpt><trkpt lat="44.443482849976995" lon="8.749774045236094"><ele>46.0</ele><time>2026-04-17T08:15:03Z</time></trkpt><trkpt lat="44.443476394113375" lon="8.749587810788299"><ele>46.0</ele><time>2026-04-17T08:15:04Z</time></trkpt><trkpt lat="44.44350229141578" lon="8.74938896696858"><ele>46.0</ele><time>2026-04-17T08:15:05Z</time></trkpt><trkpt lat="44.44351596576559" lon="8.749200980685556"><ele>47.5</ele><time>2026-04-17T08:15:06Z</time></trkpt><trkpt lat="44.443509122298295" lon="8.749029295541556"><ele>49.0</ele><time>2026-04-17T08:15:07Z</time></trkpt><trkpt lat="44.4434617197528" lon="8.74887265373787"><ele>50.5</ele><time>2026-04-17T08:15:08Z</time></trkpt><trkpt lat="44.443386594168686" lon="8.748719383511876"><ele>52.0</ele><time>2026-04-17T08:15:09Z</time></trkpt><trkpt lat="44.443307623143056" lon="8.74856014021947"><ele>52.25</ele><time>2026-04-17T08:15:10Z</time></trkpt><trkpt lat="44.44325632453134" lon="8.748381527973109"><ele>52.5</ele><time>2026-04-17T08:15:11Z</time></trkpt><trkpt lat="44.4432232349393" lon="8.7481884063447"><ele>52.75</ele><time>2026-04-17T08:15:12Z</time></trkpt><trkpt lat="44.44319945216293" lon="8.747986207667616"><ele>53.0</ele><time>2026-04-17T08:15:13Z</time></trkpt><trkpt lat="44.4431849917785" lon="8.747787269336468"><ele>52.4</ele><time>2026-04-17T08:15:14Z</time></trkpt><trkpt lat="44.443198000664324" lon="8.747593928197345"><ele>51.8</ele><time>2026-04-17T08:15:15Z</time></trkpt><trkpt lat="44.44321414466633" lon="8.747437122199049"><ele>51.2</ele><time>2026-04-17T08:15:16Z</time></trkpt><trkpt lat="44.443212271192735" lon="8.747321534163621"><ele>50.6</ele><time>2026-04-17T08:15:16.999Z</time></trkpt><trkpt lat="44.44317932769942" lon="8.74723175068926"><ele>50.0</ele><time>2026-04-17T08:15:17.999Z</time></trkpt><trkpt lat="44.44311735800584" lon="8.747192373853531"><ele>50.0</ele><time>2026-04-17T08:15:18.999Z</time></trkpt><trkpt lat="44.44304452267238" lon="8.747222413234212"><ele>50.0</ele><time>2026-04-17T08:15:19.999Z</time></trkpt><trkpt lat="44.442977395248704" lon="8.747312176522623"><ele>50.0</ele><time>2026-04-17T08:15:20.999Z</time></trkpt><trkpt lat="44.44298188981097" lon="8.747471603484557"><ele>50.0</ele><time>2026-04-17T08:15:21.999Z</time></trkpt><trkpt lat="44.443004627543395" lon="8.747649102323187"><ele>50.0</ele><time>2026-04-17T08:15:22.999Z</time></trkpt><trkpt lat="44.44300877908218" lon="8.74783772485472"><ele>50.6</ele><time>2026-04-17T08:15:23.999Z</time></trkpt><trkpt lat="44.443029023282186" lon="8.748010812579503"><ele>51.2</ele><time>2026-04-17T08:15:24.999Z</time></trkpt><trkpt lat="44.443060469919565" lon="8.748158515532975"><ele>51.8</ele><time>2026-04-17T08:15:25.999Z</time></trkpt><trkpt lat="44.44305959003281" lon="8.748283493295625"><ele>52.4</ele><time>2026-04-17T08:15:26.999Z</time></trkpt><trkpt lat="44.443057670152164" lon="8.748383080357485"><ele>53.0</ele><time>2026-04-17T08:15:27.999Z</time></trkpt><trkpt lat="44.44303549628547" lon="8.74846674259085"><ele>49.75</ele><time>2026-04-17T08:15:28.999Z</time></trkpt><trkpt lat="44.442935975846034" lon="8.74847533949639"><ele>46.5</ele><time>2026-04-17T08:15:30.999Z</time></trkpt><trkpt lat="44.44290935634205" lon="8.748272823467204"><ele>43.25</ele><time>2026-04-17T08:15:32.999Z</time></trkpt><trkpt lat="44.442907066870376" lon="8.748097328068381"><ele>40.0</ele><time>2026-04-17T08:15:33.999Z</time></trkpt><trkpt lat="44.442897121895335" lon="8.747873317332383"><ele>39.333333333333336</ele><time>2026-04-17T08:15:34.999Z</time></trkpt><trkpt lat="44.44289486550828" lon="8.747698458753405"><ele>38.66666666666667</ele><time>2026-04-17T08:15:35.999Z</time></trkpt><trkpt lat="44.44288369507232" lon="8.747559386051726"><ele>38.0</ele><time>2026-04-17T08:15:36.999Z</time></trkpt><trkpt lat="44.44286110144847" lon="8.747463414836762"><ele>37.333333333333336</ele><time>2026-04-17T08:15:37.999Z</time></trkpt><trkpt lat="44.44281501424127" lon="8.747393674303234"><ele>36.666666666666664</ele><time>2026-04-17T08:15:38.999Z</time></trkpt><trkpt lat="44.44274433218627" lon="8.747361532393883"><ele>36.0</ele><time>2026-04-17T08:15:39.999Z</time></trkpt><trkpt lat="44.44264042932086" lon="8.747368578357538"><ele>36.0</ele><time>2026-04-17T08:15:40.999Z</time></trkpt><trkpt lat="44.442521685509895" lon="8.747357339557025"><ele>36.0</ele><time>2026-04-17T08:15:41.999Z</time></trkpt><trkpt lat="44.442387048827435" lon="8.747325118329792"><ele>36.0</ele><time>2026-04-17T08:15:42.999Z</time></trkpt><trkpt lat="44.44223790034778" lon="8.747293769725268"><ele>36.0</ele><time>2026-04-17T08:15:43.999Z</time></trkpt><trkpt lat="44.442077771230856" lon="8.747260030152331"><ele>38.666666666666664</ele><time>2026-04-17T08:15:44.999Z</time></trkpt><trkpt lat="44.441910650502834" lon="8.747229170657087"><ele>41.33333333333333</ele><time>2026-04-17T08:15:45.999Z</time></trkpt><trkpt lat="44.44173995844609" lon="8.747199389761969"><ele>44.0</ele><time>2026-04-17T08:15:46.999Z</time></trkpt><trkpt lat="44.44156752020444" lon="8.74718329792348"><ele>44.0</ele><time>2026-04-17T08:15:47.999Z</time></trkpt><trkpt lat="44.4414013045312" lon="8.747186089908078"><ele>44.0</ele><time>2026-04-17T08:15:48.999Z</time></trkpt><trkpt lat="44.44123632932056" lon="8.747221618719463"><ele>44.0</ele><time>2026-04-17T08:15:49.999Z</time></trkpt><trkpt lat="44.44108487318118" lon="8.747231365021213"><ele>43.75</ele><time>2026-04-17T08:15:50.999Z</time></trkpt><trkpt lat="44.44095837464734" lon="8.74724811781056"><ele>43.5</ele><time>2026-04-17T08:15:51.999Z</time></trkpt><trkpt lat="44.44085082065405" lon="8.747262352906382"><ele>43.25</ele><time>2026-04-17T08:15:52.999Z</time></trkpt><trkpt lat="44.44075756791111" lon="8.747199556265263"><ele>43.0</ele><time>2026-04-17T08:15:53.999Z</time></trkpt><trkpt lat="44.44069088224257" lon="8.747074177311685"><ele>43.0</ele><time>2026-04-17T08:15:54.999Z</time></trkpt><trkpt lat="44.440598000838584" lon="8.746911269332433"><ele>43.0</ele><time>2026-04-17T08:15:55.999Z</time></trkpt><trkpt lat="44.44051368362486" lon="8.746725151995534"><ele>43.0</ele><time>2026-04-17T08:15:56.999Z</time></trkpt><trkpt lat="44.440398473895115" lon="8.746563683335436"><ele>39.333333333333336</ele><time>2026-04-17T08:15:57.999Z</time></trkpt><trkpt lat="44.44026474173592" lon="8.74643131112911"><ele>35.666666666666664</ele><time>2026-04-17T08:15:58.999Z</time></trkpt><trkpt lat="44.4401389397279" lon="8.746300606306017"><ele>32.0</ele><time>2026-04-17T08:15:59.999Z</time></trkpt><trkpt lat="44.440019539025286" lon="8.746184846830008"><ele>32.0</ele><time>2026-04-17T08:16:00.999Z</time></trkpt><trkpt lat="44.4398913027826" lon="8.746114999192363"><ele>32.0</ele><time>2026-04-17T08:16:01.999Z</time></trkpt><trkpt lat="44.43975690230713" lon="8.746062470081496"><ele>32.0</ele><time>2026-04-17T08:16:02.999Z</time></trkpt><trkpt lat="44.439616327514514" lon="8.746035211891693"><ele>32.0</ele><time>2026-04-17T08:16:03.999Z</time></trkpt><trkpt lat="44.43947472700435" lon="8.746018882190302"><ele>31.333333333333332</ele><time>2026-04-17T08:16:04.999Z</time></trkpt><trkpt lat="44.439314262568075" lon="8.746029831837596"><ele>30.666666666666664</ele><time>2026-04-17T08:16:05.999Z</time></trkpt><trkpt lat="44.43914758603212" lon="8.746045097363544"><ele>30.0</ele><time>2026-04-17T08:16:06.999Z</time></trkpt><trkpt lat="44.438990120369766" lon="8.746070935890355"><ele>30.0</ele><time>2026-04-17T08:16:07.999Z</time></trkpt><trkpt lat="44.438818583174246" lon="8.746055753619366"><ele>30.0</ele><time>2026-04-17T08:16:08.999Z</time></trkpt><trkpt lat="44.438653906759505" lon="8.746065553630547"><ele>30.0</ele><time>2026-04-17T08:16:09.999Z</time></trkpt><trkpt lat="44.438489603129376" lon="8.746076047506214"><ele>30.666666666666664</ele><time>2026-04-17T08:16:10.999Z</time></trkpt><trkpt lat="44.43833933185804" lon="8.746095591247366"><ele>31.333333333333332</ele><time>2026-04-17T08:16:12Z</time></trkpt><trkpt lat="44.43816844968549" lon="8.746122056652702"><ele>32.0</ele><time>2026-04-17T08:16:13Z</time></trkpt><trkpt lat="44.4379722612616" lon="8.746117110896316"><ele>31.5</ele><time>2026-04-17T08:16:14Z</time></trkpt><trkpt lat="44.43773909193472" lon="8.746123433956148"><ele>31.0</ele><time>2026-04-17T08:16:15Z</time></trkpt><trkpt lat="44.43749585410097" lon="8.746129594336887"><ele>31.0</ele><time>2026-04-17T08:16:16Z</time></trkpt><trkpt lat="44.437246099743255" lon="8.746150988033898"><ele>31.0</ele><time>2026-04-17T08:16:17Z</time></trkpt><trkpt lat="44.437022250273984" lon="8.746147047747785"><ele>33.333333333333336</ele><time>2026-04-17T08:16:18Z</time></trkpt><trkpt lat="44.436800243012264" lon="8.746142035389134"><ele>35.666666666666664</ele><time>2026-04-17T08:16:19Z</time></trkpt><trkpt lat="44.4365893282324" lon="8.746135356411003"><ele>38.0</ele><time>2026-04-17T08:16:20Z</time></trkpt><trkpt lat="44.43639061290255" lon="8.746125901909425"><ele>33.33333333333333</ele><time>2026-04-17T08:16:21Z</time></trkpt><trkpt lat="44.43620454071186" lon="8.746113069876719"><ele>28.666666666666664</ele><time>2026-04-17T08:16:22Z</time></trkpt><trkpt lat="44.43602752915666" lon="8.746084698179626"><ele>24.0</ele><time>2026-04-17T08:16:23Z</time></trkpt><trkpt lat="44.435864001954954" lon="8.746053267135572"><ele>24.0</ele><time>2026-04-17T08:16:24Z</time></trkpt><trkpt lat="44.435727715635565" lon="8.74604216575429"><ele>24.0</ele><time>2026-04-17T08:16:25Z</time></trkpt><trkpt lat="44.435599828113965" lon="8.746041446340868"><ele>24.0</ele><time>2026-04-17T08:16:26Z</time></trkpt><trkpt lat="44.435485636569105" lon="8.746057505321769"><ele>24.0</ele><time>2026-04-17T08:16:27Z</time></trkpt><trkpt lat="44.43538056210039" lon="8.746123093841073"><ele>22.0</ele><time>2026-04-17T08:16:28Z</time></trkpt><trkpt lat="44.435270498178014" lon="8.746242093844986"><ele>20.0</ele><time>2026-04-17T08:16:29Z</time></trkpt><trkpt lat="44.43518128839877" lon="8.746384956820842"><ele>18.0</ele><time>2026-04-17T08:16:30Z</time></trkpt><trkpt lat="44.43510061305456" lon="8.746556222872734"><ele>16.0</ele><time>2026-04-17T08:16:31Z</time></trkpt><trkpt lat="44.43502657695744" lon="8.746741841103297"><ele>20.666666666666664</ele><time>2026-04-17T08:16:32Z</time></trkpt><trkpt lat="44.4349628972588" lon="8.746957887155279"><ele>25.333333333333332</ele><time>2026-04-17T08:16:33Z</time></trkpt><trkpt lat="44.434902025138044" lon="8.747182862116683"><ele>30.0</ele><time>2026-04-17T08:16:34Z</time></trkpt><trkpt lat="44.4348366738176" lon="8.74736090108859"><ele>30.0</ele><time>2026-04-17T08:16:35Z</time></trkpt><trkpt lat="44.434764363409755" lon="8.747506939768208"><ele>30.0</ele><time>2026-04-17T08:16:36Z</time></trkpt><trkpt lat="44.434672919801706" lon="8.747624095135738"><ele>30.0</ele><time>2026-04-17T08:16:37Z</time></trkpt><trkpt lat="44.43456123055897" lon="8.747694656913806"><ele>30.0</ele><time>2026-04-17T08:16:38Z</time></trkpt><trkpt lat="44.43443548830698" lon="8.747726228123286"><ele>27.25</ele><time>2026-04-17T08:16:39Z</time></trkpt><trkpt lat="44.43430213705797" lon="8.74770083194746"><ele>24.5</ele><time>2026-04-17T08:16:40Z</time></trkpt><trkpt lat="44.434161049093355" lon="8.747641897157186"><ele>21.75</ele><time>2026-04-17T08:16:41Z</time></trkpt><trkpt lat="44.43401067331741" lon="8.747584341922895"><ele>19.0</ele><time>2026-04-17T08:16:42Z</time></trkpt><trkpt lat="44.43387979598815" lon="8.747548138118733"><ele>20.25</ele><time>2026-04-17T08:16:43Z</time></trkpt><trkpt lat="44.43375615158661" lon="8.747535186944006"><ele>21.5</ele><time>2026-04-17T08:16:44Z</time></trkpt><trkpt lat="44.43363623143851" lon="8.747567058273926"><ele>22.75</ele><time>2026-04-17T08:16:45Z</time></trkpt><trkpt lat="44.433530521264125" lon="8.7476536581173"><ele>24.0</ele><time>2026-04-17T08:16:46Z</time></trkpt><trkpt lat="44.4334206635731" lon="8.747759979630668"><ele>24.0</ele><time>2026-04-17T08:16:47Z</time></trkpt><trkpt lat="44.43331393928111" lon="8.747880386753991"><ele>24.0</ele><time>2026-04-17T08:16:48Z</time></trkpt><trkpt lat="44.433199697309156" lon="8.748013664302459"><ele>24.0</ele><time>2026-04-17T08:16:49Z</time></trkpt><trkpt lat="44.43309527144734" lon="8.748166869322864"><ele>24.0</ele><time>2026-04-17T08:16:50Z</time></trkpt><trkpt lat="44.43298057983571" lon="8.748330439961782"><ele>24.333333333333336</ele><time>2026-04-17T08:16:51Z</time></trkpt><trkpt lat="44.432863957048" lon="8.748493014569124"><ele>24.666666666666668</ele><time>2026-04-17T08:16:52Z</time></trkpt><trkpt lat="44.43274903836902" lon="8.748667820261536"><ele>25.0</ele><time>2026-04-17T08:16:53Z</time></trkpt><trkpt lat="44.43263419560809" lon="8.748857606237447"><ele>22.333333333333336</ele><time>2026-04-17T08:16:54Z</time></trkpt><trkpt lat="44.43251422932634" lon="8.749047261224932"><ele>19.666666666666668</ele><time>2026-04-17T08:16:55Z</time></trkpt><trkpt lat="44.43239984879027" lon="8.749235103519666"><ele>17.0</ele><time>2026-04-17T08:16:56Z</time></trkpt><trkpt lat="44.43229255526656" lon="8.749414550442168"><ele>17.0</ele><time>2026-04-17T08:16:57Z</time></trkpt><trkpt lat="44.43217917035244" lon="8.749585182024944"><ele>17.0</ele><time>2026-04-17T08:16:58Z</time></trkpt><trkpt lat="44.43207218386732" lon="8.749787068582526"><ele>17.0</ele><time>2026-04-17T08:16:59Z</time></trkpt><trkpt lat="44.431983660411525" lon="8.750011016340943"><ele>15.666666666666668</ele><time>2026-04-17T08:17:00Z</time></trkpt><trkpt lat="44.43188681070237" lon="8.750224104856974"><ele>14.333333333333332</ele><time>2026-04-17T08:17:01Z</time></trkpt><trkpt lat="44.43178787144735" lon="8.75042352787108"><ele>13.0</ele><time>2026-04-17T08:17:02Z</time></trkpt><trkpt lat="44.43168611864635" lon="8.75062455570094"><ele>13.0</ele><time>2026-04-17T08:17:03Z</time></trkpt><trkpt lat="44.43157937338859" lon="8.750812787940976"><ele>13.0</ele><time>2026-04-17T08:17:04Z</time></trkpt><trkpt lat="44.43147778761375" lon="8.751009714111715"><ele>13.0</ele><time>2026-04-17T08:17:05Z</time></trkpt><trkpt lat="44.431405103096495" lon="8.751234332438132"><ele>11.333333333333332</ele><time>2026-04-17T08:17:06Z</time></trkpt><trkpt lat="44.43131178344247" lon="8.751432908552296"><ele>9.666666666666666</ele><time>2026-04-17T08:17:07Z</time></trkpt><trkpt lat="44.4312002118874" lon="8.75161895519908"><ele>8.0</ele><time>2026-04-17T08:17:08Z</time></trkpt><trkpt lat="44.431087071550216" lon="8.751813795193286"><ele>10.666666666666666</ele><time>2026-04-17T08:17:09Z</time></trkpt><trkpt lat="44.430977259609" lon="8.752008617593415"><ele>13.333333333333332</ele><time>2026-04-17T08:17:10Z</time></trkpt><trkpt lat="44.43087126705505" lon="8.752173972915614"><ele>16.0</ele><time>2026-04-17T08:17:11Z</time></trkpt><trkpt lat="44.43075888070312" lon="8.752302488620142"><ele>16.0</ele><time>2026-04-17T08:17:12Z</time></trkpt><trkpt lat="44.43063378015547" lon="8.752403178573234"><ele>16.0</ele><time>2026-04-17T08:17:13Z</time></trkpt><trkpt lat="44.430505140881614" lon="8.752477824650512"><ele>16.0</ele><time>2026-04-17T08:17:14Z</time></trkpt><trkpt lat="44.43038162023929" lon="8.752532697182767"><ele>16.0</ele><time>2026-04-17T08:17:15Z</time></trkpt><trkpt lat="44.43027814446017" lon="8.752549644897323"><ele>16.2</ele><time>2026-04-17T08:17:16Z</time></trkpt><trkpt lat="44.43018572582108" lon="8.752557120432424"><ele>16.400000000000002</ele><time>2026-04-17T08:17:17Z</time></trkpt><trkpt lat="44.430113596073134" lon="8.75255061542489"><ele>16.6</ele><time>2026-04-17T08:17:18Z</time></trkpt><trkpt lat="44.43000154477336" lon="8.752548611521805"><ele>16.8</ele><time>2026-04-17T08:17:19.999Z</time></trkpt><trkpt lat="44.429899437108496" lon="8.752612174030403"><ele>17.0</ele><time>2026-04-17T08:17:21.999Z</time></trkpt><trkpt lat="44.42988170398742" lon="8.752740305287189"><ele>17.0</ele><time>2026-04-17T08:17:22.999Z</time></trkpt><trkpt lat="44.429837481522775" lon="8.752849277382062"><ele>17.0</ele><time>2026-04-17T08:17:23.999Z</time></trkpt><trkpt lat="44.42981573582691" lon="8.752986466906677"><ele>17.0</ele><time>2026-04-17T08:17:24.999Z</time></trkpt><trkpt lat="44.4297718280163" lon="8.753118282586412"><ele>17.0</ele><time>2026-04-17T08:17:25.999Z</time></trkpt><trkpt lat="44.42975579419074" lon="8.753268625708102"><ele>17.0</ele><time>2026-04-17T08:17:26.999Z</time></trkpt><trkpt lat="44.4297212800297" lon="8.753409808871002"><ele>17.0</ele><time>2026-04-17T08:17:27.999Z</time></trkpt><trkpt lat="44.42969378444565" lon="8.75353283725383"><ele>17.0</ele><time>2026-04-17T08:17:28.999Z</time></trkpt><trkpt lat="44.42967114175614" lon="8.753648969834876"><ele>17.0</ele><time>2026-04-17T08:17:29.999Z</time></trkpt><trkpt lat="44.4296110646278" lon="8.75379979063761"><ele>17.0</ele><time>2026-04-17T08:17:30.999Z</time></trkpt><trkpt lat="44.42956000004347" lon="8.754003923934595"><ele>16.75</ele><time>2026-04-17T08:17:31.999Z</time></trkpt><trkpt lat="44.42951076797136" lon="8.75418839470299"><ele>16.5</ele><time>2026-04-17T08:17:32.999Z</time></trkpt><trkpt lat="44.42949698318812" lon="8.754380940062678"><ele>16.25</ele><time>2026-04-17T08:17:33.999Z</time></trkpt><trkpt lat="44.42948337750785" lon="8.754562750718549"><ele>16.0</ele><time>2026-04-17T08:17:34.999Z</time></trkpt><trkpt lat="44.42947354308699" lon="8.754757097921301"><ele>16.0</ele><time>2026-04-17T08:17:35.999Z</time></trkpt><trkpt lat="44.4294699222104" lon="8.754936395863092"><ele>16.0</ele><time>2026-04-17T08:17:36.999Z</time></trkpt><trkpt lat="44.429439755486165" lon="8.755119717007005"><ele>16.0</ele><time>2026-04-17T08:17:37.999Z</time></trkpt><trkpt lat="44.429470142329215" lon="8.755298004556003"><ele>16.0</ele><time>2026-04-17T08:17:38.999Z</time></trkpt><trkpt lat="44.42946167521972" lon="8.755471355805756"><ele>16.25</ele><time>2026-04-17T08:17:39.999Z</time></trkpt><trkpt lat="44.42945011870055" lon="8.755653578915139"><ele>16.5</ele><time>2026-04-17T08:17:40.999Z</time></trkpt><trkpt lat="44.42944382624208" lon="8.75581146577945"><ele>16.75</ele><time>2026-04-17T08:17:41.999Z</time></trkpt><trkpt lat="44.42941341417564" lon="8.7559606464538"><ele>17.0</ele><time>2026-04-17T08:17:42.999Z</time></trkpt><trkpt lat="44.4294090929665" lon="8.75612452534094"><ele>17.0</ele><time>2026-04-17T08:17:43.999Z</time></trkpt><trkpt lat="44.42940140691385" lon="8.75629884998637"><ele>17.0</ele><time>2026-04-17T08:17:44.999Z</time></trkpt><trkpt lat="44.42940770750916" lon="8.756472311853615"><ele>17.0</ele><time>2026-04-17T08:17:45.999Z</time></trkpt><trkpt lat="44.42940153256038" lon="8.756634318455944"><ele>17.0</ele><time>2026-04-17T08:17:46.999Z</time></trkpt><trkpt lat="44.429376714398686" lon="8.756806352304459"><ele>16.5</ele><time>2026-04-17T08:17:47.999Z</time></trkpt><trkpt lat="44.42936613698214" lon="8.756989571410031"><ele>16.0</ele><time>2026-04-17T08:17:48.999Z</time></trkpt><trkpt lat="44.42935548870996" lon="8.75716690523473"><ele>15.5</ele><time>2026-04-17T08:17:49.999Z</time></trkpt><trkpt lat="44.42934088801547" lon="8.757329994039344"><ele>15.0</ele><time>2026-04-17T08:17:50.999Z</time></trkpt><trkpt lat="44.42932400322458" lon="8.757496052609689"><ele>15.0</ele><time>2026-04-17T08:17:51.999Z</time></trkpt><trkpt lat="44.42930864113148" lon="8.757644501322511"><ele>15.0</ele><time>2026-04-17T08:17:52.999Z</time></trkpt><trkpt lat="44.429294629676235" lon="8.757792208816921"><ele>15.0</ele><time>2026-04-17T08:17:53.999Z</time></trkpt><trkpt lat="44.429280879323315" lon="8.75793802688795"><ele>15.0</ele><time>2026-04-17T08:17:54.999Z</time></trkpt><trkpt lat="44.42926149025159" lon="8.758075176864356"><ele>15.0</ele><time>2026-04-17T08:17:55.999Z</time></trkpt><trkpt lat="44.429241543264496" lon="8.758202422772216"><ele>15.285714285714286</ele><time>2026-04-17T08:17:56.999Z</time></trkpt><trkpt lat="44.42922168367837" lon="8.75830037354803"><ele>15.57142857142857</ele><time>2026-04-17T08:17:57.999Z</time></trkpt><trkpt lat="44.4291661132825" lon="8.758361045483595"><ele>15.857142857142856</ele><time>2026-04-17T08:17:58.999Z</time></trkpt><trkpt lat="44.42909324749208" lon="8.75837400538653"><ele>16.142857142857142</ele><time>2026-04-17T08:17:59.999Z</time></trkpt><trkpt lat="44.429015964749766" lon="8.758356105264472"><ele>16.428571428571427</ele><time>2026-04-17T08:18:00.999Z</time></trkpt><trkpt lat="44.428950658348874" lon="8.758321058304833"><ele>16.71428571428571</ele><time>2026-04-17T08:18:01.999Z</time></trkpt><trkpt lat="44.42888310722412" lon="8.758342170095299"><ele>17.0</ele><time>2026-04-17T08:18:03.999Z</time></trkpt><trkpt lat="44.42878489756888" lon="8.758362199863992"><ele>15.0</ele><time>2026-04-17T08:18:07.999Z</time></trkpt><trkpt lat="44.42870609977814" lon="8.758134332153327"><ele>13.0</ele><time>2026-04-17T08:18:08.999Z</time></trkpt><trkpt lat="44.42865304938372" lon="8.758071255632618"><ele>11.0</ele><time>2026-04-17T08:18:09.999Z</time></trkpt><trkpt lat="44.42860142890195" lon="8.757982963523236"><ele>9.0</ele><time>2026-04-17T08:18:10.999Z</time></trkpt><trkpt lat="44.42854115333092" lon="8.757897091763816"><ele>7.0</ele><time>2026-04-17T08:18:11.999Z</time></trkpt><trkpt lat="44.428468655081225" lon="8.757809983864497"><ele>7.0</ele><time>2026-04-17T08:18:12.999Z</time></trkpt><trkpt lat="44.428408308946175" lon="8.757697123288514"><ele>6.999999999999999</ele><time>2026-04-17T08:18:13.999Z</time></trkpt><trkpt lat="44.42837647106638" lon="8.757571883654748"><ele>6.999999999999999</ele><time>2026-04-17T08:18:14.999Z</time></trkpt><trkpt lat="44.42837663571709" lon="8.757443704927526"><ele>7.0</ele><time>2026-04-17T08:18:15.999Z</time></trkpt><trkpt lat="44.42840510456153" lon="8.757320825907081"><ele>7.0</ele><time>2026-04-17T08:18:16.999Z</time></trkpt><trkpt lat="44.42844093229539" lon="8.757208246182998"><ele>7.0</ele><time>2026-04-17T08:18:18Z</time></trkpt><trkpt lat="44.42847570666993" lon="8.7570900872881"><ele>6.999999999999999</ele><time>2026-04-17T08:18:19Z</time></trkpt><trkpt lat="44.42849487448336" lon="8.75695768250523"><ele>6.999999999999999</ele><time>2026-04-17T08:18:20Z</time></trkpt><trkpt lat="44.4284980685262" lon="8.756823066438582"><ele>7.0</ele><time>2026-04-17T08:18:21Z</time></trkpt><trkpt lat="44.42850809197762" lon="8.756693099710288"><ele>7.0</ele><time>2026-04-17T08:18:22Z</time></trkpt><trkpt lat="44.42852051947544" lon="8.756584586029255"><ele>6.833333333333334</ele><time>2026-04-17T08:18:23Z</time></trkpt><trkpt lat="44.42852825780727" lon="8.756481169519644"><ele>6.666666666666667</ele><time>2026-04-17T08:18:24Z</time></trkpt><trkpt lat="44.42852191557706" lon="8.756378187334288"><ele>6.5</ele><time>2026-04-17T08:18:25Z</time></trkpt><trkpt lat="44.428520597060455" lon="8.75628166240198"><ele>6.333333333333334</ele><time>2026-04-17T08:18:26Z</time></trkpt><trkpt lat="44.42852210020684" lon="8.756184110579305"><ele>6.166666666666667</ele><time>2026-04-17T08:18:27Z</time></trkpt><trkpt lat="44.42852074439894" lon="8.756087867306107"><ele>6.0</ele><time>2026-04-17T08:18:28Z</time></trkpt><trkpt lat="44.42852564234296" lon="8.755902060506324"><ele>6.0</ele><time>2026-04-17T08:18:30Z</time></trkpt><trkpt lat="44.42852838495116" lon="8.755808929535029"><ele>6.0</ele><time>2026-04-17T08:18:31Z</time></trkpt><trkpt lat="44.42852418936119" lon="8.755711479170136"><ele>6.0</ele><time>2026-04-17T08:18:32Z</time></trkpt><trkpt lat="44.428523537892396" lon="8.755619898304758"><ele>6.0</ele><time>2026-04-17T08:18:33Z</time></trkpt><trkpt lat="44.42851909943353" lon="8.755468304475817"><ele>6.0</ele><time>2026-04-17T08:18:35Z</time></trkpt><trkpt lat="44.428509818737005" lon="8.755333642131435"><ele>6.0</ele><time>2026-04-17T08:18:37Z</time></trkpt><trkpt lat="44.428497554629125" lon="8.755175912947065"><ele>5.8</ele><time>2026-04-17T08:18:39Z</time></trkpt><trkpt lat="44.428486337675956" lon="8.755010985361492"><ele>5.6</ele><time>2026-04-17T08:18:41Z</time></trkpt><trkpt lat="44.42848213494996" lon="8.754887166685897"><ele>5.4</ele><time>2026-04-17T08:18:42Z</time></trkpt><trkpt lat="44.4284819860192" lon="8.754751125858958"><ele>5.2</ele><time>2026-04-17T08:18:43Z</time></trkpt><trkpt lat="44.428482144599286" lon="8.7546205926024"><ele>5.0</ele><time>2026-04-17T08:18:44Z</time></trkpt><trkpt lat="44.42847553317225" lon="8.754507980378417"><ele>5.0</ele><time>2026-04-17T08:18:45Z</time></trkpt><trkpt lat="44.42847101022165" lon="8.754412552832045"><ele>5.0</ele><time>2026-04-17T08:18:46Z</time></trkpt><trkpt lat="44.42845498704037" lon="8.7542793017609"><ele>5.0</ele><time>2026-04-17T08:18:48Z</time></trkpt><trkpt lat="44.42844475387278" lon="8.754189734723182"><ele>5.0</ele><time>2026-04-17T08:18:50Z</time></trkpt><trkpt lat="44.42846658665157" lon="8.754068843395194"><ele>5.0</ele><time>2026-04-17T08:18:52Z</time></trkpt><trkpt lat="44.428464471177875" lon="8.753952322358314"><ele>5.0</ele><time>2026-04-17T08:18:53Z</time></trkpt><trkpt lat="44.428460109579134" lon="8.753827527684912"><ele>5.6</ele><time>2026-04-17T08:18:54Z</time></trkpt><trkpt lat="44.42845752930757" lon="8.753697381903896"><ele>6.2</ele><time>2026-04-17T08:18:55Z</time></trkpt><trkpt lat="44.42843555671515" lon="8.753570112884756"><ele>6.800000000000001</ele><time>2026-04-17T08:18:56Z</time></trkpt><trkpt lat="44.428418413419735" lon="8.753427624348564"><ele>7.4</ele><time>2026-04-17T08:18:57Z</time></trkpt><trkpt lat="44.42840450871578" lon="8.753260585039365"><ele>8.0</ele><time>2026-04-17T08:18:58Z</time></trkpt><trkpt lat="44.42839370007466" lon="8.753088780859452"><ele>8.200000000000001</ele><time>2026-04-17T08:18:59Z</time></trkpt><trkpt lat="44.42836305018043" lon="8.752927639173858"><ele>8.4</ele><time>2026-04-17T08:19:00Z</time></trkpt><trkpt lat="44.42833587983069" lon="8.752777222298892"><ele>8.600000000000001</ele><time>2026-04-17T08:19:01Z</time></trkpt><trkpt lat="44.42832980345536" lon="8.752634226754063"><ele>8.8</ele><time>2026-04-17T08:19:02Z</time></trkpt><trkpt lat="44.42830113087584" lon="8.752485075233405"><ele>9.0</ele><time>2026-04-17T08:19:03Z</time></trkpt><trkpt lat="44.428297551397456" lon="8.752329152260941"><ele>9.0</ele><time>2026-04-17T08:19:04Z</time></trkpt><trkpt lat="44.4283111162988" lon="8.752152447027534"><ele>9.0</ele><time>2026-04-17T08:19:05Z</time></trkpt><trkpt lat="44.42831724450844" lon="8.751994622402671"><ele>9.0</ele><time>2026-04-17T08:19:06Z</time></trkpt><trkpt lat="44.42831577078935" lon="8.751856025168093"><ele>9.0</ele><time>2026-04-17T08:19:07Z</time></trkpt><trkpt lat="44.428318112385725" lon="8.75172655304301"><ele>9.0</ele><time>2026-04-17T08:19:08Z</time></trkpt><trkpt lat="44.428326597230175" lon="8.751597882161157"><ele>8.833333333333334</ele><time>2026-04-17T08:19:09Z</time></trkpt><trkpt lat="44.42833840167886" lon="8.751507656328192"><ele>8.666666666666666</ele><time>2026-04-17T08:19:10Z</time></trkpt><trkpt lat="44.42836159323353" lon="8.751408701207282"><ele>8.5</ele><time>2026-04-17T08:19:12Z</time></trkpt><trkpt lat="44.42838699332657" lon="8.751261527370659"><ele>8.333333333333332</ele><time>2026-04-17T08:19:19Z</time></trkpt><trkpt lat="44.42839595869171" lon="8.751161375410634"><ele>8.166666666666666</ele><time>2026-04-17T08:19:20Z</time></trkpt><trkpt lat="44.42840565143773" lon="8.751048087855708"><ele>8.0</ele><time>2026-04-17T08:19:20.999Z</time></trkpt><trkpt lat="44.42842692464965" lon="8.750931198969228"><ele>8.0</ele><time>2026-04-17T08:19:21.999Z</time></trkpt><trkpt lat="44.42843698021754" lon="8.750810375058213"><ele>8.0</ele><time>2026-04-17T08:19:22.999Z</time></trkpt><trkpt lat="44.42843944594424" lon="8.75070053748799"><ele>8.0</ele><time>2026-04-17T08:19:23.999Z</time></trkpt><trkpt lat="44.42844762085634" lon="8.750553353807907"><ele>8.0</ele><time>2026-04-17T08:19:25.999Z</time></trkpt><trkpt lat="44.428467585483695" lon="8.750430122063404"><ele>8.0</ele><time>2026-04-17T08:19:28.999Z</time></trkpt><trkpt lat="44.42848477482418" lon="8.750282294440948"><ele>7.999999999999999</ele><time>2026-04-17T08:19:30.999Z</time></trkpt><trkpt lat="44.42851333254107" lon="8.750201734233134"><ele>8.0</ele><time>2026-04-17T08:19:33.999Z</time></trkpt><trkpt lat="44.428530763426814" lon="8.750106560134418"><ele>8.0</ele><time>2026-04-17T08:19:42.999Z</time></trkpt><trkpt lat="44.428548884712015" lon="8.749944242372596"><ele>8.0</ele><time>2026-04-17T08:19:44.999Z</time></trkpt><trkpt lat="44.42854742157541" lon="8.749826858822315"><ele>7.999999999999999</ele><time>2026-04-17T08:19:45.999Z</time></trkpt><trkpt lat="44.42855606515275" lon="8.749694363041414"><ele>8.0</ele><time>2026-04-17T08:19:46.999Z</time></trkpt><trkpt lat="44.4285662647524" lon="8.749556805378546"><ele>8.0</ele><time>2026-04-17T08:19:47.999Z</time></trkpt><trkpt lat="44.428571612312254" lon="8.749396916739837"><ele>8.0</ele><time>2026-04-17T08:19:48.999Z</time></trkpt><trkpt lat="44.42856359316983" lon="8.749268018928564"><ele>8.0</ele><time>2026-04-17T08:19:49.999Z</time></trkpt><trkpt lat="44.4285806485187" lon="8.749124913203547"><ele>8.0</ele><time>2026-04-17T08:19:50.999Z</time></trkpt><trkpt lat="44.42858667541695" lon="8.748985778657815"><ele>8.0</ele><time>2026-04-17T08:19:51.999Z</time></trkpt><trkpt lat="44.42859984027621" lon="8.748864473866288"><ele>7.999999999999999</ele><time>2026-04-17T08:19:52.999Z</time></trkpt><trkpt lat="44.42859807911773" lon="8.748734401433502"><ele>8.0</ele><time>2026-04-17T08:19:53.999Z</time></trkpt><trkpt lat="44.42859907084693" lon="8.748615910313783"><ele>8.0</ele><time>2026-04-17T08:19:54.999Z</time></trkpt><trkpt lat="44.42859654375407" lon="8.748496197227814"><ele>8.0</ele><time>2026-04-17T08:19:55.999Z</time></trkpt><trkpt lat="44.42860057228572" lon="8.748397010713681"><ele>7.999999999999999</ele><time>2026-04-17T08:19:56.999Z</time></trkpt><trkpt lat="44.42860146936287" lon="8.748304531252481"><ele>8.0</ele><time>2026-04-17T08:19:57.999Z</time></trkpt><trkpt lat="44.428599302201505" lon="8.748213983902406"><ele>8.0</ele><time>2026-04-17T08:19:58.999Z</time></trkpt><trkpt lat="44.42858234515543" lon="8.748028840590832"><ele>8.0</ele><time>2026-04-17T08:20:00.999Z</time></trkpt><trkpt lat="44.42859910483852" lon="8.747916902811443"><ele>8.0</ele><time>2026-04-17T08:20:01.999Z</time></trkpt><trkpt lat="44.42860115825985" lon="8.747787337306299"><ele>8.0</ele><time>2026-04-17T08:20:02.999Z</time></trkpt><trkpt lat="44.42860334397573" lon="8.747653553279456"><ele>8.0</ele><time>2026-04-17T08:20:03.999Z</time></trkpt><trkpt lat="44.428589679216785" lon="8.747530931286692"><ele>8.0</ele><time>2026-04-17T08:20:04.999Z</time></trkpt><trkpt lat="44.42860784550247" lon="8.74741192959865"><ele>8.0</ele><time>2026-04-17T08:20:05.999Z</time></trkpt><trkpt lat="44.42859494207126" lon="8.74729244893412"><ele>8.0</ele><time>2026-04-17T08:20:06.999Z</time></trkpt><trkpt lat="44.4286014967673" lon="8.747143608876138"><ele>8.0</ele><time>2026-04-17T08:20:07.999Z</time></trkpt><trkpt lat="44.42860867301781" lon="8.746992733998587"><ele>8.0</ele><time>2026-04-17T08:20:08.999Z</time></trkpt><trkpt lat="44.42861275354944" lon="8.74684386075368"><ele>7.999999999999999</ele><time>2026-04-17T08:20:09.999Z</time></trkpt><trkpt lat="44.42861183290617" lon="8.746702200238696"><ele>8.0</ele><time>2026-04-17T08:20:10.999Z</time></trkpt><trkpt lat="44.42860678602237" lon="8.74656366271929"><ele>8.0</ele><time>2026-04-17T08:20:11.999Z</time></trkpt><trkpt lat="44.428597835480275" lon="8.746457081390316"><ele>8.0</ele><time>2026-04-17T08:20:12.999Z</time></trkpt><trkpt lat="44.428585979084076" lon="8.74635432768789"><ele>7.999999999999999</ele><time>2026-04-17T08:20:13.999Z</time></trkpt><trkpt lat="44.42854076662432" lon="8.746257906794586"><ele>8.0</ele><time>2026-04-17T08:20:14.999Z</time></trkpt><trkpt lat="44.42852279364293" lon="8.746146320122506"><ele>8.4</ele><time>2026-04-17T08:20:15.999Z</time></trkpt><trkpt lat="44.42847513792909" lon="8.746016370698758"><ele>8.8</ele><time>2026-04-17T08:20:16.999Z</time></trkpt><trkpt lat="44.42842120910608" lon="8.745888362149598"><ele>9.2</ele><time>2026-04-17T08:20:17.999Z</time></trkpt><trkpt lat="44.42836124598681" lon="8.745776104629789"><ele>9.6</ele><time>2026-04-17T08:20:18.999Z</time></trkpt><trkpt lat="44.42832251937443" lon="8.74568328812195"><ele>10.0</ele><time>2026-04-17T08:20:19.999Z</time></trkpt><trkpt lat="44.42824661787948" lon="8.745525241100813"><ele>10.0</ele><time>2026-04-17T08:20:21.999Z</time></trkpt><trkpt lat="44.42819554636252" lon="8.74541168437372"><ele>10.0</ele><time>2026-04-17T08:20:22.999Z</time></trkpt><trkpt lat="44.42815293728741" lon="8.7452993692651"><ele>10.0</ele><time>2026-04-17T08:20:24Z</time></trkpt><trkpt lat="44.4281115068956" lon="8.74518747034717"><ele>10.0</ele><time>2026-04-17T08:20:25Z</time></trkpt><trkpt lat="44.428077096188034" lon="8.745073218427954"><ele>10.0</ele><time>2026-04-17T08:20:26Z</time></trkpt><trkpt lat="44.428052208596284" lon="8.744970953953421"><ele>10.0</ele><time>2026-04-17T08:20:27Z</time></trkpt><trkpt lat="44.4280111915975" lon="8.744860791748017"><ele>9.4</ele><time>2026-04-17T08:20:28Z</time></trkpt><trkpt lat="44.4279724339944" lon="8.744744309130576"><ele>8.8</ele><time>2026-04-17T08:20:29Z</time></trkpt><trkpt lat="44.42792489670427" lon="8.744617640942936"><ele>8.2</ele><time>2026-04-17T08:20:30Z</time></trkpt><trkpt lat="44.427867592861986" lon="8.744484076727279"><ele>7.6</ele><time>2026-04-17T08:20:31Z</time></trkpt><trkpt lat="44.42780918106108" lon="8.744344557815381"><ele>7.0</ele><time>2026-04-17T08:20:32Z</time></trkpt><trkpt lat="44.42774525034863" lon="8.744205947721202"><ele>7.0</ele><time>2026-04-17T08:20:33Z</time></trkpt><trkpt lat="44.427690176443036" lon="8.744047859650939"><ele>7.0</ele><time>2026-04-17T08:20:34Z</time></trkpt><trkpt lat="44.42763135461308" lon="8.743906742420425"><ele>7.0</ele><time>2026-04-17T08:20:35Z</time></trkpt><trkpt lat="44.42758804862027" lon="8.743772543249696"><ele>7.0</ele><time>2026-04-17T08:20:36Z</time></trkpt><trkpt lat="44.42753760906363" lon="8.743628876318892"><ele>6.8</ele><time>2026-04-17T08:20:37Z</time></trkpt><trkpt lat="44.42748946899917" lon="8.743503635854513"><ele>6.6</ele><time>2026-04-17T08:20:38Z</time></trkpt><trkpt lat="44.427447110666726" lon="8.743367419958274"><ele>6.3999999999999995</ele><time>2026-04-17T08:20:39Z</time></trkpt><trkpt lat="44.42742735306822" lon="8.743231164329547"><ele>6.199999999999999</ele><time>2026-04-17T08:20:40Z</time></trkpt><trkpt lat="44.42739596213982" lon="8.743083711524868"><ele>6.0</ele><time>2026-04-17T08:20:41Z</time></trkpt><trkpt lat="44.42737781556387" lon="8.742907730175515"><ele>5.666666666666667</ele><time>2026-04-17T08:20:42Z</time></trkpt><trkpt lat="44.427350991874526" lon="8.742705376100355"><ele>5.333333333333334</ele><time>2026-04-17T08:20:43Z</time></trkpt><trkpt lat="44.42732706193225" lon="8.742479533371894"><ele>5.0</ele><time>2026-04-17T08:20:44Z</time></trkpt><trkpt lat="44.42730265639907" lon="8.742266383339759"><ele>5.0</ele><time>2026-04-17T08:20:45Z</time></trkpt><trkpt lat="44.42727633094322" lon="8.742074380326796"><ele>5.0</ele><time>2026-04-17T08:20:46Z</time></trkpt><trkpt lat="44.42721906982473" lon="8.741898488019444"><ele>5.0</ele><time>2026-04-17T08:20:47Z</time></trkpt><trkpt lat="44.42712256156038" lon="8.741724020998628"><ele>5.0</ele><time>2026-04-17T08:20:48Z</time></trkpt><trkpt lat="44.42700110267339" lon="8.74156706114089"><ele>4.666666666666667</ele><time>2026-04-17T08:20:49Z</time></trkpt><trkpt lat="44.42688005375099" lon="8.741391913255693"><ele>4.333333333333333</ele><time>2026-04-17T08:20:50Z</time></trkpt><trkpt lat="44.426747251920744" lon="8.741231744366843"><ele>4.0</ele><time>2026-04-17T08:20:51Z</time></trkpt><trkpt lat="44.426606404606545" lon="8.741079230546527"><ele>8.0</ele><time>2026-04-17T08:20:52Z</time></trkpt><trkpt lat="44.4264900694045" lon="8.740962114031321"><ele>12.0</ele><time>2026-04-17T08:20:53Z</time></trkpt><trkpt lat="44.42639990659916" lon="8.740829374316005"><ele>16.0</ele><time>2026-04-17T08:20:54Z</time></trkpt><trkpt lat="44.42634822277411" lon="8.740660068590033"><ele>20.0</ele><time>2026-04-17T08:20:55Z</time></trkpt><trkpt lat="44.42631853048004" lon="8.740480080878598"><ele>17.333333333333336</ele><time>2026-04-17T08:20:56Z</time></trkpt><trkpt lat="44.426241295767454" lon="8.740311465038518"><ele>14.666666666666668</ele><time>2026-04-17T08:20:57Z</time></trkpt><trkpt lat="44.426120048071866" lon="8.740149301665273"><ele>12.0</ele><time>2026-04-17T08:20:58Z</time></trkpt><trkpt lat="44.42598809120267" lon="8.739983166013658"><ele>12.0</ele><time>2026-04-17T08:20:59Z</time></trkpt><trkpt lat="44.425861743661315" lon="8.739793656298302"><ele>12.0</ele><time>2026-04-17T08:21:00Z</time></trkpt><trkpt lat="44.42573089738205" lon="8.739590697918146"><ele>12.0</ele><time>2026-04-17T08:21:01Z</time></trkpt><trkpt lat="44.42560215429595" lon="8.739368040280766"><ele>11.666666666666666</ele><time>2026-04-17T08:21:02Z</time></trkpt><trkpt lat="44.425468142833026" lon="8.739155147055842"><ele>11.333333333333332</ele><time>2026-04-17T08:21:03Z</time></trkpt><trkpt lat="44.42531610180494" lon="8.738952625224108"><ele>11.0</ele><time>2026-04-17T08:21:04Z</time></trkpt><trkpt lat="44.42515171112437" lon="8.738771379507002"><ele>11.0</ele><time>2026-04-17T08:21:05Z</time></trkpt><trkpt lat="44.425006177594774" lon="8.738593007164752"><ele>11.0</ele><time>2026-04-17T08:21:06Z</time></trkpt><trkpt lat="44.42489043560699" lon="8.738423922160292"><ele>11.0</ele><time>2026-04-17T08:21:07Z</time></trkpt><trkpt lat="44.424789120410495" lon="8.738259087834203"><ele>9.25</ele><time>2026-04-17T08:21:08Z</time></trkpt><trkpt lat="44.42470899532463" lon="8.73809603301297"><ele>7.5</ele><time>2026-04-17T08:21:09Z</time></trkpt><trkpt lat="44.42465372523796" lon="8.737927304805671"><ele>5.75</ele><time>2026-04-17T08:21:10Z</time></trkpt><trkpt lat="44.424602183555" lon="8.737803759255112"><ele>4.0</ele><time>2026-04-17T08:21:11Z</time></trkpt><trkpt lat="44.424517410818176" lon="8.737719381228407"><ele>4.0</ele><time>2026-04-17T08:21:12Z</time></trkpt><trkpt lat="44.42440279782527" lon="8.73767926835628"><ele>4.0</ele><time>2026-04-17T08:21:13Z</time></trkpt><trkpt lat="44.42426545260279" lon="8.737691149002844"><ele>4.0</ele><time>2026-04-17T08:21:14Z</time></trkpt><trkpt lat="44.424125687262" lon="8.737706100830332"><ele>4.0</ele><time>2026-04-17T08:21:15Z</time></trkpt><trkpt lat="44.424001899208115" lon="8.737734444446886"><ele>4.0</ele><time>2026-04-17T08:21:16Z</time></trkpt><trkpt lat="44.423894297981406" lon="8.737739155882885"><ele>4.0</ele><time>2026-04-17T08:21:17Z</time></trkpt><trkpt lat="44.4238065651866" lon="8.737642930361114"><ele>4.0</ele><time>2026-04-17T08:21:18Z</time></trkpt><trkpt lat="44.423704856528126" lon="8.737507548680481"><ele>4.0</ele><time>2026-04-17T08:21:19Z</time></trkpt><trkpt lat="44.423600339511864" lon="8.737371934592128"><ele>7.0</ele><time>2026-04-17T08:21:20Z</time></trkpt><trkpt lat="44.4234852348226" lon="8.737224485267292"><ele>10.0</ele><time>2026-04-17T08:21:21Z</time></trkpt><trkpt lat="44.42336264575171" lon="8.73707578609353"><ele>13.0</ele><time>2026-04-17T08:21:22Z</time></trkpt><trkpt lat="44.42324025956985" lon="8.736911125171893"><ele>10.75</ele><time>2026-04-17T08:21:23Z</time></trkpt><trkpt lat="44.423115505757266" lon="8.736763035141397"><ele>8.5</ele><time>2026-04-17T08:21:24Z</time></trkpt><trkpt lat="44.423009848751235" lon="8.736624856298365"><ele>6.25</ele><time>2026-04-17T08:21:25Z</time></trkpt><trkpt lat="44.42293873022393" lon="8.736479247121117"><ele>4.0</ele><time>2026-04-17T08:21:26Z</time></trkpt><trkpt lat="44.42290038545615" lon="8.736299312590516"><ele>4.0</ele><time>2026-04-17T08:21:27Z</time></trkpt><trkpt lat="44.42286209136668" lon="8.736115728823524"><ele>4.0</ele><time>2026-04-17T08:21:28Z</time></trkpt><trkpt lat="44.42280770210219" lon="8.735940454250324"><ele>4.0</ele><time>2026-04-17T08:21:29Z</time></trkpt><trkpt lat="44.42271256853765" lon="8.73576960363469"><ele>4.0</ele><time>2026-04-17T08:21:30Z</time></trkpt><trkpt lat="44.42259363949975" lon="8.73559686344877"><ele>7.0</ele><time>2026-04-17T08:21:31Z</time></trkpt><trkpt lat="44.4224730991712" lon="8.735410020778652"><ele>10.0</ele><time>2026-04-17T08:21:32Z</time></trkpt><trkpt lat="44.4223741275959" lon="8.735225880151644"><ele>13.0</ele><time>2026-04-17T08:21:33Z</time></trkpt><trkpt lat="44.42229285168143" lon="8.735070815277025"><ele>16.0</ele><time>2026-04-17T08:21:34Z</time></trkpt><trkpt lat="44.42225528615792" lon="8.73489852670493"><ele>19.0</ele><time>2026-04-17T08:21:35Z</time></trkpt><trkpt lat="44.42225743964939" lon="8.73470915910134"><ele>22.0</ele><time>2026-04-17T08:21:36Z</time></trkpt><trkpt lat="44.42228680438186" lon="8.73452364589838"><ele>25.0</ele><time>2026-04-17T08:21:37Z</time></trkpt><trkpt lat="44.42232982982117" lon="8.734340333230103"><ele>28.5</ele><time>2026-04-17T08:21:37.999Z</time></trkpt><trkpt lat="44.422340279254236" lon="8.734162504227212"><ele>32.0</ele><time>2026-04-17T08:21:38.999Z</time></trkpt><trkpt lat="44.42231917974336" lon="8.733982557147321"><ele>35.5</ele><time>2026-04-17T08:21:39.999Z</time></trkpt><trkpt lat="44.422264730797" lon="8.733790947299498"><ele>39.0</ele><time>2026-04-17T08:21:40.999Z</time></trkpt><trkpt lat="44.42218641592777" lon="8.73360676135351"><ele>31.25</ele><time>2026-04-17T08:21:41.999Z</time></trkpt><trkpt lat="44.42209178240865" lon="8.733425815574437"><ele>23.5</ele><time>2026-04-17T08:21:42.999Z</time></trkpt><trkpt lat="44.42200292816607" lon="8.733261392056116"><ele>15.75</ele><time>2026-04-17T08:21:43.999Z</time></trkpt><trkpt lat="44.42193763982343" lon="8.733091756362743"><ele>8.0</ele><time>2026-04-17T08:21:44.999Z</time></trkpt><trkpt lat="44.42188883491275" lon="8.732903777193073"><ele>8.75</ele><time>2026-04-17T08:21:45.999Z</time></trkpt><trkpt lat="44.42187697415339" lon="8.73270179390706"><ele>9.5</ele><time>2026-04-17T08:21:46.999Z</time></trkpt><trkpt lat="44.421893609367785" lon="8.732505318243462"><ele>10.25</ele><time>2026-04-17T08:21:47.999Z</time></trkpt><trkpt lat="44.42191107706065" lon="8.73233145971767"><ele>11.0</ele><time>2026-04-17T08:21:48.999Z</time></trkpt><trkpt lat="44.4218917774957" lon="8.732149410912266"><ele>11.0</ele><time>2026-04-17T08:21:49.999Z</time></trkpt><trkpt lat="44.4218488306447" lon="8.731975148383759"><ele>11.0</ele><time>2026-04-17T08:21:50.999Z</time></trkpt><trkpt lat="44.42177543865259" lon="8.731814633881665"><ele>11.0</ele><time>2026-04-17T08:21:51.999Z</time></trkpt><trkpt lat="44.42168639647239" lon="8.731654890333225"><ele>11.0</ele><time>2026-04-17T08:21:52.999Z</time></trkpt><trkpt lat="44.42160303305818" lon="8.731483867333766"><ele>12.25</ele><time>2026-04-17T08:21:53.999Z</time></trkpt><trkpt lat="44.42154813820348" lon="8.731284433856732"><ele>13.5</ele><time>2026-04-17T08:21:54.999Z</time></trkpt><trkpt lat="44.421542226655944" lon="8.731076743481864"><ele>14.75</ele><time>2026-04-17T08:21:55.999Z</time></trkpt><trkpt lat="44.421554404198204" lon="8.730881258946644"><ele>16.0</ele><time>2026-04-17T08:21:56.999Z</time></trkpt><trkpt lat="44.42152501363919" lon="8.730694664291805"><ele>14.0</ele><time>2026-04-17T08:21:57.999Z</time></trkpt><trkpt lat="44.42146490771717" lon="8.730501431707594"><ele>12.0</ele><time>2026-04-17T08:21:58.999Z</time></trkpt><trkpt lat="44.42136959975275" lon="8.730314138612922"><ele>10.0</ele><time>2026-04-17T08:21:59.999Z</time></trkpt><trkpt lat="44.421255604348765" lon="8.730146676028312"><ele>10.0</ele><time>2026-04-17T08:22:00.999Z</time></trkpt><trkpt lat="44.42112824934096" lon="8.729977209012302"><ele>10.0</ele><time>2026-04-17T08:22:01.999Z</time></trkpt><trkpt lat="44.42099674857488" lon="8.729791750781862"><ele>10.0</ele><time>2026-04-17T08:22:02.999Z</time></trkpt><trkpt lat="44.420861421822536" lon="8.729599320270667"><ele>10.0</ele><time>2026-04-17T08:22:03.999Z</time></trkpt><trkpt lat="44.420726707872106" lon="8.729394803573985"><ele>10.0</ele><time>2026-04-17T08:22:04.999Z</time></trkpt><trkpt lat="44.4205894979522" lon="8.729195273359858"><ele>10.0</ele><time>2026-04-17T08:22:05.999Z</time></trkpt><trkpt lat="44.42045226482526" lon="8.72899593326996"><ele>9.0</ele><time>2026-04-17T08:22:06.999Z</time></trkpt><trkpt lat="44.42030229826314" lon="8.728807229965803"><ele>8.0</ele><time>2026-04-17T08:22:07.999Z</time></trkpt><trkpt lat="44.42014533454801" lon="8.728622174655172"><ele>7.0</ele><time>2026-04-17T08:22:08.999Z</time></trkpt><trkpt lat="44.4199842440424" lon="8.728441559691705"><ele>5.666666666666667</ele><time>2026-04-17T08:22:09.999Z</time></trkpt><trkpt lat="44.41981691723418" lon="8.728267490533325"><ele>4.333333333333334</ele><time>2026-04-17T08:22:10.999Z</time></trkpt><trkpt lat="44.4196412810081" lon="8.728098066576571"><ele>3.0</ele><time>2026-04-17T08:22:11.999Z</time></trkpt><trkpt lat="44.4194695515886" lon="8.727930311252736"><ele>3.0</ele><time>2026-04-17T08:22:12.999Z</time></trkpt><trkpt lat="44.41929675583441" lon="8.72775830993563"><ele>3.0</ele><time>2026-04-17T08:22:13.999Z</time></trkpt><trkpt lat="44.41912550469186" lon="8.727581476440406"><ele>3.0</ele><time>2026-04-17T08:22:14.999Z</time></trkpt><trkpt lat="44.418955669010074" lon="8.727409786159233"><ele>3.333333333333333</ele><time>2026-04-17T08:22:15.999Z</time></trkpt><trkpt lat="44.41878791427851" lon="8.727239057291616"><ele>3.6666666666666665</ele><time>2026-04-17T08:22:16.999Z</time></trkpt><trkpt lat="44.418624234082934" lon="8.72707167816795"><ele>4.0</ele><time>2026-04-17T08:22:17.999Z</time></trkpt><trkpt lat="44.41846172430718" lon="8.726899808685777"><ele>11.0</ele><time>2026-04-17T08:22:18.999Z</time></trkpt><trkpt lat="44.41831304410235" lon="8.726711807709068"><ele>18.0</ele><time>2026-04-17T08:22:19.999Z</time></trkpt><trkpt lat="44.418171236361296" lon="8.726514652669296"><ele>25.0</ele><time>2026-04-17T08:22:20.999Z</time></trkpt><trkpt lat="44.418035827380244" lon="8.726288052352889"><ele>22.666666666666668</ele><time>2026-04-17T08:22:21.999Z</time></trkpt><trkpt lat="44.417897574236186" lon="8.726071799908139"><ele>20.333333333333336</ele><time>2026-04-17T08:22:22.999Z</time></trkpt><trkpt lat="44.41776080290018" lon="8.725849867951649"><ele>18.0</ele><time>2026-04-17T08:22:23.999Z</time></trkpt><trkpt lat="44.417629620230734" lon="8.725614604808658"><ele>18.0</ele><time>2026-04-17T08:22:25.014Z</time></trkpt><trkpt lat="44.41751061968087" lon="8.72537157664894"><ele>18.0</ele><time>2026-04-17T08:22:26.022Z</time></trkpt><trkpt lat="44.41740978399023" lon="8.725138690874163"><ele>18.0</ele><time>2026-04-17T08:22:27.015Z</time></trkpt><trkpt lat="44.41732444558777" lon="8.724903525849895"><ele>12.0</ele><time>2026-04-17T08:22:28.015Z</time></trkpt><trkpt lat="44.41724262950982" lon="8.724658763198791"><ele>6.0</ele><time>2026-04-17T08:22:29.021Z</time></trkpt><trkpt lat="44.41702740271056" lon="8.723648367457766"><ele>7.333333333333334</ele><time>2026-04-17T08:22:32.999Z</time></trkpt><trkpt lat="44.41698376448295" lon="8.72341147516025"><ele>8.666666666666668</ele><time>2026-04-17T08:22:33.999Z</time></trkpt><trkpt lat="44.416928821285666" lon="8.723160797687212"><ele>10.0</ele><time>2026-04-17T08:22:34.999Z</time></trkpt><trkpt lat="44.41689043876879" lon="8.722936683511973"><ele>11.666666666666668</ele><time>2026-04-17T08:22:35.999Z</time></trkpt><trkpt lat="44.41684703263392" lon="8.722720972291304"><ele>13.333333333333334</ele><time>2026-04-17T08:22:36.999Z</time></trkpt><trkpt lat="44.4168016833765" lon="8.722491684037113"><ele>15.0</ele><time>2026-04-17T08:22:38Z</time></trkpt><trkpt lat="44.41677348723157" lon="8.722275975782049"><ele>15.0</ele><time>2026-04-17T08:22:39Z</time></trkpt><trkpt lat="44.416727429649384" lon="8.722022058118975"><ele>15.0</ele><time>2026-04-17T08:22:40Z</time></trkpt><trkpt lat="44.41667328106572" lon="8.721759366416642"><ele>15.0</ele><time>2026-04-17T08:22:41Z</time></trkpt><trkpt lat="44.41662450368042" lon="8.721494116823093"><ele>15.333333333333332</ele><time>2026-04-17T08:22:42Z</time></trkpt><trkpt lat="44.416591857572406" lon="8.721235301621874"><ele>15.666666666666666</ele><time>2026-04-17T08:22:43Z</time></trkpt><trkpt lat="44.41658092650968" lon="8.721008027293369"><ele>16.0</ele><time>2026-04-17T08:22:44Z</time></trkpt><trkpt lat="44.416558665541984" lon="8.720778775683197"><ele>19.666666666666664</ele><time>2026-04-17T08:22:45Z</time></trkpt><trkpt lat="44.41654017566886" lon="8.720536203402565"><ele>23.333333333333332</ele><time>2026-04-17T08:22:46Z</time></trkpt><trkpt lat="44.416524377061954" lon="8.72029533461057"><ele>27.0</ele><time>2026-04-17T08:22:47Z</time></trkpt><trkpt lat="44.416509316620655" lon="8.720061831770805"><ele>27.333333333333336</ele><time>2026-04-17T08:22:48Z</time></trkpt><trkpt lat="44.41650250029947" lon="8.719829781810747"><ele>27.666666666666668</ele><time>2026-04-17T08:22:49Z</time></trkpt><trkpt lat="44.41649034987208" lon="8.719590322014403"><ele>28.0</ele><time>2026-04-17T08:22:50Z</time></trkpt><trkpt lat="44.41647145372541" lon="8.719347714461993"><ele>29.666666666666668</ele><time>2026-04-17T08:22:51Z</time></trkpt><trkpt lat="44.4164546967459" lon="8.71910638124002"><ele>31.333333333333336</ele><time>2026-04-17T08:22:52Z</time></trkpt><trkpt lat="44.4164422433525" lon="8.718853260727727"><ele>33.0</ele><time>2026-04-17T08:22:53Z</time></trkpt><trkpt lat="44.41643057823557" lon="8.718607078188288"><ele>36.333333333333336</ele><time>2026-04-17T08:22:54Z</time></trkpt><trkpt lat="44.41641279236579" lon="8.718353764424426"><ele>39.66666666666667</ele><time>2026-04-17T08:22:55Z</time></trkpt><trkpt lat="44.416393590512676" lon="8.718099178012451"><ele>43.0</ele><time>2026-04-17T08:22:56Z</time></trkpt><trkpt lat="44.416378776460505" lon="8.71784061053222"><ele>44.0</ele><time>2026-04-17T08:22:57.018Z</time></trkpt><trkpt lat="44.41636197893941" lon="8.717598167549477"><ele>45.0</ele><time>2026-04-17T08:22:58.015Z</time></trkpt><trkpt lat="44.41634832738423" lon="8.717378957757171"><ele>46.0</ele><time>2026-04-17T08:22:59.021Z</time></trkpt><trkpt lat="44.41633362185079" lon="8.717165282599503"><ele>46.0</ele><time>2026-04-17T08:23:00Z</time></trkpt><trkpt lat="44.41634678897312" lon="8.71704420409898"><ele>46.0</ele><time>2026-04-17T08:23:01Z</time></trkpt><trkpt lat="44.41632620088656" lon="8.716851532295046"><ele>46.0</ele><time>2026-04-17T08:23:02Z</time></trkpt><trkpt lat="44.41632076524263" lon="8.71665863763299"><ele>46.0</ele><time>2026-04-17T08:23:03Z</time></trkpt><trkpt lat="44.416294687502905" lon="8.716443686243581"><ele>32.0</ele><time>2026-04-17T08:23:04Z</time></trkpt><trkpt lat="44.416307335180825" lon="8.716201954585875"><ele>18.0</ele><time>2026-04-17T08:23:05Z</time></trkpt><trkpt lat="44.41630103393469" lon="8.715987093015752"><ele>4.0</ele><time>2026-04-17T08:23:06Z</time></trkpt><trkpt lat="44.416291408154734" lon="8.715776861082865"><ele>3.75</ele><time>2026-04-17T08:23:07Z</time></trkpt><trkpt lat="44.41628115200454" lon="8.715568123591801"><ele>3.5</ele><time>2026-04-17T08:23:08Z</time></trkpt><trkpt lat="44.416266764534114" lon="8.715379525987977"><ele>3.25</ele><time>2026-04-17T08:23:09Z</time></trkpt><trkpt lat="44.41624970653879" lon="8.715197312006763"><ele>3.0</ele><time>2026-04-17T08:23:10Z</time></trkpt><trkpt lat="44.41622925550014" lon="8.715019042678815"><ele>3.0</ele><time>2026-04-17T08:23:11Z</time></trkpt><trkpt lat="44.41619858073512" lon="8.714814227076134"><ele>3.0</ele><time>2026-04-17T08:23:12Z</time></trkpt><trkpt lat="44.41615804688954" lon="8.714589578863674"><ele>3.0</ele><time>2026-04-17T08:23:13Z</time></trkpt><trkpt lat="44.41610158657913" lon="8.714326231850922"><ele>3.333333333333333</ele><time>2026-04-17T08:23:14Z</time></trkpt><trkpt lat="44.41604962786363" lon="8.714041136298917"><ele>3.6666666666666665</ele><time>2026-04-17T08:23:15Z</time></trkpt><trkpt lat="44.41599688497867" lon="8.713729062797382"><ele>4.0</ele><time>2026-04-17T08:23:16Z</time></trkpt><trkpt lat="44.41592211779681" lon="8.713428973655095"><ele>4.5</ele><time>2026-04-17T08:23:17Z</time></trkpt><trkpt lat="44.41583952430375" lon="8.713125160028643"><ele>5.0</ele><time>2026-04-17T08:23:18Z</time></trkpt><trkpt lat="44.41574342595591" lon="8.712812658236237"><ele>13.0</ele><time>2026-04-17T08:23:19Z</time></trkpt><trkpt lat="44.415637684201485" lon="8.712510914638225"><ele>21.0</ele><time>2026-04-17T08:23:20Z</time></trkpt><trkpt lat="44.41552475212668" lon="8.712221234976674"><ele>15.333333333333334</ele><time>2026-04-17T08:23:21Z</time></trkpt><trkpt lat="44.415405711526766" lon="8.711940003192156"><ele>9.666666666666666</ele><time>2026-04-17T08:23:22Z</time></trkpt><trkpt lat="44.415303263713255" lon="8.71167552060828"><ele>4.0</ele><time>2026-04-17T08:23:23Z</time></trkpt><trkpt lat="44.41521853738486" lon="8.711414232414203"><ele>4.0</ele><time>2026-04-17T08:23:24Z</time></trkpt><trkpt lat="44.41515495540053" lon="8.71114949171192"><ele>4.0</ele><time>2026-04-17T08:23:25Z</time></trkpt><trkpt lat="44.41511351686114" lon="8.71086998080671"><ele>4.0</ele><time>2026-04-17T08:23:26Z</time></trkpt><trkpt lat="44.41508676626029" lon="8.71060926697487"><ele>6.666666666666666</ele><time>2026-04-17T08:23:27Z</time></trkpt><trkpt lat="44.415052923364556" lon="8.710381719699596"><ele>9.333333333333334</ele><time>2026-04-17T08:23:28Z</time></trkpt><trkpt lat="44.414987725637474" lon="8.71014683796789"><ele>12.0</ele><time>2026-04-17T08:23:29Z</time></trkpt><trkpt lat="44.41489081161254" lon="8.709903851868745"><ele>11.666666666666666</ele><time>2026-04-17T08:23:30Z</time></trkpt><trkpt lat="44.414768661420176" lon="8.70969197410243"><ele>11.333333333333332</ele><time>2026-04-17T08:23:31Z</time></trkpt><trkpt lat="44.41462036698544" lon="8.709490827118627"><ele>11.0</ele><time>2026-04-17T08:23:32Z</time></trkpt><trkpt lat="44.414475881797976" lon="8.709328628053942"><ele>11.0</ele><time>2026-04-17T08:23:33Z</time></trkpt><trkpt lat="44.414361876001" lon="8.709174070861293"><ele>11.0</ele><time>2026-04-17T08:23:34Z</time></trkpt><trkpt lat="44.414284702147604" lon="8.708992230561863"><ele>11.0</ele><time>2026-04-17T08:23:35Z</time></trkpt><trkpt lat="44.414229621189484" lon="8.708771677160877"><ele>12.0</ele><time>2026-04-17T08:23:36Z</time></trkpt><trkpt lat="44.41419863318245" lon="8.708556433699137"><ele>13.0</ele><time>2026-04-17T08:23:37Z</time></trkpt><trkpt lat="44.41420038738045" lon="8.70833820221982"><ele>14.0</ele><time>2026-04-17T08:23:38Z</time></trkpt><trkpt lat="44.4142336787404" lon="8.708116348575077"><ele>14.0</ele><time>2026-04-17T08:23:39Z</time></trkpt><trkpt lat="44.41429934225147" lon="8.70790728601006"><ele>14.0</ele><time>2026-04-17T08:23:40Z</time></trkpt><trkpt lat="44.41439811927103" lon="8.707712428994908"><ele>14.0</ele><time>2026-04-17T08:23:41Z</time></trkpt><trkpt lat="44.41451657827983" lon="8.707527460134036"><ele>14.0</ele><time>2026-04-17T08:23:42Z</time></trkpt><trkpt lat="44.41460967144338" lon="8.70733283257189"><ele>14.0</ele><time>2026-04-17T08:23:43Z</time></trkpt><trkpt lat="44.41469066422451" lon="8.707133489832469"><ele>14.0</ele><time>2026-04-17T08:23:44Z</time></trkpt><trkpt lat="44.41475122368149" lon="8.706902480430893"><ele>22.0</ele><time>2026-04-17T08:23:45Z</time></trkpt><trkpt lat="44.41478960163387" lon="8.706650436237723"><ele>30.0</ele><time>2026-04-17T08:23:46Z</time></trkpt><trkpt lat="44.414816484139195" lon="8.706401373647285"><ele>38.0</ele><time>2026-04-17T08:23:46.999Z</time></trkpt><trkpt lat="44.41483614044188" lon="8.706139719626677"><ele>37.33333333333333</ele><time>2026-04-17T08:23:47.999Z</time></trkpt><trkpt lat="44.414841817405" lon="8.70588913932916"><ele>36.666666666666664</ele><time>2026-04-17T08:23:48.999Z</time></trkpt><trkpt lat="44.41481978632789" lon="8.70563421797383"><ele>36.0</ele><time>2026-04-17T08:23:49.999Z</time></trkpt><trkpt lat="44.41477594935819" lon="8.705385957841537"><ele>34.666666666666664</ele><time>2026-04-17T08:23:50.999Z</time></trkpt><trkpt lat="44.414708978796504" lon="8.70514524231779"><ele>33.33333333333333</ele><time>2026-04-17T08:23:51.999Z</time></trkpt><trkpt lat="44.4146221365221" lon="8.704926696266316"><ele>32.0</ele><time>2026-04-17T08:23:52.999Z</time></trkpt><trkpt lat="44.41451966536747" lon="8.70471852779982"><ele>27.0</ele><time>2026-04-17T08:23:53.999Z</time></trkpt><trkpt lat="44.414408543786244" lon="8.704532351996065"><ele>22.0</ele><time>2026-04-17T08:23:54.999Z</time></trkpt><trkpt lat="44.414284864240216" lon="8.704353498323796"><ele>17.0</ele><time>2026-04-17T08:23:55.999Z</time></trkpt><trkpt lat="44.414168584782914" lon="8.704187700010625"><ele>17.0</ele><time>2026-04-17T08:23:56.999Z</time></trkpt><trkpt lat="44.41404633004935" lon="8.704041461280266"><ele>17.0</ele><time>2026-04-17T08:23:57.999Z</time></trkpt><trkpt lat="44.413908195123845" lon="8.703919922378722"><ele>17.0</ele><time>2026-04-17T08:23:58.999Z</time></trkpt><trkpt lat="44.413759858882976" lon="8.703841388260912"><ele>14.0</ele><time>2026-04-17T08:23:59.999Z</time></trkpt><trkpt lat="44.41359756235971" lon="8.703779358901999"><ele>11.0</ele><time>2026-04-17T08:24:00.999Z</time></trkpt><trkpt lat="44.41342880026548" lon="8.703771940000118"><ele>8.0</ele><time>2026-04-17T08:24:01.999Z</time></trkpt><trkpt lat="44.41326546876404" lon="8.703777768679114"><ele>8.0</ele><time>2026-04-17T08:24:02.999Z</time></trkpt><trkpt lat="44.41314668695616" lon="8.703782591848407"><ele>8.0</ele><time>2026-04-17T08:24:03.999Z</time></trkpt><trkpt lat="44.41304478681007" lon="8.703775003543889"><ele>8.0</ele><time>2026-04-17T08:24:04.999Z</time></trkpt><trkpt lat="44.412952403479736" lon="8.703761423204314"><ele>8.0</ele><time>2026-04-17T08:24:05.999Z</time></trkpt><trkpt lat="44.412858839675245" lon="8.703733560642315"><ele>8.0</ele><time>2026-04-17T08:24:06.999Z</time></trkpt><trkpt lat="44.41276584391461" lon="8.703685916140152"><ele>6.6000000000000005</ele><time>2026-04-17T08:24:07.999Z</time></trkpt><trkpt lat="44.412683133745524" lon="8.703613002292688"><ele>5.200000000000001</ele><time>2026-04-17T08:24:08.999Z</time></trkpt><trkpt lat="44.41260636913124" lon="8.70351643982211"><ele>3.8000000000000003</ele><time>2026-04-17T08:24:09.999Z</time></trkpt><trkpt lat="44.41254396783239" lon="8.703397224930496"><ele>2.4000000000000004</ele><time>2026-04-17T08:24:10.999Z</time></trkpt><trkpt lat="44.412499381834095" lon="8.703247801392493"><ele>1.0</ele><time>2026-04-17T08:24:11.999Z</time></trkpt><trkpt lat="44.412454022000276" lon="8.703050376456172"><ele>6.666666666666667</ele><time>2026-04-17T08:24:12.999Z</time></trkpt><trkpt lat="44.41240624103222" lon="8.702832597332813"><ele>12.333333333333334</ele><time>2026-04-17T08:24:13.999Z</time></trkpt><trkpt lat="44.41233562120173" lon="8.702595543263703"><ele>18.0</ele><time>2026-04-17T08:24:14.999Z</time></trkpt><trkpt lat="44.412242501373925" lon="8.702359542692541"><ele>16.333333333333332</ele><time>2026-04-17T08:24:15.999Z</time></trkpt><trkpt lat="44.412115079226446" lon="8.702120810585585"><ele>14.666666666666666</ele><time>2026-04-17T08:24:16.999Z</time></trkpt><trkpt lat="44.4119770785734" lon="8.70185474625878"><ele>13.0</ele><time>2026-04-17T08:24:17.999Z</time></trkpt><trkpt lat="44.411836037964434" lon="8.70159665161325"><ele>13.0</ele><time>2026-04-17T08:24:18.999Z</time></trkpt><trkpt lat="44.4116853231238" lon="8.70134362399835"><ele>13.0</ele><time>2026-04-17T08:24:19.999Z</time></trkpt><trkpt lat="44.411549603652475" lon="8.701097011885059"><ele>16.333333333333332</ele><time>2026-04-17T08:24:20.999Z</time></trkpt><trkpt lat="44.411427531563156" lon="8.700860055453617"><ele>19.666666666666668</ele><time>2026-04-17T08:24:21.999Z</time></trkpt><trkpt lat="44.41131778460717" lon="8.70063011067442"><ele>23.0</ele><time>2026-04-17T08:24:22.999Z</time></trkpt><trkpt lat="44.41122479949982" lon="8.700410408965226"><ele>18.666666666666668</ele><time>2026-04-17T08:24:23.999Z</time></trkpt><trkpt lat="44.41113302254356" lon="8.700195245820485"><ele>14.333333333333334</ele><time>2026-04-17T08:24:24.999Z</time></trkpt><trkpt lat="44.411035234514564" lon="8.699983970116156"><ele>10.0</ele><time>2026-04-17T08:24:25.999Z</time></trkpt><trkpt lat="44.41094641092518" lon="8.699763580166804"><ele>10.0</ele><time>2026-04-17T08:24:26.999Z</time></trkpt><trkpt lat="44.41087544726659" lon="8.699533973465087"><ele>10.0</ele><time>2026-04-17T08:24:27.999Z</time></trkpt><trkpt lat="44.410815155006766" lon="8.699295049517877"><ele>10.0</ele><time>2026-04-17T08:24:28.999Z</time></trkpt><trkpt lat="44.410752135824765" lon="8.69905319994499"><ele>16.0</ele><time>2026-04-17T08:24:29.999Z</time></trkpt><trkpt lat="44.410699847518735" lon="8.698800031591391"><ele>22.0</ele><time>2026-04-17T08:24:30.999Z</time></trkpt><trkpt lat="44.41064919763234" lon="8.698545351736062"><ele>28.0</ele><time>2026-04-17T08:24:31.999Z</time></trkpt><trkpt lat="44.41059688735653" lon="8.6982908052784"><ele>32.333333333333336</ele><time>2026-04-17T08:24:32.999Z</time></trkpt><trkpt lat="44.41055324164014" lon="8.698032376269081"><ele>36.666666666666664</ele><time>2026-04-17T08:24:33.999Z</time></trkpt><trkpt lat="44.41052742461064" lon="8.697765727841643"><ele>41.0</ele><time>2026-04-17T08:24:34.999Z</time></trkpt><trkpt lat="44.410515698452606" lon="8.697489188596316"><ele>34.666666666666664</ele><time>2026-04-17T08:24:35.999Z</time></trkpt><trkpt lat="44.410485395035316" lon="8.6972087593961"><ele>28.333333333333332</ele><time>2026-04-17T08:24:36.999Z</time></trkpt><trkpt lat="44.41043767198264" lon="8.696923205800347"><ele>22.0</ele><time>2026-04-17T08:24:37.999Z</time></trkpt><trkpt lat="44.41038882467549" lon="8.696644630699586"><ele>22.0</ele><time>2026-04-17T08:24:38.999Z</time></trkpt><trkpt lat="44.41031894279496" lon="8.696361840952699"><ele>22.0</ele><time>2026-04-17T08:24:39.999Z</time></trkpt><trkpt lat="44.41022704312948" lon="8.69607749351451"><ele>22.0</ele><time>2026-04-17T08:24:41.018Z</time></trkpt><trkpt lat="44.410120054184844" lon="8.69579813379181"><ele>28.0</ele><time>2026-04-17T08:24:42.02Z</time></trkpt><trkpt lat="44.40999896119592" lon="8.69552757133902"><ele>34.0</ele><time>2026-04-17T08:24:43.021Z</time></trkpt><trkpt lat="44.4098709703329" lon="8.695259473172245"><ele>36.0</ele><time>2026-04-17T08:24:44.021Z</time></trkpt><trkpt lat="44.409737477513076" lon="8.694990094629839"><ele>38.0</ele><time>2026-04-17T08:24:45.022Z</time></trkpt><trkpt lat="44.4096031922018" lon="8.69472510970462"><ele>29.666666666666664</ele><time>2026-04-17T08:24:45.999Z</time></trkpt><trkpt lat="44.40949163485892" lon="8.694577979513031"><ele>21.333333333333332</ele><time>2026-04-17T08:24:46.999Z</time></trkpt><trkpt lat="44.409363539748256" lon="8.69433272640255"><ele>13.0</ele><time>2026-04-17T08:24:47.999Z</time></trkpt><trkpt lat="44.40923493343158" lon="8.694091570615003"><ele>13.0</ele><time>2026-04-17T08:24:49Z</time></trkpt><trkpt lat="44.40910736943369" lon="8.693852479229266"><ele>13.0</ele><time>2026-04-17T08:24:50Z</time></trkpt><trkpt lat="44.4089846215632" lon="8.693620248733671"><ele>13.0</ele><time>2026-04-17T08:24:51Z</time></trkpt><trkpt lat="44.40886704355606" lon="8.693400146434595"><ele>11.333333333333332</ele><time>2026-04-17T08:24:52Z</time></trkpt><trkpt lat="44.40876055643285" lon="8.693196102713403"><ele>9.666666666666666</ele><time>2026-04-17T08:24:53Z</time></trkpt><trkpt lat="44.40866099547934" lon="8.693004942223533"><ele>8.0</ele><time>2026-04-17T08:24:54Z</time></trkpt><trkpt lat="44.40857185003545" lon="8.692811895439307"><ele>10.666666666666666</ele><time>2026-04-17T08:24:55Z</time></trkpt><trkpt lat="44.40847802874967" lon="8.692636569075706"><ele>13.333333333333332</ele><time>2026-04-17T08:24:56Z</time></trkpt><trkpt lat="44.40838585849658" lon="8.692462557607822"><ele>16.0</ele><time>2026-04-17T08:24:57Z</time></trkpt><trkpt lat="44.40830049644058" lon="8.692285495722098"><ele>16.0</ele><time>2026-04-17T08:24:58Z</time></trkpt><trkpt lat="44.4082111224216" lon="8.692111529413326"><ele>16.0</ele><time>2026-04-17T08:24:59Z</time></trkpt><trkpt lat="44.40812455273039" lon="8.691950579851266"><ele>16.0</ele><time>2026-04-17T08:25:00Z</time></trkpt><trkpt lat="44.40804137125328" lon="8.691799704654368"><ele>16.0</ele><time>2026-04-17T08:25:01Z</time></trkpt><trkpt lat="44.40796365773423" lon="8.691647858140653"><ele>13.25</ele><time>2026-04-17T08:25:02Z</time></trkpt><trkpt lat="44.40788574419309" lon="8.691508220247668"><ele>10.5</ele><time>2026-04-17T08:25:03Z</time></trkpt><trkpt lat="44.40781177146033" lon="8.691365450398074"><ele>7.75</ele><time>2026-04-17T08:25:04Z</time></trkpt><trkpt lat="44.40774226336077" lon="8.691230073107272"><ele>5.0</ele><time>2026-04-17T08:25:05Z</time></trkpt><trkpt lat="44.407676232495106" lon="8.691106328292392"><ele>5.4</ele><time>2026-04-17T08:25:06Z</time></trkpt><trkpt lat="44.40761166497633" lon="8.690980577365494"><ele>5.8</ele><time>2026-04-17T08:25:07Z</time></trkpt><trkpt lat="44.40754352687703" lon="8.690859099006557"><ele>6.199999999999999</ele><time>2026-04-17T08:25:08Z</time></trkpt><trkpt lat="44.40747906722651" lon="8.690738014368904"><ele>6.6</ele><time>2026-04-17T08:25:09Z</time></trkpt><trkpt lat="44.4074173474155" lon="8.69061933529745"><ele>7.0</ele><time>2026-04-17T08:25:10Z</time></trkpt><trkpt lat="44.407351669721045" lon="8.690490902506445"><ele>7.0</ele><time>2026-04-17T08:25:11Z</time></trkpt><trkpt lat="44.407281184141645" lon="8.690357318338727"><ele>7.0</ele><time>2026-04-17T08:25:12Z</time></trkpt><trkpt lat="44.407214360795685" lon="8.690220110861489"><ele>7.0</ele><time>2026-04-17T08:25:13Z</time></trkpt><trkpt lat="44.40714604735471" lon="8.690080051390842"><ele>7.0</ele><time>2026-04-17T08:25:14Z</time></trkpt><trkpt lat="44.407077065679125" lon="8.689941321368627"><ele>7.5</ele><time>2026-04-17T08:25:15Z</time></trkpt><trkpt lat="44.407002078768556" lon="8.689805267706156"><ele>8.0</ele><time>2026-04-17T08:25:16Z</time></trkpt><trkpt lat="44.40692755696871" lon="8.68966999202166"><ele>8.5</ele><time>2026-04-17T08:25:17Z</time></trkpt><trkpt lat="44.406850563797335" lon="8.689530929761451"><ele>9.0</ele><time>2026-04-17T08:25:18Z</time></trkpt><trkpt lat="44.40677499087388" lon="8.689394189377813"><ele>9.0</ele><time>2026-04-17T08:25:19Z</time></trkpt><trkpt lat="44.406697318308865" lon="8.689253988109225"><ele>9.0</ele><time>2026-04-17T08:25:20Z</time></trkpt><trkpt lat="44.40660873736824" lon="8.689117188296756"><ele>9.0</ele><time>2026-04-17T08:25:21Z</time></trkpt><trkpt lat="44.40651476942428" lon="8.688999922642617"><ele>9.0</ele><time>2026-04-17T08:25:22Z</time></trkpt><trkpt lat="44.40641551847057" lon="8.688926031866174"><ele>8.4</ele><time>2026-04-17T08:25:23Z</time></trkpt><trkpt lat="44.40631853006929" lon="8.68884896183346"><ele>7.800000000000001</ele><time>2026-04-17T08:25:24Z</time></trkpt><trkpt lat="44.40623152309113" lon="8.688775709606796"><ele>7.199999999999999</ele><time>2026-04-17T08:25:25Z</time></trkpt><trkpt lat="44.40614343838588" lon="8.688702151319761"><ele>6.6</ele><time>2026-04-17T08:25:26Z</time></trkpt><trkpt lat="44.406054523032395" lon="8.688622472694844"><ele>6.0</ele><time>2026-04-17T08:25:27Z</time></trkpt><trkpt lat="44.40597025878313" lon="8.688525363375158"><ele>6.0</ele><time>2026-04-17T08:25:28Z</time></trkpt><trkpt lat="44.40590813729346" lon="8.688437966728653"><ele>6.0</ele><time>2026-04-17T08:25:29Z</time></trkpt><trkpt lat="44.40586316162087" lon="8.688365387688922"><ele>6.0</ele><time>2026-04-17T08:25:30Z</time></trkpt><trkpt lat="44.40583517303843" lon="8.688281742565223"><ele>6.0</ele><time>2026-04-17T08:25:31Z</time></trkpt><trkpt lat="44.40578019004166" lon="8.688194630682842"><ele>6.0</ele><time>2026-04-17T08:25:32Z</time></trkpt><trkpt lat="44.405722475823495" lon="8.688094715060837"><ele>6.0</ele><time>2026-04-17T08:25:33Z</time></trkpt><trkpt lat="44.4056586289771" lon="8.687985821525706"><ele>6.0</ele><time>2026-04-17T08:25:34Z</time></trkpt><trkpt lat="44.40559629496895" lon="8.687869710147242"><ele>6.0</ele><time>2026-04-17T08:25:35Z</time></trkpt><trkpt lat="44.40553092435767" lon="8.687749123239088"><ele>6.0</ele><time>2026-04-17T08:25:36Z</time></trkpt><trkpt lat="44.40546764382805" lon="8.687621809790862"><ele>6.0</ele><time>2026-04-17T08:25:37Z</time></trkpt><trkpt lat="44.40540471536203" lon="8.687508216937886"><ele>6.0</ele><time>2026-04-17T08:25:38Z</time></trkpt><trkpt lat="44.405334777240014" lon="8.687396152744858"><ele>5.8</ele><time>2026-04-17T08:25:39Z</time></trkpt><trkpt lat="44.405264155515596" lon="8.687294178081517"><ele>5.6</ele><time>2026-04-17T08:25:40Z</time></trkpt><trkpt lat="44.405190500258236" lon="8.687197225995169"><ele>5.4</ele><time>2026-04-17T08:25:41Z</time></trkpt><trkpt lat="44.405117821547485" lon="8.687115592346997"><ele>5.2</ele><time>2026-04-17T08:25:42Z</time></trkpt><trkpt lat="44.40504740183668" lon="8.687036269280169"><ele>5.0</ele><time>2026-04-17T08:25:43Z</time></trkpt><trkpt lat="44.404980930672835" lon="8.686952339413477"><ele>5.0</ele><time>2026-04-17T08:25:44Z</time></trkpt><trkpt lat="44.40492198596483" lon="8.686877898002399"><ele>5.0</ele><time>2026-04-17T08:25:45Z</time></trkpt><trkpt lat="44.40486033481155" lon="8.686831068721542"><ele>5.0</ele><time>2026-04-17T08:25:46Z</time></trkpt><trkpt lat="44.404765105102484" lon="8.686751842391221"><ele>5.0</ele><time>2026-04-17T08:25:48Z</time></trkpt><trkpt lat="44.40471120437741" lon="8.686701485484269"><ele>5.0</ele><time>2026-04-17T08:25:50Z</time></trkpt><trkpt lat="44.4046393549558" lon="8.686647040441438"><ele>5.0</ele><time>2026-04-17T08:25:59.999Z</time></trkpt><trkpt lat="44.40458116488272" lon="8.68658919551977"><ele>5.0</ele><time>2026-04-17T08:26:00.999Z</time></trkpt><trkpt lat="44.40449599429048" lon="8.686521070603039"><ele>5.0</ele><time>2026-04-17T08:26:01.999Z</time></trkpt><trkpt lat="44.40439024539835" lon="8.686421442024942"><ele>5.0</ele><time>2026-04-17T08:26:02.999Z</time></trkpt><trkpt lat="44.40429899974954" lon="8.686327135808142"><ele>5.0</ele><time>2026-04-17T08:26:03.999Z</time></trkpt><trkpt lat="44.40421680830098" lon="8.686221195441638"><ele>5.0</ele><time>2026-04-17T08:26:04.999Z</time></trkpt><trkpt lat="44.40414085690137" lon="8.68615386833604"><ele>5.0</ele><time>2026-04-17T08:26:05.999Z</time></trkpt><trkpt lat="44.40407266345346" lon="8.686102682189103"><ele>5.0</ele><time>2026-04-17T08:26:06.999Z</time></trkpt><trkpt lat="44.40398850483483" lon="8.686029225766186"><ele>5.0</ele><time>2026-04-17T08:26:07.999Z</time></trkpt><trkpt lat="44.403916608426755" lon="8.685949422331378"><ele>5.0</ele><time>2026-04-17T08:26:08.999Z</time></trkpt><trkpt lat="44.40385162984575" lon="8.685877112426756"><ele>5.0</ele><time>2026-04-17T08:26:09.999Z</time></trkpt><trkpt lat="44.403792758214195" lon="8.685826989576313"><ele>5.166666666666667</ele><time>2026-04-17T08:26:10.999Z</time></trkpt><trkpt lat="44.403735937145" lon="8.685787990860655"><ele>5.333333333333334</ele><time>2026-04-17T08:26:11.999Z</time></trkpt><trkpt lat="44.40364419943207" lon="8.685737013199935"><ele>5.5</ele><time>2026-04-17T08:26:13.999Z</time></trkpt><trkpt lat="44.403582355383435" lon="8.685710345332593"><ele>5.666666666666667</ele><time>2026-04-17T08:26:17.999Z</time></trkpt><trkpt lat="44.403509516864396" lon="8.685648082724944"><ele>5.833333333333333</ele><time>2026-04-17T08:26:19.999Z</time></trkpt><trkpt lat="44.40338679814968" lon="8.685613534723712"><ele>6.0</ele><time>2026-04-17T08:26:21.999Z</time></trkpt><trkpt lat="44.40330304849466" lon="8.685591981991514"><ele>6.0</ele><time>2026-04-17T08:26:23.999Z</time></trkpt><trkpt lat="44.40311008111382" lon="8.685531553552492"><ele>6.0</ele><time>2026-04-17T08:26:32.999Z</time></trkpt><trkpt lat="44.40302110503362" lon="8.685539644729978"><ele>6.0</ele><time>2026-04-17T08:26:33.999Z</time></trkpt><trkpt lat="44.402927018885784" lon="8.685542543676664"><ele>6.0</ele><time>2026-04-17T08:26:34.999Z</time></trkpt><trkpt lat="44.40285145320751" lon="8.685543201120574"><ele>5.5</ele><time>2026-04-17T08:26:35.999Z</time></trkpt><trkpt lat="44.40275558719429" lon="8.685536634991696"><ele>5.0</ele><time>2026-04-17T08:26:36.999Z</time></trkpt><trkpt lat="44.40263598295555" lon="8.685530586162423"><ele>4.5</ele><time>2026-04-17T08:26:37.999Z</time></trkpt><trkpt lat="44.40250964028892" lon="8.685529432675557"><ele>4.0</ele><time>2026-04-17T08:26:38.999Z</time></trkpt><trkpt lat="44.402389676881945" lon="8.68552248612203"><ele>4.0</ele><time>2026-04-17T08:26:39.999Z</time></trkpt><trkpt lat="44.4022854559509" lon="8.685512800393445"><ele>4.0</ele><time>2026-04-17T08:26:40.999Z</time></trkpt><trkpt lat="44.402169682042164" lon="8.685509113199815"><ele>4.0</ele><time>2026-04-17T08:26:41.999Z</time></trkpt><trkpt lat="44.40204275008703" lon="8.6855193903098"><ele>4.0</ele><time>2026-04-17T08:26:42.999Z</time></trkpt><trkpt lat="44.40190682698676" lon="8.685491489027276"><ele>4.2</ele><time>2026-04-17T08:26:43.999Z</time></trkpt><trkpt lat="44.40178270070122" lon="8.685494020942361"><ele>4.4</ele><time>2026-04-17T08:26:44.999Z</time></trkpt><trkpt lat="44.40167700930544" lon="8.685480249740085"><ele>4.6</ele><time>2026-04-17T08:26:45.999Z</time></trkpt><trkpt lat="44.401584242180725" lon="8.6854727227244"><ele>4.8</ele><time>2026-04-17T08:26:46.999Z</time></trkpt><trkpt lat="44.401495533057535" lon="8.685471399469872"><ele>5.0</ele><time>2026-04-17T08:26:47.999Z</time></trkpt><trkpt lat="44.40140884907799" lon="8.685462691709137"><ele>5.0</ele><time>2026-04-17T08:26:48.999Z</time></trkpt><trkpt lat="44.401321671545865" lon="8.68545505036891"><ele>5.0</ele><time>2026-04-17T08:26:49.999Z</time></trkpt><trkpt lat="44.40122951505142" lon="8.68544380962033"><ele>5.0</ele><time>2026-04-17T08:26:50.999Z</time></trkpt><trkpt lat="44.4011410540291" lon="8.685436584726808"><ele>5.0</ele><time>2026-04-17T08:26:51.999Z</time></trkpt><trkpt lat="44.40106037061263" lon="8.685424715083961"><ele>5.0</ele><time>2026-04-17T08:26:52.999Z</time></trkpt><trkpt lat="44.40099173855558" lon="8.685416289874501"><ele>5.0</ele><time>2026-04-17T08:26:53.999Z</time></trkpt><trkpt lat="44.40086900660104" lon="8.685357640232278"><ele>5.0</ele><time>2026-04-17T08:26:56Z</time></trkpt><trkpt lat="44.40074886217927" lon="8.685305075056446"><ele>5.0</ele><time>2026-04-17T08:26:58Z</time></trkpt><trkpt lat="44.40067906969669" lon="8.685278174650064"><ele>5.0</ele><time>2026-04-17T08:26:59Z</time></trkpt><trkpt lat="44.400609839018415" lon="8.68525160821413"><ele>5.0</ele><time>2026-04-17T08:27:00Z</time></trkpt><trkpt lat="44.40053639929266" lon="8.685202715559075"><ele>5.0</ele><time>2026-04-17T08:27:01Z</time></trkpt><trkpt lat="44.4004641494958" lon="8.68514265431927"><ele>5.0</ele><time>2026-04-17T08:27:02Z</time></trkpt><trkpt lat="44.40037836149895" lon="8.68501399572431"><ele>5.571428571428571</ele><time>2026-04-17T08:27:04Z</time></trkpt><trkpt lat="44.40034183129235" lon="8.68492709597908"><ele>6.142857142857143</ele><time>2026-04-17T08:27:05Z</time></trkpt><trkpt lat="44.400323172822844" lon="8.684835561127022"><ele>6.714285714285715</ele><time>2026-04-17T08:27:06Z</time></trkpt><trkpt lat="44.400319183566936" lon="8.6847387773248"><ele>7.2857142857142865</ele><time>2026-04-17T08:27:07Z</time></trkpt><trkpt lat="44.400328338645885" lon="8.684640105295696"><ele>7.857142857142858</ele><time>2026-04-17T08:27:08Z</time></trkpt><trkpt lat="44.400340913191215" lon="8.684548444499756"><ele>8.428571428571429</ele><time>2026-04-17T08:27:09Z</time></trkpt><trkpt lat="44.40035371912093" lon="8.684449943241741"><ele>9.0</ele><time>2026-04-17T08:27:10Z</time></trkpt><trkpt lat="44.40037116482104" lon="8.684321919318908"><ele>10.5</ele><time>2026-04-17T08:27:11Z</time></trkpt><trkpt lat="44.40039209044901" lon="8.684192412550816"><ele>12.0</ele><time>2026-04-17T08:27:12Z</time></trkpt><trkpt lat="44.40040814991039" lon="8.684086744367352"><ele>13.5</ele><time>2026-04-17T08:27:13Z</time></trkpt><trkpt lat="44.40043052107807" lon="8.683973564164313"><ele>15.0</ele><time>2026-04-17T08:27:14Z</time></trkpt><trkpt lat="44.40045096235115" lon="8.683862142201306"><ele>16.5</ele><time>2026-04-17T08:27:15Z</time></trkpt><trkpt lat="44.400462616750964" lon="8.683712100231181"><ele>18.0</ele><time>2026-04-17T08:27:16Z</time></trkpt><trkpt lat="44.4004887651147" lon="8.6835225860672"><ele>15.333333333333334</ele><time>2026-04-17T08:27:17Z</time></trkpt><trkpt lat="44.4005367670995" lon="8.683300207610955"><ele>12.666666666666668</ele><time>2026-04-17T08:27:18Z</time></trkpt><trkpt lat="44.40058743455562" lon="8.683074521193221"><ele>10.0</ele><time>2026-04-17T08:27:19Z</time></trkpt><trkpt lat="44.40063556247859" lon="8.682785952263249"><ele>10.0</ele><time>2026-04-17T08:27:20Z</time></trkpt><trkpt lat="44.40068129669106" lon="8.682556054002855"><ele>10.0</ele><time>2026-04-17T08:27:21Z</time></trkpt><trkpt lat="44.40071204442296" lon="8.68234202838798"><ele>10.0</ele><time>2026-04-17T08:27:22Z</time></trkpt><trkpt lat="44.400720095573234" lon="8.682152064991948"><ele>10.0</ele><time>2026-04-17T08:27:23Z</time></trkpt><trkpt lat="44.40070941635874" lon="8.681946726196903"><ele>10.0</ele><time>2026-04-17T08:27:24Z</time></trkpt><trkpt lat="44.40062923969396" lon="8.681753360577547"><ele>10.0</ele><time>2026-04-17T08:27:25Z</time></trkpt><trkpt lat="44.40055617484077" lon="8.681575528198469"><ele>10.5</ele><time>2026-04-17T08:27:26Z</time></trkpt><trkpt lat="44.40049723689737" lon="8.681405227192036"><ele>11.0</ele><time>2026-04-17T08:27:27Z</time></trkpt><trkpt lat="44.40049507183423" lon="8.68121317317861"><ele>11.5</ele><time>2026-04-17T08:27:28Z</time></trkpt><trkpt lat="44.40054521786775" lon="8.681012044044667"><ele>12.0</ele><time>2026-04-17T08:27:29Z</time></trkpt><trkpt lat="44.40057838921705" lon="8.680799568027398"><ele>12.0</ele><time>2026-04-17T08:27:30Z</time></trkpt><trkpt lat="44.400575167889066" lon="8.680632856570243"><ele>12.0</ele><time>2026-04-17T08:27:31Z</time></trkpt><trkpt lat="44.400570466634846" lon="8.680502022381383"><ele>12.0</ele><time>2026-04-17T08:27:32Z</time></trkpt><trkpt lat="44.40057119400714" lon="8.680357683228022"><ele>12.0</ele><time>2026-04-17T08:27:34Z</time></trkpt><trkpt lat="44.4006021273981" lon="8.680250638808353"><ele>12.0</ele><time>2026-04-17T08:27:37Z</time></trkpt><trkpt lat="44.400617059056025" lon="8.680154203786756"><ele>12.333333333333334</ele><time>2026-04-17T08:27:38Z</time></trkpt><trkpt lat="44.40061831774032" lon="8.680050524611953"><ele>12.666666666666668</ele><time>2026-04-17T08:27:39Z</time></trkpt><trkpt lat="44.40059214895327" lon="8.679960100738821"><ele>13.0</ele><time>2026-04-17T08:27:40Z</time></trkpt><trkpt lat="44.40058400940702" lon="8.679855917839971"><ele>13.333333333333334</ele><time>2026-04-17T08:27:41Z</time></trkpt><trkpt lat="44.40060722385349" lon="8.679723859538573"><ele>13.666666666666668</ele><time>2026-04-17T08:27:42Z</time></trkpt><trkpt lat="44.40066826984045" lon="8.679574677729844"><ele>14.0</ele><time>2026-04-17T08:27:43Z</time></trkpt><trkpt lat="44.40073980051661" lon="8.679428001501629"><ele>16.75</ele><time>2026-04-17T08:27:44Z</time></trkpt><trkpt lat="44.40080125718564" lon="8.679285409256098"><ele>19.5</ele><time>2026-04-17T08:27:45Z</time></trkpt><trkpt lat="44.400894267707216" lon="8.679126879943194"><ele>22.25</ele><time>2026-04-17T08:27:46Z</time></trkpt><trkpt lat="44.40098046707542" lon="8.678962775365319"><ele>25.0</ele><time>2026-04-17T08:27:47Z</time></trkpt><trkpt lat="44.40105893347094" lon="8.678792268522141"><ele>25.0</ele><time>2026-04-17T08:27:48Z</time></trkpt><trkpt lat="44.401140304704526" lon="8.67860924424135"><ele>25.0</ele><time>2026-04-17T08:27:49Z</time></trkpt><trkpt lat="44.40120448021806" lon="8.678411715258465"><ele>25.0</ele><time>2026-04-17T08:27:50Z</time></trkpt><trkpt lat="44.40125767355872" lon="8.678239850449152"><ele>25.0</ele><time>2026-04-17T08:27:51Z</time></trkpt><trkpt lat="44.40133522034826" lon="8.678101415288515"><ele>25.0</ele><time>2026-04-17T08:27:52Z</time></trkpt><trkpt lat="44.401421233946394" lon="8.677982049626713"><ele>25.0</ele><time>2026-04-17T08:27:53Z</time></trkpt><trkpt lat="44.401485370565524" lon="8.677859102552768"><ele>25.0</ele><time>2026-04-17T08:27:54Z</time></trkpt><trkpt lat="44.40153786686108" lon="8.677692076242906"><ele>25.0</ele><time>2026-04-17T08:27:55Z</time></trkpt><trkpt lat="44.40157142295958" lon="8.67754297097241"><ele>25.0</ele><time>2026-04-17T08:27:56Z</time></trkpt><trkpt lat="44.40160510253722" lon="8.677377663024465"><ele>25.0</ele><time>2026-04-17T08:27:57Z</time></trkpt><trkpt lat="44.40162977480006" lon="8.677211083233093"><ele>25.0</ele><time>2026-04-17T08:27:58Z</time></trkpt><trkpt lat="44.401653149553006" lon="8.67703474009087"><ele>25.0</ele><time>2026-04-17T08:27:59Z</time></trkpt><trkpt lat="44.40167387881364" lon="8.676853572857745"><ele>26.8</ele><time>2026-04-17T08:28:00Z</time></trkpt><trkpt lat="44.40168661208719" lon="8.676702507983297"><ele>28.6</ele><time>2026-04-17T08:28:01Z</time></trkpt><trkpt lat="44.401696863164545" lon="8.676549343272391"><ele>30.4</ele><time>2026-04-17T08:28:02Z</time></trkpt><trkpt lat="44.40170316279047" lon="8.676397337293835"><ele>32.2</ele><time>2026-04-17T08:28:03Z</time></trkpt><trkpt lat="44.401685079051326" lon="8.676241423572002"><ele>34.0</ele><time>2026-04-17T08:28:04Z</time></trkpt><trkpt lat="44.40165581523732" lon="8.676089628902746"><ele>34.2</ele><time>2026-04-17T08:28:05Z</time></trkpt><trkpt lat="44.40160922709081" lon="8.675945253615746"><ele>34.4</ele><time>2026-04-17T08:28:05.999Z</time></trkpt><trkpt lat="44.401570293919875" lon="8.675819737739388"><ele>34.6</ele><time>2026-04-17T08:28:06.999Z</time></trkpt><trkpt lat="44.40155460085418" lon="8.675685209327689"><ele>34.8</ele><time>2026-04-17T08:28:07.999Z</time></trkpt><trkpt lat="44.40154722277736" lon="8.675546607378305"><ele>35.0</ele><time>2026-04-17T08:28:08.999Z</time></trkpt><trkpt lat="44.40154447421045" lon="8.67544141113245"><ele>35.0</ele><time>2026-04-17T08:28:09.999Z</time></trkpt><trkpt lat="44.40153198393256" lon="8.67554491929072"><ele>35.0</ele><time>2026-04-17T08:28:19.999Z</time></trkpt><trkpt lat="44.401526677794415" lon="8.675666625197909"><ele>35.0</ele><time>2026-04-17T08:28:20.999Z</time></trkpt><trkpt lat="44.401550988447184" lon="8.675802180428917"><ele>35.0</ele><time>2026-04-17T08:28:21.999Z</time></trkpt><trkpt lat="44.40157746229736" lon="8.675959268533267"><ele>35.0</ele><time>2026-04-17T08:28:22.999Z</time></trkpt><trkpt lat="44.40161870134547" lon="8.676118933839001"><ele>34.8</ele><time>2026-04-17T08:28:23.999Z</time></trkpt><trkpt lat="44.401655701037036" lon="8.676254363107661"><ele>34.6</ele><time>2026-04-17T08:28:24.999Z</time></trkpt><trkpt lat="44.40165877074364" lon="8.676385833015198"><ele>34.4</ele><time>2026-04-17T08:28:25.999Z</time></trkpt><trkpt lat="44.40165799811924" lon="8.67654030085775"><ele>34.2</ele><time>2026-04-17T08:28:26.999Z</time></trkpt><trkpt lat="44.401637487123836" lon="8.676724414434098"><ele>34.0</ele><time>2026-04-17T08:28:27.999Z</time></trkpt><trkpt lat="44.40161483464472" lon="8.676925130676677"><ele>31.75</ele><time>2026-04-17T08:28:28.999Z</time></trkpt><trkpt lat="44.40159221347932" lon="8.677127827355093"><ele>29.5</ele><time>2026-04-17T08:28:29.999Z</time></trkpt><trkpt lat="44.401567055327426" lon="8.67732431552389"><ele>27.25</ele><time>2026-04-17T08:28:30.999Z</time></trkpt><trkpt lat="44.40154816886628" lon="8.677516440915733"><ele>25.0</ele><time>2026-04-17T08:28:31.999Z</time></trkpt><trkpt lat="44.40151392374423" lon="8.677687761722154"><ele>23.5</ele><time>2026-04-17T08:28:32.999Z</time></trkpt><trkpt lat="44.40144953016038" lon="8.677835790900755"><ele>22.0</ele><time>2026-04-17T08:28:33.999Z</time></trkpt><trkpt lat="44.401381032092594" lon="8.677971245413838"><ele>20.5</ele><time>2026-04-17T08:28:34.999Z</time></trkpt><trkpt lat="44.4012985710051" lon="8.678093577626266"><ele>19.0</ele><time>2026-04-17T08:28:35.999Z</time></trkpt><trkpt lat="44.40120837267074" lon="8.678230614210461"><ele>20.5</ele><time>2026-04-17T08:28:36.999Z</time></trkpt><trkpt lat="44.401155358211795" lon="8.678389348595475"><ele>22.0</ele><time>2026-04-17T08:28:37.999Z</time></trkpt><trkpt lat="44.40110269254051" lon="8.678548634672303"><ele>23.5</ele><time>2026-04-17T08:28:38.999Z</time></trkpt><trkpt lat="44.401052811793186" lon="8.678701523641221"><ele>25.0</ele><time>2026-04-17T08:28:39.999Z</time></trkpt><trkpt lat="44.40100170332669" lon="8.678829372966774"><ele>25.0</ele><time>2026-04-17T08:28:40.999Z</time></trkpt><trkpt lat="44.40091906064865" lon="8.678981534902402"><ele>25.0</ele><time>2026-04-17T08:28:41.999Z</time></trkpt><trkpt lat="44.40087068086536" lon="8.679140975394551"><ele>25.0</ele><time>2026-04-17T08:28:42.999Z</time></trkpt><trkpt lat="44.400800219555265" lon="8.679273123347095"><ele>25.0</ele><time>2026-04-17T08:28:43.999Z</time></trkpt><trkpt lat="44.400735046371025" lon="8.679414143972767"><ele>24.4</ele><time>2026-04-17T08:28:44.999Z</time></trkpt><trkpt lat="44.40066733945675" lon="8.679549686933953"><ele>23.8</ele><time>2026-04-17T08:28:45.999Z</time></trkpt><trkpt lat="44.40062417556832" lon="8.679614115628675"><ele>23.200000000000003</ele><time>2026-04-17T08:28:46.999Z</time></trkpt><trkpt lat="44.40055082340494" lon="8.679757202173784"><ele>22.6</ele><time>2026-04-17T08:28:48.999Z</time></trkpt><trkpt lat="44.400512866383124" lon="8.679873601899839"><ele>22.0</ele><time>2026-04-17T08:28:50.999Z</time></trkpt><trkpt lat="44.40046376413994" lon="8.679935656858104"><ele>22.0</ele><time>2026-04-17T08:28:52.999Z</time></trkpt><trkpt lat="44.40038263361359" lon="8.680007128414367"><ele>22.0</ele><time>2026-04-17T08:28:55.999Z</time></trkpt><trkpt lat="44.40035138352314" lon="8.680096025798434"><ele>22.0</ele><time>2026-04-17T08:28:57.999Z</time></trkpt><trkpt lat="44.400366867843296" lon="8.68020869872234"><ele>22.0</ele><time>2026-04-17T08:28:59.999Z</time></trkpt><trkpt lat="44.400436999888285" lon="8.680311238026189"><ele>22.0</ele><time>2026-04-17T08:29:02Z</time></trkpt><trkpt lat="44.400543359341285" lon="8.680309105721841"><ele>20.400000000000002</ele><time>2026-04-17T08:29:04Z</time></trkpt><trkpt lat="44.40062582553655" lon="8.680137929051822"><ele>18.8</ele><time>2026-04-17T08:29:06Z</time></trkpt><trkpt lat="44.40065302382312" lon="8.680024440359665"><ele>17.2</ele><time>2026-04-17T08:29:07Z</time></trkpt><trkpt lat="44.40069341209029" lon="8.67993833369089"><ele>15.6</ele><time>2026-04-17T08:29:08Z</time></trkpt><trkpt lat="44.400752321616125" lon="8.679867042692374"><ele>14.0</ele><time>2026-04-17T08:29:09Z</time></trkpt><trkpt lat="44.40082232078468" lon="8.679797582883186"><ele>14.0</ele><time>2026-04-17T08:29:10Z</time></trkpt><trkpt lat="44.40088763016297" lon="8.679703924039828"><ele>13.999999999999998</ele><time>2026-04-17T08:29:11Z</time></trkpt><trkpt lat="44.400956362498114" lon="8.679604599787647"><ele>13.999999999999998</ele><time>2026-04-17T08:29:12Z</time></trkpt><trkpt lat="44.40102266416577" lon="8.679504739185791"><ele>14.0</ele><time>2026-04-17T08:29:13Z</time></trkpt><trkpt lat="44.40108162268424" lon="8.679383976928102"><ele>14.0</ele><time>2026-04-17T08:29:14Z</time></trkpt><trkpt lat="44.40113280461762" lon="8.67927307244061"><ele>16.2</ele><time>2026-04-17T08:29:15Z</time></trkpt><trkpt lat="44.40116556542458" lon="8.67915637606234"><ele>18.4</ele><time>2026-04-17T08:29:16Z</time></trkpt><trkpt lat="44.40120999412848" lon="8.67902947579826"><ele>20.6</ele><time>2026-04-17T08:29:17Z</time></trkpt><trkpt lat="44.40123862644574" lon="8.678891852388158"><ele>22.8</ele><time>2026-04-17T08:29:18Z</time></trkpt><trkpt lat="44.40124895526882" lon="8.678754227930119"><ele>25.0</ele><time>2026-04-17T08:29:19Z</time></trkpt><trkpt lat="44.40124821373919" lon="8.67860431225683"><ele>23.8</ele><time>2026-04-17T08:29:20Z</time></trkpt><trkpt lat="44.40124736620038" lon="8.67846735485779"><ele>22.6</ele><time>2026-04-17T08:29:21Z</time></trkpt><trkpt lat="44.40128824652962" lon="8.678346269296922"><ele>21.4</ele><time>2026-04-17T08:29:22Z</time></trkpt><trkpt lat="44.40136079326853" lon="8.678244241644908"><ele>20.2</ele><time>2026-04-17T08:29:23Z</time></trkpt><trkpt lat="44.40143726373399" lon="8.678153245837986"><ele>19.0</ele><time>2026-04-17T08:29:24Z</time></trkpt><trkpt lat="44.401511225061014" lon="8.678040865509788"><ele>19.0</ele><time>2026-04-17T08:29:25Z</time></trkpt><trkpt lat="44.40158247512662" lon="8.677923721351869"><ele>19.0</ele><time>2026-04-17T08:29:26Z</time></trkpt><trkpt lat="44.4016361637087" lon="8.677798913849806"><ele>19.0</ele><time>2026-04-17T08:29:27Z</time></trkpt><trkpt lat="44.401666126452334" lon="8.67765460859243"><ele>19.0</ele><time>2026-04-17T08:29:28Z</time></trkpt><trkpt lat="44.40168555873858" lon="8.677521505887754"><ele>19.0</ele><time>2026-04-17T08:29:29Z</time></trkpt><trkpt lat="44.401702335314674" lon="8.67738757750897"><ele>20.0</ele><time>2026-04-17T08:29:30Z</time></trkpt><trkpt lat="44.401723638393" lon="8.677235605238236"><ele>21.0</ele><time>2026-04-17T08:29:31Z</time></trkpt><trkpt lat="44.401737909165725" lon="8.677110533885148"><ele>22.0</ele><time>2026-04-17T08:29:32Z</time></trkpt><trkpt lat="44.40174869166558" lon="8.676989871060663"><ele>23.0</ele><time>2026-04-17T08:29:33Z</time></trkpt><trkpt lat="44.401772156852786" lon="8.676893757538867"><ele>24.000000000000004</ele><time>2026-04-17T08:29:34Z</time></trkpt><trkpt lat="44.40182778025044" lon="8.676839565237286"><ele>25.0</ele><time>2026-04-17T08:29:35Z</time></trkpt><trkpt lat="44.40189465617388" lon="8.676816690998654"><ele>25.000000000000004</ele><time>2026-04-17T08:29:36Z</time></trkpt><trkpt lat="44.40197801376374" lon="8.676849291578"><ele>25.0</ele><time>2026-04-17T08:29:37Z</time></trkpt><trkpt lat="44.40204913416889" lon="8.676902737107376"><ele>25.0</ele><time>2026-04-17T08:29:38Z</time></trkpt><trkpt lat="44.402101798064606" lon="8.676988409431173"><ele>25.0</ele><time>2026-04-17T08:29:39Z</time></trkpt><trkpt lat="44.40215358754888" lon="8.67707447857971"><ele>25.000000000000004</ele><time>2026-04-17T08:29:40Z</time></trkpt><trkpt lat="44.402203886296824" lon="8.677151796681452"><ele>25.0</ele><time>2026-04-17T08:29:41Z</time></trkpt><trkpt lat="44.40225039106168" lon="8.67722633795721"><ele>24.666666666666668</ele><time>2026-04-17T08:29:42Z</time></trkpt><trkpt lat="44.40229034079666" lon="8.677319407897194"><ele>24.333333333333336</ele><time>2026-04-17T08:29:43Z</time></trkpt><trkpt lat="44.40234700611627" lon="8.67741497939662"><ele>24.0</ele><time>2026-04-17T08:29:44Z</time></trkpt><trkpt lat="44.40240947187558" lon="8.677518909570745"><ele>23.666666666666668</ele><time>2026-04-17T08:29:45Z</time></trkpt><trkpt lat="44.40246640791309" lon="8.677613190095792"><ele>23.333333333333336</ele><time>2026-04-17T08:29:46Z</time></trkpt><trkpt lat="44.40251257309242" lon="8.677707135755853"><ele>23.0</ele><time>2026-04-17T08:29:47Z</time></trkpt><trkpt lat="44.40253840098711" lon="8.677811089068138"><ele>23.0</ele><time>2026-04-17T08:29:48Z</time></trkpt><trkpt lat="44.40256673285055" lon="8.6779233836386"><ele>23.0</ele><time>2026-04-17T08:29:49Z</time></trkpt><trkpt lat="44.402619608578576" lon="8.67801100131547"><ele>23.0</ele><time>2026-04-17T08:29:50Z</time></trkpt><trkpt lat="44.40265298287543" lon="8.678096185078486"><ele>23.0</ele><time>2026-04-17T08:29:51Z</time></trkpt><trkpt lat="44.402694697576166" lon="8.678215576027425"><ele>23.0</ele><time>2026-04-17T08:29:53Z</time></trkpt></trkseg></trk></gpx>